<?xml version="1.0" encoding="UTF-8" standalone="no" ?>
<gpx xmlns="http://www.topografix.com/GPX/1/1" xmlns:xsi="http://www.w3.org/2001/XMLSchema-instance" xsi:schemaLocation="http://www.topografix.com/GPX/1/1 http://www.topografix.com/GPX/1/1/gpx.xsd" version="1.1" creator="VisuGPX - https://www.visugpx.com">
  <metadata>
    <name>Parc Tête d'Or Meyzieu</name>
  </metadata>
  <trk>
    <name><![CDATA[Parc Tête d'Or Meyzieu_1]]></name>
    <trkseg>
      <trkpt lat="45.77778" lon="4.84516">
        <ele>174</ele>
        <time>2016-08-19T07:44:52.000Z</time>
      </trkpt>
      <trkpt lat="45.77775" lon="4.84518">
        <ele>174</ele>
        <time>2016-08-19T07:44:53.000Z</time>
      </trkpt>
      <trkpt lat="45.77772" lon="4.84519">
        <ele>174.19999694824</ele>
        <time>2016-08-19T07:44:54.000Z</time>
      </trkpt>
      <trkpt lat="45.77769" lon="4.8452">
        <ele>174.19999694824</ele>
        <time>2016-08-19T07:44:55.000Z</time>
      </trkpt>
      <trkpt lat="45.77767" lon="4.84521">
        <ele>174.19999694824</ele>
        <time>2016-08-19T07:44:56.000Z</time>
      </trkpt>
      <trkpt lat="45.77764" lon="4.84521">
        <ele>174.19999694824</ele>
        <time>2016-08-19T07:44:57.000Z</time>
      </trkpt>
      <trkpt lat="45.77761" lon="4.84522">
        <ele>174.19999694824</ele>
        <time>2016-08-19T07:44:58.000Z</time>
      </trkpt>
      <trkpt lat="45.77759" lon="4.84523">
        <ele>174.19999694824</ele>
        <time>2016-08-19T07:44:59.000Z</time>
      </trkpt>
      <trkpt lat="45.77755" lon="4.84524">
        <ele>174.39999389648</ele>
        <time>2016-08-19T07:45:00.000Z</time>
      </trkpt>
      <trkpt lat="45.77752" lon="4.84526">
        <ele>174.39999389648</ele>
        <time>2016-08-19T07:45:01.000Z</time>
      </trkpt>
      <trkpt lat="45.77751" lon="4.84527">
        <ele>174.60000610352</ele>
        <time>2016-08-19T07:45:02.000Z</time>
      </trkpt>
      <trkpt lat="45.77749" lon="4.8453">
        <ele>174.60000610352</ele>
        <time>2016-08-19T07:45:03.000Z</time>
      </trkpt>
      <trkpt lat="45.77747" lon="4.84532">
        <ele>174.80000305176</ele>
        <time>2016-08-19T07:45:04.000Z</time>
      </trkpt>
      <trkpt lat="45.77745" lon="4.84533">
        <ele>174.80000305176</ele>
        <time>2016-08-19T07:45:05.000Z</time>
      </trkpt>
      <trkpt lat="45.77743" lon="4.84536">
        <ele>175</ele>
        <time>2016-08-19T07:45:06.000Z</time>
      </trkpt>
      <trkpt lat="45.7774" lon="4.84537">
        <ele>175</ele>
        <time>2016-08-19T07:45:07.000Z</time>
      </trkpt>
      <trkpt lat="45.77737" lon="4.84539">
        <ele>175.19999694824</ele>
        <time>2016-08-19T07:45:08.000Z</time>
      </trkpt>
      <trkpt lat="45.77734" lon="4.8454">
        <ele>175.19999694824</ele>
        <time>2016-08-19T07:45:09.000Z</time>
      </trkpt>
      <trkpt lat="45.77732" lon="4.84541">
        <ele>175.19999694824</ele>
        <time>2016-08-19T07:45:10.000Z</time>
      </trkpt>
      <trkpt lat="45.77729" lon="4.84542">
        <ele>175.19999694824</ele>
        <time>2016-08-19T07:45:11.000Z</time>
      </trkpt>
      <trkpt lat="45.77726" lon="4.84542">
        <ele>175.19999694824</ele>
        <time>2016-08-19T07:45:12.000Z</time>
      </trkpt>
      <trkpt lat="45.77723" lon="4.84543">
        <ele>175.19999694824</ele>
        <time>2016-08-19T07:45:13.000Z</time>
      </trkpt>
      <trkpt lat="45.77721" lon="4.84544">
        <ele>175.19999694824</ele>
        <time>2016-08-19T07:45:14.000Z</time>
      </trkpt>
      <trkpt lat="45.77719" lon="4.84545">
        <ele>175.19999694824</ele>
        <time>2016-08-19T07:45:15.000Z</time>
      </trkpt>
      <trkpt lat="45.77717" lon="4.84546">
        <ele>175.39999389648</ele>
        <time>2016-08-19T07:45:16.000Z</time>
      </trkpt>
      <trkpt lat="45.77715" lon="4.84548">
        <ele>175.39999389648</ele>
        <time>2016-08-19T07:45:17.000Z</time>
      </trkpt>
      <trkpt lat="45.77712" lon="4.84549">
        <ele>175.60000610352</ele>
        <time>2016-08-19T07:45:18.000Z</time>
      </trkpt>
      <trkpt lat="45.7771" lon="4.84551">
        <ele>175.80000305176</ele>
        <time>2016-08-19T07:45:19.000Z</time>
      </trkpt>
      <trkpt lat="45.77708" lon="4.84553">
        <ele>175.80000305176</ele>
        <time>2016-08-19T07:45:20.000Z</time>
      </trkpt>
      <trkpt lat="45.77707" lon="4.84555">
        <ele>176</ele>
        <time>2016-08-19T07:45:21.000Z</time>
      </trkpt>
      <trkpt lat="45.77705" lon="4.84556">
        <ele>176</ele>
        <time>2016-08-19T07:45:22.000Z</time>
      </trkpt>
      <trkpt lat="45.77702" lon="4.84559">
        <ele>176.19999694824</ele>
        <time>2016-08-19T07:45:23.000Z</time>
      </trkpt>
      <trkpt lat="45.77699" lon="4.84561">
        <ele>176.39999389648</ele>
        <time>2016-08-19T07:45:24.000Z</time>
      </trkpt>
      <trkpt lat="45.77697" lon="4.84563">
        <ele>176.39999389648</ele>
        <time>2016-08-19T07:45:25.000Z</time>
      </trkpt>
      <trkpt lat="45.77695" lon="4.84565">
        <ele>176.60000610352</ele>
        <time>2016-08-19T07:45:26.000Z</time>
      </trkpt>
      <trkpt lat="45.77694" lon="4.84567">
        <ele>176.60000610352</ele>
        <time>2016-08-19T07:45:27.000Z</time>
      </trkpt>
      <trkpt lat="45.77692" lon="4.84571">
        <ele>176.80000305176</ele>
        <time>2016-08-19T07:45:28.000Z</time>
      </trkpt>
      <trkpt lat="45.77691" lon="4.84574">
        <ele>177</ele>
        <time>2016-08-19T07:45:29.000Z</time>
      </trkpt>
      <trkpt lat="45.77688" lon="4.84577">
        <ele>177.19999694824</ele>
        <time>2016-08-19T07:45:30.000Z</time>
      </trkpt>
      <trkpt lat="45.77686" lon="4.8458">
        <ele>177.39999389648</ele>
        <time>2016-08-19T07:45:31.000Z</time>
      </trkpt>
      <trkpt lat="45.77684" lon="4.84582">
        <ele>177.39999389648</ele>
        <time>2016-08-19T07:45:32.000Z</time>
      </trkpt>
      <trkpt lat="45.77683" lon="4.84584">
        <ele>177.60000610352</ele>
        <time>2016-08-19T07:45:33.000Z</time>
      </trkpt>
      <trkpt lat="45.77682" lon="4.84587">
        <ele>177.60000610352</ele>
        <time>2016-08-19T07:45:34.000Z</time>
      </trkpt>
      <trkpt lat="45.77681" lon="4.84589">
        <ele>177.60000610352</ele>
        <time>2016-08-19T07:45:35.000Z</time>
      </trkpt>
      <trkpt lat="45.77679" lon="4.84591">
        <ele>177.80000305176</ele>
        <time>2016-08-19T07:45:36.000Z</time>
      </trkpt>
      <trkpt lat="45.77678" lon="4.84594">
        <ele>177.80000305176</ele>
        <time>2016-08-19T07:45:37.000Z</time>
      </trkpt>
      <trkpt lat="45.77676" lon="4.84596">
        <ele>178</ele>
        <time>2016-08-19T07:45:38.000Z</time>
      </trkpt>
      <trkpt lat="45.77674" lon="4.84599">
        <ele>178</ele>
        <time>2016-08-19T07:45:39.000Z</time>
      </trkpt>
      <trkpt lat="45.77671" lon="4.84601">
        <ele>178</ele>
        <time>2016-08-19T07:45:40.000Z</time>
      </trkpt>
      <trkpt lat="45.77669" lon="4.84604">
        <ele>178.19999694824</ele>
        <time>2016-08-19T07:45:41.000Z</time>
      </trkpt>
      <trkpt lat="45.77667" lon="4.84608">
        <ele>178.39999389648</ele>
        <time>2016-08-19T07:45:42.000Z</time>
      </trkpt>
      <trkpt lat="45.77665" lon="4.84611">
        <ele>178.39999389648</ele>
        <time>2016-08-19T07:45:43.000Z</time>
      </trkpt>
      <trkpt lat="45.77662" lon="4.84613">
        <ele>178.39999389648</ele>
        <time>2016-08-19T07:45:44.000Z</time>
      </trkpt>
      <trkpt lat="45.7766" lon="4.84616">
        <ele>178.60000610352</ele>
        <time>2016-08-19T07:45:45.000Z</time>
      </trkpt>
      <trkpt lat="45.77658" lon="4.84619">
        <ele>178.60000610352</ele>
        <time>2016-08-19T07:45:46.000Z</time>
      </trkpt>
      <trkpt lat="45.77656" lon="4.84622">
        <ele>178.80000305176</ele>
        <time>2016-08-19T07:45:47.000Z</time>
      </trkpt>
      <trkpt lat="45.77654" lon="4.84624">
        <ele>178.80000305176</ele>
        <time>2016-08-19T07:45:48.000Z</time>
      </trkpt>
      <trkpt lat="45.77652" lon="4.84627">
        <ele>178.60000610352</ele>
        <time>2016-08-19T07:45:49.000Z</time>
      </trkpt>
      <trkpt lat="45.77649" lon="4.84629">
        <ele>178.39999389648</ele>
        <time>2016-08-19T07:45:50.000Z</time>
      </trkpt>
      <trkpt lat="45.77648" lon="4.84632">
        <ele>178.39999389648</ele>
        <time>2016-08-19T07:45:51.000Z</time>
      </trkpt>
      <trkpt lat="45.77646" lon="4.84635">
        <ele>178.19999694824</ele>
        <time>2016-08-19T07:45:52.000Z</time>
      </trkpt>
      <trkpt lat="45.77644" lon="4.84637">
        <ele>178.19999694824</ele>
        <time>2016-08-19T07:45:53.000Z</time>
      </trkpt>
      <trkpt lat="45.77642" lon="4.8464">
        <ele>178</ele>
        <time>2016-08-19T07:45:54.000Z</time>
      </trkpt>
      <trkpt lat="45.7764" lon="4.84642">
        <ele>178</ele>
        <time>2016-08-19T07:45:55.000Z</time>
      </trkpt>
      <trkpt lat="45.77638" lon="4.84645">
        <ele>178</ele>
        <time>2016-08-19T07:45:56.000Z</time>
      </trkpt>
      <trkpt lat="45.77636" lon="4.84648">
        <ele>177.80000305176</ele>
        <time>2016-08-19T07:45:57.000Z</time>
      </trkpt>
      <trkpt lat="45.77635" lon="4.84651">
        <ele>177.60000610352</ele>
        <time>2016-08-19T07:45:58.000Z</time>
      </trkpt>
      <trkpt lat="45.77633" lon="4.84654">
        <ele>177.39999389648</ele>
        <time>2016-08-19T07:45:59.000Z</time>
      </trkpt>
      <trkpt lat="45.77631" lon="4.84657">
        <ele>177.39999389648</ele>
        <time>2016-08-19T07:46:00.000Z</time>
      </trkpt>
      <trkpt lat="45.7763" lon="4.84661">
        <ele>177.19999694824</ele>
        <time>2016-08-19T07:46:01.000Z</time>
      </trkpt>
      <trkpt lat="45.77627" lon="4.84665">
        <ele>177</ele>
        <time>2016-08-19T07:46:02.000Z</time>
      </trkpt>
      <trkpt lat="45.77625" lon="4.84669">
        <ele>176.80000305176</ele>
        <time>2016-08-19T07:46:03.000Z</time>
      </trkpt>
      <trkpt lat="45.77623" lon="4.84672">
        <ele>176.60000610352</ele>
        <time>2016-08-19T07:46:04.000Z</time>
      </trkpt>
      <trkpt lat="45.77622" lon="4.84675">
        <ele>176.39999389648</ele>
        <time>2016-08-19T07:46:05.000Z</time>
      </trkpt>
      <trkpt lat="45.77621" lon="4.84678">
        <ele>176.39999389648</ele>
        <time>2016-08-19T07:46:06.000Z</time>
      </trkpt>
      <trkpt lat="45.77622" lon="4.84681">
        <ele>176.19999694824</ele>
        <time>2016-08-19T07:46:07.000Z</time>
      </trkpt>
      <trkpt lat="45.77623" lon="4.84683">
        <ele>176.19999694824</ele>
        <time>2016-08-19T07:46:08.000Z</time>
      </trkpt>
      <trkpt lat="45.77624" lon="4.84686">
        <ele>176</ele>
        <time>2016-08-19T07:46:09.000Z</time>
      </trkpt>
      <trkpt lat="45.77624" lon="4.84689">
        <ele>175.80000305176</ele>
        <time>2016-08-19T07:46:10.000Z</time>
      </trkpt>
      <trkpt lat="45.77623" lon="4.84692">
        <ele>175.80000305176</ele>
        <time>2016-08-19T07:46:11.000Z</time>
      </trkpt>
      <trkpt lat="45.77621" lon="4.84695">
        <ele>175.80000305176</ele>
        <time>2016-08-19T07:46:12.000Z</time>
      </trkpt>
      <trkpt lat="45.77619" lon="4.84698">
        <ele>175.80000305176</ele>
        <time>2016-08-19T07:46:13.000Z</time>
      </trkpt>
      <trkpt lat="45.77617" lon="4.84701">
        <ele>176</ele>
        <time>2016-08-19T07:46:14.000Z</time>
      </trkpt>
      <trkpt lat="45.77615" lon="4.84704">
        <ele>176.19999694824</ele>
        <time>2016-08-19T07:46:15.000Z</time>
      </trkpt>
      <trkpt lat="45.77613" lon="4.84707">
        <ele>176.19999694824</ele>
        <time>2016-08-19T07:46:16.000Z</time>
      </trkpt>
      <trkpt lat="45.77611" lon="4.84711">
        <ele>176</ele>
        <time>2016-08-19T07:46:17.000Z</time>
      </trkpt>
      <trkpt lat="45.77609" lon="4.84713">
        <ele>176</ele>
        <time>2016-08-19T07:46:18.000Z</time>
      </trkpt>
      <trkpt lat="45.77608" lon="4.84717">
        <ele>176</ele>
        <time>2016-08-19T07:46:19.000Z</time>
      </trkpt>
      <trkpt lat="45.77607" lon="4.8472">
        <ele>175.80000305176</ele>
        <time>2016-08-19T07:46:20.000Z</time>
      </trkpt>
      <trkpt lat="45.77606" lon="4.84723">
        <ele>175.80000305176</ele>
        <time>2016-08-19T07:46:21.000Z</time>
      </trkpt>
      <trkpt lat="45.77606" lon="4.84726">
        <ele>175.60000610352</ele>
        <time>2016-08-19T07:46:22.000Z</time>
      </trkpt>
      <trkpt lat="45.77604" lon="4.84729">
        <ele>175.60000610352</ele>
        <time>2016-08-19T07:46:23.000Z</time>
      </trkpt>
      <trkpt lat="45.77604" lon="4.84732">
        <ele>175.39999389648</ele>
        <time>2016-08-19T07:46:24.000Z</time>
      </trkpt>
      <trkpt lat="45.77602" lon="4.84735">
        <ele>175.39999389648</ele>
        <time>2016-08-19T07:46:25.000Z</time>
      </trkpt>
      <trkpt lat="45.77602" lon="4.84738">
        <ele>175.19999694824</ele>
        <time>2016-08-19T07:46:26.000Z</time>
      </trkpt>
      <trkpt lat="45.77602" lon="4.8474">
        <ele>175</ele>
        <time>2016-08-19T07:46:27.000Z</time>
      </trkpt>
      <trkpt lat="45.77601" lon="4.84743">
        <ele>175</ele>
        <time>2016-08-19T07:46:28.000Z</time>
      </trkpt>
      <trkpt lat="45.776" lon="4.84746">
        <ele>175</ele>
        <time>2016-08-19T07:46:29.000Z</time>
      </trkpt>
      <trkpt lat="45.77598" lon="4.84749">
        <ele>174.80000305176</ele>
        <time>2016-08-19T07:46:30.000Z</time>
      </trkpt>
      <trkpt lat="45.77596" lon="4.84753">
        <ele>174.80000305176</ele>
        <time>2016-08-19T07:46:31.000Z</time>
      </trkpt>
      <trkpt lat="45.77595" lon="4.84756">
        <ele>174.80000305176</ele>
        <time>2016-08-19T07:46:32.000Z</time>
      </trkpt>
      <trkpt lat="45.77594" lon="4.84759">
        <ele>174.80000305176</ele>
        <time>2016-08-19T07:46:33.000Z</time>
      </trkpt>
      <trkpt lat="45.77593" lon="4.84762">
        <ele>175</ele>
        <time>2016-08-19T07:46:34.000Z</time>
      </trkpt>
      <trkpt lat="45.77592" lon="4.84765">
        <ele>175</ele>
        <time>2016-08-19T07:46:35.000Z</time>
      </trkpt>
      <trkpt lat="45.7759" lon="4.84769">
        <ele>175</ele>
        <time>2016-08-19T07:46:36.000Z</time>
      </trkpt>
      <trkpt lat="45.77589" lon="4.84772">
        <ele>175</ele>
        <time>2016-08-19T07:46:37.000Z</time>
      </trkpt>
      <trkpt lat="45.77587" lon="4.84775">
        <ele>175</ele>
        <time>2016-08-19T07:46:38.000Z</time>
      </trkpt>
      <trkpt lat="45.77586" lon="4.84778">
        <ele>175</ele>
        <time>2016-08-19T07:46:39.000Z</time>
      </trkpt>
      <trkpt lat="45.77584" lon="4.84781">
        <ele>175</ele>
        <time>2016-08-19T07:46:40.000Z</time>
      </trkpt>
      <trkpt lat="45.77583" lon="4.84784">
        <ele>175.19999694824</ele>
        <time>2016-08-19T07:46:41.000Z</time>
      </trkpt>
      <trkpt lat="45.7758" lon="4.84787">
        <ele>175.19999694824</ele>
        <time>2016-08-19T07:46:42.000Z</time>
      </trkpt>
      <trkpt lat="45.77579" lon="4.8479">
        <ele>175.19999694824</ele>
        <time>2016-08-19T07:46:43.000Z</time>
      </trkpt>
      <trkpt lat="45.77577" lon="4.84792">
        <ele>175.19999694824</ele>
        <time>2016-08-19T07:46:44.000Z</time>
      </trkpt>
      <trkpt lat="45.77575" lon="4.84794">
        <ele>175.39999389648</ele>
        <time>2016-08-19T07:46:45.000Z</time>
      </trkpt>
      <trkpt lat="45.77573" lon="4.84797">
        <ele>175.39999389648</ele>
        <time>2016-08-19T07:46:46.000Z</time>
      </trkpt>
      <trkpt lat="45.77571" lon="4.84799">
        <ele>175.39999389648</ele>
        <time>2016-08-19T07:46:47.000Z</time>
      </trkpt>
      <trkpt lat="45.77569" lon="4.84801">
        <ele>175.60000610352</ele>
        <time>2016-08-19T07:46:48.000Z</time>
      </trkpt>
      <trkpt lat="45.77566" lon="4.84803">
        <ele>175.60000610352</ele>
        <time>2016-08-19T07:46:49.000Z</time>
      </trkpt>
      <trkpt lat="45.77563" lon="4.84805">
        <ele>175.60000610352</ele>
        <time>2016-08-19T07:46:50.000Z</time>
      </trkpt>
      <trkpt lat="45.77561" lon="4.84808">
        <ele>175.80000305176</ele>
        <time>2016-08-19T07:46:51.000Z</time>
      </trkpt>
      <trkpt lat="45.7756" lon="4.8481">
        <ele>175.80000305176</ele>
        <time>2016-08-19T07:46:52.000Z</time>
      </trkpt>
      <trkpt lat="45.77558" lon="4.84812">
        <ele>175.60000610352</ele>
        <time>2016-08-19T07:46:53.000Z</time>
      </trkpt>
      <trkpt lat="45.77556" lon="4.84814">
        <ele>175.80000305176</ele>
        <time>2016-08-19T07:46:54.000Z</time>
      </trkpt>
      <trkpt lat="45.77555" lon="4.84816">
        <ele>175.60000610352</ele>
        <time>2016-08-19T07:46:55.000Z</time>
      </trkpt>
      <trkpt lat="45.77554" lon="4.84818">
        <ele>175.60000610352</ele>
        <time>2016-08-19T07:46:56.000Z</time>
      </trkpt>
      <trkpt lat="45.77552" lon="4.8482">
        <ele>175.60000610352</ele>
        <time>2016-08-19T07:46:57.000Z</time>
      </trkpt>
      <trkpt lat="45.77551" lon="4.84823">
        <ele>175.39999389648</ele>
        <time>2016-08-19T07:46:58.000Z</time>
      </trkpt>
      <trkpt lat="45.7755" lon="4.84825">
        <ele>175.19999694824</ele>
        <time>2016-08-19T07:46:59.000Z</time>
      </trkpt>
      <trkpt lat="45.77549" lon="4.84828">
        <ele>175.19999694824</ele>
        <time>2016-08-19T07:47:00.000Z</time>
      </trkpt>
      <trkpt lat="45.77547" lon="4.84831">
        <ele>175</ele>
        <time>2016-08-19T07:47:01.000Z</time>
      </trkpt>
      <trkpt lat="45.77545" lon="4.84834">
        <ele>174.80000305176</ele>
        <time>2016-08-19T07:47:02.000Z</time>
      </trkpt>
      <trkpt lat="45.77544" lon="4.84837">
        <ele>174.60000610352</ele>
        <time>2016-08-19T07:47:03.000Z</time>
      </trkpt>
      <trkpt lat="45.77543" lon="4.8484">
        <ele>174.60000610352</ele>
        <time>2016-08-19T07:47:04.000Z</time>
      </trkpt>
      <trkpt lat="45.77542" lon="4.84843">
        <ele>174.39999389648</ele>
        <time>2016-08-19T07:47:05.000Z</time>
      </trkpt>
      <trkpt lat="45.77541" lon="4.84846">
        <ele>174.19999694824</ele>
        <time>2016-08-19T07:47:06.000Z</time>
      </trkpt>
      <trkpt lat="45.7754" lon="4.84849">
        <ele>174.19999694824</ele>
        <time>2016-08-19T07:47:07.000Z</time>
      </trkpt>
      <trkpt lat="45.77539" lon="4.84852">
        <ele>174</ele>
        <time>2016-08-19T07:47:08.000Z</time>
      </trkpt>
      <trkpt lat="45.77538" lon="4.84855">
        <ele>173.80000305176</ele>
        <time>2016-08-19T07:47:09.000Z</time>
      </trkpt>
      <trkpt lat="45.77537" lon="4.84857">
        <ele>173.80000305176</ele>
        <time>2016-08-19T07:47:10.000Z</time>
      </trkpt>
      <trkpt lat="45.77537" lon="4.8486">
        <ele>173.60000610352</ele>
        <time>2016-08-19T07:47:11.000Z</time>
      </trkpt>
      <trkpt lat="45.77537" lon="4.84862">
        <ele>173.60000610352</ele>
        <time>2016-08-19T07:47:12.000Z</time>
      </trkpt>
      <trkpt lat="45.77536" lon="4.84865">
        <ele>173.60000610352</ele>
        <time>2016-08-19T07:47:13.000Z</time>
      </trkpt>
      <trkpt lat="45.77535" lon="4.84867">
        <ele>173.39999389648</ele>
        <time>2016-08-19T07:47:14.000Z</time>
      </trkpt>
      <trkpt lat="45.77536" lon="4.8487">
        <ele>173.39999389648</ele>
        <time>2016-08-19T07:47:15.000Z</time>
      </trkpt>
      <trkpt lat="45.77534" lon="4.84874">
        <ele>173.39999389648</ele>
        <time>2016-08-19T07:47:16.000Z</time>
      </trkpt>
      <trkpt lat="45.77532" lon="4.84878">
        <ele>173.39999389648</ele>
        <time>2016-08-19T07:47:17.000Z</time>
      </trkpt>
      <trkpt lat="45.77531" lon="4.84881">
        <ele>173.60000610352</ele>
        <time>2016-08-19T07:47:18.000Z</time>
      </trkpt>
      <trkpt lat="45.7753" lon="4.84885">
        <ele>173.80000305176</ele>
        <time>2016-08-19T07:47:19.000Z</time>
      </trkpt>
      <trkpt lat="45.77528" lon="4.84889">
        <ele>173.80000305176</ele>
        <time>2016-08-19T07:47:20.000Z</time>
      </trkpt>
      <trkpt lat="45.77528" lon="4.84892">
        <ele>174</ele>
        <time>2016-08-19T07:47:21.000Z</time>
      </trkpt>
      <trkpt lat="45.77527" lon="4.84896">
        <ele>174.19999694824</ele>
        <time>2016-08-19T07:47:22.000Z</time>
      </trkpt>
      <trkpt lat="45.77526" lon="4.84899">
        <ele>174.19999694824</ele>
        <time>2016-08-19T07:47:23.000Z</time>
      </trkpt>
      <trkpt lat="45.77524" lon="4.84902">
        <ele>174.39999389648</ele>
        <time>2016-08-19T07:47:24.000Z</time>
      </trkpt>
      <trkpt lat="45.77523" lon="4.84905">
        <ele>174.60000610352</ele>
        <time>2016-08-19T07:47:25.000Z</time>
      </trkpt>
      <trkpt lat="45.77521" lon="4.84908">
        <ele>174.60000610352</ele>
        <time>2016-08-19T07:47:26.000Z</time>
      </trkpt>
      <trkpt lat="45.77519" lon="4.84912">
        <ele>174.80000305176</ele>
        <time>2016-08-19T07:47:27.000Z</time>
      </trkpt>
      <trkpt lat="45.77517" lon="4.84915">
        <ele>175</ele>
        <time>2016-08-19T07:47:28.000Z</time>
      </trkpt>
      <trkpt lat="45.77515" lon="4.84918">
        <ele>175</ele>
        <time>2016-08-19T07:47:29.000Z</time>
      </trkpt>
      <trkpt lat="45.77513" lon="4.84921">
        <ele>175</ele>
        <time>2016-08-19T07:47:30.000Z</time>
      </trkpt>
      <trkpt lat="45.77512" lon="4.84924">
        <ele>175</ele>
        <time>2016-08-19T07:47:31.000Z</time>
      </trkpt>
      <trkpt lat="45.77511" lon="4.84926">
        <ele>175.19999694824</ele>
        <time>2016-08-19T07:47:32.000Z</time>
      </trkpt>
      <trkpt lat="45.77509" lon="4.8493">
        <ele>175.19999694824</ele>
        <time>2016-08-19T07:47:33.000Z</time>
      </trkpt>
      <trkpt lat="45.77507" lon="4.84933">
        <ele>175.19999694824</ele>
        <time>2016-08-19T07:47:34.000Z</time>
      </trkpt>
      <trkpt lat="45.77505" lon="4.84936">
        <ele>175.19999694824</ele>
        <time>2016-08-19T07:47:35.000Z</time>
      </trkpt>
      <trkpt lat="45.77503" lon="4.8494">
        <ele>175.19999694824</ele>
        <time>2016-08-19T07:47:36.000Z</time>
      </trkpt>
      <trkpt lat="45.77502" lon="4.84944">
        <ele>175.19999694824</ele>
        <time>2016-08-19T07:47:37.000Z</time>
      </trkpt>
      <trkpt lat="45.775" lon="4.84947">
        <ele>175.19999694824</ele>
        <time>2016-08-19T07:47:38.000Z</time>
      </trkpt>
      <trkpt lat="45.77499" lon="4.8495">
        <ele>175.19999694824</ele>
        <time>2016-08-19T07:47:39.000Z</time>
      </trkpt>
      <trkpt lat="45.77498" lon="4.84953">
        <ele>175.19999694824</ele>
        <time>2016-08-19T07:47:40.000Z</time>
      </trkpt>
      <trkpt lat="45.77496" lon="4.84956">
        <ele>175.19999694824</ele>
        <time>2016-08-19T07:47:41.000Z</time>
      </trkpt>
      <trkpt lat="45.77495" lon="4.84959">
        <ele>175.19999694824</ele>
        <time>2016-08-19T07:47:42.000Z</time>
      </trkpt>
      <trkpt lat="45.77493" lon="4.84962">
        <ele>175.19999694824</ele>
        <time>2016-08-19T07:47:43.000Z</time>
      </trkpt>
      <trkpt lat="45.77492" lon="4.84965">
        <ele>175.19999694824</ele>
        <time>2016-08-19T07:47:44.000Z</time>
      </trkpt>
      <trkpt lat="45.77491" lon="4.84968">
        <ele>175</ele>
        <time>2016-08-19T07:47:45.000Z</time>
      </trkpt>
      <trkpt lat="45.7749" lon="4.84971">
        <ele>175</ele>
        <time>2016-08-19T07:47:46.000Z</time>
      </trkpt>
      <trkpt lat="45.77489" lon="4.84975">
        <ele>175</ele>
        <time>2016-08-19T07:47:47.000Z</time>
      </trkpt>
      <trkpt lat="45.77488" lon="4.84978">
        <ele>175</ele>
        <time>2016-08-19T07:47:48.000Z</time>
      </trkpt>
      <trkpt lat="45.77487" lon="4.84982">
        <ele>175.19999694824</ele>
        <time>2016-08-19T07:47:49.000Z</time>
      </trkpt>
      <trkpt lat="45.77485" lon="4.84985">
        <ele>175.19999694824</ele>
        <time>2016-08-19T07:47:50.000Z</time>
      </trkpt>
      <trkpt lat="45.77484" lon="4.84988">
        <ele>175.19999694824</ele>
        <time>2016-08-19T07:47:51.000Z</time>
      </trkpt>
      <trkpt lat="45.77483" lon="4.84991">
        <ele>175.19999694824</ele>
        <time>2016-08-19T07:47:52.000Z</time>
      </trkpt>
      <trkpt lat="45.77482" lon="4.84994">
        <ele>175.39999389648</ele>
        <time>2016-08-19T07:47:53.000Z</time>
      </trkpt>
      <trkpt lat="45.77482" lon="4.84997">
        <ele>175.39999389648</ele>
        <time>2016-08-19T07:47:54.000Z</time>
      </trkpt>
      <trkpt lat="45.77481" lon="4.84999">
        <ele>175.39999389648</ele>
        <time>2016-08-19T07:47:55.000Z</time>
      </trkpt>
      <trkpt lat="45.7748" lon="4.85002">
        <ele>175.39999389648</ele>
        <time>2016-08-19T07:47:56.000Z</time>
      </trkpt>
      <trkpt lat="45.77478" lon="4.85004">
        <ele>175.39999389648</ele>
        <time>2016-08-19T07:47:57.000Z</time>
      </trkpt>
      <trkpt lat="45.77477" lon="4.85007">
        <ele>175.60000610352</ele>
        <time>2016-08-19T07:47:58.000Z</time>
      </trkpt>
      <trkpt lat="45.77476" lon="4.8501">
        <ele>175.60000610352</ele>
        <time>2016-08-19T07:47:59.000Z</time>
      </trkpt>
      <trkpt lat="45.77476" lon="4.85013">
        <ele>175.60000610352</ele>
        <time>2016-08-19T07:48:00.000Z</time>
      </trkpt>
      <trkpt lat="45.77475" lon="4.85015">
        <ele>175.60000610352</ele>
        <time>2016-08-19T07:48:01.000Z</time>
      </trkpt>
      <trkpt lat="45.77474" lon="4.85018">
        <ele>175.80000305176</ele>
        <time>2016-08-19T07:48:02.000Z</time>
      </trkpt>
      <trkpt lat="45.77474" lon="4.8502">
        <ele>175.80000305176</ele>
        <time>2016-08-19T07:48:03.000Z</time>
      </trkpt>
      <trkpt lat="45.77472" lon="4.85023">
        <ele>175.80000305176</ele>
        <time>2016-08-19T07:48:04.000Z</time>
      </trkpt>
      <trkpt lat="45.77471" lon="4.85026">
        <ele>175.80000305176</ele>
        <time>2016-08-19T07:48:05.000Z</time>
      </trkpt>
      <trkpt lat="45.77469" lon="4.85029">
        <ele>176</ele>
        <time>2016-08-19T07:48:06.000Z</time>
      </trkpt>
      <trkpt lat="45.77469" lon="4.85032">
        <ele>176</ele>
        <time>2016-08-19T07:48:07.000Z</time>
      </trkpt>
      <trkpt lat="45.77468" lon="4.85035">
        <ele>176</ele>
        <time>2016-08-19T07:48:08.000Z</time>
      </trkpt>
      <trkpt lat="45.77466" lon="4.85038">
        <ele>176</ele>
        <time>2016-08-19T07:48:09.000Z</time>
      </trkpt>
      <trkpt lat="45.77464" lon="4.85041">
        <ele>176</ele>
        <time>2016-08-19T07:48:10.000Z</time>
      </trkpt>
      <trkpt lat="45.77462" lon="4.85044">
        <ele>175.80000305176</ele>
        <time>2016-08-19T07:48:11.000Z</time>
      </trkpt>
      <trkpt lat="45.77461" lon="4.85047">
        <ele>175.80000305176</ele>
        <time>2016-08-19T07:48:12.000Z</time>
      </trkpt>
      <trkpt lat="45.77459" lon="4.8505">
        <ele>175.80000305176</ele>
        <time>2016-08-19T07:48:13.000Z</time>
      </trkpt>
      <trkpt lat="45.77458" lon="4.85052">
        <ele>175.80000305176</ele>
        <time>2016-08-19T07:48:14.000Z</time>
      </trkpt>
      <trkpt lat="45.77456" lon="4.85055">
        <ele>175.80000305176</ele>
        <time>2016-08-19T07:48:15.000Z</time>
      </trkpt>
      <trkpt lat="45.77454" lon="4.85058">
        <ele>175.80000305176</ele>
        <time>2016-08-19T07:48:16.000Z</time>
      </trkpt>
      <trkpt lat="45.77454" lon="4.85061">
        <ele>175.80000305176</ele>
        <time>2016-08-19T07:48:17.000Z</time>
      </trkpt>
      <trkpt lat="45.77453" lon="4.85064">
        <ele>175.80000305176</ele>
        <time>2016-08-19T07:48:18.000Z</time>
      </trkpt>
      <trkpt lat="45.77451" lon="4.85067">
        <ele>175.80000305176</ele>
        <time>2016-08-19T07:48:19.000Z</time>
      </trkpt>
      <trkpt lat="45.77449" lon="4.8507">
        <ele>175.80000305176</ele>
        <time>2016-08-19T07:48:20.000Z</time>
      </trkpt>
      <trkpt lat="45.77448" lon="4.85073">
        <ele>175.80000305176</ele>
        <time>2016-08-19T07:48:21.000Z</time>
      </trkpt>
      <trkpt lat="45.77447" lon="4.85077">
        <ele>175.80000305176</ele>
        <time>2016-08-19T07:48:22.000Z</time>
      </trkpt>
      <trkpt lat="45.77446" lon="4.8508">
        <ele>175.60000610352</ele>
        <time>2016-08-19T07:48:23.000Z</time>
      </trkpt>
      <trkpt lat="45.77445" lon="4.85084">
        <ele>175.60000610352</ele>
        <time>2016-08-19T07:48:24.000Z</time>
      </trkpt>
      <trkpt lat="45.77444" lon="4.85087">
        <ele>175.60000610352</ele>
        <time>2016-08-19T07:48:25.000Z</time>
      </trkpt>
      <trkpt lat="45.77443" lon="4.8509">
        <ele>175.60000610352</ele>
        <time>2016-08-19T07:48:26.000Z</time>
      </trkpt>
      <trkpt lat="45.77442" lon="4.85093">
        <ele>175.60000610352</ele>
        <time>2016-08-19T07:48:27.000Z</time>
      </trkpt>
      <trkpt lat="45.77441" lon="4.85096">
        <ele>175.60000610352</ele>
        <time>2016-08-19T07:48:28.000Z</time>
      </trkpt>
      <trkpt lat="45.7744" lon="4.85099">
        <ele>175.39999389648</ele>
        <time>2016-08-19T07:48:29.000Z</time>
      </trkpt>
      <trkpt lat="45.77438" lon="4.85102">
        <ele>175.19999694824</ele>
        <time>2016-08-19T07:48:30.000Z</time>
      </trkpt>
      <trkpt lat="45.77436" lon="4.85106">
        <ele>175.19999694824</ele>
        <time>2016-08-19T07:48:31.000Z</time>
      </trkpt>
      <trkpt lat="45.77434" lon="4.85109">
        <ele>175</ele>
        <time>2016-08-19T07:48:32.000Z</time>
      </trkpt>
      <trkpt lat="45.77432" lon="4.85111">
        <ele>174.80000305176</ele>
        <time>2016-08-19T07:48:33.000Z</time>
      </trkpt>
      <trkpt lat="45.7743" lon="4.85114">
        <ele>174.80000305176</ele>
        <time>2016-08-19T07:48:34.000Z</time>
      </trkpt>
      <trkpt lat="45.77428" lon="4.85117">
        <ele>174.60000610352</ele>
        <time>2016-08-19T07:48:35.000Z</time>
      </trkpt>
      <trkpt lat="45.77426" lon="4.85119">
        <ele>174.39999389648</ele>
        <time>2016-08-19T07:48:36.000Z</time>
      </trkpt>
      <trkpt lat="45.77425" lon="4.85121">
        <ele>174.39999389648</ele>
        <time>2016-08-19T07:48:37.000Z</time>
      </trkpt>
      <trkpt lat="45.77423" lon="4.85124">
        <ele>174.19999694824</ele>
        <time>2016-08-19T07:48:38.000Z</time>
      </trkpt>
      <trkpt lat="45.77421" lon="4.85127">
        <ele>174</ele>
        <time>2016-08-19T07:48:39.000Z</time>
      </trkpt>
      <trkpt lat="45.77419" lon="4.8513">
        <ele>173.80000305176</ele>
        <time>2016-08-19T07:48:40.000Z</time>
      </trkpt>
      <trkpt lat="45.77418" lon="4.85133">
        <ele>173.80000305176</ele>
        <time>2016-08-19T07:48:41.000Z</time>
      </trkpt>
      <trkpt lat="45.77416" lon="4.85136">
        <ele>173.60000610352</ele>
        <time>2016-08-19T07:48:42.000Z</time>
      </trkpt>
      <trkpt lat="45.77415" lon="4.85138">
        <ele>173.39999389648</ele>
        <time>2016-08-19T07:48:43.000Z</time>
      </trkpt>
      <trkpt lat="45.77413" lon="4.85141">
        <ele>173.19999694824</ele>
        <time>2016-08-19T07:48:44.000Z</time>
      </trkpt>
      <trkpt lat="45.77411" lon="4.85144">
        <ele>173</ele>
        <time>2016-08-19T07:48:45.000Z</time>
      </trkpt>
      <trkpt lat="45.7741" lon="4.85145">
        <ele>173</ele>
        <time>2016-08-19T07:48:46.000Z</time>
      </trkpt>
      <trkpt lat="45.77408" lon="4.85147">
        <ele>173</ele>
        <time>2016-08-19T07:48:47.000Z</time>
      </trkpt>
      <trkpt lat="45.77407" lon="4.85148">
        <ele>173</ele>
        <time>2016-08-19T07:48:48.000Z</time>
      </trkpt>
      <trkpt lat="45.77405" lon="4.85149">
        <ele>173.19999694824</ele>
        <time>2016-08-19T07:48:49.000Z</time>
      </trkpt>
      <trkpt lat="45.77404" lon="4.8515">
        <ele>173.19999694824</ele>
        <time>2016-08-19T07:48:50.000Z</time>
      </trkpt>
      <trkpt lat="45.77403" lon="4.85151">
        <ele>173.19999694824</ele>
        <time>2016-08-19T07:48:51.000Z</time>
      </trkpt>
      <trkpt lat="45.77401" lon="4.85152">
        <ele>173.19999694824</ele>
        <time>2016-08-19T07:48:52.000Z</time>
      </trkpt>
      <trkpt lat="45.77399" lon="4.85153">
        <ele>173.19999694824</ele>
        <time>2016-08-19T07:48:53.000Z</time>
      </trkpt>
      <trkpt lat="45.77397" lon="4.85153">
        <ele>173.19999694824</ele>
        <time>2016-08-19T07:48:54.000Z</time>
      </trkpt>
      <trkpt lat="45.77395" lon="4.85153">
        <ele>173.19999694824</ele>
        <time>2016-08-19T07:48:55.000Z</time>
      </trkpt>
      <trkpt lat="45.77392" lon="4.85154">
        <ele>173.39999389648</ele>
        <time>2016-08-19T07:48:56.000Z</time>
      </trkpt>
      <trkpt lat="45.7739" lon="4.85154">
        <ele>173.39999389648</ele>
        <time>2016-08-19T07:48:57.000Z</time>
      </trkpt>
      <trkpt lat="45.77388" lon="4.85154">
        <ele>173.39999389648</ele>
        <time>2016-08-19T07:48:58.000Z</time>
      </trkpt>
      <trkpt lat="45.77385" lon="4.85155">
        <ele>173.39999389648</ele>
        <time>2016-08-19T07:48:59.000Z</time>
      </trkpt>
      <trkpt lat="45.77383" lon="4.85156">
        <ele>173.39999389648</ele>
        <time>2016-08-19T07:49:00.000Z</time>
      </trkpt>
      <trkpt lat="45.77381" lon="4.85156">
        <ele>173.39999389648</ele>
        <time>2016-08-19T07:49:01.000Z</time>
      </trkpt>
      <trkpt lat="45.77379" lon="4.85156">
        <ele>173.39999389648</ele>
        <time>2016-08-19T07:49:02.000Z</time>
      </trkpt>
      <trkpt lat="45.77379" lon="4.85156">
        <ele>173.39999389648</ele>
        <time>2016-08-19T07:49:03.000Z</time>
      </trkpt>
      <trkpt lat="45.77377" lon="4.85157">
        <ele>173.39999389648</ele>
        <time>2016-08-19T07:49:04.000Z</time>
      </trkpt>
      <trkpt lat="45.77375" lon="4.85157">
        <ele>173.39999389648</ele>
        <time>2016-08-19T07:49:05.000Z</time>
      </trkpt>
      <trkpt lat="45.77373" lon="4.85157">
        <ele>173.39999389648</ele>
        <time>2016-08-19T07:49:06.000Z</time>
      </trkpt>
      <trkpt lat="45.77371" lon="4.85157">
        <ele>173.39999389648</ele>
        <time>2016-08-19T07:49:07.000Z</time>
      </trkpt>
      <trkpt lat="45.77369" lon="4.8516">
        <ele>173.39999389648</ele>
        <time>2016-08-19T07:49:08.000Z</time>
      </trkpt>
      <trkpt lat="45.77366" lon="4.85162">
        <ele>173.39999389648</ele>
        <time>2016-08-19T07:49:09.000Z</time>
      </trkpt>
      <trkpt lat="45.77365" lon="4.85164">
        <ele>173.60000610352</ele>
        <time>2016-08-19T07:49:10.000Z</time>
      </trkpt>
      <trkpt lat="45.77363" lon="4.85167">
        <ele>173.60000610352</ele>
        <time>2016-08-19T07:49:11.000Z</time>
      </trkpt>
      <trkpt lat="45.77362" lon="4.8517">
        <ele>173.60000610352</ele>
        <time>2016-08-19T07:49:12.000Z</time>
      </trkpt>
      <trkpt lat="45.77361" lon="4.85174">
        <ele>173.60000610352</ele>
        <time>2016-08-19T07:49:13.000Z</time>
      </trkpt>
      <trkpt lat="45.7736" lon="4.85177">
        <ele>173.60000610352</ele>
        <time>2016-08-19T07:49:14.000Z</time>
      </trkpt>
      <trkpt lat="45.77358" lon="4.85181">
        <ele>173.60000610352</ele>
        <time>2016-08-19T07:49:15.000Z</time>
      </trkpt>
      <trkpt lat="45.77357" lon="4.85184">
        <ele>173.39999389648</ele>
        <time>2016-08-19T07:49:16.000Z</time>
      </trkpt>
      <trkpt lat="45.77355" lon="4.85187">
        <ele>173.19999694824</ele>
        <time>2016-08-19T07:49:17.000Z</time>
      </trkpt>
      <trkpt lat="45.77353" lon="4.8519">
        <ele>173.19999694824</ele>
        <time>2016-08-19T07:49:18.000Z</time>
      </trkpt>
      <trkpt lat="45.77351" lon="4.85192">
        <ele>173</ele>
        <time>2016-08-19T07:49:19.000Z</time>
      </trkpt>
      <trkpt lat="45.7735" lon="4.85195">
        <ele>172.80000305176</ele>
        <time>2016-08-19T07:49:20.000Z</time>
      </trkpt>
      <trkpt lat="45.77348" lon="4.85197">
        <ele>172.80000305176</ele>
        <time>2016-08-19T07:49:21.000Z</time>
      </trkpt>
      <trkpt lat="45.77347" lon="4.852">
        <ele>172.60000610352</ele>
        <time>2016-08-19T07:49:22.000Z</time>
      </trkpt>
      <trkpt lat="45.77347" lon="4.85203">
        <ele>172.60000610352</ele>
        <time>2016-08-19T07:49:23.000Z</time>
      </trkpt>
      <trkpt lat="45.77346" lon="4.85207">
        <ele>172.39999389648</ele>
        <time>2016-08-19T07:49:24.000Z</time>
      </trkpt>
      <trkpt lat="45.77345" lon="4.85211">
        <ele>172.19999694824</ele>
        <time>2016-08-19T07:49:25.000Z</time>
      </trkpt>
      <trkpt lat="45.77345" lon="4.85215">
        <ele>172</ele>
        <time>2016-08-19T07:49:26.000Z</time>
      </trkpt>
      <trkpt lat="45.77344" lon="4.85218">
        <ele>171.60000610352</ele>
        <time>2016-08-19T07:49:27.000Z</time>
      </trkpt>
      <trkpt lat="45.77345" lon="4.85222">
        <ele>171.39999389648</ele>
        <time>2016-08-19T07:49:28.000Z</time>
      </trkpt>
      <trkpt lat="45.77345" lon="4.85226">
        <ele>171.19999694824</ele>
        <time>2016-08-19T07:49:29.000Z</time>
      </trkpt>
      <trkpt lat="45.77345" lon="4.85229">
        <ele>171</ele>
        <time>2016-08-19T07:49:30.000Z</time>
      </trkpt>
      <trkpt lat="45.77345" lon="4.85232">
        <ele>170.80000305176</ele>
        <time>2016-08-19T07:49:31.000Z</time>
      </trkpt>
      <trkpt lat="45.77346" lon="4.85236">
        <ele>170.60000610352</ele>
        <time>2016-08-19T07:49:32.000Z</time>
      </trkpt>
      <trkpt lat="45.77346" lon="4.8524">
        <ele>170.39999389648</ele>
        <time>2016-08-19T07:49:33.000Z</time>
      </trkpt>
      <trkpt lat="45.77346" lon="4.85244">
        <ele>170.19999694824</ele>
        <time>2016-08-19T07:49:34.000Z</time>
      </trkpt>
      <trkpt lat="45.77345" lon="4.85247">
        <ele>170</ele>
        <time>2016-08-19T07:49:35.000Z</time>
      </trkpt>
      <trkpt lat="45.77345" lon="4.85251">
        <ele>170</ele>
        <time>2016-08-19T07:49:36.000Z</time>
      </trkpt>
      <trkpt lat="45.77345" lon="4.85254">
        <ele>170</ele>
        <time>2016-08-19T07:49:37.000Z</time>
      </trkpt>
      <trkpt lat="45.77344" lon="4.85258">
        <ele>170</ele>
        <time>2016-08-19T07:49:38.000Z</time>
      </trkpt>
      <trkpt lat="45.77343" lon="4.85261">
        <ele>169.80000305176</ele>
        <time>2016-08-19T07:49:39.000Z</time>
      </trkpt>
      <trkpt lat="45.77343" lon="4.85265">
        <ele>169.80000305176</ele>
        <time>2016-08-19T07:49:40.000Z</time>
      </trkpt>
      <trkpt lat="45.77341" lon="4.85269">
        <ele>169.80000305176</ele>
        <time>2016-08-19T07:49:41.000Z</time>
      </trkpt>
      <trkpt lat="45.77341" lon="4.85272">
        <ele>169.80000305176</ele>
        <time>2016-08-19T07:49:42.000Z</time>
      </trkpt>
      <trkpt lat="45.7734" lon="4.85275">
        <ele>169.80000305176</ele>
        <time>2016-08-19T07:49:43.000Z</time>
      </trkpt>
      <trkpt lat="45.77339" lon="4.85279">
        <ele>169.80000305176</ele>
        <time>2016-08-19T07:49:44.000Z</time>
      </trkpt>
      <trkpt lat="45.77338" lon="4.85283">
        <ele>169.60000610352</ele>
        <time>2016-08-19T07:49:45.000Z</time>
      </trkpt>
      <trkpt lat="45.77337" lon="4.85287">
        <ele>169.60000610352</ele>
        <time>2016-08-19T07:49:46.000Z</time>
      </trkpt>
      <trkpt lat="45.77336" lon="4.8529">
        <ele>169.60000610352</ele>
        <time>2016-08-19T07:49:47.000Z</time>
      </trkpt>
      <trkpt lat="45.77335" lon="4.85293">
        <ele>169.60000610352</ele>
        <time>2016-08-19T07:49:48.000Z</time>
      </trkpt>
      <trkpt lat="45.77335" lon="4.85296">
        <ele>169.39999389648</ele>
        <time>2016-08-19T07:49:49.000Z</time>
      </trkpt>
      <trkpt lat="45.77335" lon="4.85299">
        <ele>169.39999389648</ele>
        <time>2016-08-19T07:49:50.000Z</time>
      </trkpt>
      <trkpt lat="45.77334" lon="4.85302">
        <ele>169.39999389648</ele>
        <time>2016-08-19T07:49:51.000Z</time>
      </trkpt>
      <trkpt lat="45.77333" lon="4.85305">
        <ele>169.19999694824</ele>
        <time>2016-08-19T07:49:52.000Z</time>
      </trkpt>
      <trkpt lat="45.77333" lon="4.85308">
        <ele>169.19999694824</ele>
        <time>2016-08-19T07:49:53.000Z</time>
      </trkpt>
      <trkpt lat="45.77332" lon="4.85311">
        <ele>169.19999694824</ele>
        <time>2016-08-19T07:49:54.000Z</time>
      </trkpt>
      <trkpt lat="45.77332" lon="4.85314">
        <ele>169</ele>
        <time>2016-08-19T07:49:55.000Z</time>
      </trkpt>
      <trkpt lat="45.77332" lon="4.85317">
        <ele>169</ele>
        <time>2016-08-19T07:49:56.000Z</time>
      </trkpt>
      <trkpt lat="45.7733" lon="4.8532">
        <ele>169.19999694824</ele>
        <time>2016-08-19T07:49:57.000Z</time>
      </trkpt>
      <trkpt lat="45.77329" lon="4.85322">
        <ele>169.39999389648</ele>
        <time>2016-08-19T07:49:58.000Z</time>
      </trkpt>
      <trkpt lat="45.77328" lon="4.85325">
        <ele>169.60000610352</ele>
        <time>2016-08-19T07:49:59.000Z</time>
      </trkpt>
      <trkpt lat="45.77327" lon="4.85328">
        <ele>169.80000305176</ele>
        <time>2016-08-19T07:50:00.000Z</time>
      </trkpt>
      <trkpt lat="45.77325" lon="4.85331">
        <ele>170</ele>
        <time>2016-08-19T07:50:01.000Z</time>
      </trkpt>
      <trkpt lat="45.77324" lon="4.85334">
        <ele>170.19999694824</ele>
        <time>2016-08-19T07:50:02.000Z</time>
      </trkpt>
      <trkpt lat="45.77322" lon="4.85337">
        <ele>170.39999389648</ele>
        <time>2016-08-19T07:50:03.000Z</time>
      </trkpt>
      <trkpt lat="45.7732" lon="4.8534">
        <ele>170.80000305176</ele>
        <time>2016-08-19T07:50:04.000Z</time>
      </trkpt>
      <trkpt lat="45.77318" lon="4.85344">
        <ele>171</ele>
        <time>2016-08-19T07:50:05.000Z</time>
      </trkpt>
      <trkpt lat="45.77316" lon="4.85348">
        <ele>171.19999694824</ele>
        <time>2016-08-19T07:50:06.000Z</time>
      </trkpt>
      <trkpt lat="45.77316" lon="4.85352">
        <ele>171.39999389648</ele>
        <time>2016-08-19T07:50:07.000Z</time>
      </trkpt>
      <trkpt lat="45.77314" lon="4.85356">
        <ele>171.60000610352</ele>
        <time>2016-08-19T07:50:08.000Z</time>
      </trkpt>
      <trkpt lat="45.77313" lon="4.85359">
        <ele>172</ele>
        <time>2016-08-19T07:50:09.000Z</time>
      </trkpt>
      <trkpt lat="45.77312" lon="4.85363">
        <ele>172.19999694824</ele>
        <time>2016-08-19T07:50:10.000Z</time>
      </trkpt>
      <trkpt lat="45.77311" lon="4.85367">
        <ele>172.39999389648</ele>
        <time>2016-08-19T07:50:11.000Z</time>
      </trkpt>
      <trkpt lat="45.7731" lon="4.85371">
        <ele>172.60000610352</ele>
        <time>2016-08-19T07:50:12.000Z</time>
      </trkpt>
      <trkpt lat="45.77309" lon="4.85374">
        <ele>172.80000305176</ele>
        <time>2016-08-19T07:50:13.000Z</time>
      </trkpt>
      <trkpt lat="45.77307" lon="4.85377">
        <ele>173</ele>
        <time>2016-08-19T07:50:14.000Z</time>
      </trkpt>
      <trkpt lat="45.77306" lon="4.85381">
        <ele>173</ele>
        <time>2016-08-19T07:50:15.000Z</time>
      </trkpt>
      <trkpt lat="45.77305" lon="4.85384">
        <ele>173</ele>
        <time>2016-08-19T07:50:16.000Z</time>
      </trkpt>
      <trkpt lat="45.77304" lon="4.85388">
        <ele>173</ele>
        <time>2016-08-19T07:50:17.000Z</time>
      </trkpt>
      <trkpt lat="45.77303" lon="4.85391">
        <ele>173</ele>
        <time>2016-08-19T07:50:18.000Z</time>
      </trkpt>
      <trkpt lat="45.77302" lon="4.85393">
        <ele>173</ele>
        <time>2016-08-19T07:50:19.000Z</time>
      </trkpt>
      <trkpt lat="45.77302" lon="4.85395">
        <ele>173</ele>
        <time>2016-08-19T07:50:20.000Z</time>
      </trkpt>
      <trkpt lat="45.77301" lon="4.85398">
        <ele>173</ele>
        <time>2016-08-19T07:50:21.000Z</time>
      </trkpt>
      <trkpt lat="45.773" lon="4.85401">
        <ele>173</ele>
        <time>2016-08-19T07:50:22.000Z</time>
      </trkpt>
      <trkpt lat="45.77299" lon="4.85404">
        <ele>173</ele>
        <time>2016-08-19T07:50:23.000Z</time>
      </trkpt>
      <trkpt lat="45.77298" lon="4.85407">
        <ele>173</ele>
        <time>2016-08-19T07:50:24.000Z</time>
      </trkpt>
      <trkpt lat="45.77296" lon="4.8541">
        <ele>173</ele>
        <time>2016-08-19T07:50:25.000Z</time>
      </trkpt>
      <trkpt lat="45.77296" lon="4.85413">
        <ele>173</ele>
        <time>2016-08-19T07:50:26.000Z</time>
      </trkpt>
      <trkpt lat="45.77295" lon="4.85416">
        <ele>173</ele>
        <time>2016-08-19T07:50:27.000Z</time>
      </trkpt>
      <trkpt lat="45.77296" lon="4.85419">
        <ele>173</ele>
        <time>2016-08-19T07:50:28.000Z</time>
      </trkpt>
      <trkpt lat="45.77298" lon="4.85422">
        <ele>173</ele>
        <time>2016-08-19T07:50:29.000Z</time>
      </trkpt>
      <trkpt lat="45.773" lon="4.85424">
        <ele>173</ele>
        <time>2016-08-19T07:50:30.000Z</time>
      </trkpt>
      <trkpt lat="45.77302" lon="4.85427">
        <ele>173</ele>
        <time>2016-08-19T07:50:31.000Z</time>
      </trkpt>
      <trkpt lat="45.77303" lon="4.85429">
        <ele>173</ele>
        <time>2016-08-19T07:50:32.000Z</time>
      </trkpt>
      <trkpt lat="45.77304" lon="4.85433">
        <ele>173</ele>
        <time>2016-08-19T07:50:33.000Z</time>
      </trkpt>
      <trkpt lat="45.77306" lon="4.85435">
        <ele>173</ele>
        <time>2016-08-19T07:50:34.000Z</time>
      </trkpt>
      <trkpt lat="45.77308" lon="4.85437">
        <ele>173</ele>
        <time>2016-08-19T07:50:35.000Z</time>
      </trkpt>
      <trkpt lat="45.77311" lon="4.85439">
        <ele>173</ele>
        <time>2016-08-19T07:50:36.000Z</time>
      </trkpt>
      <trkpt lat="45.77313" lon="4.85441">
        <ele>173</ele>
        <time>2016-08-19T07:50:37.000Z</time>
      </trkpt>
      <trkpt lat="45.77315" lon="4.85444">
        <ele>173</ele>
        <time>2016-08-19T07:50:38.000Z</time>
      </trkpt>
      <trkpt lat="45.77318" lon="4.85446">
        <ele>173</ele>
        <time>2016-08-19T07:50:39.000Z</time>
      </trkpt>
      <trkpt lat="45.7732" lon="4.85448">
        <ele>173</ele>
        <time>2016-08-19T07:50:40.000Z</time>
      </trkpt>
      <trkpt lat="45.77322" lon="4.8545">
        <ele>173</ele>
        <time>2016-08-19T07:50:41.000Z</time>
      </trkpt>
      <trkpt lat="45.77325" lon="4.85452">
        <ele>173</ele>
        <time>2016-08-19T07:50:42.000Z</time>
      </trkpt>
      <trkpt lat="45.77327" lon="4.85455">
        <ele>173</ele>
        <time>2016-08-19T07:50:43.000Z</time>
      </trkpt>
      <trkpt lat="45.77329" lon="4.85457">
        <ele>173</ele>
        <time>2016-08-19T07:50:44.000Z</time>
      </trkpt>
      <trkpt lat="45.77331" lon="4.8546">
        <ele>173</ele>
        <time>2016-08-19T07:50:45.000Z</time>
      </trkpt>
      <trkpt lat="45.77333" lon="4.85462">
        <ele>173.19999694824</ele>
        <time>2016-08-19T07:50:46.000Z</time>
      </trkpt>
      <trkpt lat="45.77335" lon="4.85465">
        <ele>173.19999694824</ele>
        <time>2016-08-19T07:50:47.000Z</time>
      </trkpt>
      <trkpt lat="45.77337" lon="4.85467">
        <ele>173.19999694824</ele>
        <time>2016-08-19T07:50:48.000Z</time>
      </trkpt>
      <trkpt lat="45.77339" lon="4.8547">
        <ele>173.39999389648</ele>
        <time>2016-08-19T07:50:49.000Z</time>
      </trkpt>
      <trkpt lat="45.77341" lon="4.85472">
        <ele>173.39999389648</ele>
        <time>2016-08-19T07:50:50.000Z</time>
      </trkpt>
      <trkpt lat="45.77343" lon="4.85474">
        <ele>173.39999389648</ele>
        <time>2016-08-19T07:50:51.000Z</time>
      </trkpt>
      <trkpt lat="45.77345" lon="4.85476">
        <ele>173.39999389648</ele>
        <time>2016-08-19T07:50:52.000Z</time>
      </trkpt>
      <trkpt lat="45.77347" lon="4.85479">
        <ele>173.60000610352</ele>
        <time>2016-08-19T07:50:53.000Z</time>
      </trkpt>
      <trkpt lat="45.77349" lon="4.8548">
        <ele>173.60000610352</ele>
        <time>2016-08-19T07:50:54.000Z</time>
      </trkpt>
      <trkpt lat="45.77351" lon="4.85482">
        <ele>173.60000610352</ele>
        <time>2016-08-19T07:50:55.000Z</time>
      </trkpt>
      <trkpt lat="45.77353" lon="4.85485">
        <ele>173.60000610352</ele>
        <time>2016-08-19T07:50:56.000Z</time>
      </trkpt>
      <trkpt lat="45.77355" lon="4.85488">
        <ele>173.80000305176</ele>
        <time>2016-08-19T07:50:57.000Z</time>
      </trkpt>
      <trkpt lat="45.77356" lon="4.85491">
        <ele>173.80000305176</ele>
        <time>2016-08-19T07:50:58.000Z</time>
      </trkpt>
      <trkpt lat="45.77357" lon="4.85494">
        <ele>174</ele>
        <time>2016-08-19T07:50:59.000Z</time>
      </trkpt>
      <trkpt lat="45.77357" lon="4.85497">
        <ele>174</ele>
        <time>2016-08-19T07:51:00.000Z</time>
      </trkpt>
      <trkpt lat="45.77357" lon="4.85499">
        <ele>174</ele>
        <time>2016-08-19T07:51:01.000Z</time>
      </trkpt>
      <trkpt lat="45.77357" lon="4.85502">
        <ele>174.19999694824</ele>
        <time>2016-08-19T07:51:02.000Z</time>
      </trkpt>
      <trkpt lat="45.77357" lon="4.85505">
        <ele>174.19999694824</ele>
        <time>2016-08-19T07:51:03.000Z</time>
      </trkpt>
      <trkpt lat="45.77358" lon="4.85508">
        <ele>174.19999694824</ele>
        <time>2016-08-19T07:51:04.000Z</time>
      </trkpt>
      <trkpt lat="45.77358" lon="4.85511">
        <ele>174.19999694824</ele>
        <time>2016-08-19T07:51:05.000Z</time>
      </trkpt>
      <trkpt lat="45.77359" lon="4.85514">
        <ele>174.19999694824</ele>
        <time>2016-08-19T07:51:06.000Z</time>
      </trkpt>
      <trkpt lat="45.77358" lon="4.85517">
        <ele>174</ele>
        <time>2016-08-19T07:51:07.000Z</time>
      </trkpt>
      <trkpt lat="45.77358" lon="4.8552">
        <ele>174</ele>
        <time>2016-08-19T07:51:08.000Z</time>
      </trkpt>
      <trkpt lat="45.77358" lon="4.85523">
        <ele>173.80000305176</ele>
        <time>2016-08-19T07:51:09.000Z</time>
      </trkpt>
      <trkpt lat="45.77357" lon="4.85527">
        <ele>173.60000610352</ele>
        <time>2016-08-19T07:51:10.000Z</time>
      </trkpt>
      <trkpt lat="45.77357" lon="4.85531">
        <ele>173.39999389648</ele>
        <time>2016-08-19T07:51:11.000Z</time>
      </trkpt>
      <trkpt lat="45.77356" lon="4.85535">
        <ele>173.19999694824</ele>
        <time>2016-08-19T07:51:12.000Z</time>
      </trkpt>
      <trkpt lat="45.77356" lon="4.85539">
        <ele>173</ele>
        <time>2016-08-19T07:51:13.000Z</time>
      </trkpt>
      <trkpt lat="45.77356" lon="4.85543">
        <ele>172.80000305176</ele>
        <time>2016-08-19T07:51:14.000Z</time>
      </trkpt>
      <trkpt lat="45.77357" lon="4.85547">
        <ele>172.60000610352</ele>
        <time>2016-08-19T07:51:15.000Z</time>
      </trkpt>
      <trkpt lat="45.77357" lon="4.8555">
        <ele>172.39999389648</ele>
        <time>2016-08-19T07:51:16.000Z</time>
      </trkpt>
      <trkpt lat="45.77357" lon="4.85554">
        <ele>172.39999389648</ele>
        <time>2016-08-19T07:51:17.000Z</time>
      </trkpt>
      <trkpt lat="45.77358" lon="4.85557">
        <ele>172.19999694824</ele>
        <time>2016-08-19T07:51:18.000Z</time>
      </trkpt>
      <trkpt lat="45.77359" lon="4.85561">
        <ele>172</ele>
        <time>2016-08-19T07:51:19.000Z</time>
      </trkpt>
      <trkpt lat="45.77359" lon="4.85565">
        <ele>171.80000305176</ele>
        <time>2016-08-19T07:51:20.000Z</time>
      </trkpt>
      <trkpt lat="45.77359" lon="4.8557">
        <ele>171.39999389648</ele>
        <time>2016-08-19T07:51:21.000Z</time>
      </trkpt>
      <trkpt lat="45.7736" lon="4.85574">
        <ele>171.19999694824</ele>
        <time>2016-08-19T07:51:22.000Z</time>
      </trkpt>
      <trkpt lat="45.77361" lon="4.85579">
        <ele>171</ele>
        <time>2016-08-19T07:51:23.000Z</time>
      </trkpt>
      <trkpt lat="45.77361" lon="4.85583">
        <ele>170.80000305176</ele>
        <time>2016-08-19T07:51:24.000Z</time>
      </trkpt>
      <trkpt lat="45.77362" lon="4.85587">
        <ele>170.60000610352</ele>
        <time>2016-08-19T07:51:25.000Z</time>
      </trkpt>
      <trkpt lat="45.77362" lon="4.85591">
        <ele>170.39999389648</ele>
        <time>2016-08-19T07:51:26.000Z</time>
      </trkpt>
      <trkpt lat="45.77362" lon="4.85595">
        <ele>170.19999694824</ele>
        <time>2016-08-19T07:51:27.000Z</time>
      </trkpt>
      <trkpt lat="45.77363" lon="4.85599">
        <ele>170</ele>
        <time>2016-08-19T07:51:28.000Z</time>
      </trkpt>
      <trkpt lat="45.77363" lon="4.85602">
        <ele>169.80000305176</ele>
        <time>2016-08-19T07:51:29.000Z</time>
      </trkpt>
      <trkpt lat="45.77364" lon="4.85606">
        <ele>169.80000305176</ele>
        <time>2016-08-19T07:51:30.000Z</time>
      </trkpt>
      <trkpt lat="45.77365" lon="4.8561">
        <ele>169.60000610352</ele>
        <time>2016-08-19T07:51:31.000Z</time>
      </trkpt>
      <trkpt lat="45.77365" lon="4.85614">
        <ele>169.39999389648</ele>
        <time>2016-08-19T07:51:32.000Z</time>
      </trkpt>
      <trkpt lat="45.77365" lon="4.85618">
        <ele>169.39999389648</ele>
        <time>2016-08-19T07:51:33.000Z</time>
      </trkpt>
      <trkpt lat="45.77365" lon="4.85621">
        <ele>169.19999694824</ele>
        <time>2016-08-19T07:51:34.000Z</time>
      </trkpt>
      <trkpt lat="45.77366" lon="4.85625">
        <ele>169.19999694824</ele>
        <time>2016-08-19T07:51:35.000Z</time>
      </trkpt>
      <trkpt lat="45.77366" lon="4.85629">
        <ele>169.19999694824</ele>
        <time>2016-08-19T07:51:36.000Z</time>
      </trkpt>
      <trkpt lat="45.77366" lon="4.85633">
        <ele>169.19999694824</ele>
        <time>2016-08-19T07:51:37.000Z</time>
      </trkpt>
      <trkpt lat="45.77366" lon="4.85636">
        <ele>169.19999694824</ele>
        <time>2016-08-19T07:51:38.000Z</time>
      </trkpt>
      <trkpt lat="45.77366" lon="4.8564">
        <ele>169.19999694824</ele>
        <time>2016-08-19T07:51:39.000Z</time>
      </trkpt>
      <trkpt lat="45.77367" lon="4.85644">
        <ele>169.19999694824</ele>
        <time>2016-08-19T07:51:40.000Z</time>
      </trkpt>
      <trkpt lat="45.77368" lon="4.85648">
        <ele>169.19999694824</ele>
        <time>2016-08-19T07:51:41.000Z</time>
      </trkpt>
      <trkpt lat="45.77369" lon="4.85651">
        <ele>169.19999694824</ele>
        <time>2016-08-19T07:51:42.000Z</time>
      </trkpt>
      <trkpt lat="45.7737" lon="4.85654">
        <ele>169.39999389648</ele>
        <time>2016-08-19T07:51:43.000Z</time>
      </trkpt>
      <trkpt lat="45.77372" lon="4.85656">
        <ele>169.39999389648</ele>
        <time>2016-08-19T07:51:44.000Z</time>
      </trkpt>
      <trkpt lat="45.77374" lon="4.85656">
        <ele>169.39999389648</ele>
        <time>2016-08-19T07:51:45.000Z</time>
      </trkpt>
      <trkpt lat="45.77376" lon="4.85656">
        <ele>169.60000610352</ele>
        <time>2016-08-19T07:51:46.000Z</time>
      </trkpt>
      <trkpt lat="45.77379" lon="4.85656">
        <ele>169.60000610352</ele>
        <time>2016-08-19T07:51:47.000Z</time>
      </trkpt>
      <trkpt lat="45.77381" lon="4.85656">
        <ele>169.80000305176</ele>
        <time>2016-08-19T07:51:48.000Z</time>
      </trkpt>
      <trkpt lat="45.77384" lon="4.85656">
        <ele>169.80000305176</ele>
        <time>2016-08-19T07:51:49.000Z</time>
      </trkpt>
      <trkpt lat="45.77386" lon="4.85656">
        <ele>170</ele>
        <time>2016-08-19T07:51:50.000Z</time>
      </trkpt>
      <trkpt lat="45.77389" lon="4.85657">
        <ele>170</ele>
        <time>2016-08-19T07:51:51.000Z</time>
      </trkpt>
      <trkpt lat="45.77391" lon="4.8566">
        <ele>170</ele>
        <time>2016-08-19T07:51:52.000Z</time>
      </trkpt>
      <trkpt lat="45.77392" lon="4.85663">
        <ele>170</ele>
        <time>2016-08-19T07:51:53.000Z</time>
      </trkpt>
      <trkpt lat="45.77393" lon="4.85667">
        <ele>170</ele>
        <time>2016-08-19T07:51:54.000Z</time>
      </trkpt>
      <trkpt lat="45.77393" lon="4.85671">
        <ele>170</ele>
        <time>2016-08-19T07:51:55.000Z</time>
      </trkpt>
      <trkpt lat="45.77393" lon="4.85674">
        <ele>170</ele>
        <time>2016-08-19T07:51:56.000Z</time>
      </trkpt>
      <trkpt lat="45.77394" lon="4.85678">
        <ele>170</ele>
        <time>2016-08-19T07:51:57.000Z</time>
      </trkpt>
      <trkpt lat="45.77395" lon="4.85681">
        <ele>170</ele>
        <time>2016-08-19T07:51:58.000Z</time>
      </trkpt>
      <trkpt lat="45.77396" lon="4.85684">
        <ele>170</ele>
        <time>2016-08-19T07:51:59.000Z</time>
      </trkpt>
      <trkpt lat="45.77396" lon="4.85688">
        <ele>170</ele>
        <time>2016-08-19T07:52:00.000Z</time>
      </trkpt>
      <trkpt lat="45.77396" lon="4.85692">
        <ele>170</ele>
        <time>2016-08-19T07:52:01.000Z</time>
      </trkpt>
      <trkpt lat="45.77396" lon="4.85695">
        <ele>170</ele>
        <time>2016-08-19T07:52:02.000Z</time>
      </trkpt>
      <trkpt lat="45.77396" lon="4.85698">
        <ele>170</ele>
        <time>2016-08-19T07:52:03.000Z</time>
      </trkpt>
      <trkpt lat="45.77396" lon="4.85702">
        <ele>170</ele>
        <time>2016-08-19T07:52:04.000Z</time>
      </trkpt>
      <trkpt lat="45.77396" lon="4.85705">
        <ele>170</ele>
        <time>2016-08-19T07:52:05.000Z</time>
      </trkpt>
      <trkpt lat="45.77397" lon="4.85708">
        <ele>170</ele>
        <time>2016-08-19T07:52:06.000Z</time>
      </trkpt>
      <trkpt lat="45.77398" lon="4.85711">
        <ele>170</ele>
        <time>2016-08-19T07:52:07.000Z</time>
      </trkpt>
      <trkpt lat="45.77398" lon="4.85714">
        <ele>170</ele>
        <time>2016-08-19T07:52:08.000Z</time>
      </trkpt>
      <trkpt lat="45.77398" lon="4.85717">
        <ele>170.19999694824</ele>
        <time>2016-08-19T07:52:09.000Z</time>
      </trkpt>
      <trkpt lat="45.77398" lon="4.85721">
        <ele>170.19999694824</ele>
        <time>2016-08-19T07:52:10.000Z</time>
      </trkpt>
      <trkpt lat="45.77398" lon="4.85724">
        <ele>170.19999694824</ele>
        <time>2016-08-19T07:52:11.000Z</time>
      </trkpt>
      <trkpt lat="45.77398" lon="4.85728">
        <ele>170.19999694824</ele>
        <time>2016-08-19T07:52:12.000Z</time>
      </trkpt>
      <trkpt lat="45.77398" lon="4.85731">
        <ele>170.19999694824</ele>
        <time>2016-08-19T07:52:13.000Z</time>
      </trkpt>
      <trkpt lat="45.77398" lon="4.85734">
        <ele>170.19999694824</ele>
        <time>2016-08-19T07:52:14.000Z</time>
      </trkpt>
      <trkpt lat="45.77397" lon="4.85737">
        <ele>170.19999694824</ele>
        <time>2016-08-19T07:52:15.000Z</time>
      </trkpt>
      <trkpt lat="45.77398" lon="4.8574">
        <ele>170.19999694824</ele>
        <time>2016-08-19T07:52:16.000Z</time>
      </trkpt>
      <trkpt lat="45.77399" lon="4.85743">
        <ele>170.19999694824</ele>
        <time>2016-08-19T07:52:17.000Z</time>
      </trkpt>
      <trkpt lat="45.774" lon="4.85746">
        <ele>170.19999694824</ele>
        <time>2016-08-19T07:52:18.000Z</time>
      </trkpt>
      <trkpt lat="45.77401" lon="4.85748">
        <ele>170.19999694824</ele>
        <time>2016-08-19T07:52:19.000Z</time>
      </trkpt>
      <trkpt lat="45.77403" lon="4.85751">
        <ele>170.19999694824</ele>
        <time>2016-08-19T07:52:20.000Z</time>
      </trkpt>
      <trkpt lat="45.77404" lon="4.85754">
        <ele>170.19999694824</ele>
        <time>2016-08-19T07:52:21.000Z</time>
      </trkpt>
      <trkpt lat="45.77405" lon="4.85757">
        <ele>170.19999694824</ele>
        <time>2016-08-19T07:52:22.000Z</time>
      </trkpt>
      <trkpt lat="45.77406" lon="4.8576">
        <ele>170.19999694824</ele>
        <time>2016-08-19T07:52:23.000Z</time>
      </trkpt>
      <trkpt lat="45.77408" lon="4.85763">
        <ele>170.19999694824</ele>
        <time>2016-08-19T07:52:24.000Z</time>
      </trkpt>
      <trkpt lat="45.77409" lon="4.85765">
        <ele>170.19999694824</ele>
        <time>2016-08-19T07:52:25.000Z</time>
      </trkpt>
      <trkpt lat="45.77411" lon="4.85768">
        <ele>170.19999694824</ele>
        <time>2016-08-19T07:52:26.000Z</time>
      </trkpt>
      <trkpt lat="45.77413" lon="4.85771">
        <ele>170.39999389648</ele>
        <time>2016-08-19T07:52:27.000Z</time>
      </trkpt>
      <trkpt lat="45.77416" lon="4.85774">
        <ele>170.39999389648</ele>
        <time>2016-08-19T07:52:28.000Z</time>
      </trkpt>
      <trkpt lat="45.77418" lon="4.85776">
        <ele>170.39999389648</ele>
        <time>2016-08-19T07:52:29.000Z</time>
      </trkpt>
      <trkpt lat="45.77419" lon="4.85778">
        <ele>170.39999389648</ele>
        <time>2016-08-19T07:52:30.000Z</time>
      </trkpt>
      <trkpt lat="45.77421" lon="4.8578">
        <ele>170.39999389648</ele>
        <time>2016-08-19T07:52:31.000Z</time>
      </trkpt>
      <trkpt lat="45.77423" lon="4.85782">
        <ele>170.39999389648</ele>
        <time>2016-08-19T07:52:32.000Z</time>
      </trkpt>
      <trkpt lat="45.77424" lon="4.85783">
        <ele>170.39999389648</ele>
        <time>2016-08-19T07:52:33.000Z</time>
      </trkpt>
      <trkpt lat="45.77426" lon="4.85785">
        <ele>170.39999389648</ele>
        <time>2016-08-19T07:52:34.000Z</time>
      </trkpt>
      <trkpt lat="45.77427" lon="4.85787">
        <ele>170.39999389648</ele>
        <time>2016-08-19T07:52:35.000Z</time>
      </trkpt>
      <trkpt lat="45.77428" lon="4.85789">
        <ele>170.39999389648</ele>
        <time>2016-08-19T07:52:36.000Z</time>
      </trkpt>
      <trkpt lat="45.7743" lon="4.85791">
        <ele>170.60000610352</ele>
        <time>2016-08-19T07:52:37.000Z</time>
      </trkpt>
      <trkpt lat="45.77432" lon="4.85793">
        <ele>170.60000610352</ele>
        <time>2016-08-19T07:52:38.000Z</time>
      </trkpt>
      <trkpt lat="45.77434" lon="4.85795">
        <ele>170.60000610352</ele>
        <time>2016-08-19T07:52:39.000Z</time>
      </trkpt>
      <trkpt lat="45.77437" lon="4.85796">
        <ele>170.60000610352</ele>
        <time>2016-08-19T07:52:40.000Z</time>
      </trkpt>
      <trkpt lat="45.77439" lon="4.85798">
        <ele>170.80000305176</ele>
        <time>2016-08-19T07:52:41.000Z</time>
      </trkpt>
      <trkpt lat="45.7744" lon="4.85799">
        <ele>170.80000305176</ele>
        <time>2016-08-19T07:52:42.000Z</time>
      </trkpt>
      <trkpt lat="45.77442" lon="4.85801">
        <ele>170.80000305176</ele>
        <time>2016-08-19T07:52:43.000Z</time>
      </trkpt>
      <trkpt lat="45.77445" lon="4.85803">
        <ele>170.80000305176</ele>
        <time>2016-08-19T07:52:44.000Z</time>
      </trkpt>
      <trkpt lat="45.77446" lon="4.85805">
        <ele>170.80000305176</ele>
        <time>2016-08-19T07:52:45.000Z</time>
      </trkpt>
      <trkpt lat="45.77449" lon="4.85806">
        <ele>171</ele>
        <time>2016-08-19T07:52:46.000Z</time>
      </trkpt>
      <trkpt lat="45.77451" lon="4.85807">
        <ele>171</ele>
        <time>2016-08-19T07:52:47.000Z</time>
      </trkpt>
      <trkpt lat="45.77454" lon="4.85808">
        <ele>171</ele>
        <time>2016-08-19T07:52:48.000Z</time>
      </trkpt>
      <trkpt lat="45.77457" lon="4.85808">
        <ele>171</ele>
        <time>2016-08-19T07:52:49.000Z</time>
      </trkpt>
      <trkpt lat="45.77459" lon="4.8581">
        <ele>171</ele>
        <time>2016-08-19T07:52:50.000Z</time>
      </trkpt>
      <trkpt lat="45.77461" lon="4.85811">
        <ele>171.19999694824</ele>
        <time>2016-08-19T07:52:51.000Z</time>
      </trkpt>
      <trkpt lat="45.77463" lon="4.85812">
        <ele>171.19999694824</ele>
        <time>2016-08-19T07:52:52.000Z</time>
      </trkpt>
      <trkpt lat="45.77466" lon="4.85812">
        <ele>171.19999694824</ele>
        <time>2016-08-19T07:52:53.000Z</time>
      </trkpt>
      <trkpt lat="45.77468" lon="4.85813">
        <ele>171.19999694824</ele>
        <time>2016-08-19T07:52:54.000Z</time>
      </trkpt>
      <trkpt lat="45.7747" lon="4.85815">
        <ele>171.19999694824</ele>
        <time>2016-08-19T07:52:55.000Z</time>
      </trkpt>
      <trkpt lat="45.77471" lon="4.85815">
        <ele>171.39999389648</ele>
        <time>2016-08-19T07:52:56.000Z</time>
      </trkpt>
      <trkpt lat="45.77473" lon="4.85815">
        <ele>171.39999389648</ele>
        <time>2016-08-19T07:52:57.000Z</time>
      </trkpt>
      <trkpt lat="45.77475" lon="4.85816">
        <ele>171.39999389648</ele>
        <time>2016-08-19T07:52:58.000Z</time>
      </trkpt>
      <trkpt lat="45.77477" lon="4.85816">
        <ele>171.39999389648</ele>
        <time>2016-08-19T07:52:59.000Z</time>
      </trkpt>
      <trkpt lat="45.77479" lon="4.85818">
        <ele>171.60000610352</ele>
        <time>2016-08-19T07:53:00.000Z</time>
      </trkpt>
      <trkpt lat="45.77481" lon="4.85819">
        <ele>171.60000610352</ele>
        <time>2016-08-19T07:53:01.000Z</time>
      </trkpt>
      <trkpt lat="45.77483" lon="4.8582">
        <ele>171.60000610352</ele>
        <time>2016-08-19T07:53:02.000Z</time>
      </trkpt>
      <trkpt lat="45.77485" lon="4.8582">
        <ele>171.60000610352</ele>
        <time>2016-08-19T07:53:03.000Z</time>
      </trkpt>
      <trkpt lat="45.77488" lon="4.8582">
        <ele>171.80000305176</ele>
        <time>2016-08-19T07:53:04.000Z</time>
      </trkpt>
      <trkpt lat="45.77491" lon="4.8582">
        <ele>171.80000305176</ele>
        <time>2016-08-19T07:53:05.000Z</time>
      </trkpt>
      <trkpt lat="45.77493" lon="4.85821">
        <ele>171.80000305176</ele>
        <time>2016-08-19T07:53:06.000Z</time>
      </trkpt>
      <trkpt lat="45.77495" lon="4.85821">
        <ele>172</ele>
        <time>2016-08-19T07:53:07.000Z</time>
      </trkpt>
      <trkpt lat="45.77498" lon="4.85822">
        <ele>172</ele>
        <time>2016-08-19T07:53:08.000Z</time>
      </trkpt>
      <trkpt lat="45.77501" lon="4.85822">
        <ele>172</ele>
        <time>2016-08-19T07:53:09.000Z</time>
      </trkpt>
      <trkpt lat="45.77503" lon="4.85822">
        <ele>172.19999694824</ele>
        <time>2016-08-19T07:53:10.000Z</time>
      </trkpt>
      <trkpt lat="45.77505" lon="4.85823">
        <ele>172.19999694824</ele>
        <time>2016-08-19T07:53:11.000Z</time>
      </trkpt>
      <trkpt lat="45.77508" lon="4.85823">
        <ele>172.19999694824</ele>
        <time>2016-08-19T07:53:12.000Z</time>
      </trkpt>
      <trkpt lat="45.7751" lon="4.85823">
        <ele>172.19999694824</ele>
        <time>2016-08-19T07:53:13.000Z</time>
      </trkpt>
      <trkpt lat="45.77511" lon="4.85824">
        <ele>172.19999694824</ele>
        <time>2016-08-19T07:53:14.000Z</time>
      </trkpt>
      <trkpt lat="45.77513" lon="4.85824">
        <ele>172.19999694824</ele>
        <time>2016-08-19T07:53:15.000Z</time>
      </trkpt>
      <trkpt lat="45.77515" lon="4.85825">
        <ele>172</ele>
        <time>2016-08-19T07:53:16.000Z</time>
      </trkpt>
      <trkpt lat="45.77517" lon="4.85825">
        <ele>172</ele>
        <time>2016-08-19T07:53:17.000Z</time>
      </trkpt>
      <trkpt lat="45.77519" lon="4.85826">
        <ele>172</ele>
        <time>2016-08-19T07:53:18.000Z</time>
      </trkpt>
      <trkpt lat="45.7752" lon="4.85826">
        <ele>172</ele>
        <time>2016-08-19T07:53:19.000Z</time>
      </trkpt>
      <trkpt lat="45.77523" lon="4.85826">
        <ele>172</ele>
        <time>2016-08-19T07:53:20.000Z</time>
      </trkpt>
      <trkpt lat="45.77526" lon="4.85825">
        <ele>171.80000305176</ele>
        <time>2016-08-19T07:53:21.000Z</time>
      </trkpt>
      <trkpt lat="45.77528" lon="4.85825">
        <ele>171.80000305176</ele>
        <time>2016-08-19T07:53:22.000Z</time>
      </trkpt>
      <trkpt lat="45.77529" lon="4.85825">
        <ele>171.80000305176</ele>
        <time>2016-08-19T07:53:23.000Z</time>
      </trkpt>
      <trkpt lat="45.77531" lon="4.85825">
        <ele>171.60000610352</ele>
        <time>2016-08-19T07:53:24.000Z</time>
      </trkpt>
      <trkpt lat="45.77533" lon="4.85825">
        <ele>171.60000610352</ele>
        <time>2016-08-19T07:53:25.000Z</time>
      </trkpt>
      <trkpt lat="45.77535" lon="4.85826">
        <ele>171.60000610352</ele>
        <time>2016-08-19T07:53:26.000Z</time>
      </trkpt>
      <trkpt lat="45.77537" lon="4.85827">
        <ele>171.60000610352</ele>
        <time>2016-08-19T07:53:27.000Z</time>
      </trkpt>
      <trkpt lat="45.77539" lon="4.85827">
        <ele>171.60000610352</ele>
        <time>2016-08-19T07:53:28.000Z</time>
      </trkpt>
      <trkpt lat="45.77543" lon="4.85827">
        <ele>171.60000610352</ele>
        <time>2016-08-19T07:53:29.000Z</time>
      </trkpt>
      <trkpt lat="45.77546" lon="4.85826">
        <ele>171.39999389648</ele>
        <time>2016-08-19T07:53:30.000Z</time>
      </trkpt>
      <trkpt lat="45.77549" lon="4.85826">
        <ele>171.39999389648</ele>
        <time>2016-08-19T07:53:31.000Z</time>
      </trkpt>
      <trkpt lat="45.77551" lon="4.85825">
        <ele>171.19999694824</ele>
        <time>2016-08-19T07:53:32.000Z</time>
      </trkpt>
      <trkpt lat="45.77553" lon="4.85825">
        <ele>171.19999694824</ele>
        <time>2016-08-19T07:53:33.000Z</time>
      </trkpt>
      <trkpt lat="45.77554" lon="4.85826">
        <ele>171.19999694824</ele>
        <time>2016-08-19T07:53:34.000Z</time>
      </trkpt>
      <trkpt lat="45.77556" lon="4.85826">
        <ele>171.19999694824</ele>
        <time>2016-08-19T07:53:35.000Z</time>
      </trkpt>
      <trkpt lat="45.77558" lon="4.85826">
        <ele>171.19999694824</ele>
        <time>2016-08-19T07:53:36.000Z</time>
      </trkpt>
      <trkpt lat="45.7756" lon="4.85826">
        <ele>171.19999694824</ele>
        <time>2016-08-19T07:53:37.000Z</time>
      </trkpt>
      <trkpt lat="45.77563" lon="4.85826">
        <ele>171.19999694824</ele>
        <time>2016-08-19T07:53:38.000Z</time>
      </trkpt>
      <trkpt lat="45.77565" lon="4.85826">
        <ele>171.19999694824</ele>
        <time>2016-08-19T07:53:39.000Z</time>
      </trkpt>
      <trkpt lat="45.77568" lon="4.85827">
        <ele>171.19999694824</ele>
        <time>2016-08-19T07:53:40.000Z</time>
      </trkpt>
      <trkpt lat="45.77571" lon="4.85827">
        <ele>171.19999694824</ele>
        <time>2016-08-19T07:53:41.000Z</time>
      </trkpt>
      <trkpt lat="45.77574" lon="4.85827">
        <ele>171.19999694824</ele>
        <time>2016-08-19T07:53:42.000Z</time>
      </trkpt>
      <trkpt lat="45.77576" lon="4.85828">
        <ele>171.19999694824</ele>
        <time>2016-08-19T07:53:43.000Z</time>
      </trkpt>
      <trkpt lat="45.77578" lon="4.85827">
        <ele>171.19999694824</ele>
        <time>2016-08-19T07:53:44.000Z</time>
      </trkpt>
      <trkpt lat="45.77581" lon="4.85827">
        <ele>171.19999694824</ele>
        <time>2016-08-19T07:53:45.000Z</time>
      </trkpt>
      <trkpt lat="45.77584" lon="4.85826">
        <ele>171.19999694824</ele>
        <time>2016-08-19T07:53:46.000Z</time>
      </trkpt>
      <trkpt lat="45.77586" lon="4.85826">
        <ele>171.19999694824</ele>
        <time>2016-08-19T07:53:47.000Z</time>
      </trkpt>
      <trkpt lat="45.77589" lon="4.85826">
        <ele>171.19999694824</ele>
        <time>2016-08-19T07:53:48.000Z</time>
      </trkpt>
      <trkpt lat="45.77591" lon="4.85825">
        <ele>171.19999694824</ele>
        <time>2016-08-19T07:53:49.000Z</time>
      </trkpt>
      <trkpt lat="45.77594" lon="4.85825">
        <ele>171.19999694824</ele>
        <time>2016-08-19T07:53:50.000Z</time>
      </trkpt>
      <trkpt lat="45.77596" lon="4.85825">
        <ele>171.19999694824</ele>
        <time>2016-08-19T07:53:51.000Z</time>
      </trkpt>
      <trkpt lat="45.77598" lon="4.85824">
        <ele>171.19999694824</ele>
        <time>2016-08-19T07:53:52.000Z</time>
      </trkpt>
      <trkpt lat="45.77601" lon="4.85824">
        <ele>171.19999694824</ele>
        <time>2016-08-19T07:53:53.000Z</time>
      </trkpt>
      <trkpt lat="45.77603" lon="4.85824">
        <ele>171.19999694824</ele>
        <time>2016-08-19T07:53:54.000Z</time>
      </trkpt>
      <trkpt lat="45.77605" lon="4.85824">
        <ele>171.19999694824</ele>
        <time>2016-08-19T07:53:55.000Z</time>
      </trkpt>
      <trkpt lat="45.77608" lon="4.85826">
        <ele>171.39999389648</ele>
        <time>2016-08-19T07:53:56.000Z</time>
      </trkpt>
      <trkpt lat="45.7761" lon="4.85827">
        <ele>171.39999389648</ele>
        <time>2016-08-19T07:53:57.000Z</time>
      </trkpt>
      <trkpt lat="45.77612" lon="4.85827">
        <ele>171.60000610352</ele>
        <time>2016-08-19T07:53:58.000Z</time>
      </trkpt>
      <trkpt lat="45.77615" lon="4.85827">
        <ele>171.60000610352</ele>
        <time>2016-08-19T07:53:59.000Z</time>
      </trkpt>
      <trkpt lat="45.77617" lon="4.85826">
        <ele>171.60000610352</ele>
        <time>2016-08-19T07:54:00.000Z</time>
      </trkpt>
      <trkpt lat="45.7762" lon="4.85826">
        <ele>171.60000610352</ele>
        <time>2016-08-19T07:54:01.000Z</time>
      </trkpt>
      <trkpt lat="45.77622" lon="4.85826">
        <ele>171.60000610352</ele>
        <time>2016-08-19T07:54:02.000Z</time>
      </trkpt>
      <trkpt lat="45.77625" lon="4.85825">
        <ele>171.60000610352</ele>
        <time>2016-08-19T07:54:03.000Z</time>
      </trkpt>
      <trkpt lat="45.77628" lon="4.85825">
        <ele>171.60000610352</ele>
        <time>2016-08-19T07:54:04.000Z</time>
      </trkpt>
      <trkpt lat="45.77632" lon="4.85825">
        <ele>171.60000610352</ele>
        <time>2016-08-19T07:54:05.000Z</time>
      </trkpt>
      <trkpt lat="45.77635" lon="4.85825">
        <ele>171.60000610352</ele>
        <time>2016-08-19T07:54:06.000Z</time>
      </trkpt>
      <trkpt lat="45.77638" lon="4.85825">
        <ele>171.60000610352</ele>
        <time>2016-08-19T07:54:07.000Z</time>
      </trkpt>
      <trkpt lat="45.77641" lon="4.85825">
        <ele>171.60000610352</ele>
        <time>2016-08-19T07:54:08.000Z</time>
      </trkpt>
      <trkpt lat="45.77644" lon="4.85825">
        <ele>171.39999389648</ele>
        <time>2016-08-19T07:54:09.000Z</time>
      </trkpt>
      <trkpt lat="45.77646" lon="4.85825">
        <ele>171.39999389648</ele>
        <time>2016-08-19T07:54:10.000Z</time>
      </trkpt>
      <trkpt lat="45.77649" lon="4.85825">
        <ele>171.39999389648</ele>
        <time>2016-08-19T07:54:11.000Z</time>
      </trkpt>
      <trkpt lat="45.77651" lon="4.85825">
        <ele>171.19999694824</ele>
        <time>2016-08-19T07:54:12.000Z</time>
      </trkpt>
      <trkpt lat="45.77653" lon="4.85825">
        <ele>171.19999694824</ele>
        <time>2016-08-19T07:54:13.000Z</time>
      </trkpt>
      <trkpt lat="45.77655" lon="4.85825">
        <ele>171.19999694824</ele>
        <time>2016-08-19T07:54:14.000Z</time>
      </trkpt>
      <trkpt lat="45.77657" lon="4.85825">
        <ele>171</ele>
        <time>2016-08-19T07:54:15.000Z</time>
      </trkpt>
      <trkpt lat="45.77659" lon="4.85825">
        <ele>171</ele>
        <time>2016-08-19T07:54:16.000Z</time>
      </trkpt>
      <trkpt lat="45.77661" lon="4.85825">
        <ele>170.80000305176</ele>
        <time>2016-08-19T07:54:17.000Z</time>
      </trkpt>
      <trkpt lat="45.77664" lon="4.85825">
        <ele>170.80000305176</ele>
        <time>2016-08-19T07:54:18.000Z</time>
      </trkpt>
      <trkpt lat="45.77665" lon="4.85825">
        <ele>170.80000305176</ele>
        <time>2016-08-19T07:54:19.000Z</time>
      </trkpt>
      <trkpt lat="45.77667" lon="4.85825">
        <ele>170.60000610352</ele>
        <time>2016-08-19T07:54:20.000Z</time>
      </trkpt>
      <trkpt lat="45.77669" lon="4.85824">
        <ele>170.60000610352</ele>
        <time>2016-08-19T07:54:21.000Z</time>
      </trkpt>
      <trkpt lat="45.77672" lon="4.85824">
        <ele>170.39999389648</ele>
        <time>2016-08-19T07:54:22.000Z</time>
      </trkpt>
      <trkpt lat="45.77674" lon="4.85824">
        <ele>170.39999389648</ele>
        <time>2016-08-19T07:54:23.000Z</time>
      </trkpt>
      <trkpt lat="45.77676" lon="4.85825">
        <ele>170.39999389648</ele>
        <time>2016-08-19T07:54:24.000Z</time>
      </trkpt>
      <trkpt lat="45.77678" lon="4.85825">
        <ele>170.39999389648</ele>
        <time>2016-08-19T07:54:25.000Z</time>
      </trkpt>
      <trkpt lat="45.7768" lon="4.85826">
        <ele>170.39999389648</ele>
        <time>2016-08-19T07:54:26.000Z</time>
      </trkpt>
      <trkpt lat="45.77682" lon="4.85826">
        <ele>170.39999389648</ele>
        <time>2016-08-19T07:54:27.000Z</time>
      </trkpt>
      <trkpt lat="45.77685" lon="4.85828">
        <ele>170.39999389648</ele>
        <time>2016-08-19T07:54:28.000Z</time>
      </trkpt>
      <trkpt lat="45.77687" lon="4.85828">
        <ele>170.39999389648</ele>
        <time>2016-08-19T07:54:29.000Z</time>
      </trkpt>
      <trkpt lat="45.7769" lon="4.85829">
        <ele>170.39999389648</ele>
        <time>2016-08-19T07:54:30.000Z</time>
      </trkpt>
      <trkpt lat="45.77692" lon="4.8583">
        <ele>170.39999389648</ele>
        <time>2016-08-19T07:54:31.000Z</time>
      </trkpt>
      <trkpt lat="45.77696" lon="4.8583">
        <ele>170.39999389648</ele>
        <time>2016-08-19T07:54:32.000Z</time>
      </trkpt>
      <trkpt lat="45.77698" lon="4.85831">
        <ele>170.39999389648</ele>
        <time>2016-08-19T07:54:33.000Z</time>
      </trkpt>
      <trkpt lat="45.77701" lon="4.85832">
        <ele>170.60000610352</ele>
        <time>2016-08-19T07:54:34.000Z</time>
      </trkpt>
      <trkpt lat="45.77703" lon="4.85833">
        <ele>170.60000610352</ele>
        <time>2016-08-19T07:54:35.000Z</time>
      </trkpt>
      <trkpt lat="45.77705" lon="4.85834">
        <ele>170.60000610352</ele>
        <time>2016-08-19T07:54:36.000Z</time>
      </trkpt>
      <trkpt lat="45.77708" lon="4.85835">
        <ele>170.60000610352</ele>
        <time>2016-08-19T07:54:37.000Z</time>
      </trkpt>
      <trkpt lat="45.7771" lon="4.85835">
        <ele>170.60000610352</ele>
        <time>2016-08-19T07:54:38.000Z</time>
      </trkpt>
      <trkpt lat="45.77712" lon="4.85835">
        <ele>170.60000610352</ele>
        <time>2016-08-19T07:54:39.000Z</time>
      </trkpt>
      <trkpt lat="45.77714" lon="4.85836">
        <ele>170.60000610352</ele>
        <time>2016-08-19T07:54:40.000Z</time>
      </trkpt>
      <trkpt lat="45.77715" lon="4.85837">
        <ele>170.60000610352</ele>
        <time>2016-08-19T07:54:41.000Z</time>
      </trkpt>
      <trkpt lat="45.77718" lon="4.85838">
        <ele>170.60000610352</ele>
        <time>2016-08-19T07:54:42.000Z</time>
      </trkpt>
      <trkpt lat="45.7772" lon="4.85838">
        <ele>170.60000610352</ele>
        <time>2016-08-19T07:54:43.000Z</time>
      </trkpt>
      <trkpt lat="45.77723" lon="4.85838">
        <ele>170.60000610352</ele>
        <time>2016-08-19T07:54:44.000Z</time>
      </trkpt>
      <trkpt lat="45.77726" lon="4.85837">
        <ele>170.80000305176</ele>
        <time>2016-08-19T07:54:45.000Z</time>
      </trkpt>
      <trkpt lat="45.77728" lon="4.85837">
        <ele>170.80000305176</ele>
        <time>2016-08-19T07:54:46.000Z</time>
      </trkpt>
      <trkpt lat="45.77731" lon="4.85838">
        <ele>171</ele>
        <time>2016-08-19T07:54:47.000Z</time>
      </trkpt>
      <trkpt lat="45.77734" lon="4.85838">
        <ele>171</ele>
        <time>2016-08-19T07:54:48.000Z</time>
      </trkpt>
      <trkpt lat="45.77737" lon="4.85838">
        <ele>171.19999694824</ele>
        <time>2016-08-19T07:54:49.000Z</time>
      </trkpt>
      <trkpt lat="45.77739" lon="4.85838">
        <ele>171.19999694824</ele>
        <time>2016-08-19T07:54:50.000Z</time>
      </trkpt>
      <trkpt lat="45.77742" lon="4.85838">
        <ele>171.39999389648</ele>
        <time>2016-08-19T07:54:51.000Z</time>
      </trkpt>
      <trkpt lat="45.77744" lon="4.85838">
        <ele>171.39999389648</ele>
        <time>2016-08-19T07:54:52.000Z</time>
      </trkpt>
      <trkpt lat="45.77747" lon="4.85839">
        <ele>171.60000610352</ele>
        <time>2016-08-19T07:54:53.000Z</time>
      </trkpt>
      <trkpt lat="45.77749" lon="4.85839">
        <ele>171.60000610352</ele>
        <time>2016-08-19T07:54:54.000Z</time>
      </trkpt>
      <trkpt lat="45.77751" lon="4.8584">
        <ele>171.60000610352</ele>
        <time>2016-08-19T07:54:55.000Z</time>
      </trkpt>
      <trkpt lat="45.77753" lon="4.8584">
        <ele>171.80000305176</ele>
        <time>2016-08-19T07:54:56.000Z</time>
      </trkpt>
      <trkpt lat="45.77757" lon="4.8584">
        <ele>171.80000305176</ele>
        <time>2016-08-19T07:54:57.000Z</time>
      </trkpt>
      <trkpt lat="45.7776" lon="4.8584">
        <ele>172</ele>
        <time>2016-08-19T07:54:58.000Z</time>
      </trkpt>
      <trkpt lat="45.77763" lon="4.8584">
        <ele>172</ele>
        <time>2016-08-19T07:54:59.000Z</time>
      </trkpt>
      <trkpt lat="45.77765" lon="4.8584">
        <ele>172.19999694824</ele>
        <time>2016-08-19T07:55:00.000Z</time>
      </trkpt>
      <trkpt lat="45.77768" lon="4.85839">
        <ele>172.19999694824</ele>
        <time>2016-08-19T07:55:01.000Z</time>
      </trkpt>
      <trkpt lat="45.7777" lon="4.85837">
        <ele>172.39999389648</ele>
        <time>2016-08-19T07:55:02.000Z</time>
      </trkpt>
      <trkpt lat="45.77773" lon="4.85835">
        <ele>172.60000610352</ele>
        <time>2016-08-19T07:55:03.000Z</time>
      </trkpt>
      <trkpt lat="45.77775" lon="4.85832">
        <ele>172.60000610352</ele>
        <time>2016-08-19T07:55:04.000Z</time>
      </trkpt>
      <trkpt lat="45.77778" lon="4.85831">
        <ele>172.80000305176</ele>
        <time>2016-08-19T07:55:05.000Z</time>
      </trkpt>
      <trkpt lat="45.7778" lon="4.8583">
        <ele>173</ele>
        <time>2016-08-19T07:55:06.000Z</time>
      </trkpt>
      <trkpt lat="45.77783" lon="4.85829">
        <ele>173.19999694824</ele>
        <time>2016-08-19T07:55:07.000Z</time>
      </trkpt>
      <trkpt lat="45.77786" lon="4.8583">
        <ele>173.39999389648</ele>
        <time>2016-08-19T07:55:08.000Z</time>
      </trkpt>
      <trkpt lat="45.77789" lon="4.85831">
        <ele>173.60000610352</ele>
        <time>2016-08-19T07:55:09.000Z</time>
      </trkpt>
      <trkpt lat="45.77792" lon="4.85832">
        <ele>173.80000305176</ele>
        <time>2016-08-19T07:55:10.000Z</time>
      </trkpt>
      <trkpt lat="45.77794" lon="4.85833">
        <ele>173.80000305176</ele>
        <time>2016-08-19T07:55:11.000Z</time>
      </trkpt>
      <trkpt lat="45.77797" lon="4.85834">
        <ele>174</ele>
        <time>2016-08-19T07:55:12.000Z</time>
      </trkpt>
      <trkpt lat="45.778" lon="4.85835">
        <ele>174.19999694824</ele>
        <time>2016-08-19T07:55:13.000Z</time>
      </trkpt>
      <trkpt lat="45.77802" lon="4.85836">
        <ele>174.19999694824</ele>
        <time>2016-08-19T07:55:14.000Z</time>
      </trkpt>
      <trkpt lat="45.77805" lon="4.85836">
        <ele>174.39999389648</ele>
        <time>2016-08-19T07:55:15.000Z</time>
      </trkpt>
      <trkpt lat="45.77807" lon="4.85837">
        <ele>174.39999389648</ele>
        <time>2016-08-19T07:55:16.000Z</time>
      </trkpt>
      <trkpt lat="45.77809" lon="4.85838">
        <ele>174.39999389648</ele>
        <time>2016-08-19T07:55:17.000Z</time>
      </trkpt>
      <trkpt lat="45.77811" lon="4.85838">
        <ele>174.39999389648</ele>
        <time>2016-08-19T07:55:18.000Z</time>
      </trkpt>
      <trkpt lat="45.77813" lon="4.85839">
        <ele>174.60000610352</ele>
        <time>2016-08-19T07:55:19.000Z</time>
      </trkpt>
      <trkpt lat="45.77815" lon="4.8584">
        <ele>174.60000610352</ele>
        <time>2016-08-19T07:55:20.000Z</time>
      </trkpt>
      <trkpt lat="45.77817" lon="4.85841">
        <ele>174.60000610352</ele>
        <time>2016-08-19T07:55:21.000Z</time>
      </trkpt>
      <trkpt lat="45.7782" lon="4.85842">
        <ele>174.60000610352</ele>
        <time>2016-08-19T07:55:22.000Z</time>
      </trkpt>
      <trkpt lat="45.77822" lon="4.85842">
        <ele>174.60000610352</ele>
        <time>2016-08-19T07:55:23.000Z</time>
      </trkpt>
      <trkpt lat="45.77824" lon="4.85843">
        <ele>174.60000610352</ele>
        <time>2016-08-19T07:55:24.000Z</time>
      </trkpt>
      <trkpt lat="45.77827" lon="4.85843">
        <ele>174.60000610352</ele>
        <time>2016-08-19T07:55:25.000Z</time>
      </trkpt>
      <trkpt lat="45.77828" lon="4.85844">
        <ele>174.60000610352</ele>
        <time>2016-08-19T07:55:26.000Z</time>
      </trkpt>
      <trkpt lat="45.77831" lon="4.85844">
        <ele>174.60000610352</ele>
        <time>2016-08-19T07:55:27.000Z</time>
      </trkpt>
      <trkpt lat="45.77833" lon="4.85845">
        <ele>174.60000610352</ele>
        <time>2016-08-19T07:55:28.000Z</time>
      </trkpt>
      <trkpt lat="45.77835" lon="4.85846">
        <ele>174.60000610352</ele>
        <time>2016-08-19T07:55:29.000Z</time>
      </trkpt>
      <trkpt lat="45.77837" lon="4.85846">
        <ele>174.80000305176</ele>
        <time>2016-08-19T07:55:30.000Z</time>
      </trkpt>
      <trkpt lat="45.77839" lon="4.85847">
        <ele>174.80000305176</ele>
        <time>2016-08-19T07:55:31.000Z</time>
      </trkpt>
      <trkpt lat="45.7784" lon="4.85848">
        <ele>174.80000305176</ele>
        <time>2016-08-19T07:55:32.000Z</time>
      </trkpt>
      <trkpt lat="45.77843" lon="4.85848">
        <ele>174.80000305176</ele>
        <time>2016-08-19T07:55:33.000Z</time>
      </trkpt>
      <trkpt lat="45.77845" lon="4.85849">
        <ele>174.80000305176</ele>
        <time>2016-08-19T07:55:34.000Z</time>
      </trkpt>
      <trkpt lat="45.77848" lon="4.85849">
        <ele>174.80000305176</ele>
        <time>2016-08-19T07:55:35.000Z</time>
      </trkpt>
      <trkpt lat="45.7785" lon="4.8585">
        <ele>174.80000305176</ele>
        <time>2016-08-19T07:55:36.000Z</time>
      </trkpt>
      <trkpt lat="45.77851" lon="4.85851">
        <ele>174.80000305176</ele>
        <time>2016-08-19T07:55:37.000Z</time>
      </trkpt>
      <trkpt lat="45.77854" lon="4.85851">
        <ele>174.80000305176</ele>
        <time>2016-08-19T07:55:38.000Z</time>
      </trkpt>
      <trkpt lat="45.77856" lon="4.85852">
        <ele>174.80000305176</ele>
        <time>2016-08-19T07:55:39.000Z</time>
      </trkpt>
      <trkpt lat="45.77859" lon="4.85854">
        <ele>174.80000305176</ele>
        <time>2016-08-19T07:55:40.000Z</time>
      </trkpt>
      <trkpt lat="45.77861" lon="4.85855">
        <ele>174.80000305176</ele>
        <time>2016-08-19T07:55:41.000Z</time>
      </trkpt>
      <trkpt lat="45.77862" lon="4.85856">
        <ele>174.80000305176</ele>
        <time>2016-08-19T07:55:42.000Z</time>
      </trkpt>
      <trkpt lat="45.77865" lon="4.85855">
        <ele>175</ele>
        <time>2016-08-19T07:55:43.000Z</time>
      </trkpt>
      <trkpt lat="45.77867" lon="4.85856">
        <ele>175</ele>
        <time>2016-08-19T07:55:44.000Z</time>
      </trkpt>
      <trkpt lat="45.77869" lon="4.85856">
        <ele>175</ele>
        <time>2016-08-19T07:55:45.000Z</time>
      </trkpt>
      <trkpt lat="45.77872" lon="4.85856">
        <ele>175</ele>
        <time>2016-08-19T07:55:46.000Z</time>
      </trkpt>
      <trkpt lat="45.77875" lon="4.85856">
        <ele>175.19999694824</ele>
        <time>2016-08-19T07:55:47.000Z</time>
      </trkpt>
      <trkpt lat="45.77878" lon="4.85857">
        <ele>175.19999694824</ele>
        <time>2016-08-19T07:55:48.000Z</time>
      </trkpt>
      <trkpt lat="45.77882" lon="4.85857">
        <ele>175.39999389648</ele>
        <time>2016-08-19T07:55:49.000Z</time>
      </trkpt>
      <trkpt lat="45.77884" lon="4.85857">
        <ele>175.39999389648</ele>
        <time>2016-08-19T07:55:50.000Z</time>
      </trkpt>
      <trkpt lat="45.77887" lon="4.85857">
        <ele>175.60000610352</ele>
        <time>2016-08-19T07:55:51.000Z</time>
      </trkpt>
      <trkpt lat="45.77889" lon="4.85858">
        <ele>175.60000610352</ele>
        <time>2016-08-19T07:55:52.000Z</time>
      </trkpt>
      <trkpt lat="45.77891" lon="4.85858">
        <ele>175.39999389648</ele>
        <time>2016-08-19T07:55:53.000Z</time>
      </trkpt>
      <trkpt lat="45.77893" lon="4.85858">
        <ele>175.39999389648</ele>
        <time>2016-08-19T07:55:54.000Z</time>
      </trkpt>
      <trkpt lat="45.77895" lon="4.85859">
        <ele>175.39999389648</ele>
        <time>2016-08-19T07:55:55.000Z</time>
      </trkpt>
      <trkpt lat="45.77897" lon="4.85859">
        <ele>175.39999389648</ele>
        <time>2016-08-19T07:55:56.000Z</time>
      </trkpt>
      <trkpt lat="45.77899" lon="4.8586">
        <ele>175.39999389648</ele>
        <time>2016-08-19T07:55:57.000Z</time>
      </trkpt>
      <trkpt lat="45.77901" lon="4.8586">
        <ele>175.19999694824</ele>
        <time>2016-08-19T07:55:58.000Z</time>
      </trkpt>
      <trkpt lat="45.77903" lon="4.85861">
        <ele>175.19999694824</ele>
        <time>2016-08-19T07:55:59.000Z</time>
      </trkpt>
      <trkpt lat="45.77905" lon="4.85861">
        <ele>175.19999694824</ele>
        <time>2016-08-19T07:56:00.000Z</time>
      </trkpt>
      <trkpt lat="45.77907" lon="4.85862">
        <ele>175.19999694824</ele>
        <time>2016-08-19T07:56:01.000Z</time>
      </trkpt>
      <trkpt lat="45.7791" lon="4.85862">
        <ele>175.19999694824</ele>
        <time>2016-08-19T07:56:02.000Z</time>
      </trkpt>
      <trkpt lat="45.77913" lon="4.85862">
        <ele>175.19999694824</ele>
        <time>2016-08-19T07:56:03.000Z</time>
      </trkpt>
      <trkpt lat="45.77915" lon="4.85861">
        <ele>175</ele>
        <time>2016-08-19T07:56:04.000Z</time>
      </trkpt>
      <trkpt lat="45.77918" lon="4.85861">
        <ele>175</ele>
        <time>2016-08-19T07:56:05.000Z</time>
      </trkpt>
      <trkpt lat="45.77921" lon="4.85861">
        <ele>175</ele>
        <time>2016-08-19T07:56:06.000Z</time>
      </trkpt>
      <trkpt lat="45.77923" lon="4.85861">
        <ele>175</ele>
        <time>2016-08-19T07:56:07.000Z</time>
      </trkpt>
      <trkpt lat="45.77925" lon="4.85862">
        <ele>175</ele>
        <time>2016-08-19T07:56:08.000Z</time>
      </trkpt>
      <trkpt lat="45.77926" lon="4.85862">
        <ele>175</ele>
        <time>2016-08-19T07:56:09.000Z</time>
      </trkpt>
      <trkpt lat="45.77928" lon="4.85862">
        <ele>175</ele>
        <time>2016-08-19T07:56:10.000Z</time>
      </trkpt>
      <trkpt lat="45.77931" lon="4.85863">
        <ele>174.80000305176</ele>
        <time>2016-08-19T07:56:11.000Z</time>
      </trkpt>
      <trkpt lat="45.77934" lon="4.85863">
        <ele>174.80000305176</ele>
        <time>2016-08-19T07:56:12.000Z</time>
      </trkpt>
      <trkpt lat="45.77936" lon="4.85863">
        <ele>174.80000305176</ele>
        <time>2016-08-19T07:56:13.000Z</time>
      </trkpt>
      <trkpt lat="45.77939" lon="4.85863">
        <ele>174.80000305176</ele>
        <time>2016-08-19T07:56:14.000Z</time>
      </trkpt>
      <trkpt lat="45.77941" lon="4.85864">
        <ele>174.60000610352</ele>
        <time>2016-08-19T07:56:15.000Z</time>
      </trkpt>
      <trkpt lat="45.77943" lon="4.85864">
        <ele>174.60000610352</ele>
        <time>2016-08-19T07:56:16.000Z</time>
      </trkpt>
      <trkpt lat="45.77945" lon="4.85865">
        <ele>174.60000610352</ele>
        <time>2016-08-19T07:56:17.000Z</time>
      </trkpt>
      <trkpt lat="45.77948" lon="4.85866">
        <ele>174.60000610352</ele>
        <time>2016-08-19T07:56:18.000Z</time>
      </trkpt>
      <trkpt lat="45.77951" lon="4.85867">
        <ele>174.39999389648</ele>
        <time>2016-08-19T07:56:19.000Z</time>
      </trkpt>
      <trkpt lat="45.77953" lon="4.85868">
        <ele>174.39999389648</ele>
        <time>2016-08-19T07:56:20.000Z</time>
      </trkpt>
      <trkpt lat="45.77956" lon="4.85868">
        <ele>174.39999389648</ele>
        <time>2016-08-19T07:56:21.000Z</time>
      </trkpt>
      <trkpt lat="45.77958" lon="4.85868">
        <ele>174.39999389648</ele>
        <time>2016-08-19T07:56:22.000Z</time>
      </trkpt>
      <trkpt lat="45.77961" lon="4.85868">
        <ele>174.19999694824</ele>
        <time>2016-08-19T07:56:23.000Z</time>
      </trkpt>
      <trkpt lat="45.77963" lon="4.85869">
        <ele>174.19999694824</ele>
        <time>2016-08-19T07:56:24.000Z</time>
      </trkpt>
      <trkpt lat="45.77966" lon="4.85869">
        <ele>174.19999694824</ele>
        <time>2016-08-19T07:56:25.000Z</time>
      </trkpt>
      <trkpt lat="45.77968" lon="4.85869">
        <ele>174.19999694824</ele>
        <time>2016-08-19T07:56:26.000Z</time>
      </trkpt>
      <trkpt lat="45.77971" lon="4.8587">
        <ele>174</ele>
        <time>2016-08-19T07:56:27.000Z</time>
      </trkpt>
      <trkpt lat="45.77974" lon="4.85869">
        <ele>174</ele>
        <time>2016-08-19T07:56:28.000Z</time>
      </trkpt>
      <trkpt lat="45.77976" lon="4.85869">
        <ele>174</ele>
        <time>2016-08-19T07:56:29.000Z</time>
      </trkpt>
      <trkpt lat="45.77979" lon="4.85869">
        <ele>174</ele>
        <time>2016-08-19T07:56:30.000Z</time>
      </trkpt>
      <trkpt lat="45.77982" lon="4.85869">
        <ele>174</ele>
        <time>2016-08-19T07:56:31.000Z</time>
      </trkpt>
      <trkpt lat="45.77984" lon="4.85869">
        <ele>174</ele>
        <time>2016-08-19T07:56:32.000Z</time>
      </trkpt>
      <trkpt lat="45.77987" lon="4.85868">
        <ele>174</ele>
        <time>2016-08-19T07:56:33.000Z</time>
      </trkpt>
      <trkpt lat="45.77991" lon="4.85868">
        <ele>174</ele>
        <time>2016-08-19T07:56:34.000Z</time>
      </trkpt>
      <trkpt lat="45.77993" lon="4.85869">
        <ele>174</ele>
        <time>2016-08-19T07:56:35.000Z</time>
      </trkpt>
      <trkpt lat="45.77996" lon="4.85869">
        <ele>174</ele>
        <time>2016-08-19T07:56:36.000Z</time>
      </trkpt>
      <trkpt lat="45.77998" lon="4.8587">
        <ele>174</ele>
        <time>2016-08-19T07:56:37.000Z</time>
      </trkpt>
      <trkpt lat="45.78001" lon="4.8587">
        <ele>174</ele>
        <time>2016-08-19T07:56:38.000Z</time>
      </trkpt>
      <trkpt lat="45.78004" lon="4.8587">
        <ele>174</ele>
        <time>2016-08-19T07:56:39.000Z</time>
      </trkpt>
      <trkpt lat="45.78006" lon="4.8587">
        <ele>174</ele>
        <time>2016-08-19T07:56:40.000Z</time>
      </trkpt>
      <trkpt lat="45.78009" lon="4.8587">
        <ele>174</ele>
        <time>2016-08-19T07:56:41.000Z</time>
      </trkpt>
      <trkpt lat="45.78012" lon="4.8587">
        <ele>174</ele>
        <time>2016-08-19T07:56:42.000Z</time>
      </trkpt>
      <trkpt lat="45.78014" lon="4.8587">
        <ele>174</ele>
        <time>2016-08-19T07:56:43.000Z</time>
      </trkpt>
      <trkpt lat="45.78017" lon="4.8587">
        <ele>174</ele>
        <time>2016-08-19T07:56:44.000Z</time>
      </trkpt>
      <trkpt lat="45.78019" lon="4.8587">
        <ele>174</ele>
        <time>2016-08-19T07:56:45.000Z</time>
      </trkpt>
      <trkpt lat="45.78021" lon="4.8587">
        <ele>174</ele>
        <time>2016-08-19T07:56:46.000Z</time>
      </trkpt>
      <trkpt lat="45.78024" lon="4.85871">
        <ele>174</ele>
        <time>2016-08-19T07:56:47.000Z</time>
      </trkpt>
      <trkpt lat="45.78026" lon="4.8587">
        <ele>174</ele>
        <time>2016-08-19T07:56:48.000Z</time>
      </trkpt>
      <trkpt lat="45.78029" lon="4.8587">
        <ele>174</ele>
        <time>2016-08-19T07:56:49.000Z</time>
      </trkpt>
      <trkpt lat="45.78031" lon="4.8587">
        <ele>174</ele>
        <time>2016-08-19T07:56:50.000Z</time>
      </trkpt>
      <trkpt lat="45.78034" lon="4.8587">
        <ele>174</ele>
        <time>2016-08-19T07:56:51.000Z</time>
      </trkpt>
      <trkpt lat="45.78037" lon="4.8587">
        <ele>174</ele>
        <time>2016-08-19T07:56:52.000Z</time>
      </trkpt>
      <trkpt lat="45.78039" lon="4.8587">
        <ele>174</ele>
        <time>2016-08-19T07:56:53.000Z</time>
      </trkpt>
      <trkpt lat="45.78042" lon="4.8587">
        <ele>174</ele>
        <time>2016-08-19T07:56:54.000Z</time>
      </trkpt>
      <trkpt lat="45.78044" lon="4.85869">
        <ele>174</ele>
        <time>2016-08-19T07:56:55.000Z</time>
      </trkpt>
      <trkpt lat="45.78047" lon="4.85869">
        <ele>174</ele>
        <time>2016-08-19T07:56:56.000Z</time>
      </trkpt>
      <trkpt lat="45.78049" lon="4.85869">
        <ele>174</ele>
        <time>2016-08-19T07:56:57.000Z</time>
      </trkpt>
      <trkpt lat="45.78051" lon="4.85868">
        <ele>174</ele>
        <time>2016-08-19T07:56:58.000Z</time>
      </trkpt>
      <trkpt lat="45.78053" lon="4.85868">
        <ele>173.80000305176</ele>
        <time>2016-08-19T07:56:59.000Z</time>
      </trkpt>
      <trkpt lat="45.78056" lon="4.85868">
        <ele>173.60000610352</ele>
        <time>2016-08-19T07:57:00.000Z</time>
      </trkpt>
      <trkpt lat="45.78058" lon="4.85868">
        <ele>173.60000610352</ele>
        <time>2016-08-19T07:57:01.000Z</time>
      </trkpt>
      <trkpt lat="45.78061" lon="4.85868">
        <ele>173.39999389648</ele>
        <time>2016-08-19T07:57:02.000Z</time>
      </trkpt>
      <trkpt lat="45.78063" lon="4.85868">
        <ele>173.19999694824</ele>
        <time>2016-08-19T07:57:03.000Z</time>
      </trkpt>
      <trkpt lat="45.78066" lon="4.85867">
        <ele>173</ele>
        <time>2016-08-19T07:57:04.000Z</time>
      </trkpt>
      <trkpt lat="45.78068" lon="4.85867">
        <ele>173</ele>
        <time>2016-08-19T07:57:05.000Z</time>
      </trkpt>
      <trkpt lat="45.78071" lon="4.85867">
        <ele>172.80000305176</ele>
        <time>2016-08-19T07:57:06.000Z</time>
      </trkpt>
      <trkpt lat="45.78074" lon="4.85868">
        <ele>172.60000610352</ele>
        <time>2016-08-19T07:57:07.000Z</time>
      </trkpt>
      <trkpt lat="45.78076" lon="4.85868">
        <ele>172.39999389648</ele>
        <time>2016-08-19T07:57:08.000Z</time>
      </trkpt>
      <trkpt lat="45.78079" lon="4.85868">
        <ele>172.39999389648</ele>
        <time>2016-08-19T07:57:09.000Z</time>
      </trkpt>
      <trkpt lat="45.78081" lon="4.85868">
        <ele>172.19999694824</ele>
        <time>2016-08-19T07:57:10.000Z</time>
      </trkpt>
      <trkpt lat="45.78083" lon="4.85868">
        <ele>172</ele>
        <time>2016-08-19T07:57:11.000Z</time>
      </trkpt>
      <trkpt lat="45.78085" lon="4.85868">
        <ele>172</ele>
        <time>2016-08-19T07:57:12.000Z</time>
      </trkpt>
      <trkpt lat="45.78088" lon="4.85868">
        <ele>171.80000305176</ele>
        <time>2016-08-19T07:57:13.000Z</time>
      </trkpt>
      <trkpt lat="45.7809" lon="4.85868">
        <ele>171.60000610352</ele>
        <time>2016-08-19T07:57:14.000Z</time>
      </trkpt>
      <trkpt lat="45.78092" lon="4.85868">
        <ele>171.60000610352</ele>
        <time>2016-08-19T07:57:15.000Z</time>
      </trkpt>
      <trkpt lat="45.78094" lon="4.85868">
        <ele>171.39999389648</ele>
        <time>2016-08-19T07:57:16.000Z</time>
      </trkpt>
      <trkpt lat="45.78096" lon="4.85868">
        <ele>171.19999694824</ele>
        <time>2016-08-19T07:57:17.000Z</time>
      </trkpt>
      <trkpt lat="45.78099" lon="4.85868">
        <ele>171.19999694824</ele>
        <time>2016-08-19T07:57:18.000Z</time>
      </trkpt>
      <trkpt lat="45.78101" lon="4.85868">
        <ele>171</ele>
        <time>2016-08-19T07:57:19.000Z</time>
      </trkpt>
      <trkpt lat="45.78104" lon="4.85868">
        <ele>170.80000305176</ele>
        <time>2016-08-19T07:57:20.000Z</time>
      </trkpt>
      <trkpt lat="45.78106" lon="4.85867">
        <ele>170.60000610352</ele>
        <time>2016-08-19T07:57:21.000Z</time>
      </trkpt>
      <trkpt lat="45.78108" lon="4.85867">
        <ele>170.60000610352</ele>
        <time>2016-08-19T07:57:22.000Z</time>
      </trkpt>
      <trkpt lat="45.7811" lon="4.85867">
        <ele>170.39999389648</ele>
        <time>2016-08-19T07:57:23.000Z</time>
      </trkpt>
      <trkpt lat="45.78113" lon="4.85866">
        <ele>170.19999694824</ele>
        <time>2016-08-19T07:57:24.000Z</time>
      </trkpt>
      <trkpt lat="45.78115" lon="4.85866">
        <ele>170</ele>
        <time>2016-08-19T07:57:25.000Z</time>
      </trkpt>
      <trkpt lat="45.78117" lon="4.85865">
        <ele>170</ele>
        <time>2016-08-19T07:57:26.000Z</time>
      </trkpt>
      <trkpt lat="45.7812" lon="4.85865">
        <ele>169.80000305176</ele>
        <time>2016-08-19T07:57:27.000Z</time>
      </trkpt>
      <trkpt lat="45.78122" lon="4.85865">
        <ele>169.60000610352</ele>
        <time>2016-08-19T07:57:28.000Z</time>
      </trkpt>
      <trkpt lat="45.78124" lon="4.85864">
        <ele>169.39999389648</ele>
        <time>2016-08-19T07:57:29.000Z</time>
      </trkpt>
      <trkpt lat="45.78126" lon="4.85864">
        <ele>169.39999389648</ele>
        <time>2016-08-19T07:57:30.000Z</time>
      </trkpt>
      <trkpt lat="45.78129" lon="4.85864">
        <ele>169.19999694824</ele>
        <time>2016-08-19T07:57:31.000Z</time>
      </trkpt>
      <trkpt lat="45.78131" lon="4.85864">
        <ele>169</ele>
        <time>2016-08-19T07:57:32.000Z</time>
      </trkpt>
      <trkpt lat="45.78133" lon="4.85864">
        <ele>169</ele>
        <time>2016-08-19T07:57:33.000Z</time>
      </trkpt>
      <trkpt lat="45.78136" lon="4.85863">
        <ele>169</ele>
        <time>2016-08-19T07:57:34.000Z</time>
      </trkpt>
      <trkpt lat="45.78139" lon="4.85862">
        <ele>169</ele>
        <time>2016-08-19T07:57:35.000Z</time>
      </trkpt>
      <trkpt lat="45.78141" lon="4.85861">
        <ele>169</ele>
        <time>2016-08-19T07:57:36.000Z</time>
      </trkpt>
      <trkpt lat="45.78144" lon="4.85861">
        <ele>169</ele>
        <time>2016-08-19T07:57:37.000Z</time>
      </trkpt>
      <trkpt lat="45.78145" lon="4.85861">
        <ele>169.19999694824</ele>
        <time>2016-08-19T07:57:38.000Z</time>
      </trkpt>
      <trkpt lat="45.78148" lon="4.85861">
        <ele>169.19999694824</ele>
        <time>2016-08-19T07:57:39.000Z</time>
      </trkpt>
      <trkpt lat="45.7815" lon="4.8586">
        <ele>169.19999694824</ele>
        <time>2016-08-19T07:57:40.000Z</time>
      </trkpt>
      <trkpt lat="45.78152" lon="4.8586">
        <ele>169.39999389648</ele>
        <time>2016-08-19T07:57:41.000Z</time>
      </trkpt>
      <trkpt lat="45.78154" lon="4.8586">
        <ele>169.39999389648</ele>
        <time>2016-08-19T07:57:42.000Z</time>
      </trkpt>
      <trkpt lat="45.78156" lon="4.85859">
        <ele>169.39999389648</ele>
        <time>2016-08-19T07:57:43.000Z</time>
      </trkpt>
      <trkpt lat="45.78158" lon="4.85858">
        <ele>169.60000610352</ele>
        <time>2016-08-19T07:57:44.000Z</time>
      </trkpt>
      <trkpt lat="45.78161" lon="4.85858">
        <ele>169.60000610352</ele>
        <time>2016-08-19T07:57:45.000Z</time>
      </trkpt>
      <trkpt lat="45.78163" lon="4.85857">
        <ele>169.80000305176</ele>
        <time>2016-08-19T07:57:46.000Z</time>
      </trkpt>
      <trkpt lat="45.78165" lon="4.85856">
        <ele>169.80000305176</ele>
        <time>2016-08-19T07:57:47.000Z</time>
      </trkpt>
      <trkpt lat="45.78168" lon="4.85856">
        <ele>169.80000305176</ele>
        <time>2016-08-19T07:57:48.000Z</time>
      </trkpt>
      <trkpt lat="45.7817" lon="4.85855">
        <ele>170</ele>
        <time>2016-08-19T07:57:49.000Z</time>
      </trkpt>
      <trkpt lat="45.78172" lon="4.85855">
        <ele>170</ele>
        <time>2016-08-19T07:57:50.000Z</time>
      </trkpt>
      <trkpt lat="45.78174" lon="4.85854">
        <ele>170</ele>
        <time>2016-08-19T07:57:51.000Z</time>
      </trkpt>
      <trkpt lat="45.78177" lon="4.85853">
        <ele>170.19999694824</ele>
        <time>2016-08-19T07:57:52.000Z</time>
      </trkpt>
      <trkpt lat="45.78179" lon="4.85853">
        <ele>170.19999694824</ele>
        <time>2016-08-19T07:57:53.000Z</time>
      </trkpt>
      <trkpt lat="45.78181" lon="4.85853">
        <ele>170.39999389648</ele>
        <time>2016-08-19T07:57:54.000Z</time>
      </trkpt>
      <trkpt lat="45.78183" lon="4.85853">
        <ele>170.39999389648</ele>
        <time>2016-08-19T07:57:55.000Z</time>
      </trkpt>
      <trkpt lat="45.78186" lon="4.85853">
        <ele>170.39999389648</ele>
        <time>2016-08-19T07:57:56.000Z</time>
      </trkpt>
      <trkpt lat="45.78188" lon="4.85852">
        <ele>170.60000610352</ele>
        <time>2016-08-19T07:57:57.000Z</time>
      </trkpt>
      <trkpt lat="45.7819" lon="4.85852">
        <ele>170.60000610352</ele>
        <time>2016-08-19T07:57:58.000Z</time>
      </trkpt>
      <trkpt lat="45.78193" lon="4.85852">
        <ele>170.80000305176</ele>
        <time>2016-08-19T07:57:59.000Z</time>
      </trkpt>
      <trkpt lat="45.78195" lon="4.85853">
        <ele>170.80000305176</ele>
        <time>2016-08-19T07:58:00.000Z</time>
      </trkpt>
      <trkpt lat="45.78197" lon="4.85854">
        <ele>170.80000305176</ele>
        <time>2016-08-19T07:58:01.000Z</time>
      </trkpt>
      <trkpt lat="45.78198" lon="4.85857">
        <ele>171</ele>
        <time>2016-08-19T07:58:02.000Z</time>
      </trkpt>
      <trkpt lat="45.782" lon="4.8586">
        <ele>171</ele>
        <time>2016-08-19T07:58:03.000Z</time>
      </trkpt>
      <trkpt lat="45.78201" lon="4.85862">
        <ele>171.19999694824</ele>
        <time>2016-08-19T07:58:04.000Z</time>
      </trkpt>
      <trkpt lat="45.78203" lon="4.85863">
        <ele>171.19999694824</ele>
        <time>2016-08-19T07:58:05.000Z</time>
      </trkpt>
      <trkpt lat="45.78204" lon="4.85865">
        <ele>171.19999694824</ele>
        <time>2016-08-19T07:58:06.000Z</time>
      </trkpt>
      <trkpt lat="45.78206" lon="4.85866">
        <ele>171.39999389648</ele>
        <time>2016-08-19T07:58:07.000Z</time>
      </trkpt>
      <trkpt lat="45.78209" lon="4.85867">
        <ele>171.39999389648</ele>
        <time>2016-08-19T07:58:08.000Z</time>
      </trkpt>
      <trkpt lat="45.78211" lon="4.85868">
        <ele>171.60000610352</ele>
        <time>2016-08-19T07:58:09.000Z</time>
      </trkpt>
      <trkpt lat="45.78213" lon="4.85868">
        <ele>171.60000610352</ele>
        <time>2016-08-19T07:58:10.000Z</time>
      </trkpt>
      <trkpt lat="45.78215" lon="4.85869">
        <ele>171.80000305176</ele>
        <time>2016-08-19T07:58:11.000Z</time>
      </trkpt>
      <trkpt lat="45.78218" lon="4.8587">
        <ele>171.80000305176</ele>
        <time>2016-08-19T07:58:12.000Z</time>
      </trkpt>
      <trkpt lat="45.7822" lon="4.85869">
        <ele>172</ele>
        <time>2016-08-19T07:58:13.000Z</time>
      </trkpt>
      <trkpt lat="45.78223" lon="4.85869">
        <ele>172</ele>
        <time>2016-08-19T07:58:14.000Z</time>
      </trkpt>
      <trkpt lat="45.78225" lon="4.8587">
        <ele>172</ele>
        <time>2016-08-19T07:58:15.000Z</time>
      </trkpt>
      <trkpt lat="45.78228" lon="4.8587">
        <ele>172.19999694824</ele>
        <time>2016-08-19T07:58:16.000Z</time>
      </trkpt>
      <trkpt lat="45.78231" lon="4.8587">
        <ele>172.19999694824</ele>
        <time>2016-08-19T07:58:17.000Z</time>
      </trkpt>
      <trkpt lat="45.78233" lon="4.8587">
        <ele>172.19999694824</ele>
        <time>2016-08-19T07:58:18.000Z</time>
      </trkpt>
      <trkpt lat="45.78236" lon="4.8587">
        <ele>172.19999694824</ele>
        <time>2016-08-19T07:58:19.000Z</time>
      </trkpt>
      <trkpt lat="45.78238" lon="4.8587">
        <ele>172.19999694824</ele>
        <time>2016-08-19T07:58:20.000Z</time>
      </trkpt>
      <trkpt lat="45.7824" lon="4.8587">
        <ele>172.19999694824</ele>
        <time>2016-08-19T07:58:21.000Z</time>
      </trkpt>
      <trkpt lat="45.78243" lon="4.8587">
        <ele>172.19999694824</ele>
        <time>2016-08-19T07:58:22.000Z</time>
      </trkpt>
      <trkpt lat="45.78244" lon="4.8587">
        <ele>172.39999389648</ele>
        <time>2016-08-19T07:58:23.000Z</time>
      </trkpt>
      <trkpt lat="45.78246" lon="4.8587">
        <ele>172.39999389648</ele>
        <time>2016-08-19T07:58:24.000Z</time>
      </trkpt>
      <trkpt lat="45.78248" lon="4.8587">
        <ele>172.39999389648</ele>
        <time>2016-08-19T07:58:25.000Z</time>
      </trkpt>
      <trkpt lat="45.78251" lon="4.85869">
        <ele>172.39999389648</ele>
        <time>2016-08-19T07:58:26.000Z</time>
      </trkpt>
      <trkpt lat="45.78254" lon="4.85869">
        <ele>172.39999389648</ele>
        <time>2016-08-19T07:58:27.000Z</time>
      </trkpt>
      <trkpt lat="45.78256" lon="4.85869">
        <ele>172.39999389648</ele>
        <time>2016-08-19T07:58:28.000Z</time>
      </trkpt>
      <trkpt lat="45.78259" lon="4.85868">
        <ele>172.39999389648</ele>
        <time>2016-08-19T07:58:29.000Z</time>
      </trkpt>
      <trkpt lat="45.78261" lon="4.85868">
        <ele>172.60000610352</ele>
        <time>2016-08-19T07:58:30.000Z</time>
      </trkpt>
      <trkpt lat="45.78263" lon="4.85868">
        <ele>172.60000610352</ele>
        <time>2016-08-19T07:58:31.000Z</time>
      </trkpt>
      <trkpt lat="45.78266" lon="4.85868">
        <ele>172.60000610352</ele>
        <time>2016-08-19T07:58:32.000Z</time>
      </trkpt>
      <trkpt lat="45.78268" lon="4.85867">
        <ele>172.60000610352</ele>
        <time>2016-08-19T07:58:33.000Z</time>
      </trkpt>
      <trkpt lat="45.78271" lon="4.85866">
        <ele>172.60000610352</ele>
        <time>2016-08-19T07:58:34.000Z</time>
      </trkpt>
      <trkpt lat="45.78273" lon="4.85865">
        <ele>172.80000305176</ele>
        <time>2016-08-19T07:58:35.000Z</time>
      </trkpt>
      <trkpt lat="45.78276" lon="4.85864">
        <ele>172.80000305176</ele>
        <time>2016-08-19T07:58:36.000Z</time>
      </trkpt>
      <trkpt lat="45.78278" lon="4.85863">
        <ele>172.80000305176</ele>
        <time>2016-08-19T07:58:37.000Z</time>
      </trkpt>
      <trkpt lat="45.7828" lon="4.85862">
        <ele>172.80000305176</ele>
        <time>2016-08-19T07:58:38.000Z</time>
      </trkpt>
      <trkpt lat="45.78282" lon="4.85862">
        <ele>172.80000305176</ele>
        <time>2016-08-19T07:58:39.000Z</time>
      </trkpt>
      <trkpt lat="45.78284" lon="4.85863">
        <ele>172.80000305176</ele>
        <time>2016-08-19T07:58:40.000Z</time>
      </trkpt>
      <trkpt lat="45.78286" lon="4.85863">
        <ele>172.80000305176</ele>
        <time>2016-08-19T07:58:41.000Z</time>
      </trkpt>
      <trkpt lat="45.78288" lon="4.85863">
        <ele>173</ele>
        <time>2016-08-19T07:58:42.000Z</time>
      </trkpt>
      <trkpt lat="45.78291" lon="4.85863">
        <ele>173</ele>
        <time>2016-08-19T07:58:43.000Z</time>
      </trkpt>
      <trkpt lat="45.78293" lon="4.85864">
        <ele>173</ele>
        <time>2016-08-19T07:58:44.000Z</time>
      </trkpt>
      <trkpt lat="45.78295" lon="4.85866">
        <ele>173</ele>
        <time>2016-08-19T07:58:45.000Z</time>
      </trkpt>
      <trkpt lat="45.78297" lon="4.85866">
        <ele>173</ele>
        <time>2016-08-19T07:58:46.000Z</time>
      </trkpt>
      <trkpt lat="45.78299" lon="4.85865">
        <ele>173</ele>
        <time>2016-08-19T07:58:47.000Z</time>
      </trkpt>
      <trkpt lat="45.78301" lon="4.85864">
        <ele>173</ele>
        <time>2016-08-19T07:58:48.000Z</time>
      </trkpt>
      <trkpt lat="45.78303" lon="4.85862">
        <ele>173.19999694824</ele>
        <time>2016-08-19T07:58:49.000Z</time>
      </trkpt>
      <trkpt lat="45.78305" lon="4.85861">
        <ele>173.19999694824</ele>
        <time>2016-08-19T07:58:50.000Z</time>
      </trkpt>
      <trkpt lat="45.78306" lon="4.85861">
        <ele>173.19999694824</ele>
        <time>2016-08-19T07:58:51.000Z</time>
      </trkpt>
      <trkpt lat="45.78307" lon="4.85861">
        <ele>173.19999694824</ele>
        <time>2016-08-19T07:58:52.000Z</time>
      </trkpt>
      <trkpt lat="45.78309" lon="4.85861">
        <ele>173</ele>
        <time>2016-08-19T07:58:53.000Z</time>
      </trkpt>
      <trkpt lat="45.78311" lon="4.8586">
        <ele>173</ele>
        <time>2016-08-19T07:58:54.000Z</time>
      </trkpt>
      <trkpt lat="45.78313" lon="4.8586">
        <ele>173</ele>
        <time>2016-08-19T07:58:55.000Z</time>
      </trkpt>
      <trkpt lat="45.78315" lon="4.8586">
        <ele>173</ele>
        <time>2016-08-19T07:58:56.000Z</time>
      </trkpt>
      <trkpt lat="45.78317" lon="4.8586">
        <ele>173</ele>
        <time>2016-08-19T07:58:57.000Z</time>
      </trkpt>
      <trkpt lat="45.7832" lon="4.85862">
        <ele>173</ele>
        <time>2016-08-19T07:58:58.000Z</time>
      </trkpt>
      <trkpt lat="45.78322" lon="4.85862">
        <ele>173</ele>
        <time>2016-08-19T07:58:59.000Z</time>
      </trkpt>
      <trkpt lat="45.78324" lon="4.85863">
        <ele>172.80000305176</ele>
        <time>2016-08-19T07:59:00.000Z</time>
      </trkpt>
      <trkpt lat="45.78327" lon="4.85865">
        <ele>172.80000305176</ele>
        <time>2016-08-19T07:59:01.000Z</time>
      </trkpt>
      <trkpt lat="45.78329" lon="4.85866">
        <ele>172.80000305176</ele>
        <time>2016-08-19T07:59:02.000Z</time>
      </trkpt>
      <trkpt lat="45.78331" lon="4.85866">
        <ele>172.80000305176</ele>
        <time>2016-08-19T07:59:03.000Z</time>
      </trkpt>
      <trkpt lat="45.78334" lon="4.85866">
        <ele>172.80000305176</ele>
        <time>2016-08-19T07:59:04.000Z</time>
      </trkpt>
      <trkpt lat="45.78337" lon="4.85866">
        <ele>172.60000610352</ele>
        <time>2016-08-19T07:59:05.000Z</time>
      </trkpt>
      <trkpt lat="45.7834" lon="4.85866">
        <ele>172.60000610352</ele>
        <time>2016-08-19T07:59:06.000Z</time>
      </trkpt>
      <trkpt lat="45.78343" lon="4.85867">
        <ele>172.60000610352</ele>
        <time>2016-08-19T07:59:07.000Z</time>
      </trkpt>
      <trkpt lat="45.78346" lon="4.85868">
        <ele>172.60000610352</ele>
        <time>2016-08-19T07:59:08.000Z</time>
      </trkpt>
      <trkpt lat="45.78348" lon="4.85869">
        <ele>172.60000610352</ele>
        <time>2016-08-19T07:59:09.000Z</time>
      </trkpt>
      <trkpt lat="45.78351" lon="4.8587">
        <ele>172.39999389648</ele>
        <time>2016-08-19T07:59:10.000Z</time>
      </trkpt>
      <trkpt lat="45.78354" lon="4.85871">
        <ele>172.39999389648</ele>
        <time>2016-08-19T07:59:11.000Z</time>
      </trkpt>
      <trkpt lat="45.78356" lon="4.85871">
        <ele>172.39999389648</ele>
        <time>2016-08-19T07:59:12.000Z</time>
      </trkpt>
      <trkpt lat="45.78359" lon="4.85871">
        <ele>172.39999389648</ele>
        <time>2016-08-19T07:59:13.000Z</time>
      </trkpt>
      <trkpt lat="45.78361" lon="4.85871">
        <ele>172.39999389648</ele>
        <time>2016-08-19T07:59:14.000Z</time>
      </trkpt>
      <trkpt lat="45.78362" lon="4.85872">
        <ele>172.39999389648</ele>
        <time>2016-08-19T07:59:15.000Z</time>
      </trkpt>
      <trkpt lat="45.78364" lon="4.85872">
        <ele>172.19999694824</ele>
        <time>2016-08-19T07:59:16.000Z</time>
      </trkpt>
      <trkpt lat="45.78367" lon="4.85872">
        <ele>172.19999694824</ele>
        <time>2016-08-19T07:59:17.000Z</time>
      </trkpt>
      <trkpt lat="45.78369" lon="4.85874">
        <ele>172.19999694824</ele>
        <time>2016-08-19T07:59:18.000Z</time>
      </trkpt>
      <trkpt lat="45.7837" lon="4.85875">
        <ele>172.19999694824</ele>
        <time>2016-08-19T07:59:19.000Z</time>
      </trkpt>
      <trkpt lat="45.78372" lon="4.85876">
        <ele>172.19999694824</ele>
        <time>2016-08-19T07:59:20.000Z</time>
      </trkpt>
      <trkpt lat="45.78374" lon="4.85877">
        <ele>172.19999694824</ele>
        <time>2016-08-19T07:59:21.000Z</time>
      </trkpt>
      <trkpt lat="45.78377" lon="4.85877">
        <ele>172.19999694824</ele>
        <time>2016-08-19T07:59:22.000Z</time>
      </trkpt>
      <trkpt lat="45.78379" lon="4.85877">
        <ele>172.19999694824</ele>
        <time>2016-08-19T07:59:23.000Z</time>
      </trkpt>
      <trkpt lat="45.78381" lon="4.85877">
        <ele>172</ele>
        <time>2016-08-19T07:59:24.000Z</time>
      </trkpt>
      <trkpt lat="45.78383" lon="4.85878">
        <ele>172</ele>
        <time>2016-08-19T07:59:25.000Z</time>
      </trkpt>
      <trkpt lat="45.78386" lon="4.85879">
        <ele>172</ele>
        <time>2016-08-19T07:59:26.000Z</time>
      </trkpt>
      <trkpt lat="45.78388" lon="4.85879">
        <ele>172</ele>
        <time>2016-08-19T07:59:27.000Z</time>
      </trkpt>
      <trkpt lat="45.78391" lon="4.85879">
        <ele>172</ele>
        <time>2016-08-19T07:59:28.000Z</time>
      </trkpt>
      <trkpt lat="45.78394" lon="4.8588">
        <ele>172</ele>
        <time>2016-08-19T07:59:29.000Z</time>
      </trkpt>
      <trkpt lat="45.78397" lon="4.8588">
        <ele>172</ele>
        <time>2016-08-19T07:59:30.000Z</time>
      </trkpt>
      <trkpt lat="45.78399" lon="4.85881">
        <ele>172</ele>
        <time>2016-08-19T07:59:31.000Z</time>
      </trkpt>
      <trkpt lat="45.78402" lon="4.85883">
        <ele>172</ele>
        <time>2016-08-19T07:59:32.000Z</time>
      </trkpt>
      <trkpt lat="45.78404" lon="4.85884">
        <ele>172</ele>
        <time>2016-08-19T07:59:33.000Z</time>
      </trkpt>
      <trkpt lat="45.78407" lon="4.85885">
        <ele>172</ele>
        <time>2016-08-19T07:59:34.000Z</time>
      </trkpt>
      <trkpt lat="45.78409" lon="4.85886">
        <ele>172</ele>
        <time>2016-08-19T07:59:35.000Z</time>
      </trkpt>
      <trkpt lat="45.78411" lon="4.85887">
        <ele>171.80000305176</ele>
        <time>2016-08-19T07:59:36.000Z</time>
      </trkpt>
      <trkpt lat="45.78413" lon="4.85887">
        <ele>171.80000305176</ele>
        <time>2016-08-19T07:59:37.000Z</time>
      </trkpt>
      <trkpt lat="45.78415" lon="4.85888">
        <ele>171.80000305176</ele>
        <time>2016-08-19T07:59:38.000Z</time>
      </trkpt>
      <trkpt lat="45.78417" lon="4.85888">
        <ele>171.80000305176</ele>
        <time>2016-08-19T07:59:39.000Z</time>
      </trkpt>
      <trkpt lat="45.7842" lon="4.85889">
        <ele>171.80000305176</ele>
        <time>2016-08-19T07:59:40.000Z</time>
      </trkpt>
      <trkpt lat="45.78423" lon="4.8589">
        <ele>171.80000305176</ele>
        <time>2016-08-19T07:59:41.000Z</time>
      </trkpt>
      <trkpt lat="45.78426" lon="4.85891">
        <ele>171.80000305176</ele>
        <time>2016-08-19T07:59:42.000Z</time>
      </trkpt>
      <trkpt lat="45.78428" lon="4.85892">
        <ele>171.80000305176</ele>
        <time>2016-08-19T07:59:43.000Z</time>
      </trkpt>
      <trkpt lat="45.78431" lon="4.85893">
        <ele>171.80000305176</ele>
        <time>2016-08-19T07:59:44.000Z</time>
      </trkpt>
      <trkpt lat="45.78434" lon="4.85895">
        <ele>171.80000305176</ele>
        <time>2016-08-19T07:59:45.000Z</time>
      </trkpt>
      <trkpt lat="45.78436" lon="4.85896">
        <ele>171.60000610352</ele>
        <time>2016-08-19T07:59:46.000Z</time>
      </trkpt>
      <trkpt lat="45.78439" lon="4.85896">
        <ele>171.60000610352</ele>
        <time>2016-08-19T07:59:47.000Z</time>
      </trkpt>
      <trkpt lat="45.78442" lon="4.85897">
        <ele>171.60000610352</ele>
        <time>2016-08-19T07:59:48.000Z</time>
      </trkpt>
      <trkpt lat="45.78445" lon="4.85897">
        <ele>171.60000610352</ele>
        <time>2016-08-19T07:59:49.000Z</time>
      </trkpt>
      <trkpt lat="45.78447" lon="4.85897">
        <ele>171.60000610352</ele>
        <time>2016-08-19T07:59:50.000Z</time>
      </trkpt>
      <trkpt lat="45.78451" lon="4.85899">
        <ele>171.60000610352</ele>
        <time>2016-08-19T07:59:51.000Z</time>
      </trkpt>
      <trkpt lat="45.78453" lon="4.859">
        <ele>171.60000610352</ele>
        <time>2016-08-19T07:59:52.000Z</time>
      </trkpt>
      <trkpt lat="45.78455" lon="4.859">
        <ele>171.60000610352</ele>
        <time>2016-08-19T07:59:53.000Z</time>
      </trkpt>
      <trkpt lat="45.78457" lon="4.859">
        <ele>171.60000610352</ele>
        <time>2016-08-19T07:59:54.000Z</time>
      </trkpt>
      <trkpt lat="45.78459" lon="4.85901">
        <ele>171.39999389648</ele>
        <time>2016-08-19T07:59:55.000Z</time>
      </trkpt>
      <trkpt lat="45.78462" lon="4.85902">
        <ele>171.39999389648</ele>
        <time>2016-08-19T07:59:56.000Z</time>
      </trkpt>
      <trkpt lat="45.78465" lon="4.85902">
        <ele>171.39999389648</ele>
        <time>2016-08-19T07:59:57.000Z</time>
      </trkpt>
      <trkpt lat="45.78467" lon="4.85902">
        <ele>171.39999389648</ele>
        <time>2016-08-19T07:59:58.000Z</time>
      </trkpt>
      <trkpt lat="45.7847" lon="4.85902">
        <ele>171.39999389648</ele>
        <time>2016-08-19T07:59:59.000Z</time>
      </trkpt>
      <trkpt lat="45.78472" lon="4.85902">
        <ele>171.39999389648</ele>
        <time>2016-08-19T08:00:00.000Z</time>
      </trkpt>
      <trkpt lat="45.78475" lon="4.85902">
        <ele>171.39999389648</ele>
        <time>2016-08-19T08:00:01.000Z</time>
      </trkpt>
      <trkpt lat="45.78477" lon="4.85903">
        <ele>171.19999694824</ele>
        <time>2016-08-19T08:00:02.000Z</time>
      </trkpt>
      <trkpt lat="45.78479" lon="4.85903">
        <ele>171.19999694824</ele>
        <time>2016-08-19T08:00:03.000Z</time>
      </trkpt>
      <trkpt lat="45.78482" lon="4.85903">
        <ele>171.19999694824</ele>
        <time>2016-08-19T08:00:04.000Z</time>
      </trkpt>
      <trkpt lat="45.78485" lon="4.85903">
        <ele>171.19999694824</ele>
        <time>2016-08-19T08:00:05.000Z</time>
      </trkpt>
      <trkpt lat="45.78488" lon="4.85903">
        <ele>171.19999694824</ele>
        <time>2016-08-19T08:00:06.000Z</time>
      </trkpt>
      <trkpt lat="45.7849" lon="4.85903">
        <ele>171.19999694824</ele>
        <time>2016-08-19T08:00:07.000Z</time>
      </trkpt>
      <trkpt lat="45.78493" lon="4.85902">
        <ele>171</ele>
        <time>2016-08-19T08:00:08.000Z</time>
      </trkpt>
      <trkpt lat="45.78496" lon="4.85901">
        <ele>171</ele>
        <time>2016-08-19T08:00:09.000Z</time>
      </trkpt>
      <trkpt lat="45.78498" lon="4.859">
        <ele>171</ele>
        <time>2016-08-19T08:00:10.000Z</time>
      </trkpt>
      <trkpt lat="45.78501" lon="4.859">
        <ele>171</ele>
        <time>2016-08-19T08:00:11.000Z</time>
      </trkpt>
      <trkpt lat="45.78504" lon="4.85899">
        <ele>170.80000305176</ele>
        <time>2016-08-19T08:00:12.000Z</time>
      </trkpt>
      <trkpt lat="45.78506" lon="4.85898">
        <ele>170.80000305176</ele>
        <time>2016-08-19T08:00:13.000Z</time>
      </trkpt>
      <trkpt lat="45.78508" lon="4.85898">
        <ele>170.80000305176</ele>
        <time>2016-08-19T08:00:14.000Z</time>
      </trkpt>
      <trkpt lat="45.78511" lon="4.85896">
        <ele>170.60000610352</ele>
        <time>2016-08-19T08:00:15.000Z</time>
      </trkpt>
      <trkpt lat="45.78513" lon="4.85895">
        <ele>170.60000610352</ele>
        <time>2016-08-19T08:00:16.000Z</time>
      </trkpt>
      <trkpt lat="45.78515" lon="4.85894">
        <ele>170.39999389648</ele>
        <time>2016-08-19T08:00:17.000Z</time>
      </trkpt>
      <trkpt lat="45.78517" lon="4.85892">
        <ele>170.39999389648</ele>
        <time>2016-08-19T08:00:18.000Z</time>
      </trkpt>
      <trkpt lat="45.7852" lon="4.85891">
        <ele>170.19999694824</ele>
        <time>2016-08-19T08:00:19.000Z</time>
      </trkpt>
      <trkpt lat="45.78523" lon="4.85889">
        <ele>170.19999694824</ele>
        <time>2016-08-19T08:00:20.000Z</time>
      </trkpt>
      <trkpt lat="45.78526" lon="4.85887">
        <ele>170</ele>
        <time>2016-08-19T08:00:21.000Z</time>
      </trkpt>
      <trkpt lat="45.78528" lon="4.85886">
        <ele>170</ele>
        <time>2016-08-19T08:00:22.000Z</time>
      </trkpt>
      <trkpt lat="45.7853" lon="4.85886">
        <ele>169.80000305176</ele>
        <time>2016-08-19T08:00:23.000Z</time>
      </trkpt>
      <trkpt lat="45.78533" lon="4.85885">
        <ele>169.80000305176</ele>
        <time>2016-08-19T08:00:24.000Z</time>
      </trkpt>
      <trkpt lat="45.78536" lon="4.85884">
        <ele>169.80000305176</ele>
        <time>2016-08-19T08:00:25.000Z</time>
      </trkpt>
      <trkpt lat="45.78538" lon="4.85883">
        <ele>169.60000610352</ele>
        <time>2016-08-19T08:00:26.000Z</time>
      </trkpt>
      <trkpt lat="45.7854" lon="4.85883">
        <ele>169.60000610352</ele>
        <time>2016-08-19T08:00:27.000Z</time>
      </trkpt>
      <trkpt lat="45.78543" lon="4.85881">
        <ele>169.39999389648</ele>
        <time>2016-08-19T08:00:28.000Z</time>
      </trkpt>
      <trkpt lat="45.78545" lon="4.85881">
        <ele>169.39999389648</ele>
        <time>2016-08-19T08:00:29.000Z</time>
      </trkpt>
      <trkpt lat="45.78548" lon="4.85881">
        <ele>169.39999389648</ele>
        <time>2016-08-19T08:00:30.000Z</time>
      </trkpt>
      <trkpt lat="45.78551" lon="4.8588">
        <ele>169.19999694824</ele>
        <time>2016-08-19T08:00:31.000Z</time>
      </trkpt>
      <trkpt lat="45.78553" lon="4.85879">
        <ele>169.19999694824</ele>
        <time>2016-08-19T08:00:32.000Z</time>
      </trkpt>
      <trkpt lat="45.78556" lon="4.85879">
        <ele>169</ele>
        <time>2016-08-19T08:00:33.000Z</time>
      </trkpt>
      <trkpt lat="45.78558" lon="4.85878">
        <ele>169</ele>
        <time>2016-08-19T08:00:34.000Z</time>
      </trkpt>
      <trkpt lat="45.7856" lon="4.85877">
        <ele>168.80000305176</ele>
        <time>2016-08-19T08:00:35.000Z</time>
      </trkpt>
      <trkpt lat="45.78562" lon="4.85877">
        <ele>168.80000305176</ele>
        <time>2016-08-19T08:00:36.000Z</time>
      </trkpt>
      <trkpt lat="45.78564" lon="4.85877">
        <ele>168.60000610352</ele>
        <time>2016-08-19T08:00:37.000Z</time>
      </trkpt>
      <trkpt lat="45.78566" lon="4.85878">
        <ele>168.60000610352</ele>
        <time>2016-08-19T08:00:38.000Z</time>
      </trkpt>
      <trkpt lat="45.78569" lon="4.85879">
        <ele>168.39999389648</ele>
        <time>2016-08-19T08:00:39.000Z</time>
      </trkpt>
      <trkpt lat="45.78571" lon="4.8588">
        <ele>168.39999389648</ele>
        <time>2016-08-19T08:00:40.000Z</time>
      </trkpt>
      <trkpt lat="45.78575" lon="4.85881">
        <ele>168.19999694824</ele>
        <time>2016-08-19T08:00:41.000Z</time>
      </trkpt>
      <trkpt lat="45.78577" lon="4.85881">
        <ele>168.19999694824</ele>
        <time>2016-08-19T08:00:42.000Z</time>
      </trkpt>
      <trkpt lat="45.7858" lon="4.85882">
        <ele>168.19999694824</ele>
        <time>2016-08-19T08:00:43.000Z</time>
      </trkpt>
      <trkpt lat="45.78583" lon="4.85883">
        <ele>168</ele>
        <time>2016-08-19T08:00:44.000Z</time>
      </trkpt>
      <trkpt lat="45.78586" lon="4.85883">
        <ele>167.80000305176</ele>
        <time>2016-08-19T08:00:45.000Z</time>
      </trkpt>
      <trkpt lat="45.78589" lon="4.85883">
        <ele>167.80000305176</ele>
        <time>2016-08-19T08:00:46.000Z</time>
      </trkpt>
      <trkpt lat="45.78591" lon="4.85884">
        <ele>167.80000305176</ele>
        <time>2016-08-19T08:00:47.000Z</time>
      </trkpt>
      <trkpt lat="45.78593" lon="4.85884">
        <ele>167.60000610352</ele>
        <time>2016-08-19T08:00:48.000Z</time>
      </trkpt>
      <trkpt lat="45.78595" lon="4.85884">
        <ele>167.60000610352</ele>
        <time>2016-08-19T08:00:49.000Z</time>
      </trkpt>
      <trkpt lat="45.78598" lon="4.85884">
        <ele>167.39999389648</ele>
        <time>2016-08-19T08:00:50.000Z</time>
      </trkpt>
      <trkpt lat="45.786" lon="4.85885">
        <ele>167.39999389648</ele>
        <time>2016-08-19T08:00:51.000Z</time>
      </trkpt>
      <trkpt lat="45.78602" lon="4.85886">
        <ele>167.39999389648</ele>
        <time>2016-08-19T08:00:52.000Z</time>
      </trkpt>
      <trkpt lat="45.78604" lon="4.85887">
        <ele>167.19999694824</ele>
        <time>2016-08-19T08:00:53.000Z</time>
      </trkpt>
      <trkpt lat="45.78607" lon="4.85888">
        <ele>167.19999694824</ele>
        <time>2016-08-19T08:00:54.000Z</time>
      </trkpt>
      <trkpt lat="45.78609" lon="4.85888">
        <ele>167</ele>
        <time>2016-08-19T08:00:55.000Z</time>
      </trkpt>
      <trkpt lat="45.78612" lon="4.8589">
        <ele>167</ele>
        <time>2016-08-19T08:00:56.000Z</time>
      </trkpt>
      <trkpt lat="45.78615" lon="4.85893">
        <ele>166.80000305176</ele>
        <time>2016-08-19T08:00:57.000Z</time>
      </trkpt>
      <trkpt lat="45.78617" lon="4.85896">
        <ele>166.80000305176</ele>
        <time>2016-08-19T08:00:58.000Z</time>
      </trkpt>
      <trkpt lat="45.78617" lon="4.85901">
        <ele>166.80000305176</ele>
        <time>2016-08-19T08:00:59.000Z</time>
      </trkpt>
      <trkpt lat="45.78617" lon="4.85906">
        <ele>166.80000305176</ele>
        <time>2016-08-19T08:01:00.000Z</time>
      </trkpt>
      <trkpt lat="45.78617" lon="4.8591">
        <ele>166.80000305176</ele>
        <time>2016-08-19T08:01:01.000Z</time>
      </trkpt>
      <trkpt lat="45.78617" lon="4.85914">
        <ele>166.80000305176</ele>
        <time>2016-08-19T08:01:02.000Z</time>
      </trkpt>
      <trkpt lat="45.78617" lon="4.85919">
        <ele>166.80000305176</ele>
        <time>2016-08-19T08:01:03.000Z</time>
      </trkpt>
      <trkpt lat="45.78617" lon="4.85923">
        <ele>166.80000305176</ele>
        <time>2016-08-19T08:01:04.000Z</time>
      </trkpt>
      <trkpt lat="45.78616" lon="4.85927">
        <ele>166.80000305176</ele>
        <time>2016-08-19T08:01:05.000Z</time>
      </trkpt>
      <trkpt lat="45.78616" lon="4.85931">
        <ele>166.80000305176</ele>
        <time>2016-08-19T08:01:06.000Z</time>
      </trkpt>
      <trkpt lat="45.78616" lon="4.85935">
        <ele>166.80000305176</ele>
        <time>2016-08-19T08:01:07.000Z</time>
      </trkpt>
      <trkpt lat="45.78615" lon="4.85939">
        <ele>167</ele>
        <time>2016-08-19T08:01:08.000Z</time>
      </trkpt>
      <trkpt lat="45.78615" lon="4.85943">
        <ele>167</ele>
        <time>2016-08-19T08:01:09.000Z</time>
      </trkpt>
      <trkpt lat="45.78614" lon="4.85946">
        <ele>167.19999694824</ele>
        <time>2016-08-19T08:01:10.000Z</time>
      </trkpt>
      <trkpt lat="45.78614" lon="4.8595">
        <ele>167.39999389648</ele>
        <time>2016-08-19T08:01:11.000Z</time>
      </trkpt>
      <trkpt lat="45.78613" lon="4.85954">
        <ele>167.39999389648</ele>
        <time>2016-08-19T08:01:12.000Z</time>
      </trkpt>
      <trkpt lat="45.78612" lon="4.85957">
        <ele>167.60000610352</ele>
        <time>2016-08-19T08:01:13.000Z</time>
      </trkpt>
      <trkpt lat="45.78611" lon="4.8596">
        <ele>167.60000610352</ele>
        <time>2016-08-19T08:01:14.000Z</time>
      </trkpt>
      <trkpt lat="45.7861" lon="4.85964">
        <ele>167.60000610352</ele>
        <time>2016-08-19T08:01:15.000Z</time>
      </trkpt>
      <trkpt lat="45.7861" lon="4.85968">
        <ele>167.60000610352</ele>
        <time>2016-08-19T08:01:16.000Z</time>
      </trkpt>
      <trkpt lat="45.78611" lon="4.8597">
        <ele>167.60000610352</ele>
        <time>2016-08-19T08:01:17.000Z</time>
      </trkpt>
      <trkpt lat="45.78611" lon="4.8597">
        <ele>167.60000610352</ele>
        <time>2016-08-19T08:01:18.000Z</time>
      </trkpt>
      <trkpt lat="45.78612" lon="4.8597">
        <ele>167.60000610352</ele>
        <time>2016-08-19T08:01:19.000Z</time>
      </trkpt>
      <trkpt lat="45.78613" lon="4.8597">
        <ele>167.39999389648</ele>
        <time>2016-08-19T08:01:20.000Z</time>
      </trkpt>
      <trkpt lat="45.78615" lon="4.85969">
        <ele>167.39999389648</ele>
        <time>2016-08-19T08:01:21.000Z</time>
      </trkpt>
      <trkpt lat="45.78617" lon="4.85969">
        <ele>167.19999694824</ele>
        <time>2016-08-19T08:01:22.000Z</time>
      </trkpt>
      <trkpt lat="45.78619" lon="4.85971">
        <ele>167.19999694824</ele>
        <time>2016-08-19T08:01:23.000Z</time>
      </trkpt>
      <trkpt lat="45.7862" lon="4.85974">
        <ele>167</ele>
        <time>2016-08-19T08:01:24.000Z</time>
      </trkpt>
      <trkpt lat="45.78621" lon="4.85977">
        <ele>167</ele>
        <time>2016-08-19T08:01:25.000Z</time>
      </trkpt>
      <trkpt lat="45.78622" lon="4.85981">
        <ele>167</ele>
        <time>2016-08-19T08:01:26.000Z</time>
      </trkpt>
      <trkpt lat="45.78622" lon="4.85985">
        <ele>167</ele>
        <time>2016-08-19T08:01:27.000Z</time>
      </trkpt>
      <trkpt lat="45.78621" lon="4.85989">
        <ele>167</ele>
        <time>2016-08-19T08:01:28.000Z</time>
      </trkpt>
      <trkpt lat="45.78621" lon="4.85993">
        <ele>167</ele>
        <time>2016-08-19T08:01:29.000Z</time>
      </trkpt>
      <trkpt lat="45.78621" lon="4.85998">
        <ele>167</ele>
        <time>2016-08-19T08:01:30.000Z</time>
      </trkpt>
      <trkpt lat="45.7862" lon="4.86001">
        <ele>167</ele>
        <time>2016-08-19T08:01:31.000Z</time>
      </trkpt>
      <trkpt lat="45.7862" lon="4.86003">
        <ele>167.19999694824</ele>
        <time>2016-08-19T08:01:32.000Z</time>
      </trkpt>
      <trkpt lat="45.7862" lon="4.86005">
        <ele>167</ele>
        <time>2016-08-19T08:01:33.000Z</time>
      </trkpt>
      <trkpt lat="45.78619" lon="4.86007">
        <ele>167.19999694824</ele>
        <time>2016-08-19T08:01:34.000Z</time>
      </trkpt>
      <trkpt lat="45.78617" lon="4.86009">
        <ele>167.19999694824</ele>
        <time>2016-08-19T08:01:35.000Z</time>
      </trkpt>
      <trkpt lat="45.78617" lon="4.86012">
        <ele>167.19999694824</ele>
        <time>2016-08-19T08:01:36.000Z</time>
      </trkpt>
      <trkpt lat="45.78616" lon="4.86014">
        <ele>167.39999389648</ele>
        <time>2016-08-19T08:01:37.000Z</time>
      </trkpt>
      <trkpt lat="45.78616" lon="4.86016">
        <ele>167.39999389648</ele>
        <time>2016-08-19T08:01:38.000Z</time>
      </trkpt>
      <trkpt lat="45.78616" lon="4.86018">
        <ele>167.39999389648</ele>
        <time>2016-08-19T08:01:39.000Z</time>
      </trkpt>
      <trkpt lat="45.78617" lon="4.86022">
        <ele>167.39999389648</ele>
        <time>2016-08-19T08:01:40.000Z</time>
      </trkpt>
      <trkpt lat="45.78622" lon="4.86029">
        <ele>167.19999694824</ele>
        <time>2016-08-19T08:01:41.000Z</time>
      </trkpt>
      <trkpt lat="45.78622" lon="4.86033">
        <ele>167.39999389648</ele>
        <time>2016-08-19T08:01:42.000Z</time>
      </trkpt>
      <trkpt lat="45.78623" lon="4.86039">
        <ele>167.39999389648</ele>
        <time>2016-08-19T08:01:43.000Z</time>
      </trkpt>
      <trkpt lat="45.78623" lon="4.86043">
        <ele>167.39999389648</ele>
        <time>2016-08-19T08:01:44.000Z</time>
      </trkpt>
      <trkpt lat="45.78624" lon="4.86048">
        <ele>167.39999389648</ele>
        <time>2016-08-19T08:01:45.000Z</time>
      </trkpt>
      <trkpt lat="45.78624" lon="4.86053">
        <ele>167.39999389648</ele>
        <time>2016-08-19T08:01:46.000Z</time>
      </trkpt>
      <trkpt lat="45.78624" lon="4.86056">
        <ele>167.39999389648</ele>
        <time>2016-08-19T08:01:47.000Z</time>
      </trkpt>
      <trkpt lat="45.78624" lon="4.8606">
        <ele>167.39999389648</ele>
        <time>2016-08-19T08:01:48.000Z</time>
      </trkpt>
      <trkpt lat="45.78623" lon="4.86064">
        <ele>167.39999389648</ele>
        <time>2016-08-19T08:01:49.000Z</time>
      </trkpt>
      <trkpt lat="45.78621" lon="4.86069">
        <ele>167.60000610352</ele>
        <time>2016-08-19T08:01:50.000Z</time>
      </trkpt>
      <trkpt lat="45.78621" lon="4.86073">
        <ele>167.60000610352</ele>
        <time>2016-08-19T08:01:51.000Z</time>
      </trkpt>
      <trkpt lat="45.7862" lon="4.86078">
        <ele>167.80000305176</ele>
        <time>2016-08-19T08:01:52.000Z</time>
      </trkpt>
      <trkpt lat="45.7862" lon="4.86082">
        <ele>167.80000305176</ele>
        <time>2016-08-19T08:01:53.000Z</time>
      </trkpt>
      <trkpt lat="45.78619" lon="4.86086">
        <ele>167.80000305176</ele>
        <time>2016-08-19T08:01:54.000Z</time>
      </trkpt>
      <trkpt lat="45.78619" lon="4.86089">
        <ele>167.80000305176</ele>
        <time>2016-08-19T08:01:55.000Z</time>
      </trkpt>
      <trkpt lat="45.78619" lon="4.86093">
        <ele>167.80000305176</ele>
        <time>2016-08-19T08:01:56.000Z</time>
      </trkpt>
      <trkpt lat="45.78618" lon="4.86097">
        <ele>168</ele>
        <time>2016-08-19T08:01:57.000Z</time>
      </trkpt>
      <trkpt lat="45.78618" lon="4.86101">
        <ele>168</ele>
        <time>2016-08-19T08:01:58.000Z</time>
      </trkpt>
      <trkpt lat="45.78617" lon="4.86105">
        <ele>167.80000305176</ele>
        <time>2016-08-19T08:01:59.000Z</time>
      </trkpt>
      <trkpt lat="45.78618" lon="4.86109">
        <ele>167.60000610352</ele>
        <time>2016-08-19T08:02:00.000Z</time>
      </trkpt>
      <trkpt lat="45.78618" lon="4.86112">
        <ele>167.19999694824</ele>
        <time>2016-08-19T08:02:01.000Z</time>
      </trkpt>
      <trkpt lat="45.78618" lon="4.86116">
        <ele>167</ele>
        <time>2016-08-19T08:02:02.000Z</time>
      </trkpt>
      <trkpt lat="45.78618" lon="4.8612">
        <ele>166.60000610352</ele>
        <time>2016-08-19T08:02:03.000Z</time>
      </trkpt>
      <trkpt lat="45.78617" lon="4.86124">
        <ele>166.60000610352</ele>
        <time>2016-08-19T08:02:04.000Z</time>
      </trkpt>
      <trkpt lat="45.78617" lon="4.86127">
        <ele>166.60000610352</ele>
        <time>2016-08-19T08:02:05.000Z</time>
      </trkpt>
      <trkpt lat="45.78616" lon="4.86131">
        <ele>166.60000610352</ele>
        <time>2016-08-19T08:02:06.000Z</time>
      </trkpt>
      <trkpt lat="45.78616" lon="4.86134">
        <ele>166.60000610352</ele>
        <time>2016-08-19T08:02:07.000Z</time>
      </trkpt>
      <trkpt lat="45.78616" lon="4.86138">
        <ele>166.60000610352</ele>
        <time>2016-08-19T08:02:08.000Z</time>
      </trkpt>
      <trkpt lat="45.78615" lon="4.86142">
        <ele>166.60000610352</ele>
        <time>2016-08-19T08:02:09.000Z</time>
      </trkpt>
      <trkpt lat="45.78615" lon="4.86145">
        <ele>166.60000610352</ele>
        <time>2016-08-19T08:02:10.000Z</time>
      </trkpt>
      <trkpt lat="45.78614" lon="4.86149">
        <ele>166.60000610352</ele>
        <time>2016-08-19T08:02:11.000Z</time>
      </trkpt>
      <trkpt lat="45.78614" lon="4.86153">
        <ele>166.60000610352</ele>
        <time>2016-08-19T08:02:12.000Z</time>
      </trkpt>
      <trkpt lat="45.78614" lon="4.86156">
        <ele>166.60000610352</ele>
        <time>2016-08-19T08:02:13.000Z</time>
      </trkpt>
      <trkpt lat="45.78614" lon="4.8616">
        <ele>166.60000610352</ele>
        <time>2016-08-19T08:02:14.000Z</time>
      </trkpt>
      <trkpt lat="45.78613" lon="4.86164">
        <ele>166.60000610352</ele>
        <time>2016-08-19T08:02:15.000Z</time>
      </trkpt>
      <trkpt lat="45.78612" lon="4.86167">
        <ele>166.60000610352</ele>
        <time>2016-08-19T08:02:16.000Z</time>
      </trkpt>
      <trkpt lat="45.78611" lon="4.86171">
        <ele>166.60000610352</ele>
        <time>2016-08-19T08:02:17.000Z</time>
      </trkpt>
      <trkpt lat="45.78611" lon="4.86175">
        <ele>166.60000610352</ele>
        <time>2016-08-19T08:02:18.000Z</time>
      </trkpt>
      <trkpt lat="45.7861" lon="4.86178">
        <ele>166.60000610352</ele>
        <time>2016-08-19T08:02:19.000Z</time>
      </trkpt>
      <trkpt lat="45.7861" lon="4.86182">
        <ele>166.60000610352</ele>
        <time>2016-08-19T08:02:20.000Z</time>
      </trkpt>
      <trkpt lat="45.78609" lon="4.86185">
        <ele>166.39999389648</ele>
        <time>2016-08-19T08:02:21.000Z</time>
      </trkpt>
      <trkpt lat="45.78608" lon="4.86189">
        <ele>166.19999694824</ele>
        <time>2016-08-19T08:02:22.000Z</time>
      </trkpt>
      <trkpt lat="45.78608" lon="4.86193">
        <ele>166.19999694824</ele>
        <time>2016-08-19T08:02:23.000Z</time>
      </trkpt>
      <trkpt lat="45.78607" lon="4.86197">
        <ele>166</ele>
        <time>2016-08-19T08:02:24.000Z</time>
      </trkpt>
      <trkpt lat="45.78607" lon="4.862">
        <ele>165.80000305176</ele>
        <time>2016-08-19T08:02:25.000Z</time>
      </trkpt>
      <trkpt lat="45.78607" lon="4.86204">
        <ele>165.60000610352</ele>
        <time>2016-08-19T08:02:26.000Z</time>
      </trkpt>
      <trkpt lat="45.78607" lon="4.86208">
        <ele>165.60000610352</ele>
        <time>2016-08-19T08:02:27.000Z</time>
      </trkpt>
      <trkpt lat="45.78607" lon="4.86212">
        <ele>165.60000610352</ele>
        <time>2016-08-19T08:02:28.000Z</time>
      </trkpt>
      <trkpt lat="45.78607" lon="4.86215">
        <ele>165.60000610352</ele>
        <time>2016-08-19T08:02:29.000Z</time>
      </trkpt>
      <trkpt lat="45.78606" lon="4.86219">
        <ele>165.60000610352</ele>
        <time>2016-08-19T08:02:30.000Z</time>
      </trkpt>
      <trkpt lat="45.78606" lon="4.86223">
        <ele>165.60000610352</ele>
        <time>2016-08-19T08:02:31.000Z</time>
      </trkpt>
      <trkpt lat="45.78606" lon="4.86226">
        <ele>165.60000610352</ele>
        <time>2016-08-19T08:02:32.000Z</time>
      </trkpt>
      <trkpt lat="45.78605" lon="4.8623">
        <ele>165.60000610352</ele>
        <time>2016-08-19T08:02:33.000Z</time>
      </trkpt>
      <trkpt lat="45.78605" lon="4.86234">
        <ele>165.60000610352</ele>
        <time>2016-08-19T08:02:34.000Z</time>
      </trkpt>
      <trkpt lat="45.78604" lon="4.86238">
        <ele>165.60000610352</ele>
        <time>2016-08-19T08:02:35.000Z</time>
      </trkpt>
      <trkpt lat="45.78604" lon="4.86241">
        <ele>165.60000610352</ele>
        <time>2016-08-19T08:02:36.000Z</time>
      </trkpt>
      <trkpt lat="45.78604" lon="4.86245">
        <ele>165.60000610352</ele>
        <time>2016-08-19T08:02:37.000Z</time>
      </trkpt>
      <trkpt lat="45.78603" lon="4.86249">
        <ele>165.60000610352</ele>
        <time>2016-08-19T08:02:38.000Z</time>
      </trkpt>
      <trkpt lat="45.78603" lon="4.86252">
        <ele>165.60000610352</ele>
        <time>2016-08-19T08:02:39.000Z</time>
      </trkpt>
      <trkpt lat="45.78603" lon="4.86256">
        <ele>165.60000610352</ele>
        <time>2016-08-19T08:02:40.000Z</time>
      </trkpt>
      <trkpt lat="45.78602" lon="4.86259">
        <ele>165.80000305176</ele>
        <time>2016-08-19T08:02:41.000Z</time>
      </trkpt>
      <trkpt lat="45.78602" lon="4.86263">
        <ele>165.80000305176</ele>
        <time>2016-08-19T08:02:42.000Z</time>
      </trkpt>
      <trkpt lat="45.78602" lon="4.86266">
        <ele>165.80000305176</ele>
        <time>2016-08-19T08:02:43.000Z</time>
      </trkpt>
      <trkpt lat="45.78601" lon="4.8627">
        <ele>166</ele>
        <time>2016-08-19T08:02:44.000Z</time>
      </trkpt>
      <trkpt lat="45.78601" lon="4.86273">
        <ele>166</ele>
        <time>2016-08-19T08:02:45.000Z</time>
      </trkpt>
      <trkpt lat="45.786" lon="4.86276">
        <ele>166.19999694824</ele>
        <time>2016-08-19T08:02:46.000Z</time>
      </trkpt>
      <trkpt lat="45.78599" lon="4.86279">
        <ele>166.19999694824</ele>
        <time>2016-08-19T08:02:47.000Z</time>
      </trkpt>
      <trkpt lat="45.78598" lon="4.86282">
        <ele>166.39999389648</ele>
        <time>2016-08-19T08:02:48.000Z</time>
      </trkpt>
      <trkpt lat="45.78597" lon="4.86285">
        <ele>166.39999389648</ele>
        <time>2016-08-19T08:02:49.000Z</time>
      </trkpt>
      <trkpt lat="45.78596" lon="4.86289">
        <ele>166.39999389648</ele>
        <time>2016-08-19T08:02:50.000Z</time>
      </trkpt>
      <trkpt lat="45.78595" lon="4.86292">
        <ele>166.60000610352</ele>
        <time>2016-08-19T08:02:51.000Z</time>
      </trkpt>
      <trkpt lat="45.78594" lon="4.86295">
        <ele>166.60000610352</ele>
        <time>2016-08-19T08:02:52.000Z</time>
      </trkpt>
      <trkpt lat="45.78593" lon="4.86298">
        <ele>166.60000610352</ele>
        <time>2016-08-19T08:02:53.000Z</time>
      </trkpt>
      <trkpt lat="45.78592" lon="4.86301">
        <ele>166.60000610352</ele>
        <time>2016-08-19T08:02:54.000Z</time>
      </trkpt>
      <trkpt lat="45.7859" lon="4.86304">
        <ele>166.60000610352</ele>
        <time>2016-08-19T08:02:55.000Z</time>
      </trkpt>
      <trkpt lat="45.78589" lon="4.86306">
        <ele>166.60000610352</ele>
        <time>2016-08-19T08:02:56.000Z</time>
      </trkpt>
      <trkpt lat="45.78587" lon="4.86309">
        <ele>166.60000610352</ele>
        <time>2016-08-19T08:02:57.000Z</time>
      </trkpt>
      <trkpt lat="45.78585" lon="4.86312">
        <ele>166.60000610352</ele>
        <time>2016-08-19T08:02:58.000Z</time>
      </trkpt>
      <trkpt lat="45.78585" lon="4.86315">
        <ele>166.60000610352</ele>
        <time>2016-08-19T08:02:59.000Z</time>
      </trkpt>
      <trkpt lat="45.78583" lon="4.86318">
        <ele>166.60000610352</ele>
        <time>2016-08-19T08:03:00.000Z</time>
      </trkpt>
      <trkpt lat="45.78581" lon="4.86321">
        <ele>166.80000305176</ele>
        <time>2016-08-19T08:03:01.000Z</time>
      </trkpt>
      <trkpt lat="45.7858" lon="4.86324">
        <ele>166.80000305176</ele>
        <time>2016-08-19T08:03:02.000Z</time>
      </trkpt>
      <trkpt lat="45.78579" lon="4.86327">
        <ele>166.80000305176</ele>
        <time>2016-08-19T08:03:03.000Z</time>
      </trkpt>
      <trkpt lat="45.78577" lon="4.86329">
        <ele>167</ele>
        <time>2016-08-19T08:03:04.000Z</time>
      </trkpt>
      <trkpt lat="45.78576" lon="4.86333">
        <ele>167</ele>
        <time>2016-08-19T08:03:05.000Z</time>
      </trkpt>
      <trkpt lat="45.78575" lon="4.86336">
        <ele>167</ele>
        <time>2016-08-19T08:03:06.000Z</time>
      </trkpt>
      <trkpt lat="45.78574" lon="4.86339">
        <ele>167.19999694824</ele>
        <time>2016-08-19T08:03:07.000Z</time>
      </trkpt>
      <trkpt lat="45.78574" lon="4.86342">
        <ele>167.19999694824</ele>
        <time>2016-08-19T08:03:08.000Z</time>
      </trkpt>
      <trkpt lat="45.78574" lon="4.86346">
        <ele>167.19999694824</ele>
        <time>2016-08-19T08:03:09.000Z</time>
      </trkpt>
      <trkpt lat="45.78574" lon="4.86349">
        <ele>167.19999694824</ele>
        <time>2016-08-19T08:03:10.000Z</time>
      </trkpt>
      <trkpt lat="45.78573" lon="4.86352">
        <ele>167.39999389648</ele>
        <time>2016-08-19T08:03:11.000Z</time>
      </trkpt>
      <trkpt lat="45.78573" lon="4.86356">
        <ele>167.39999389648</ele>
        <time>2016-08-19T08:03:12.000Z</time>
      </trkpt>
      <trkpt lat="45.78574" lon="4.86359">
        <ele>167.39999389648</ele>
        <time>2016-08-19T08:03:13.000Z</time>
      </trkpt>
      <trkpt lat="45.78574" lon="4.86363">
        <ele>167.39999389648</ele>
        <time>2016-08-19T08:03:14.000Z</time>
      </trkpt>
      <trkpt lat="45.78575" lon="4.86366">
        <ele>167.39999389648</ele>
        <time>2016-08-19T08:03:15.000Z</time>
      </trkpt>
      <trkpt lat="45.78575" lon="4.86369">
        <ele>167.39999389648</ele>
        <time>2016-08-19T08:03:16.000Z</time>
      </trkpt>
      <trkpt lat="45.78575" lon="4.86373">
        <ele>167.60000610352</ele>
        <time>2016-08-19T08:03:17.000Z</time>
      </trkpt>
      <trkpt lat="45.78575" lon="4.86376">
        <ele>167.60000610352</ele>
        <time>2016-08-19T08:03:18.000Z</time>
      </trkpt>
      <trkpt lat="45.78575" lon="4.8638">
        <ele>167.60000610352</ele>
        <time>2016-08-19T08:03:19.000Z</time>
      </trkpt>
      <trkpt lat="45.78576" lon="4.86383">
        <ele>167.60000610352</ele>
        <time>2016-08-19T08:03:20.000Z</time>
      </trkpt>
      <trkpt lat="45.78575" lon="4.86386">
        <ele>167.60000610352</ele>
        <time>2016-08-19T08:03:21.000Z</time>
      </trkpt>
      <trkpt lat="45.78575" lon="4.8639">
        <ele>167.60000610352</ele>
        <time>2016-08-19T08:03:22.000Z</time>
      </trkpt>
      <trkpt lat="45.78575" lon="4.86393">
        <ele>167.60000610352</ele>
        <time>2016-08-19T08:03:23.000Z</time>
      </trkpt>
      <trkpt lat="45.78577" lon="4.86397">
        <ele>167.60000610352</ele>
        <time>2016-08-19T08:03:24.000Z</time>
      </trkpt>
      <trkpt lat="45.78577" lon="4.86401">
        <ele>167.60000610352</ele>
        <time>2016-08-19T08:03:25.000Z</time>
      </trkpt>
      <trkpt lat="45.78577" lon="4.86404">
        <ele>167.60000610352</ele>
        <time>2016-08-19T08:03:26.000Z</time>
      </trkpt>
      <trkpt lat="45.78578" lon="4.86408">
        <ele>167.60000610352</ele>
        <time>2016-08-19T08:03:27.000Z</time>
      </trkpt>
      <trkpt lat="45.78578" lon="4.86412">
        <ele>167.60000610352</ele>
        <time>2016-08-19T08:03:28.000Z</time>
      </trkpt>
      <trkpt lat="45.78579" lon="4.86416">
        <ele>167.60000610352</ele>
        <time>2016-08-19T08:03:29.000Z</time>
      </trkpt>
      <trkpt lat="45.7858" lon="4.86419">
        <ele>167.60000610352</ele>
        <time>2016-08-19T08:03:30.000Z</time>
      </trkpt>
      <trkpt lat="45.78581" lon="4.86422">
        <ele>167.60000610352</ele>
        <time>2016-08-19T08:03:31.000Z</time>
      </trkpt>
      <trkpt lat="45.78581" lon="4.86426">
        <ele>167.60000610352</ele>
        <time>2016-08-19T08:03:32.000Z</time>
      </trkpt>
      <trkpt lat="45.78582" lon="4.86429">
        <ele>167.80000305176</ele>
        <time>2016-08-19T08:03:33.000Z</time>
      </trkpt>
      <trkpt lat="45.78582" lon="4.86433">
        <ele>167.80000305176</ele>
        <time>2016-08-19T08:03:34.000Z</time>
      </trkpt>
      <trkpt lat="45.78582" lon="4.86437">
        <ele>167.80000305176</ele>
        <time>2016-08-19T08:03:35.000Z</time>
      </trkpt>
      <trkpt lat="45.78583" lon="4.86441">
        <ele>167.80000305176</ele>
        <time>2016-08-19T08:03:36.000Z</time>
      </trkpt>
      <trkpt lat="45.78583" lon="4.86444">
        <ele>167.80000305176</ele>
        <time>2016-08-19T08:03:37.000Z</time>
      </trkpt>
      <trkpt lat="45.78584" lon="4.86448">
        <ele>167.80000305176</ele>
        <time>2016-08-19T08:03:38.000Z</time>
      </trkpt>
      <trkpt lat="45.78585" lon="4.86451">
        <ele>167.80000305176</ele>
        <time>2016-08-19T08:03:39.000Z</time>
      </trkpt>
      <trkpt lat="45.78585" lon="4.86454">
        <ele>167.80000305176</ele>
        <time>2016-08-19T08:03:40.000Z</time>
      </trkpt>
      <trkpt lat="45.78586" lon="4.86457">
        <ele>167.80000305176</ele>
        <time>2016-08-19T08:03:41.000Z</time>
      </trkpt>
      <trkpt lat="45.78587" lon="4.8646">
        <ele>167.80000305176</ele>
        <time>2016-08-19T08:03:42.000Z</time>
      </trkpt>
      <trkpt lat="45.78588" lon="4.86464">
        <ele>167.80000305176</ele>
        <time>2016-08-19T08:03:43.000Z</time>
      </trkpt>
      <trkpt lat="45.78589" lon="4.86467">
        <ele>167.80000305176</ele>
        <time>2016-08-19T08:03:44.000Z</time>
      </trkpt>
      <trkpt lat="45.78589" lon="4.8647">
        <ele>167.80000305176</ele>
        <time>2016-08-19T08:03:45.000Z</time>
      </trkpt>
      <trkpt lat="45.7859" lon="4.86473">
        <ele>167.80000305176</ele>
        <time>2016-08-19T08:03:46.000Z</time>
      </trkpt>
      <trkpt lat="45.78591" lon="4.86476">
        <ele>167.80000305176</ele>
        <time>2016-08-19T08:03:47.000Z</time>
      </trkpt>
      <trkpt lat="45.78591" lon="4.86479">
        <ele>167.60000610352</ele>
        <time>2016-08-19T08:03:48.000Z</time>
      </trkpt>
      <trkpt lat="45.78592" lon="4.86482">
        <ele>167.60000610352</ele>
        <time>2016-08-19T08:03:49.000Z</time>
      </trkpt>
      <trkpt lat="45.78593" lon="4.86485">
        <ele>167.60000610352</ele>
        <time>2016-08-19T08:03:50.000Z</time>
      </trkpt>
      <trkpt lat="45.78593" lon="4.86488">
        <ele>167.60000610352</ele>
        <time>2016-08-19T08:03:51.000Z</time>
      </trkpt>
      <trkpt lat="45.78594" lon="4.86491">
        <ele>167.60000610352</ele>
        <time>2016-08-19T08:03:52.000Z</time>
      </trkpt>
      <trkpt lat="45.78594" lon="4.86493">
        <ele>167.60000610352</ele>
        <time>2016-08-19T08:03:53.000Z</time>
      </trkpt>
      <trkpt lat="45.78594" lon="4.86494">
        <ele>167.60000610352</ele>
        <time>2016-08-19T08:03:54.000Z</time>
      </trkpt>
      <trkpt lat="45.78594" lon="4.86496">
        <ele>167.60000610352</ele>
        <time>2016-08-19T08:03:55.000Z</time>
      </trkpt>
      <trkpt lat="45.78594" lon="4.86498">
        <ele>167.60000610352</ele>
        <time>2016-08-19T08:03:56.000Z</time>
      </trkpt>
      <trkpt lat="45.78595" lon="4.86501">
        <ele>167.60000610352</ele>
        <time>2016-08-19T08:03:57.000Z</time>
      </trkpt>
      <trkpt lat="45.78595" lon="4.86504">
        <ele>167.80000305176</ele>
        <time>2016-08-19T08:03:58.000Z</time>
      </trkpt>
      <trkpt lat="45.78596" lon="4.86507">
        <ele>167.80000305176</ele>
        <time>2016-08-19T08:03:59.000Z</time>
      </trkpt>
      <trkpt lat="45.78596" lon="4.8651">
        <ele>167.80000305176</ele>
        <time>2016-08-19T08:04:00.000Z</time>
      </trkpt>
      <trkpt lat="45.78595" lon="4.86514">
        <ele>168</ele>
        <time>2016-08-19T08:04:01.000Z</time>
      </trkpt>
      <trkpt lat="45.78596" lon="4.86517">
        <ele>168</ele>
        <time>2016-08-19T08:04:02.000Z</time>
      </trkpt>
      <trkpt lat="45.78596" lon="4.86521">
        <ele>168</ele>
        <time>2016-08-19T08:04:03.000Z</time>
      </trkpt>
      <trkpt lat="45.78596" lon="4.86524">
        <ele>168.19999694824</ele>
        <time>2016-08-19T08:04:04.000Z</time>
      </trkpt>
      <trkpt lat="45.78596" lon="4.86527">
        <ele>168.19999694824</ele>
        <time>2016-08-19T08:04:05.000Z</time>
      </trkpt>
      <trkpt lat="45.78597" lon="4.86529">
        <ele>168.19999694824</ele>
        <time>2016-08-19T08:04:06.000Z</time>
      </trkpt>
      <trkpt lat="45.78597" lon="4.86531">
        <ele>168.19999694824</ele>
        <time>2016-08-19T08:04:07.000Z</time>
      </trkpt>
      <trkpt lat="45.78598" lon="4.86532">
        <ele>168.19999694824</ele>
        <time>2016-08-19T08:04:08.000Z</time>
      </trkpt>
      <trkpt lat="45.78599" lon="4.86534">
        <ele>168.19999694824</ele>
        <time>2016-08-19T08:04:09.000Z</time>
      </trkpt>
      <trkpt lat="45.78599" lon="4.86536">
        <ele>168.19999694824</ele>
        <time>2016-08-19T08:04:10.000Z</time>
      </trkpt>
      <trkpt lat="45.78599" lon="4.86538">
        <ele>168.39999389648</ele>
        <time>2016-08-19T08:04:11.000Z</time>
      </trkpt>
      <trkpt lat="45.78599" lon="4.86539">
        <ele>168.39999389648</ele>
        <time>2016-08-19T08:04:12.000Z</time>
      </trkpt>
      <trkpt lat="45.78599" lon="4.86541">
        <ele>168.39999389648</ele>
        <time>2016-08-19T08:04:13.000Z</time>
      </trkpt>
      <trkpt lat="45.786" lon="4.86543">
        <ele>168.19999694824</ele>
        <time>2016-08-19T08:04:14.000Z</time>
      </trkpt>
      <trkpt lat="45.78601" lon="4.86545">
        <ele>168.19999694824</ele>
        <time>2016-08-19T08:04:15.000Z</time>
      </trkpt>
      <trkpt lat="45.78601" lon="4.86547">
        <ele>168.19999694824</ele>
        <time>2016-08-19T08:04:16.000Z</time>
      </trkpt>
      <trkpt lat="45.78601" lon="4.86549">
        <ele>168.19999694824</ele>
        <time>2016-08-19T08:04:17.000Z</time>
      </trkpt>
      <trkpt lat="45.78601" lon="4.86551">
        <ele>168.19999694824</ele>
        <time>2016-08-19T08:04:18.000Z</time>
      </trkpt>
      <trkpt lat="45.78601" lon="4.86553">
        <ele>168.19999694824</ele>
        <time>2016-08-19T08:04:19.000Z</time>
      </trkpt>
      <trkpt lat="45.78602" lon="4.86555">
        <ele>168.19999694824</ele>
        <time>2016-08-19T08:04:20.000Z</time>
      </trkpt>
      <trkpt lat="45.78601" lon="4.86557">
        <ele>168.19999694824</ele>
        <time>2016-08-19T08:04:21.000Z</time>
      </trkpt>
      <trkpt lat="45.786" lon="4.86559">
        <ele>168.19999694824</ele>
        <time>2016-08-19T08:04:22.000Z</time>
      </trkpt>
      <trkpt lat="45.786" lon="4.8656">
        <ele>168.19999694824</ele>
        <time>2016-08-19T08:04:23.000Z</time>
      </trkpt>
      <trkpt lat="45.786" lon="4.86561">
        <ele>168.19999694824</ele>
        <time>2016-08-19T08:04:24.000Z</time>
      </trkpt>
      <trkpt lat="45.786" lon="4.86562">
        <ele>168.19999694824</ele>
        <time>2016-08-19T08:04:25.000Z</time>
      </trkpt>
      <trkpt lat="45.786" lon="4.86562">
        <ele>168.39999389648</ele>
        <time>2016-08-19T08:04:26.000Z</time>
      </trkpt>
      <trkpt lat="45.786" lon="4.86562">
        <ele>168.19999694824</ele>
        <time>2016-08-19T08:04:27.000Z</time>
      </trkpt>
      <trkpt lat="45.786" lon="4.86562">
        <ele>168.19999694824</ele>
        <time>2016-08-19T08:04:28.000Z</time>
      </trkpt>
      <trkpt lat="45.786" lon="4.86561">
        <ele>168.19999694824</ele>
        <time>2016-08-19T08:04:29.000Z</time>
      </trkpt>
      <trkpt lat="45.786" lon="4.86562">
        <ele>168.19999694824</ele>
        <time>2016-08-19T08:04:30.000Z</time>
      </trkpt>
      <trkpt lat="45.786" lon="4.86562">
        <ele>168.19999694824</ele>
        <time>2016-08-19T08:04:31.000Z</time>
      </trkpt>
      <trkpt lat="45.786" lon="4.86562">
        <ele>168.19999694824</ele>
        <time>2016-08-19T08:04:32.000Z</time>
      </trkpt>
      <trkpt lat="45.786" lon="4.86562">
        <ele>168.19999694824</ele>
        <time>2016-08-19T08:04:33.000Z</time>
      </trkpt>
      <trkpt lat="45.786" lon="4.86562">
        <ele>168.19999694824</ele>
        <time>2016-08-19T08:04:34.000Z</time>
      </trkpt>
      <trkpt lat="45.786" lon="4.86563">
        <ele>168.19999694824</ele>
        <time>2016-08-19T08:04:35.000Z</time>
      </trkpt>
      <trkpt lat="45.786" lon="4.86563">
        <ele>168.39999389648</ele>
        <time>2016-08-19T08:04:36.000Z</time>
      </trkpt>
      <trkpt lat="45.786" lon="4.86563">
        <ele>168.19999694824</ele>
        <time>2016-08-19T08:04:37.000Z</time>
      </trkpt>
      <trkpt lat="45.786" lon="4.86563">
        <ele>168.19999694824</ele>
        <time>2016-08-19T08:04:38.000Z</time>
      </trkpt>
      <trkpt lat="45.78601" lon="4.86564">
        <ele>168.19999694824</ele>
        <time>2016-08-19T08:04:39.000Z</time>
      </trkpt>
      <trkpt lat="45.78602" lon="4.86564">
        <ele>168.19999694824</ele>
        <time>2016-08-19T08:04:40.000Z</time>
      </trkpt>
      <trkpt lat="45.78603" lon="4.86564">
        <ele>168.19999694824</ele>
        <time>2016-08-19T08:04:41.000Z</time>
      </trkpt>
      <trkpt lat="45.78603" lon="4.86564">
        <ele>168</ele>
        <time>2016-08-19T08:04:42.000Z</time>
      </trkpt>
      <trkpt lat="45.78603" lon="4.86564">
        <ele>168</ele>
        <time>2016-08-19T08:04:43.000Z</time>
      </trkpt>
      <trkpt lat="45.78604" lon="4.86564">
        <ele>168</ele>
        <time>2016-08-19T08:04:44.000Z</time>
      </trkpt>
      <trkpt lat="45.78605" lon="4.86564">
        <ele>168</ele>
        <time>2016-08-19T08:04:45.000Z</time>
      </trkpt>
      <trkpt lat="45.78606" lon="4.86564">
        <ele>168</ele>
        <time>2016-08-19T08:04:46.000Z</time>
      </trkpt>
      <trkpt lat="45.78606" lon="4.86564">
        <ele>168</ele>
        <time>2016-08-19T08:04:47.000Z</time>
      </trkpt>
      <trkpt lat="45.78607" lon="4.86564">
        <ele>167.80000305176</ele>
        <time>2016-08-19T08:04:48.000Z</time>
      </trkpt>
      <trkpt lat="45.78607" lon="4.86564">
        <ele>167.80000305176</ele>
        <time>2016-08-19T08:04:49.000Z</time>
      </trkpt>
      <trkpt lat="45.78607" lon="4.86564">
        <ele>167.80000305176</ele>
        <time>2016-08-19T08:04:50.000Z</time>
      </trkpt>
      <trkpt lat="45.78606" lon="4.86564">
        <ele>168</ele>
        <time>2016-08-19T08:04:51.000Z</time>
      </trkpt>
      <trkpt lat="45.78606" lon="4.86564">
        <ele>168</ele>
        <time>2016-08-19T08:04:52.000Z</time>
      </trkpt>
      <trkpt lat="45.78606" lon="4.86565">
        <ele>168</ele>
        <time>2016-08-19T08:04:53.000Z</time>
      </trkpt>
      <trkpt lat="45.78606" lon="4.86566">
        <ele>168</ele>
        <time>2016-08-19T08:04:54.000Z</time>
      </trkpt>
      <trkpt lat="45.78606" lon="4.86568">
        <ele>168</ele>
        <time>2016-08-19T08:04:55.000Z</time>
      </trkpt>
      <trkpt lat="45.78605" lon="4.8657">
        <ele>168</ele>
        <time>2016-08-19T08:04:56.000Z</time>
      </trkpt>
      <trkpt lat="45.78605" lon="4.86572">
        <ele>168</ele>
        <time>2016-08-19T08:04:57.000Z</time>
      </trkpt>
      <trkpt lat="45.78606" lon="4.86573">
        <ele>168</ele>
        <time>2016-08-19T08:04:58.000Z</time>
      </trkpt>
      <trkpt lat="45.78606" lon="4.86575">
        <ele>168</ele>
        <time>2016-08-19T08:04:59.000Z</time>
      </trkpt>
      <trkpt lat="45.78607" lon="4.86576">
        <ele>167.80000305176</ele>
        <time>2016-08-19T08:05:00.000Z</time>
      </trkpt>
      <trkpt lat="45.78608" lon="4.86578">
        <ele>167.80000305176</ele>
        <time>2016-08-19T08:05:01.000Z</time>
      </trkpt>
      <trkpt lat="45.78609" lon="4.8658">
        <ele>167.80000305176</ele>
        <time>2016-08-19T08:05:02.000Z</time>
      </trkpt>
      <trkpt lat="45.78609" lon="4.86582">
        <ele>167.80000305176</ele>
        <time>2016-08-19T08:05:03.000Z</time>
      </trkpt>
      <trkpt lat="45.78609" lon="4.86585">
        <ele>167.80000305176</ele>
        <time>2016-08-19T08:05:04.000Z</time>
      </trkpt>
      <trkpt lat="45.7861" lon="4.86587">
        <ele>167.80000305176</ele>
        <time>2016-08-19T08:05:05.000Z</time>
      </trkpt>
      <trkpt lat="45.7861" lon="4.86589">
        <ele>167.60000610352</ele>
        <time>2016-08-19T08:05:06.000Z</time>
      </trkpt>
      <trkpt lat="45.78611" lon="4.86591">
        <ele>167.60000610352</ele>
        <time>2016-08-19T08:05:07.000Z</time>
      </trkpt>
      <trkpt lat="45.78612" lon="4.86593">
        <ele>167.60000610352</ele>
        <time>2016-08-19T08:05:08.000Z</time>
      </trkpt>
      <trkpt lat="45.78612" lon="4.86595">
        <ele>167.60000610352</ele>
        <time>2016-08-19T08:05:09.000Z</time>
      </trkpt>
      <trkpt lat="45.78612" lon="4.86597">
        <ele>167.60000610352</ele>
        <time>2016-08-19T08:05:10.000Z</time>
      </trkpt>
      <trkpt lat="45.78613" lon="4.86599">
        <ele>167.60000610352</ele>
        <time>2016-08-19T08:05:11.000Z</time>
      </trkpt>
      <trkpt lat="45.78613" lon="4.86601">
        <ele>167.60000610352</ele>
        <time>2016-08-19T08:05:12.000Z</time>
      </trkpt>
      <trkpt lat="45.78613" lon="4.86602">
        <ele>167.80000305176</ele>
        <time>2016-08-19T08:05:13.000Z</time>
      </trkpt>
      <trkpt lat="45.78612" lon="4.86605">
        <ele>168</ele>
        <time>2016-08-19T08:05:14.000Z</time>
      </trkpt>
      <trkpt lat="45.78611" lon="4.86607">
        <ele>168</ele>
        <time>2016-08-19T08:05:15.000Z</time>
      </trkpt>
      <trkpt lat="45.7861" lon="4.86609">
        <ele>168.19999694824</ele>
        <time>2016-08-19T08:05:16.000Z</time>
      </trkpt>
      <trkpt lat="45.7861" lon="4.86612">
        <ele>168.19999694824</ele>
        <time>2016-08-19T08:05:17.000Z</time>
      </trkpt>
      <trkpt lat="45.78611" lon="4.86615">
        <ele>168.39999389648</ele>
        <time>2016-08-19T08:05:18.000Z</time>
      </trkpt>
      <trkpt lat="45.78612" lon="4.86618">
        <ele>168.39999389648</ele>
        <time>2016-08-19T08:05:19.000Z</time>
      </trkpt>
      <trkpt lat="45.78613" lon="4.86622">
        <ele>168.39999389648</ele>
        <time>2016-08-19T08:05:20.000Z</time>
      </trkpt>
      <trkpt lat="45.78614" lon="4.86625">
        <ele>168.39999389648</ele>
        <time>2016-08-19T08:05:21.000Z</time>
      </trkpt>
      <trkpt lat="45.78615" lon="4.86629">
        <ele>168.19999694824</ele>
        <time>2016-08-19T08:05:22.000Z</time>
      </trkpt>
      <trkpt lat="45.78616" lon="4.86633">
        <ele>168.19999694824</ele>
        <time>2016-08-19T08:05:23.000Z</time>
      </trkpt>
      <trkpt lat="45.78617" lon="4.86636">
        <ele>168</ele>
        <time>2016-08-19T08:05:24.000Z</time>
      </trkpt>
      <trkpt lat="45.78617" lon="4.86639">
        <ele>168</ele>
        <time>2016-08-19T08:05:25.000Z</time>
      </trkpt>
      <trkpt lat="45.78617" lon="4.86642">
        <ele>168</ele>
        <time>2016-08-19T08:05:26.000Z</time>
      </trkpt>
      <trkpt lat="45.78617" lon="4.86646">
        <ele>168</ele>
        <time>2016-08-19T08:05:27.000Z</time>
      </trkpt>
      <trkpt lat="45.78617" lon="4.8665">
        <ele>168</ele>
        <time>2016-08-19T08:05:28.000Z</time>
      </trkpt>
      <trkpt lat="45.78618" lon="4.86653">
        <ele>168</ele>
        <time>2016-08-19T08:05:29.000Z</time>
      </trkpt>
      <trkpt lat="45.78618" lon="4.86657">
        <ele>168</ele>
        <time>2016-08-19T08:05:30.000Z</time>
      </trkpt>
      <trkpt lat="45.78619" lon="4.86661">
        <ele>167.80000305176</ele>
        <time>2016-08-19T08:05:31.000Z</time>
      </trkpt>
      <trkpt lat="45.78619" lon="4.86664">
        <ele>167.80000305176</ele>
        <time>2016-08-19T08:05:32.000Z</time>
      </trkpt>
      <trkpt lat="45.7862" lon="4.86668">
        <ele>167.80000305176</ele>
        <time>2016-08-19T08:05:33.000Z</time>
      </trkpt>
      <trkpt lat="45.7862" lon="4.86672">
        <ele>167.80000305176</ele>
        <time>2016-08-19T08:05:34.000Z</time>
      </trkpt>
      <trkpt lat="45.78621" lon="4.86675">
        <ele>167.60000610352</ele>
        <time>2016-08-19T08:05:35.000Z</time>
      </trkpt>
      <trkpt lat="45.78621" lon="4.86679">
        <ele>167.60000610352</ele>
        <time>2016-08-19T08:05:36.000Z</time>
      </trkpt>
      <trkpt lat="45.78621" lon="4.86682">
        <ele>167.60000610352</ele>
        <time>2016-08-19T08:05:37.000Z</time>
      </trkpt>
      <trkpt lat="45.7862" lon="4.86686">
        <ele>167.80000305176</ele>
        <time>2016-08-19T08:05:38.000Z</time>
      </trkpt>
      <trkpt lat="45.7862" lon="4.8669">
        <ele>167.80000305176</ele>
        <time>2016-08-19T08:05:39.000Z</time>
      </trkpt>
      <trkpt lat="45.7862" lon="4.86694">
        <ele>167.80000305176</ele>
        <time>2016-08-19T08:05:40.000Z</time>
      </trkpt>
      <trkpt lat="45.7862" lon="4.86697">
        <ele>168</ele>
        <time>2016-08-19T08:05:41.000Z</time>
      </trkpt>
      <trkpt lat="45.7862" lon="4.86699">
        <ele>168</ele>
        <time>2016-08-19T08:05:42.000Z</time>
      </trkpt>
      <trkpt lat="45.78621" lon="4.86702">
        <ele>168</ele>
        <time>2016-08-19T08:05:43.000Z</time>
      </trkpt>
      <trkpt lat="45.78621" lon="4.86704">
        <ele>168</ele>
        <time>2016-08-19T08:05:44.000Z</time>
      </trkpt>
      <trkpt lat="45.78622" lon="4.86705">
        <ele>168</ele>
        <time>2016-08-19T08:05:45.000Z</time>
      </trkpt>
      <trkpt lat="45.7862" lon="4.86703">
        <ele>168</ele>
        <time>2016-08-19T08:05:46.000Z</time>
      </trkpt>
      <trkpt lat="45.7862" lon="4.867">
        <ele>168</ele>
        <time>2016-08-19T08:05:47.000Z</time>
      </trkpt>
      <trkpt lat="45.78619" lon="4.86697">
        <ele>168</ele>
        <time>2016-08-19T08:05:48.000Z</time>
      </trkpt>
      <trkpt lat="45.78619" lon="4.86694">
        <ele>168</ele>
        <time>2016-08-19T08:05:49.000Z</time>
      </trkpt>
      <trkpt lat="45.78619" lon="4.86691">
        <ele>168</ele>
        <time>2016-08-19T08:05:50.000Z</time>
      </trkpt>
      <trkpt lat="45.78618" lon="4.86687">
        <ele>168</ele>
        <time>2016-08-19T08:05:51.000Z</time>
      </trkpt>
      <trkpt lat="45.78619" lon="4.86683">
        <ele>167.80000305176</ele>
        <time>2016-08-19T08:05:52.000Z</time>
      </trkpt>
      <trkpt lat="45.78621" lon="4.86681">
        <ele>167.60000610352</ele>
        <time>2016-08-19T08:05:53.000Z</time>
      </trkpt>
      <trkpt lat="45.78623" lon="4.86679">
        <ele>167.39999389648</ele>
        <time>2016-08-19T08:05:54.000Z</time>
      </trkpt>
      <trkpt lat="45.78624" lon="4.86678">
        <ele>167.39999389648</ele>
        <time>2016-08-19T08:05:55.000Z</time>
      </trkpt>
      <trkpt lat="45.78625" lon="4.86677">
        <ele>167.19999694824</ele>
        <time>2016-08-19T08:05:56.000Z</time>
      </trkpt>
      <trkpt lat="45.78625" lon="4.86677">
        <ele>167.19999694824</ele>
        <time>2016-08-19T08:05:57.000Z</time>
      </trkpt>
      <trkpt lat="45.78625" lon="4.86677">
        <ele>167.19999694824</ele>
        <time>2016-08-19T08:05:58.000Z</time>
      </trkpt>
      <trkpt lat="45.78626" lon="4.86678">
        <ele>167.19999694824</ele>
        <time>2016-08-19T08:05:59.000Z</time>
      </trkpt>
      <trkpt lat="45.78626" lon="4.8668">
        <ele>167.19999694824</ele>
        <time>2016-08-19T08:06:00.000Z</time>
      </trkpt>
      <trkpt lat="45.78627" lon="4.86682">
        <ele>167</ele>
        <time>2016-08-19T08:06:01.000Z</time>
      </trkpt>
      <trkpt lat="45.78628" lon="4.86685">
        <ele>167</ele>
        <time>2016-08-19T08:06:02.000Z</time>
      </trkpt>
      <trkpt lat="45.78629" lon="4.86688">
        <ele>166.80000305176</ele>
        <time>2016-08-19T08:06:03.000Z</time>
      </trkpt>
      <trkpt lat="45.78631" lon="4.86692">
        <ele>166.60000610352</ele>
        <time>2016-08-19T08:06:04.000Z</time>
      </trkpt>
      <trkpt lat="45.78631" lon="4.86695">
        <ele>166.60000610352</ele>
        <time>2016-08-19T08:06:05.000Z</time>
      </trkpt>
      <trkpt lat="45.78632" lon="4.86699">
        <ele>166.60000610352</ele>
        <time>2016-08-19T08:06:06.000Z</time>
      </trkpt>
      <trkpt lat="45.78632" lon="4.86702">
        <ele>166.60000610352</ele>
        <time>2016-08-19T08:06:07.000Z</time>
      </trkpt>
      <trkpt lat="45.78633" lon="4.86705">
        <ele>166.60000610352</ele>
        <time>2016-08-19T08:06:08.000Z</time>
      </trkpt>
      <trkpt lat="45.78635" lon="4.86709">
        <ele>166.60000610352</ele>
        <time>2016-08-19T08:06:09.000Z</time>
      </trkpt>
      <trkpt lat="45.78635" lon="4.86713">
        <ele>166.60000610352</ele>
        <time>2016-08-19T08:06:10.000Z</time>
      </trkpt>
      <trkpt lat="45.78637" lon="4.86717">
        <ele>166.60000610352</ele>
        <time>2016-08-19T08:06:11.000Z</time>
      </trkpt>
      <trkpt lat="45.78638" lon="4.86721">
        <ele>166.80000305176</ele>
        <time>2016-08-19T08:06:12.000Z</time>
      </trkpt>
      <trkpt lat="45.78638" lon="4.86724">
        <ele>166.80000305176</ele>
        <time>2016-08-19T08:06:13.000Z</time>
      </trkpt>
      <trkpt lat="45.7864" lon="4.86728">
        <ele>167</ele>
        <time>2016-08-19T08:06:14.000Z</time>
      </trkpt>
      <trkpt lat="45.78641" lon="4.86731">
        <ele>167</ele>
        <time>2016-08-19T08:06:15.000Z</time>
      </trkpt>
      <trkpt lat="45.78642" lon="4.86734">
        <ele>167.19999694824</ele>
        <time>2016-08-19T08:06:16.000Z</time>
      </trkpt>
      <trkpt lat="45.78643" lon="4.86737">
        <ele>167.19999694824</ele>
        <time>2016-08-19T08:06:17.000Z</time>
      </trkpt>
      <trkpt lat="45.78644" lon="4.8674">
        <ele>167.39999389648</ele>
        <time>2016-08-19T08:06:18.000Z</time>
      </trkpt>
      <trkpt lat="45.78646" lon="4.86743">
        <ele>167.39999389648</ele>
        <time>2016-08-19T08:06:19.000Z</time>
      </trkpt>
      <trkpt lat="45.78647" lon="4.86746">
        <ele>167.60000610352</ele>
        <time>2016-08-19T08:06:20.000Z</time>
      </trkpt>
      <trkpt lat="45.78648" lon="4.86749">
        <ele>167.60000610352</ele>
        <time>2016-08-19T08:06:21.000Z</time>
      </trkpt>
      <trkpt lat="45.7865" lon="4.86752">
        <ele>167.60000610352</ele>
        <time>2016-08-19T08:06:22.000Z</time>
      </trkpt>
      <trkpt lat="45.78652" lon="4.86755">
        <ele>167.60000610352</ele>
        <time>2016-08-19T08:06:23.000Z</time>
      </trkpt>
      <trkpt lat="45.78654" lon="4.86759">
        <ele>167.80000305176</ele>
        <time>2016-08-19T08:06:24.000Z</time>
      </trkpt>
      <trkpt lat="45.78655" lon="4.86762">
        <ele>167.80000305176</ele>
        <time>2016-08-19T08:06:25.000Z</time>
      </trkpt>
      <trkpt lat="45.78657" lon="4.86766">
        <ele>168</ele>
        <time>2016-08-19T08:06:26.000Z</time>
      </trkpt>
      <trkpt lat="45.78659" lon="4.8677">
        <ele>168</ele>
        <time>2016-08-19T08:06:27.000Z</time>
      </trkpt>
      <trkpt lat="45.7866" lon="4.86774">
        <ele>168.19999694824</ele>
        <time>2016-08-19T08:06:28.000Z</time>
      </trkpt>
      <trkpt lat="45.78661" lon="4.86778">
        <ele>168.39999389648</ele>
        <time>2016-08-19T08:06:29.000Z</time>
      </trkpt>
      <trkpt lat="45.78663" lon="4.86781">
        <ele>168.39999389648</ele>
        <time>2016-08-19T08:06:30.000Z</time>
      </trkpt>
      <trkpt lat="45.78664" lon="4.86785">
        <ele>168.60000610352</ele>
        <time>2016-08-19T08:06:31.000Z</time>
      </trkpt>
      <trkpt lat="45.78665" lon="4.86789">
        <ele>168.80000305176</ele>
        <time>2016-08-19T08:06:32.000Z</time>
      </trkpt>
      <trkpt lat="45.78666" lon="4.86793">
        <ele>168.60000610352</ele>
        <time>2016-08-19T08:06:33.000Z</time>
      </trkpt>
      <trkpt lat="45.78666" lon="4.86797">
        <ele>168.60000610352</ele>
        <time>2016-08-19T08:06:34.000Z</time>
      </trkpt>
      <trkpt lat="45.78666" lon="4.868">
        <ele>168.60000610352</ele>
        <time>2016-08-19T08:06:35.000Z</time>
      </trkpt>
      <trkpt lat="45.78667" lon="4.86803">
        <ele>168.60000610352</ele>
        <time>2016-08-19T08:06:36.000Z</time>
      </trkpt>
      <trkpt lat="45.78667" lon="4.86806">
        <ele>168.60000610352</ele>
        <time>2016-08-19T08:06:37.000Z</time>
      </trkpt>
      <trkpt lat="45.78669" lon="4.8681">
        <ele>168.60000610352</ele>
        <time>2016-08-19T08:06:38.000Z</time>
      </trkpt>
      <trkpt lat="45.7867" lon="4.86813">
        <ele>168.39999389648</ele>
        <time>2016-08-19T08:06:39.000Z</time>
      </trkpt>
      <trkpt lat="45.7867" lon="4.86816">
        <ele>168.39999389648</ele>
        <time>2016-08-19T08:06:40.000Z</time>
      </trkpt>
      <trkpt lat="45.78671" lon="4.86819">
        <ele>168.39999389648</ele>
        <time>2016-08-19T08:06:41.000Z</time>
      </trkpt>
      <trkpt lat="45.78671" lon="4.86822">
        <ele>168.39999389648</ele>
        <time>2016-08-19T08:06:42.000Z</time>
      </trkpt>
      <trkpt lat="45.78672" lon="4.86826">
        <ele>168.39999389648</ele>
        <time>2016-08-19T08:06:43.000Z</time>
      </trkpt>
      <trkpt lat="45.78673" lon="4.86829">
        <ele>168.60000610352</ele>
        <time>2016-08-19T08:06:44.000Z</time>
      </trkpt>
      <trkpt lat="45.78674" lon="4.86832">
        <ele>168.60000610352</ele>
        <time>2016-08-19T08:06:45.000Z</time>
      </trkpt>
      <trkpt lat="45.78675" lon="4.86835">
        <ele>168.60000610352</ele>
        <time>2016-08-19T08:06:46.000Z</time>
      </trkpt>
      <trkpt lat="45.78676" lon="4.86839">
        <ele>168.60000610352</ele>
        <time>2016-08-19T08:06:47.000Z</time>
      </trkpt>
      <trkpt lat="45.78677" lon="4.86842">
        <ele>168.60000610352</ele>
        <time>2016-08-19T08:06:48.000Z</time>
      </trkpt>
      <trkpt lat="45.78679" lon="4.86845">
        <ele>168.60000610352</ele>
        <time>2016-08-19T08:06:49.000Z</time>
      </trkpt>
      <trkpt lat="45.7868" lon="4.86848">
        <ele>168.60000610352</ele>
        <time>2016-08-19T08:06:50.000Z</time>
      </trkpt>
      <trkpt lat="45.78682" lon="4.86851">
        <ele>168.60000610352</ele>
        <time>2016-08-19T08:06:51.000Z</time>
      </trkpt>
      <trkpt lat="45.78682" lon="4.86855">
        <ele>168.60000610352</ele>
        <time>2016-08-19T08:06:52.000Z</time>
      </trkpt>
      <trkpt lat="45.78683" lon="4.86858">
        <ele>168.80000305176</ele>
        <time>2016-08-19T08:06:53.000Z</time>
      </trkpt>
      <trkpt lat="45.78684" lon="4.86862">
        <ele>168.80000305176</ele>
        <time>2016-08-19T08:06:54.000Z</time>
      </trkpt>
      <trkpt lat="45.78685" lon="4.86865">
        <ele>168.80000305176</ele>
        <time>2016-08-19T08:06:55.000Z</time>
      </trkpt>
      <trkpt lat="45.78685" lon="4.86868">
        <ele>169</ele>
        <time>2016-08-19T08:06:56.000Z</time>
      </trkpt>
      <trkpt lat="45.78685" lon="4.86872">
        <ele>169</ele>
        <time>2016-08-19T08:06:57.000Z</time>
      </trkpt>
      <trkpt lat="45.78686" lon="4.86875">
        <ele>169</ele>
        <time>2016-08-19T08:06:58.000Z</time>
      </trkpt>
      <trkpt lat="45.78686" lon="4.86877">
        <ele>169</ele>
        <time>2016-08-19T08:06:59.000Z</time>
      </trkpt>
      <trkpt lat="45.78687" lon="4.8688">
        <ele>169</ele>
        <time>2016-08-19T08:07:00.000Z</time>
      </trkpt>
      <trkpt lat="45.78688" lon="4.86883">
        <ele>168.80000305176</ele>
        <time>2016-08-19T08:07:01.000Z</time>
      </trkpt>
      <trkpt lat="45.78689" lon="4.86886">
        <ele>168.60000610352</ele>
        <time>2016-08-19T08:07:02.000Z</time>
      </trkpt>
      <trkpt lat="45.78691" lon="4.86889">
        <ele>168.60000610352</ele>
        <time>2016-08-19T08:07:03.000Z</time>
      </trkpt>
      <trkpt lat="45.78692" lon="4.86892">
        <ele>168.39999389648</ele>
        <time>2016-08-19T08:07:04.000Z</time>
      </trkpt>
      <trkpt lat="45.78694" lon="4.86896">
        <ele>168.39999389648</ele>
        <time>2016-08-19T08:07:05.000Z</time>
      </trkpt>
      <trkpt lat="45.78695" lon="4.86899">
        <ele>168.19999694824</ele>
        <time>2016-08-19T08:07:06.000Z</time>
      </trkpt>
      <trkpt lat="45.78696" lon="4.86902">
        <ele>168.19999694824</ele>
        <time>2016-08-19T08:07:07.000Z</time>
      </trkpt>
      <trkpt lat="45.78697" lon="4.86905">
        <ele>168</ele>
        <time>2016-08-19T08:07:08.000Z</time>
      </trkpt>
      <trkpt lat="45.78699" lon="4.86908">
        <ele>167.80000305176</ele>
        <time>2016-08-19T08:07:09.000Z</time>
      </trkpt>
      <trkpt lat="45.78702" lon="4.86911">
        <ele>167.60000610352</ele>
        <time>2016-08-19T08:07:10.000Z</time>
      </trkpt>
      <trkpt lat="45.78704" lon="4.86915">
        <ele>167.39999389648</ele>
        <time>2016-08-19T08:07:11.000Z</time>
      </trkpt>
      <trkpt lat="45.78706" lon="4.86918">
        <ele>167.39999389648</ele>
        <time>2016-08-19T08:07:12.000Z</time>
      </trkpt>
      <trkpt lat="45.78707" lon="4.86922">
        <ele>167.19999694824</ele>
        <time>2016-08-19T08:07:13.000Z</time>
      </trkpt>
      <trkpt lat="45.78709" lon="4.86925">
        <ele>167</ele>
        <time>2016-08-19T08:07:14.000Z</time>
      </trkpt>
      <trkpt lat="45.78711" lon="4.86928">
        <ele>167</ele>
        <time>2016-08-19T08:07:15.000Z</time>
      </trkpt>
      <trkpt lat="45.78713" lon="4.8693">
        <ele>166.80000305176</ele>
        <time>2016-08-19T08:07:16.000Z</time>
      </trkpt>
      <trkpt lat="45.78715" lon="4.86933">
        <ele>166.60000610352</ele>
        <time>2016-08-19T08:07:17.000Z</time>
      </trkpt>
      <trkpt lat="45.78716" lon="4.86936">
        <ele>166.39999389648</ele>
        <time>2016-08-19T08:07:18.000Z</time>
      </trkpt>
      <trkpt lat="45.78717" lon="4.8694">
        <ele>166.39999389648</ele>
        <time>2016-08-19T08:07:19.000Z</time>
      </trkpt>
      <trkpt lat="45.78718" lon="4.86943">
        <ele>166.19999694824</ele>
        <time>2016-08-19T08:07:20.000Z</time>
      </trkpt>
      <trkpt lat="45.7872" lon="4.86947">
        <ele>166.19999694824</ele>
        <time>2016-08-19T08:07:21.000Z</time>
      </trkpt>
      <trkpt lat="45.78721" lon="4.8695">
        <ele>166</ele>
        <time>2016-08-19T08:07:22.000Z</time>
      </trkpt>
      <trkpt lat="45.78722" lon="4.86953">
        <ele>166</ele>
        <time>2016-08-19T08:07:23.000Z</time>
      </trkpt>
      <trkpt lat="45.78725" lon="4.86955">
        <ele>166</ele>
        <time>2016-08-19T08:07:24.000Z</time>
      </trkpt>
      <trkpt lat="45.78726" lon="4.86958">
        <ele>166</ele>
        <time>2016-08-19T08:07:25.000Z</time>
      </trkpt>
      <trkpt lat="45.78728" lon="4.86961">
        <ele>166</ele>
        <time>2016-08-19T08:07:26.000Z</time>
      </trkpt>
      <trkpt lat="45.7873" lon="4.86963">
        <ele>166</ele>
        <time>2016-08-19T08:07:27.000Z</time>
      </trkpt>
      <trkpt lat="45.78732" lon="4.86965">
        <ele>166</ele>
        <time>2016-08-19T08:07:28.000Z</time>
      </trkpt>
      <trkpt lat="45.78733" lon="4.86968">
        <ele>166</ele>
        <time>2016-08-19T08:07:29.000Z</time>
      </trkpt>
      <trkpt lat="45.78733" lon="4.86971">
        <ele>166</ele>
        <time>2016-08-19T08:07:30.000Z</time>
      </trkpt>
      <trkpt lat="45.78734" lon="4.86974">
        <ele>166</ele>
        <time>2016-08-19T08:07:31.000Z</time>
      </trkpt>
      <trkpt lat="45.78734" lon="4.86977">
        <ele>166</ele>
        <time>2016-08-19T08:07:32.000Z</time>
      </trkpt>
      <trkpt lat="45.78734" lon="4.8698">
        <ele>166</ele>
        <time>2016-08-19T08:07:33.000Z</time>
      </trkpt>
      <trkpt lat="45.78734" lon="4.86983">
        <ele>166</ele>
        <time>2016-08-19T08:07:34.000Z</time>
      </trkpt>
      <trkpt lat="45.78735" lon="4.86986">
        <ele>166</ele>
        <time>2016-08-19T08:07:35.000Z</time>
      </trkpt>
      <trkpt lat="45.78735" lon="4.8699">
        <ele>166</ele>
        <time>2016-08-19T08:07:36.000Z</time>
      </trkpt>
      <trkpt lat="45.78734" lon="4.86993">
        <ele>166</ele>
        <time>2016-08-19T08:07:37.000Z</time>
      </trkpt>
      <trkpt lat="45.78733" lon="4.86997">
        <ele>166</ele>
        <time>2016-08-19T08:07:38.000Z</time>
      </trkpt>
      <trkpt lat="45.78733" lon="4.87001">
        <ele>166</ele>
        <time>2016-08-19T08:07:39.000Z</time>
      </trkpt>
      <trkpt lat="45.78734" lon="4.87005">
        <ele>166</ele>
        <time>2016-08-19T08:07:40.000Z</time>
      </trkpt>
      <trkpt lat="45.78732" lon="4.8701">
        <ele>166</ele>
        <time>2016-08-19T08:07:41.000Z</time>
      </trkpt>
      <trkpt lat="45.78731" lon="4.87014">
        <ele>166</ele>
        <time>2016-08-19T08:07:42.000Z</time>
      </trkpt>
      <trkpt lat="45.7873" lon="4.87018">
        <ele>166</ele>
        <time>2016-08-19T08:07:43.000Z</time>
      </trkpt>
      <trkpt lat="45.78729" lon="4.87021">
        <ele>166</ele>
        <time>2016-08-19T08:07:44.000Z</time>
      </trkpt>
      <trkpt lat="45.78729" lon="4.87024">
        <ele>166</ele>
        <time>2016-08-19T08:07:45.000Z</time>
      </trkpt>
      <trkpt lat="45.78729" lon="4.87027">
        <ele>166</ele>
        <time>2016-08-19T08:07:46.000Z</time>
      </trkpt>
      <trkpt lat="45.78729" lon="4.87031">
        <ele>166</ele>
        <time>2016-08-19T08:07:47.000Z</time>
      </trkpt>
      <trkpt lat="45.7873" lon="4.87035">
        <ele>166</ele>
        <time>2016-08-19T08:07:48.000Z</time>
      </trkpt>
      <trkpt lat="45.78729" lon="4.87039">
        <ele>166</ele>
        <time>2016-08-19T08:07:49.000Z</time>
      </trkpt>
      <trkpt lat="45.7873" lon="4.87042">
        <ele>166</ele>
        <time>2016-08-19T08:07:50.000Z</time>
      </trkpt>
      <trkpt lat="45.7873" lon="4.87046">
        <ele>166</ele>
        <time>2016-08-19T08:07:51.000Z</time>
      </trkpt>
      <trkpt lat="45.78731" lon="4.87049">
        <ele>166</ele>
        <time>2016-08-19T08:07:52.000Z</time>
      </trkpt>
      <trkpt lat="45.78731" lon="4.87053">
        <ele>166.39999389648</ele>
        <time>2016-08-19T08:07:53.000Z</time>
      </trkpt>
      <trkpt lat="45.78732" lon="4.87057">
        <ele>166.80000305176</ele>
        <time>2016-08-19T08:07:54.000Z</time>
      </trkpt>
      <trkpt lat="45.78733" lon="4.8706">
        <ele>167</ele>
        <time>2016-08-19T08:07:55.000Z</time>
      </trkpt>
      <trkpt lat="45.78734" lon="4.87063">
        <ele>167.39999389648</ele>
        <time>2016-08-19T08:07:56.000Z</time>
      </trkpt>
      <trkpt lat="45.78734" lon="4.87067">
        <ele>167.80000305176</ele>
        <time>2016-08-19T08:07:57.000Z</time>
      </trkpt>
      <trkpt lat="45.78733" lon="4.87071">
        <ele>168.39999389648</ele>
        <time>2016-08-19T08:07:58.000Z</time>
      </trkpt>
      <trkpt lat="45.78733" lon="4.87075">
        <ele>168.80000305176</ele>
        <time>2016-08-19T08:07:59.000Z</time>
      </trkpt>
      <trkpt lat="45.78734" lon="4.87079">
        <ele>169.19999694824</ele>
        <time>2016-08-19T08:08:00.000Z</time>
      </trkpt>
      <trkpt lat="45.78734" lon="4.87083">
        <ele>169.80000305176</ele>
        <time>2016-08-19T08:08:01.000Z</time>
      </trkpt>
      <trkpt lat="45.78734" lon="4.87087">
        <ele>170.19999694824</ele>
        <time>2016-08-19T08:08:02.000Z</time>
      </trkpt>
      <trkpt lat="45.78734" lon="4.87091">
        <ele>170.80000305176</ele>
        <time>2016-08-19T08:08:03.000Z</time>
      </trkpt>
      <trkpt lat="45.78734" lon="4.87095">
        <ele>171.19999694824</ele>
        <time>2016-08-19T08:08:04.000Z</time>
      </trkpt>
      <trkpt lat="45.78734" lon="4.87099">
        <ele>171.60000610352</ele>
        <time>2016-08-19T08:08:05.000Z</time>
      </trkpt>
      <trkpt lat="45.78734" lon="4.87103">
        <ele>172</ele>
        <time>2016-08-19T08:08:06.000Z</time>
      </trkpt>
      <trkpt lat="45.78735" lon="4.87106">
        <ele>172.39999389648</ele>
        <time>2016-08-19T08:08:07.000Z</time>
      </trkpt>
      <trkpt lat="45.78734" lon="4.8711">
        <ele>173</ele>
        <time>2016-08-19T08:08:08.000Z</time>
      </trkpt>
      <trkpt lat="45.78734" lon="4.87114">
        <ele>173.39999389648</ele>
        <time>2016-08-19T08:08:09.000Z</time>
      </trkpt>
      <trkpt lat="45.78734" lon="4.87118">
        <ele>173.80000305176</ele>
        <time>2016-08-19T08:08:10.000Z</time>
      </trkpt>
      <trkpt lat="45.78735" lon="4.87121">
        <ele>174.19999694824</ele>
        <time>2016-08-19T08:08:11.000Z</time>
      </trkpt>
      <trkpt lat="45.78735" lon="4.87124">
        <ele>174.39999389648</ele>
        <time>2016-08-19T08:08:12.000Z</time>
      </trkpt>
      <trkpt lat="45.78735" lon="4.87127">
        <ele>174.39999389648</ele>
        <time>2016-08-19T08:08:13.000Z</time>
      </trkpt>
      <trkpt lat="45.78734" lon="4.87131">
        <ele>174.39999389648</ele>
        <time>2016-08-19T08:08:14.000Z</time>
      </trkpt>
      <trkpt lat="45.78734" lon="4.87134">
        <ele>174.60000610352</ele>
        <time>2016-08-19T08:08:15.000Z</time>
      </trkpt>
      <trkpt lat="45.78733" lon="4.87137">
        <ele>174.39999389648</ele>
        <time>2016-08-19T08:08:16.000Z</time>
      </trkpt>
      <trkpt lat="45.78733" lon="4.87141">
        <ele>174.19999694824</ele>
        <time>2016-08-19T08:08:17.000Z</time>
      </trkpt>
      <trkpt lat="45.78733" lon="4.87144">
        <ele>173.80000305176</ele>
        <time>2016-08-19T08:08:18.000Z</time>
      </trkpt>
      <trkpt lat="45.78734" lon="4.87147">
        <ele>173.60000610352</ele>
        <time>2016-08-19T08:08:19.000Z</time>
      </trkpt>
      <trkpt lat="45.78734" lon="4.87151">
        <ele>173.19999694824</ele>
        <time>2016-08-19T08:08:20.000Z</time>
      </trkpt>
      <trkpt lat="45.78735" lon="4.87154">
        <ele>173</ele>
        <time>2016-08-19T08:08:21.000Z</time>
      </trkpt>
      <trkpt lat="45.78736" lon="4.87157">
        <ele>172.60000610352</ele>
        <time>2016-08-19T08:08:22.000Z</time>
      </trkpt>
      <trkpt lat="45.78737" lon="4.87161">
        <ele>172.19999694824</ele>
        <time>2016-08-19T08:08:23.000Z</time>
      </trkpt>
      <trkpt lat="45.78738" lon="4.87165">
        <ele>171.80000305176</ele>
        <time>2016-08-19T08:08:24.000Z</time>
      </trkpt>
      <trkpt lat="45.78739" lon="4.87168">
        <ele>171.60000610352</ele>
        <time>2016-08-19T08:08:25.000Z</time>
      </trkpt>
      <trkpt lat="45.7874" lon="4.87172">
        <ele>171.19999694824</ele>
        <time>2016-08-19T08:08:26.000Z</time>
      </trkpt>
      <trkpt lat="45.78741" lon="4.87176">
        <ele>170.80000305176</ele>
        <time>2016-08-19T08:08:27.000Z</time>
      </trkpt>
      <trkpt lat="45.78741" lon="4.87179">
        <ele>170.60000610352</ele>
        <time>2016-08-19T08:08:28.000Z</time>
      </trkpt>
      <trkpt lat="45.78741" lon="4.87183">
        <ele>170.19999694824</ele>
        <time>2016-08-19T08:08:29.000Z</time>
      </trkpt>
      <trkpt lat="45.78742" lon="4.87187">
        <ele>170</ele>
        <time>2016-08-19T08:08:30.000Z</time>
      </trkpt>
      <trkpt lat="45.78744" lon="4.87191">
        <ele>169.39999389648</ele>
        <time>2016-08-19T08:08:31.000Z</time>
      </trkpt>
      <trkpt lat="45.78744" lon="4.87195">
        <ele>169.19999694824</ele>
        <time>2016-08-19T08:08:32.000Z</time>
      </trkpt>
      <trkpt lat="45.78744" lon="4.87198">
        <ele>168.80000305176</ele>
        <time>2016-08-19T08:08:33.000Z</time>
      </trkpt>
      <trkpt lat="45.78744" lon="4.87202">
        <ele>168.60000610352</ele>
        <time>2016-08-19T08:08:34.000Z</time>
      </trkpt>
      <trkpt lat="45.78745" lon="4.87206">
        <ele>168.19999694824</ele>
        <time>2016-08-19T08:08:35.000Z</time>
      </trkpt>
      <trkpt lat="45.78745" lon="4.8721">
        <ele>168.19999694824</ele>
        <time>2016-08-19T08:08:36.000Z</time>
      </trkpt>
      <trkpt lat="45.78745" lon="4.87213">
        <ele>168.19999694824</ele>
        <time>2016-08-19T08:08:37.000Z</time>
      </trkpt>
      <trkpt lat="45.78746" lon="4.87217">
        <ele>168.19999694824</ele>
        <time>2016-08-19T08:08:38.000Z</time>
      </trkpt>
      <trkpt lat="45.78746" lon="4.87221">
        <ele>168.19999694824</ele>
        <time>2016-08-19T08:08:39.000Z</time>
      </trkpt>
      <trkpt lat="45.78747" lon="4.87225">
        <ele>168</ele>
        <time>2016-08-19T08:08:40.000Z</time>
      </trkpt>
      <trkpt lat="45.78748" lon="4.87228">
        <ele>168</ele>
        <time>2016-08-19T08:08:41.000Z</time>
      </trkpt>
      <trkpt lat="45.78748" lon="4.87232">
        <ele>168</ele>
        <time>2016-08-19T08:08:42.000Z</time>
      </trkpt>
      <trkpt lat="45.78747" lon="4.87235">
        <ele>168.19999694824</ele>
        <time>2016-08-19T08:08:43.000Z</time>
      </trkpt>
      <trkpt lat="45.78747" lon="4.87239">
        <ele>168.39999389648</ele>
        <time>2016-08-19T08:08:44.000Z</time>
      </trkpt>
      <trkpt lat="45.78747" lon="4.87242">
        <ele>168.60000610352</ele>
        <time>2016-08-19T08:08:45.000Z</time>
      </trkpt>
      <trkpt lat="45.78747" lon="4.87245">
        <ele>168.80000305176</ele>
        <time>2016-08-19T08:08:46.000Z</time>
      </trkpt>
      <trkpt lat="45.78747" lon="4.87249">
        <ele>169.19999694824</ele>
        <time>2016-08-19T08:08:47.000Z</time>
      </trkpt>
      <trkpt lat="45.78747" lon="4.87252">
        <ele>169.39999389648</ele>
        <time>2016-08-19T08:08:48.000Z</time>
      </trkpt>
      <trkpt lat="45.78748" lon="4.87256">
        <ele>169.39999389648</ele>
        <time>2016-08-19T08:08:49.000Z</time>
      </trkpt>
      <trkpt lat="45.78749" lon="4.87259">
        <ele>169.60000610352</ele>
        <time>2016-08-19T08:08:50.000Z</time>
      </trkpt>
      <trkpt lat="45.78749" lon="4.87262">
        <ele>169.60000610352</ele>
        <time>2016-08-19T08:08:51.000Z</time>
      </trkpt>
      <trkpt lat="45.78749" lon="4.87265">
        <ele>169.80000305176</ele>
        <time>2016-08-19T08:08:52.000Z</time>
      </trkpt>
      <trkpt lat="45.78749" lon="4.87268">
        <ele>170</ele>
        <time>2016-08-19T08:08:53.000Z</time>
      </trkpt>
      <trkpt lat="45.78749" lon="4.87272">
        <ele>170.19999694824</ele>
        <time>2016-08-19T08:08:54.000Z</time>
      </trkpt>
      <trkpt lat="45.78749" lon="4.87275">
        <ele>170.60000610352</ele>
        <time>2016-08-19T08:08:55.000Z</time>
      </trkpt>
      <trkpt lat="45.78749" lon="4.87279">
        <ele>170.80000305176</ele>
        <time>2016-08-19T08:08:56.000Z</time>
      </trkpt>
      <trkpt lat="45.78749" lon="4.87281">
        <ele>170.80000305176</ele>
        <time>2016-08-19T08:08:57.000Z</time>
      </trkpt>
      <trkpt lat="45.78748" lon="4.87284">
        <ele>171</ele>
        <time>2016-08-19T08:08:58.000Z</time>
      </trkpt>
      <trkpt lat="45.78748" lon="4.87288">
        <ele>171.39999389648</ele>
        <time>2016-08-19T08:08:59.000Z</time>
      </trkpt>
      <trkpt lat="45.78748" lon="4.87291">
        <ele>171.39999389648</ele>
        <time>2016-08-19T08:09:00.000Z</time>
      </trkpt>
      <trkpt lat="45.78747" lon="4.87294">
        <ele>171.60000610352</ele>
        <time>2016-08-19T08:09:01.000Z</time>
      </trkpt>
      <trkpt lat="45.78748" lon="4.87298">
        <ele>171.39999389648</ele>
        <time>2016-08-19T08:09:02.000Z</time>
      </trkpt>
      <trkpt lat="45.78749" lon="4.87301">
        <ele>171.39999389648</ele>
        <time>2016-08-19T08:09:03.000Z</time>
      </trkpt>
      <trkpt lat="45.78751" lon="4.87306">
        <ele>171.19999694824</ele>
        <time>2016-08-19T08:09:04.000Z</time>
      </trkpt>
      <trkpt lat="45.78752" lon="4.8731">
        <ele>171</ele>
        <time>2016-08-19T08:09:05.000Z</time>
      </trkpt>
      <trkpt lat="45.78753" lon="4.87314">
        <ele>171</ele>
        <time>2016-08-19T08:09:06.000Z</time>
      </trkpt>
      <trkpt lat="45.78754" lon="4.87317">
        <ele>171</ele>
        <time>2016-08-19T08:09:07.000Z</time>
      </trkpt>
      <trkpt lat="45.78754" lon="4.87321">
        <ele>171</ele>
        <time>2016-08-19T08:09:08.000Z</time>
      </trkpt>
      <trkpt lat="45.78753" lon="4.87325">
        <ele>170.80000305176</ele>
        <time>2016-08-19T08:09:09.000Z</time>
      </trkpt>
      <trkpt lat="45.78754" lon="4.87328">
        <ele>170.60000610352</ele>
        <time>2016-08-19T08:09:10.000Z</time>
      </trkpt>
      <trkpt lat="45.78754" lon="4.87332">
        <ele>170.39999389648</ele>
        <time>2016-08-19T08:09:11.000Z</time>
      </trkpt>
      <trkpt lat="45.78754" lon="4.87336">
        <ele>170.19999694824</ele>
        <time>2016-08-19T08:09:12.000Z</time>
      </trkpt>
      <trkpt lat="45.78755" lon="4.87339">
        <ele>170</ele>
        <time>2016-08-19T08:09:13.000Z</time>
      </trkpt>
      <trkpt lat="45.78755" lon="4.87343">
        <ele>169.80000305176</ele>
        <time>2016-08-19T08:09:14.000Z</time>
      </trkpt>
      <trkpt lat="45.78756" lon="4.87346">
        <ele>169.60000610352</ele>
        <time>2016-08-19T08:09:15.000Z</time>
      </trkpt>
      <trkpt lat="45.78756" lon="4.87349">
        <ele>169.39999389648</ele>
        <time>2016-08-19T08:09:16.000Z</time>
      </trkpt>
      <trkpt lat="45.78757" lon="4.87353">
        <ele>169.19999694824</ele>
        <time>2016-08-19T08:09:17.000Z</time>
      </trkpt>
      <trkpt lat="45.78757" lon="4.87357">
        <ele>169</ele>
        <time>2016-08-19T08:09:18.000Z</time>
      </trkpt>
      <trkpt lat="45.78757" lon="4.87361">
        <ele>168.80000305176</ele>
        <time>2016-08-19T08:09:19.000Z</time>
      </trkpt>
      <trkpt lat="45.78758" lon="4.87365">
        <ele>168.60000610352</ele>
        <time>2016-08-19T08:09:20.000Z</time>
      </trkpt>
      <trkpt lat="45.78758" lon="4.87369">
        <ele>168.39999389648</ele>
        <time>2016-08-19T08:09:21.000Z</time>
      </trkpt>
      <trkpt lat="45.78759" lon="4.87372">
        <ele>168.19999694824</ele>
        <time>2016-08-19T08:09:22.000Z</time>
      </trkpt>
      <trkpt lat="45.7876" lon="4.87376">
        <ele>168.19999694824</ele>
        <time>2016-08-19T08:09:23.000Z</time>
      </trkpt>
      <trkpt lat="45.7876" lon="4.8738">
        <ele>168.19999694824</ele>
        <time>2016-08-19T08:09:24.000Z</time>
      </trkpt>
      <trkpt lat="45.7876" lon="4.87383">
        <ele>168.19999694824</ele>
        <time>2016-08-19T08:09:25.000Z</time>
      </trkpt>
      <trkpt lat="45.78762" lon="4.87387">
        <ele>168</ele>
        <time>2016-08-19T08:09:26.000Z</time>
      </trkpt>
      <trkpt lat="45.78763" lon="4.87391">
        <ele>168</ele>
        <time>2016-08-19T08:09:27.000Z</time>
      </trkpt>
      <trkpt lat="45.78763" lon="4.87395">
        <ele>168</ele>
        <time>2016-08-19T08:09:28.000Z</time>
      </trkpt>
      <trkpt lat="45.78765" lon="4.87399">
        <ele>168</ele>
        <time>2016-08-19T08:09:29.000Z</time>
      </trkpt>
      <trkpt lat="45.78766" lon="4.87402">
        <ele>167.80000305176</ele>
        <time>2016-08-19T08:09:30.000Z</time>
      </trkpt>
      <trkpt lat="45.78767" lon="4.87406">
        <ele>167.80000305176</ele>
        <time>2016-08-19T08:09:31.000Z</time>
      </trkpt>
      <trkpt lat="45.78767" lon="4.87409">
        <ele>167.80000305176</ele>
        <time>2016-08-19T08:09:32.000Z</time>
      </trkpt>
      <trkpt lat="45.78768" lon="4.87412">
        <ele>167.80000305176</ele>
        <time>2016-08-19T08:09:33.000Z</time>
      </trkpt>
      <trkpt lat="45.78768" lon="4.87416">
        <ele>167.80000305176</ele>
        <time>2016-08-19T08:09:34.000Z</time>
      </trkpt>
      <trkpt lat="45.78769" lon="4.8742">
        <ele>167.80000305176</ele>
        <time>2016-08-19T08:09:35.000Z</time>
      </trkpt>
      <trkpt lat="45.78769" lon="4.87423">
        <ele>167.80000305176</ele>
        <time>2016-08-19T08:09:36.000Z</time>
      </trkpt>
      <trkpt lat="45.78769" lon="4.87426">
        <ele>167.80000305176</ele>
        <time>2016-08-19T08:09:37.000Z</time>
      </trkpt>
      <trkpt lat="45.7877" lon="4.8743">
        <ele>167.80000305176</ele>
        <time>2016-08-19T08:09:38.000Z</time>
      </trkpt>
      <trkpt lat="45.7877" lon="4.87433">
        <ele>167.80000305176</ele>
        <time>2016-08-19T08:09:39.000Z</time>
      </trkpt>
      <trkpt lat="45.7877" lon="4.87436">
        <ele>167.80000305176</ele>
        <time>2016-08-19T08:09:40.000Z</time>
      </trkpt>
      <trkpt lat="45.78769" lon="4.87439">
        <ele>168</ele>
        <time>2016-08-19T08:09:41.000Z</time>
      </trkpt>
      <trkpt lat="45.78769" lon="4.87442">
        <ele>168</ele>
        <time>2016-08-19T08:09:42.000Z</time>
      </trkpt>
      <trkpt lat="45.78769" lon="4.87446">
        <ele>168</ele>
        <time>2016-08-19T08:09:43.000Z</time>
      </trkpt>
      <trkpt lat="45.78769" lon="4.87449">
        <ele>168</ele>
        <time>2016-08-19T08:09:44.000Z</time>
      </trkpt>
      <trkpt lat="45.78769" lon="4.87453">
        <ele>168</ele>
        <time>2016-08-19T08:09:45.000Z</time>
      </trkpt>
      <trkpt lat="45.78769" lon="4.87457">
        <ele>168.19999694824</ele>
        <time>2016-08-19T08:09:46.000Z</time>
      </trkpt>
      <trkpt lat="45.7877" lon="4.87461">
        <ele>168</ele>
        <time>2016-08-19T08:09:47.000Z</time>
      </trkpt>
      <trkpt lat="45.78771" lon="4.87464">
        <ele>168</ele>
        <time>2016-08-19T08:09:48.000Z</time>
      </trkpt>
      <trkpt lat="45.78771" lon="4.87467">
        <ele>168</ele>
        <time>2016-08-19T08:09:49.000Z</time>
      </trkpt>
      <trkpt lat="45.78772" lon="4.87471">
        <ele>168</ele>
        <time>2016-08-19T08:09:50.000Z</time>
      </trkpt>
      <trkpt lat="45.78773" lon="4.87474">
        <ele>168</ele>
        <time>2016-08-19T08:09:51.000Z</time>
      </trkpt>
      <trkpt lat="45.78773" lon="4.87478">
        <ele>167.80000305176</ele>
        <time>2016-08-19T08:09:52.000Z</time>
      </trkpt>
      <trkpt lat="45.78774" lon="4.87481">
        <ele>167.80000305176</ele>
        <time>2016-08-19T08:09:53.000Z</time>
      </trkpt>
      <trkpt lat="45.78775" lon="4.87485">
        <ele>167.80000305176</ele>
        <time>2016-08-19T08:09:54.000Z</time>
      </trkpt>
      <trkpt lat="45.78774" lon="4.87488">
        <ele>167.80000305176</ele>
        <time>2016-08-19T08:09:55.000Z</time>
      </trkpt>
      <trkpt lat="45.78774" lon="4.87492">
        <ele>167.80000305176</ele>
        <time>2016-08-19T08:09:56.000Z</time>
      </trkpt>
      <trkpt lat="45.78774" lon="4.87495">
        <ele>167.80000305176</ele>
        <time>2016-08-19T08:09:57.000Z</time>
      </trkpt>
      <trkpt lat="45.78774" lon="4.87498">
        <ele>167.80000305176</ele>
        <time>2016-08-19T08:09:58.000Z</time>
      </trkpt>
      <trkpt lat="45.78775" lon="4.87501">
        <ele>167.80000305176</ele>
        <time>2016-08-19T08:09:59.000Z</time>
      </trkpt>
      <trkpt lat="45.78775" lon="4.87504">
        <ele>167.80000305176</ele>
        <time>2016-08-19T08:10:00.000Z</time>
      </trkpt>
      <trkpt lat="45.78776" lon="4.87508">
        <ele>167.80000305176</ele>
        <time>2016-08-19T08:10:01.000Z</time>
      </trkpt>
      <trkpt lat="45.78776" lon="4.87511">
        <ele>167.80000305176</ele>
        <time>2016-08-19T08:10:02.000Z</time>
      </trkpt>
      <trkpt lat="45.78776" lon="4.87513">
        <ele>167.80000305176</ele>
        <time>2016-08-19T08:10:03.000Z</time>
      </trkpt>
      <trkpt lat="45.78776" lon="4.87517">
        <ele>168</ele>
        <time>2016-08-19T08:10:04.000Z</time>
      </trkpt>
      <trkpt lat="45.78776" lon="4.8752">
        <ele>168</ele>
        <time>2016-08-19T08:10:05.000Z</time>
      </trkpt>
      <trkpt lat="45.78776" lon="4.87522">
        <ele>168.19999694824</ele>
        <time>2016-08-19T08:10:06.000Z</time>
      </trkpt>
      <trkpt lat="45.78775" lon="4.87525">
        <ele>168.39999389648</ele>
        <time>2016-08-19T08:10:07.000Z</time>
      </trkpt>
      <trkpt lat="45.78775" lon="4.87528">
        <ele>168.39999389648</ele>
        <time>2016-08-19T08:10:08.000Z</time>
      </trkpt>
      <trkpt lat="45.78775" lon="4.87531">
        <ele>168.60000610352</ele>
        <time>2016-08-19T08:10:09.000Z</time>
      </trkpt>
      <trkpt lat="45.78776" lon="4.87534">
        <ele>168.60000610352</ele>
        <time>2016-08-19T08:10:10.000Z</time>
      </trkpt>
      <trkpt lat="45.78776" lon="4.87537">
        <ele>168.80000305176</ele>
        <time>2016-08-19T08:10:11.000Z</time>
      </trkpt>
      <trkpt lat="45.78776" lon="4.87541">
        <ele>168.80000305176</ele>
        <time>2016-08-19T08:10:12.000Z</time>
      </trkpt>
      <trkpt lat="45.78776" lon="4.87544">
        <ele>168.80000305176</ele>
        <time>2016-08-19T08:10:13.000Z</time>
      </trkpt>
      <trkpt lat="45.78776" lon="4.87547">
        <ele>168.80000305176</ele>
        <time>2016-08-19T08:10:14.000Z</time>
      </trkpt>
      <trkpt lat="45.78776" lon="4.87551">
        <ele>168.80000305176</ele>
        <time>2016-08-19T08:10:15.000Z</time>
      </trkpt>
      <trkpt lat="45.78777" lon="4.87555">
        <ele>168.80000305176</ele>
        <time>2016-08-19T08:10:16.000Z</time>
      </trkpt>
      <trkpt lat="45.78777" lon="4.87559">
        <ele>168.80000305176</ele>
        <time>2016-08-19T08:10:17.000Z</time>
      </trkpt>
      <trkpt lat="45.78776" lon="4.87562">
        <ele>168.80000305176</ele>
        <time>2016-08-19T08:10:18.000Z</time>
      </trkpt>
      <trkpt lat="45.78777" lon="4.87565">
        <ele>168.80000305176</ele>
        <time>2016-08-19T08:10:19.000Z</time>
      </trkpt>
      <trkpt lat="45.78778" lon="4.87569">
        <ele>168.60000610352</ele>
        <time>2016-08-19T08:10:20.000Z</time>
      </trkpt>
      <trkpt lat="45.78778" lon="4.87573">
        <ele>168.60000610352</ele>
        <time>2016-08-19T08:10:21.000Z</time>
      </trkpt>
      <trkpt lat="45.78779" lon="4.87577">
        <ele>168.39999389648</ele>
        <time>2016-08-19T08:10:22.000Z</time>
      </trkpt>
      <trkpt lat="45.7878" lon="4.87581">
        <ele>168.39999389648</ele>
        <time>2016-08-19T08:10:23.000Z</time>
      </trkpt>
      <trkpt lat="45.7878" lon="4.87584">
        <ele>168.39999389648</ele>
        <time>2016-08-19T08:10:24.000Z</time>
      </trkpt>
      <trkpt lat="45.78781" lon="4.87588">
        <ele>168.39999389648</ele>
        <time>2016-08-19T08:10:25.000Z</time>
      </trkpt>
      <trkpt lat="45.78782" lon="4.87592">
        <ele>168.19999694824</ele>
        <time>2016-08-19T08:10:26.000Z</time>
      </trkpt>
      <trkpt lat="45.78782" lon="4.87596">
        <ele>168.19999694824</ele>
        <time>2016-08-19T08:10:27.000Z</time>
      </trkpt>
      <trkpt lat="45.78782" lon="4.87599">
        <ele>168.19999694824</ele>
        <time>2016-08-19T08:10:28.000Z</time>
      </trkpt>
      <trkpt lat="45.78783" lon="4.87602">
        <ele>168.19999694824</ele>
        <time>2016-08-19T08:10:29.000Z</time>
      </trkpt>
      <trkpt lat="45.78783" lon="4.87606">
        <ele>168.19999694824</ele>
        <time>2016-08-19T08:10:30.000Z</time>
      </trkpt>
      <trkpt lat="45.78784" lon="4.8761">
        <ele>168</ele>
        <time>2016-08-19T08:10:31.000Z</time>
      </trkpt>
      <trkpt lat="45.78785" lon="4.87614">
        <ele>168</ele>
        <time>2016-08-19T08:10:32.000Z</time>
      </trkpt>
      <trkpt lat="45.78786" lon="4.87617">
        <ele>167.80000305176</ele>
        <time>2016-08-19T08:10:33.000Z</time>
      </trkpt>
      <trkpt lat="45.78787" lon="4.87621">
        <ele>167.80000305176</ele>
        <time>2016-08-19T08:10:34.000Z</time>
      </trkpt>
      <trkpt lat="45.78788" lon="4.87624">
        <ele>167.60000610352</ele>
        <time>2016-08-19T08:10:35.000Z</time>
      </trkpt>
      <trkpt lat="45.78788" lon="4.87627">
        <ele>167.60000610352</ele>
        <time>2016-08-19T08:10:36.000Z</time>
      </trkpt>
      <trkpt lat="45.78789" lon="4.87631">
        <ele>167.39999389648</ele>
        <time>2016-08-19T08:10:37.000Z</time>
      </trkpt>
      <trkpt lat="45.7879" lon="4.87634">
        <ele>167.39999389648</ele>
        <time>2016-08-19T08:10:38.000Z</time>
      </trkpt>
      <trkpt lat="45.7879" lon="4.87638">
        <ele>167.39999389648</ele>
        <time>2016-08-19T08:10:39.000Z</time>
      </trkpt>
      <trkpt lat="45.78791" lon="4.87641">
        <ele>167.39999389648</ele>
        <time>2016-08-19T08:10:40.000Z</time>
      </trkpt>
      <trkpt lat="45.78792" lon="4.87644">
        <ele>167.19999694824</ele>
        <time>2016-08-19T08:10:41.000Z</time>
      </trkpt>
      <trkpt lat="45.78792" lon="4.87648">
        <ele>167.19999694824</ele>
        <time>2016-08-19T08:10:42.000Z</time>
      </trkpt>
      <trkpt lat="45.78793" lon="4.87651">
        <ele>167.19999694824</ele>
        <time>2016-08-19T08:10:43.000Z</time>
      </trkpt>
      <trkpt lat="45.78794" lon="4.87655">
        <ele>167</ele>
        <time>2016-08-19T08:10:44.000Z</time>
      </trkpt>
      <trkpt lat="45.78795" lon="4.87658">
        <ele>167</ele>
        <time>2016-08-19T08:10:45.000Z</time>
      </trkpt>
      <trkpt lat="45.78797" lon="4.87661">
        <ele>166.80000305176</ele>
        <time>2016-08-19T08:10:46.000Z</time>
      </trkpt>
      <trkpt lat="45.78798" lon="4.87663">
        <ele>166.60000610352</ele>
        <time>2016-08-19T08:10:47.000Z</time>
      </trkpt>
      <trkpt lat="45.78799" lon="4.87666">
        <ele>166.60000610352</ele>
        <time>2016-08-19T08:10:48.000Z</time>
      </trkpt>
      <trkpt lat="45.78801" lon="4.87668">
        <ele>166.39999389648</ele>
        <time>2016-08-19T08:10:49.000Z</time>
      </trkpt>
      <trkpt lat="45.78804" lon="4.8767">
        <ele>166</ele>
        <time>2016-08-19T08:10:50.000Z</time>
      </trkpt>
      <trkpt lat="45.78807" lon="4.87673">
        <ele>166</ele>
        <time>2016-08-19T08:10:51.000Z</time>
      </trkpt>
      <trkpt lat="45.7881" lon="4.87675">
        <ele>166</ele>
        <time>2016-08-19T08:10:52.000Z</time>
      </trkpt>
      <trkpt lat="45.78813" lon="4.87677">
        <ele>166</ele>
        <time>2016-08-19T08:10:53.000Z</time>
      </trkpt>
      <trkpt lat="45.78816" lon="4.87679">
        <ele>166</ele>
        <time>2016-08-19T08:10:54.000Z</time>
      </trkpt>
      <trkpt lat="45.78818" lon="4.87681">
        <ele>166</ele>
        <time>2016-08-19T08:10:55.000Z</time>
      </trkpt>
      <trkpt lat="45.7882" lon="4.87683">
        <ele>166</ele>
        <time>2016-08-19T08:10:56.000Z</time>
      </trkpt>
      <trkpt lat="45.78822" lon="4.87685">
        <ele>166</ele>
        <time>2016-08-19T08:10:57.000Z</time>
      </trkpt>
      <trkpt lat="45.78823" lon="4.87687">
        <ele>166</ele>
        <time>2016-08-19T08:10:58.000Z</time>
      </trkpt>
      <trkpt lat="45.78825" lon="4.87689">
        <ele>166</ele>
        <time>2016-08-19T08:10:59.000Z</time>
      </trkpt>
      <trkpt lat="45.78827" lon="4.87692">
        <ele>166</ele>
        <time>2016-08-19T08:11:00.000Z</time>
      </trkpt>
      <trkpt lat="45.7883" lon="4.87695">
        <ele>166</ele>
        <time>2016-08-19T08:11:01.000Z</time>
      </trkpt>
      <trkpt lat="45.78832" lon="4.87697">
        <ele>166</ele>
        <time>2016-08-19T08:11:02.000Z</time>
      </trkpt>
      <trkpt lat="45.78835" lon="4.87699">
        <ele>166</ele>
        <time>2016-08-19T08:11:03.000Z</time>
      </trkpt>
      <trkpt lat="45.78838" lon="4.87701">
        <ele>166</ele>
        <time>2016-08-19T08:11:04.000Z</time>
      </trkpt>
      <trkpt lat="45.7884" lon="4.87703">
        <ele>166</ele>
        <time>2016-08-19T08:11:05.000Z</time>
      </trkpt>
      <trkpt lat="45.78843" lon="4.87705">
        <ele>166</ele>
        <time>2016-08-19T08:11:06.000Z</time>
      </trkpt>
      <trkpt lat="45.78845" lon="4.87707">
        <ele>166</ele>
        <time>2016-08-19T08:11:07.000Z</time>
      </trkpt>
      <trkpt lat="45.78848" lon="4.87708">
        <ele>166</ele>
        <time>2016-08-19T08:11:08.000Z</time>
      </trkpt>
      <trkpt lat="45.7885" lon="4.8771">
        <ele>166</ele>
        <time>2016-08-19T08:11:09.000Z</time>
      </trkpt>
      <trkpt lat="45.78852" lon="4.87712">
        <ele>166</ele>
        <time>2016-08-19T08:11:10.000Z</time>
      </trkpt>
      <trkpt lat="45.78854" lon="4.87714">
        <ele>166</ele>
        <time>2016-08-19T08:11:11.000Z</time>
      </trkpt>
      <trkpt lat="45.78857" lon="4.87716">
        <ele>166</ele>
        <time>2016-08-19T08:11:12.000Z</time>
      </trkpt>
      <trkpt lat="45.78859" lon="4.87717">
        <ele>166</ele>
        <time>2016-08-19T08:11:13.000Z</time>
      </trkpt>
      <trkpt lat="45.78861" lon="4.87719">
        <ele>166</ele>
        <time>2016-08-19T08:11:14.000Z</time>
      </trkpt>
      <trkpt lat="45.78864" lon="4.87721">
        <ele>166</ele>
        <time>2016-08-19T08:11:15.000Z</time>
      </trkpt>
      <trkpt lat="45.78866" lon="4.87722">
        <ele>166</ele>
        <time>2016-08-19T08:11:16.000Z</time>
      </trkpt>
      <trkpt lat="45.78869" lon="4.87724">
        <ele>166</ele>
        <time>2016-08-19T08:11:17.000Z</time>
      </trkpt>
      <trkpt lat="45.78871" lon="4.87726">
        <ele>166</ele>
        <time>2016-08-19T08:11:18.000Z</time>
      </trkpt>
      <trkpt lat="45.78873" lon="4.87728">
        <ele>166</ele>
        <time>2016-08-19T08:11:19.000Z</time>
      </trkpt>
      <trkpt lat="45.78875" lon="4.8773">
        <ele>166</ele>
        <time>2016-08-19T08:11:20.000Z</time>
      </trkpt>
      <trkpt lat="45.78877" lon="4.87732">
        <ele>166</ele>
        <time>2016-08-19T08:11:21.000Z</time>
      </trkpt>
      <trkpt lat="45.7888" lon="4.87734">
        <ele>166</ele>
        <time>2016-08-19T08:11:22.000Z</time>
      </trkpt>
      <trkpt lat="45.78882" lon="4.87735">
        <ele>166</ele>
        <time>2016-08-19T08:11:23.000Z</time>
      </trkpt>
      <trkpt lat="45.78884" lon="4.87737">
        <ele>166</ele>
        <time>2016-08-19T08:11:24.000Z</time>
      </trkpt>
      <trkpt lat="45.78887" lon="4.87739">
        <ele>166</ele>
        <time>2016-08-19T08:11:25.000Z</time>
      </trkpt>
      <trkpt lat="45.78889" lon="4.87741">
        <ele>166</ele>
        <time>2016-08-19T08:11:26.000Z</time>
      </trkpt>
      <trkpt lat="45.78891" lon="4.87743">
        <ele>166</ele>
        <time>2016-08-19T08:11:27.000Z</time>
      </trkpt>
      <trkpt lat="45.78892" lon="4.87745">
        <ele>166</ele>
        <time>2016-08-19T08:11:28.000Z</time>
      </trkpt>
      <trkpt lat="45.78895" lon="4.87747">
        <ele>166</ele>
        <time>2016-08-19T08:11:29.000Z</time>
      </trkpt>
      <trkpt lat="45.78897" lon="4.87749">
        <ele>166</ele>
        <time>2016-08-19T08:11:30.000Z</time>
      </trkpt>
      <trkpt lat="45.78899" lon="4.87751">
        <ele>166</ele>
        <time>2016-08-19T08:11:31.000Z</time>
      </trkpt>
      <trkpt lat="45.78901" lon="4.87753">
        <ele>166</ele>
        <time>2016-08-19T08:11:32.000Z</time>
      </trkpt>
      <trkpt lat="45.78903" lon="4.87756">
        <ele>166</ele>
        <time>2016-08-19T08:11:33.000Z</time>
      </trkpt>
      <trkpt lat="45.78905" lon="4.87758">
        <ele>166</ele>
        <time>2016-08-19T08:11:34.000Z</time>
      </trkpt>
      <trkpt lat="45.78907" lon="4.8776">
        <ele>166</ele>
        <time>2016-08-19T08:11:35.000Z</time>
      </trkpt>
      <trkpt lat="45.78909" lon="4.87762">
        <ele>166</ele>
        <time>2016-08-19T08:11:36.000Z</time>
      </trkpt>
      <trkpt lat="45.78912" lon="4.87764">
        <ele>166</ele>
        <time>2016-08-19T08:11:37.000Z</time>
      </trkpt>
      <trkpt lat="45.78914" lon="4.87766">
        <ele>166</ele>
        <time>2016-08-19T08:11:38.000Z</time>
      </trkpt>
      <trkpt lat="45.78916" lon="4.87768">
        <ele>166</ele>
        <time>2016-08-19T08:11:39.000Z</time>
      </trkpt>
      <trkpt lat="45.78918" lon="4.8777">
        <ele>166</ele>
        <time>2016-08-19T08:11:40.000Z</time>
      </trkpt>
      <trkpt lat="45.7892" lon="4.87772">
        <ele>166</ele>
        <time>2016-08-19T08:11:41.000Z</time>
      </trkpt>
      <trkpt lat="45.78922" lon="4.87774">
        <ele>166</ele>
        <time>2016-08-19T08:11:42.000Z</time>
      </trkpt>
      <trkpt lat="45.78924" lon="4.87776">
        <ele>166</ele>
        <time>2016-08-19T08:11:43.000Z</time>
      </trkpt>
      <trkpt lat="45.78926" lon="4.87778">
        <ele>166</ele>
        <time>2016-08-19T08:11:44.000Z</time>
      </trkpt>
      <trkpt lat="45.78928" lon="4.8778">
        <ele>166</ele>
        <time>2016-08-19T08:11:45.000Z</time>
      </trkpt>
      <trkpt lat="45.7893" lon="4.87782">
        <ele>166</ele>
        <time>2016-08-19T08:11:46.000Z</time>
      </trkpt>
      <trkpt lat="45.78932" lon="4.87784">
        <ele>166</ele>
        <time>2016-08-19T08:11:47.000Z</time>
      </trkpt>
      <trkpt lat="45.78935" lon="4.87786">
        <ele>166</ele>
        <time>2016-08-19T08:11:48.000Z</time>
      </trkpt>
      <trkpt lat="45.78937" lon="4.87788">
        <ele>166</ele>
        <time>2016-08-19T08:11:49.000Z</time>
      </trkpt>
      <trkpt lat="45.78939" lon="4.87789">
        <ele>166</ele>
        <time>2016-08-19T08:11:50.000Z</time>
      </trkpt>
      <trkpt lat="45.78941" lon="4.87791">
        <ele>166</ele>
        <time>2016-08-19T08:11:51.000Z</time>
      </trkpt>
      <trkpt lat="45.78944" lon="4.87793">
        <ele>166</ele>
        <time>2016-08-19T08:11:52.000Z</time>
      </trkpt>
      <trkpt lat="45.78946" lon="4.87794">
        <ele>166</ele>
        <time>2016-08-19T08:11:53.000Z</time>
      </trkpt>
      <trkpt lat="45.78949" lon="4.87796">
        <ele>166</ele>
        <time>2016-08-19T08:11:54.000Z</time>
      </trkpt>
      <trkpt lat="45.78951" lon="4.87798">
        <ele>166.19999694824</ele>
        <time>2016-08-19T08:11:55.000Z</time>
      </trkpt>
      <trkpt lat="45.78953" lon="4.878">
        <ele>166.19999694824</ele>
        <time>2016-08-19T08:11:56.000Z</time>
      </trkpt>
      <trkpt lat="45.78956" lon="4.87802">
        <ele>166.19999694824</ele>
        <time>2016-08-19T08:11:57.000Z</time>
      </trkpt>
      <trkpt lat="45.78958" lon="4.87804">
        <ele>166.19999694824</ele>
        <time>2016-08-19T08:11:58.000Z</time>
      </trkpt>
      <trkpt lat="45.7896" lon="4.87806">
        <ele>166.19999694824</ele>
        <time>2016-08-19T08:11:59.000Z</time>
      </trkpt>
      <trkpt lat="45.78962" lon="4.87808">
        <ele>166.19999694824</ele>
        <time>2016-08-19T08:12:00.000Z</time>
      </trkpt>
      <trkpt lat="45.78965" lon="4.8781">
        <ele>166.19999694824</ele>
        <time>2016-08-19T08:12:01.000Z</time>
      </trkpt>
      <trkpt lat="45.78967" lon="4.87812">
        <ele>166.19999694824</ele>
        <time>2016-08-19T08:12:02.000Z</time>
      </trkpt>
      <trkpt lat="45.78969" lon="4.87814">
        <ele>166.19999694824</ele>
        <time>2016-08-19T08:12:03.000Z</time>
      </trkpt>
      <trkpt lat="45.78971" lon="4.87816">
        <ele>166.39999389648</ele>
        <time>2016-08-19T08:12:04.000Z</time>
      </trkpt>
      <trkpt lat="45.78974" lon="4.87818">
        <ele>166.39999389648</ele>
        <time>2016-08-19T08:12:05.000Z</time>
      </trkpt>
      <trkpt lat="45.78976" lon="4.87819">
        <ele>166.39999389648</ele>
        <time>2016-08-19T08:12:06.000Z</time>
      </trkpt>
      <trkpt lat="45.78979" lon="4.87821">
        <ele>166.39999389648</ele>
        <time>2016-08-19T08:12:07.000Z</time>
      </trkpt>
      <trkpt lat="45.78981" lon="4.87823">
        <ele>166.39999389648</ele>
        <time>2016-08-19T08:12:08.000Z</time>
      </trkpt>
      <trkpt lat="45.78983" lon="4.87824">
        <ele>166.39999389648</ele>
        <time>2016-08-19T08:12:09.000Z</time>
      </trkpt>
      <trkpt lat="45.78985" lon="4.87826">
        <ele>166.39999389648</ele>
        <time>2016-08-19T08:12:10.000Z</time>
      </trkpt>
      <trkpt lat="45.78987" lon="4.87828">
        <ele>166.39999389648</ele>
        <time>2016-08-19T08:12:11.000Z</time>
      </trkpt>
      <trkpt lat="45.78989" lon="4.87829">
        <ele>166.39999389648</ele>
        <time>2016-08-19T08:12:12.000Z</time>
      </trkpt>
      <trkpt lat="45.78992" lon="4.87831">
        <ele>166.39999389648</ele>
        <time>2016-08-19T08:12:13.000Z</time>
      </trkpt>
      <trkpt lat="45.78994" lon="4.87833">
        <ele>166.60000610352</ele>
        <time>2016-08-19T08:12:14.000Z</time>
      </trkpt>
      <trkpt lat="45.78996" lon="4.87835">
        <ele>166.60000610352</ele>
        <time>2016-08-19T08:12:15.000Z</time>
      </trkpt>
      <trkpt lat="45.78998" lon="4.87836">
        <ele>166.60000610352</ele>
        <time>2016-08-19T08:12:16.000Z</time>
      </trkpt>
      <trkpt lat="45.79" lon="4.87838">
        <ele>166.60000610352</ele>
        <time>2016-08-19T08:12:17.000Z</time>
      </trkpt>
      <trkpt lat="45.79002" lon="4.8784">
        <ele>166.60000610352</ele>
        <time>2016-08-19T08:12:18.000Z</time>
      </trkpt>
      <trkpt lat="45.79004" lon="4.87842">
        <ele>166.60000610352</ele>
        <time>2016-08-19T08:12:19.000Z</time>
      </trkpt>
      <trkpt lat="45.79006" lon="4.87844">
        <ele>166.60000610352</ele>
        <time>2016-08-19T08:12:20.000Z</time>
      </trkpt>
      <trkpt lat="45.79008" lon="4.87845">
        <ele>166.60000610352</ele>
        <time>2016-08-19T08:12:21.000Z</time>
      </trkpt>
      <trkpt lat="45.7901" lon="4.87847">
        <ele>166.60000610352</ele>
        <time>2016-08-19T08:12:22.000Z</time>
      </trkpt>
      <trkpt lat="45.79013" lon="4.87849">
        <ele>166.80000305176</ele>
        <time>2016-08-19T08:12:23.000Z</time>
      </trkpt>
      <trkpt lat="45.79015" lon="4.8785">
        <ele>166.80000305176</ele>
        <time>2016-08-19T08:12:24.000Z</time>
      </trkpt>
      <trkpt lat="45.79016" lon="4.87852">
        <ele>166.80000305176</ele>
        <time>2016-08-19T08:12:25.000Z</time>
      </trkpt>
      <trkpt lat="45.79019" lon="4.87853">
        <ele>166.80000305176</ele>
        <time>2016-08-19T08:12:26.000Z</time>
      </trkpt>
      <trkpt lat="45.79021" lon="4.87855">
        <ele>166.80000305176</ele>
        <time>2016-08-19T08:12:27.000Z</time>
      </trkpt>
      <trkpt lat="45.79024" lon="4.87856">
        <ele>166.80000305176</ele>
        <time>2016-08-19T08:12:28.000Z</time>
      </trkpt>
      <trkpt lat="45.79026" lon="4.87858">
        <ele>166.80000305176</ele>
        <time>2016-08-19T08:12:29.000Z</time>
      </trkpt>
      <trkpt lat="45.79028" lon="4.8786">
        <ele>166.80000305176</ele>
        <time>2016-08-19T08:12:30.000Z</time>
      </trkpt>
      <trkpt lat="45.7903" lon="4.87862">
        <ele>166.80000305176</ele>
        <time>2016-08-19T08:12:31.000Z</time>
      </trkpt>
      <trkpt lat="45.79031" lon="4.87864">
        <ele>166.80000305176</ele>
        <time>2016-08-19T08:12:32.000Z</time>
      </trkpt>
      <trkpt lat="45.79033" lon="4.87866">
        <ele>167</ele>
        <time>2016-08-19T08:12:33.000Z</time>
      </trkpt>
      <trkpt lat="45.79035" lon="4.87868">
        <ele>167</ele>
        <time>2016-08-19T08:12:34.000Z</time>
      </trkpt>
      <trkpt lat="45.79038" lon="4.8787">
        <ele>167</ele>
        <time>2016-08-19T08:12:35.000Z</time>
      </trkpt>
      <trkpt lat="45.7904" lon="4.87871">
        <ele>167</ele>
        <time>2016-08-19T08:12:36.000Z</time>
      </trkpt>
      <trkpt lat="45.79042" lon="4.87873">
        <ele>167</ele>
        <time>2016-08-19T08:12:37.000Z</time>
      </trkpt>
      <trkpt lat="45.79044" lon="4.87875">
        <ele>167</ele>
        <time>2016-08-19T08:12:38.000Z</time>
      </trkpt>
      <trkpt lat="45.79046" lon="4.87876">
        <ele>167</ele>
        <time>2016-08-19T08:12:39.000Z</time>
      </trkpt>
      <trkpt lat="45.79048" lon="4.87878">
        <ele>167</ele>
        <time>2016-08-19T08:12:40.000Z</time>
      </trkpt>
      <trkpt lat="45.7905" lon="4.8788">
        <ele>167</ele>
        <time>2016-08-19T08:12:41.000Z</time>
      </trkpt>
      <trkpt lat="45.79051" lon="4.87882">
        <ele>167</ele>
        <time>2016-08-19T08:12:42.000Z</time>
      </trkpt>
      <trkpt lat="45.79053" lon="4.87884">
        <ele>167</ele>
        <time>2016-08-19T08:12:43.000Z</time>
      </trkpt>
      <trkpt lat="45.79055" lon="4.87885">
        <ele>167</ele>
        <time>2016-08-19T08:12:44.000Z</time>
      </trkpt>
      <trkpt lat="45.79057" lon="4.87887">
        <ele>167</ele>
        <time>2016-08-19T08:12:45.000Z</time>
      </trkpt>
      <trkpt lat="45.7906" lon="4.87888">
        <ele>167</ele>
        <time>2016-08-19T08:12:46.000Z</time>
      </trkpt>
      <trkpt lat="45.79062" lon="4.87889">
        <ele>167</ele>
        <time>2016-08-19T08:12:47.000Z</time>
      </trkpt>
      <trkpt lat="45.79065" lon="4.87891">
        <ele>167</ele>
        <time>2016-08-19T08:12:48.000Z</time>
      </trkpt>
      <trkpt lat="45.79067" lon="4.87892">
        <ele>167</ele>
        <time>2016-08-19T08:12:49.000Z</time>
      </trkpt>
      <trkpt lat="45.79069" lon="4.87893">
        <ele>167</ele>
        <time>2016-08-19T08:12:50.000Z</time>
      </trkpt>
      <trkpt lat="45.79072" lon="4.87894">
        <ele>167</ele>
        <time>2016-08-19T08:12:51.000Z</time>
      </trkpt>
      <trkpt lat="45.79074" lon="4.87895">
        <ele>167</ele>
        <time>2016-08-19T08:12:52.000Z</time>
      </trkpt>
      <trkpt lat="45.79077" lon="4.87896">
        <ele>167</ele>
        <time>2016-08-19T08:12:53.000Z</time>
      </trkpt>
      <trkpt lat="45.79079" lon="4.87897">
        <ele>167</ele>
        <time>2016-08-19T08:12:54.000Z</time>
      </trkpt>
      <trkpt lat="45.79082" lon="4.87899">
        <ele>167</ele>
        <time>2016-08-19T08:12:55.000Z</time>
      </trkpt>
      <trkpt lat="45.79084" lon="4.87899">
        <ele>167</ele>
        <time>2016-08-19T08:12:56.000Z</time>
      </trkpt>
      <trkpt lat="45.79087" lon="4.87901">
        <ele>167</ele>
        <time>2016-08-19T08:12:57.000Z</time>
      </trkpt>
      <trkpt lat="45.7909" lon="4.87902">
        <ele>167</ele>
        <time>2016-08-19T08:12:58.000Z</time>
      </trkpt>
      <trkpt lat="45.79093" lon="4.87903">
        <ele>167</ele>
        <time>2016-08-19T08:12:59.000Z</time>
      </trkpt>
      <trkpt lat="45.79096" lon="4.87904">
        <ele>167</ele>
        <time>2016-08-19T08:13:00.000Z</time>
      </trkpt>
      <trkpt lat="45.79096" lon="4.87906">
        <ele>167</ele>
        <time>2016-08-19T08:13:01.000Z</time>
      </trkpt>
      <trkpt lat="45.79099" lon="4.87907">
        <ele>167</ele>
        <time>2016-08-19T08:13:02.000Z</time>
      </trkpt>
      <trkpt lat="45.79101" lon="4.87908">
        <ele>167</ele>
        <time>2016-08-19T08:13:03.000Z</time>
      </trkpt>
      <trkpt lat="45.79104" lon="4.8791">
        <ele>167</ele>
        <time>2016-08-19T08:13:04.000Z</time>
      </trkpt>
      <trkpt lat="45.79106" lon="4.87912">
        <ele>167</ele>
        <time>2016-08-19T08:13:05.000Z</time>
      </trkpt>
      <trkpt lat="45.79108" lon="4.87913">
        <ele>167</ele>
        <time>2016-08-19T08:13:06.000Z</time>
      </trkpt>
      <trkpt lat="45.79111" lon="4.87915">
        <ele>167</ele>
        <time>2016-08-19T08:13:07.000Z</time>
      </trkpt>
      <trkpt lat="45.79113" lon="4.87916">
        <ele>167</ele>
        <time>2016-08-19T08:13:08.000Z</time>
      </trkpt>
      <trkpt lat="45.79114" lon="4.87918">
        <ele>167</ele>
        <time>2016-08-19T08:13:09.000Z</time>
      </trkpt>
      <trkpt lat="45.79116" lon="4.8792">
        <ele>167</ele>
        <time>2016-08-19T08:13:10.000Z</time>
      </trkpt>
      <trkpt lat="45.79119" lon="4.87921">
        <ele>167</ele>
        <time>2016-08-19T08:13:11.000Z</time>
      </trkpt>
      <trkpt lat="45.79122" lon="4.87923">
        <ele>167</ele>
        <time>2016-08-19T08:13:12.000Z</time>
      </trkpt>
      <trkpt lat="45.79124" lon="4.87926">
        <ele>167</ele>
        <time>2016-08-19T08:13:13.000Z</time>
      </trkpt>
      <trkpt lat="45.79126" lon="4.87927">
        <ele>167</ele>
        <time>2016-08-19T08:13:14.000Z</time>
      </trkpt>
      <trkpt lat="45.79128" lon="4.8793">
        <ele>167</ele>
        <time>2016-08-19T08:13:15.000Z</time>
      </trkpt>
      <trkpt lat="45.7913" lon="4.87932">
        <ele>167</ele>
        <time>2016-08-19T08:13:16.000Z</time>
      </trkpt>
      <trkpt lat="45.79132" lon="4.87933">
        <ele>167</ele>
        <time>2016-08-19T08:13:17.000Z</time>
      </trkpt>
      <trkpt lat="45.79134" lon="4.87935">
        <ele>167</ele>
        <time>2016-08-19T08:13:18.000Z</time>
      </trkpt>
      <trkpt lat="45.79135" lon="4.87938">
        <ele>167</ele>
        <time>2016-08-19T08:13:19.000Z</time>
      </trkpt>
      <trkpt lat="45.79137" lon="4.8794">
        <ele>167</ele>
        <time>2016-08-19T08:13:20.000Z</time>
      </trkpt>
      <trkpt lat="45.79139" lon="4.87941">
        <ele>167</ele>
        <time>2016-08-19T08:13:21.000Z</time>
      </trkpt>
      <trkpt lat="45.79141" lon="4.87944">
        <ele>167</ele>
        <time>2016-08-19T08:13:22.000Z</time>
      </trkpt>
      <trkpt lat="45.79143" lon="4.87946">
        <ele>167</ele>
        <time>2016-08-19T08:13:23.000Z</time>
      </trkpt>
      <trkpt lat="45.79145" lon="4.87947">
        <ele>167</ele>
        <time>2016-08-19T08:13:24.000Z</time>
      </trkpt>
      <trkpt lat="45.79146" lon="4.87951">
        <ele>167</ele>
        <time>2016-08-19T08:13:25.000Z</time>
      </trkpt>
      <trkpt lat="45.79148" lon="4.87953">
        <ele>167</ele>
        <time>2016-08-19T08:13:26.000Z</time>
      </trkpt>
      <trkpt lat="45.7915" lon="4.87955">
        <ele>167</ele>
        <time>2016-08-19T08:13:27.000Z</time>
      </trkpt>
      <trkpt lat="45.79151" lon="4.87958">
        <ele>167</ele>
        <time>2016-08-19T08:13:28.000Z</time>
      </trkpt>
      <trkpt lat="45.79154" lon="4.87959">
        <ele>167</ele>
        <time>2016-08-19T08:13:29.000Z</time>
      </trkpt>
      <trkpt lat="45.79156" lon="4.8796">
        <ele>167</ele>
        <time>2016-08-19T08:13:30.000Z</time>
      </trkpt>
      <trkpt lat="45.79158" lon="4.87961">
        <ele>167</ele>
        <time>2016-08-19T08:13:31.000Z</time>
      </trkpt>
      <trkpt lat="45.7916" lon="4.87963">
        <ele>167</ele>
        <time>2016-08-19T08:13:32.000Z</time>
      </trkpt>
      <trkpt lat="45.79162" lon="4.87965">
        <ele>167</ele>
        <time>2016-08-19T08:13:33.000Z</time>
      </trkpt>
      <trkpt lat="45.79163" lon="4.87969">
        <ele>167</ele>
        <time>2016-08-19T08:13:34.000Z</time>
      </trkpt>
      <trkpt lat="45.79165" lon="4.87971">
        <ele>167</ele>
        <time>2016-08-19T08:13:35.000Z</time>
      </trkpt>
      <trkpt lat="45.79167" lon="4.87973">
        <ele>167</ele>
        <time>2016-08-19T08:13:36.000Z</time>
      </trkpt>
      <trkpt lat="45.79169" lon="4.87975">
        <ele>167</ele>
        <time>2016-08-19T08:13:37.000Z</time>
      </trkpt>
      <trkpt lat="45.7917" lon="4.87978">
        <ele>167</ele>
        <time>2016-08-19T08:13:38.000Z</time>
      </trkpt>
      <trkpt lat="45.79172" lon="4.87979">
        <ele>167</ele>
        <time>2016-08-19T08:13:39.000Z</time>
      </trkpt>
      <trkpt lat="45.79174" lon="4.87981">
        <ele>167</ele>
        <time>2016-08-19T08:13:40.000Z</time>
      </trkpt>
      <trkpt lat="45.79175" lon="4.87984">
        <ele>167</ele>
        <time>2016-08-19T08:13:41.000Z</time>
      </trkpt>
      <trkpt lat="45.79176" lon="4.87986">
        <ele>167</ele>
        <time>2016-08-19T08:13:42.000Z</time>
      </trkpt>
      <trkpt lat="45.79178" lon="4.87987">
        <ele>167</ele>
        <time>2016-08-19T08:13:43.000Z</time>
      </trkpt>
      <trkpt lat="45.7918" lon="4.87989">
        <ele>167</ele>
        <time>2016-08-19T08:13:44.000Z</time>
      </trkpt>
      <trkpt lat="45.79182" lon="4.8799">
        <ele>167</ele>
        <time>2016-08-19T08:13:45.000Z</time>
      </trkpt>
      <trkpt lat="45.79184" lon="4.87992">
        <ele>167</ele>
        <time>2016-08-19T08:13:46.000Z</time>
      </trkpt>
      <trkpt lat="45.79186" lon="4.87994">
        <ele>167</ele>
        <time>2016-08-19T08:13:47.000Z</time>
      </trkpt>
      <trkpt lat="45.79188" lon="4.87996">
        <ele>167</ele>
        <time>2016-08-19T08:13:48.000Z</time>
      </trkpt>
      <trkpt lat="45.79189" lon="4.87998">
        <ele>167</ele>
        <time>2016-08-19T08:13:49.000Z</time>
      </trkpt>
      <trkpt lat="45.79191" lon="4.88">
        <ele>167</ele>
        <time>2016-08-19T08:13:50.000Z</time>
      </trkpt>
      <trkpt lat="45.79193" lon="4.88001">
        <ele>167</ele>
        <time>2016-08-19T08:13:51.000Z</time>
      </trkpt>
      <trkpt lat="45.79195" lon="4.88003">
        <ele>167</ele>
        <time>2016-08-19T08:13:52.000Z</time>
      </trkpt>
      <trkpt lat="45.79197" lon="4.88004">
        <ele>167</ele>
        <time>2016-08-19T08:13:53.000Z</time>
      </trkpt>
      <trkpt lat="45.79199" lon="4.88006">
        <ele>167</ele>
        <time>2016-08-19T08:13:54.000Z</time>
      </trkpt>
      <trkpt lat="45.79202" lon="4.88007">
        <ele>167</ele>
        <time>2016-08-19T08:13:55.000Z</time>
      </trkpt>
      <trkpt lat="45.79203" lon="4.88009">
        <ele>167</ele>
        <time>2016-08-19T08:13:56.000Z</time>
      </trkpt>
      <trkpt lat="45.79205" lon="4.88011">
        <ele>167</ele>
        <time>2016-08-19T08:13:57.000Z</time>
      </trkpt>
      <trkpt lat="45.79207" lon="4.88014">
        <ele>167</ele>
        <time>2016-08-19T08:13:58.000Z</time>
      </trkpt>
      <trkpt lat="45.79208" lon="4.88015">
        <ele>167</ele>
        <time>2016-08-19T08:13:59.000Z</time>
      </trkpt>
      <trkpt lat="45.7921" lon="4.88017">
        <ele>167</ele>
        <time>2016-08-19T08:14:00.000Z</time>
      </trkpt>
      <trkpt lat="45.79211" lon="4.88018">
        <ele>167</ele>
        <time>2016-08-19T08:14:01.000Z</time>
      </trkpt>
      <trkpt lat="45.79212" lon="4.88021">
        <ele>167</ele>
        <time>2016-08-19T08:14:02.000Z</time>
      </trkpt>
      <trkpt lat="45.79211" lon="4.88026">
        <ele>167</ele>
        <time>2016-08-19T08:14:03.000Z</time>
      </trkpt>
      <trkpt lat="45.79212" lon="4.88029">
        <ele>167</ele>
        <time>2016-08-19T08:14:04.000Z</time>
      </trkpt>
      <trkpt lat="45.79214" lon="4.88031">
        <ele>167</ele>
        <time>2016-08-19T08:14:05.000Z</time>
      </trkpt>
      <trkpt lat="45.79215" lon="4.88034">
        <ele>167</ele>
        <time>2016-08-19T08:14:06.000Z</time>
      </trkpt>
      <trkpt lat="45.79218" lon="4.88035">
        <ele>167</ele>
        <time>2016-08-19T08:14:07.000Z</time>
      </trkpt>
      <trkpt lat="45.7922" lon="4.88038">
        <ele>167</ele>
        <time>2016-08-19T08:14:08.000Z</time>
      </trkpt>
      <trkpt lat="45.79222" lon="4.8804">
        <ele>167</ele>
        <time>2016-08-19T08:14:09.000Z</time>
      </trkpt>
      <trkpt lat="45.79224" lon="4.88041">
        <ele>167</ele>
        <time>2016-08-19T08:14:10.000Z</time>
      </trkpt>
      <trkpt lat="45.79226" lon="4.88043">
        <ele>167</ele>
        <time>2016-08-19T08:14:11.000Z</time>
      </trkpt>
      <trkpt lat="45.79228" lon="4.88046">
        <ele>167</ele>
        <time>2016-08-19T08:14:12.000Z</time>
      </trkpt>
      <trkpt lat="45.7923" lon="4.88047">
        <ele>167</ele>
        <time>2016-08-19T08:14:13.000Z</time>
      </trkpt>
      <trkpt lat="45.79233" lon="4.88048">
        <ele>167</ele>
        <time>2016-08-19T08:14:14.000Z</time>
      </trkpt>
      <trkpt lat="45.79235" lon="4.8805">
        <ele>167</ele>
        <time>2016-08-19T08:14:15.000Z</time>
      </trkpt>
      <trkpt lat="45.79238" lon="4.88051">
        <ele>167</ele>
        <time>2016-08-19T08:14:16.000Z</time>
      </trkpt>
      <trkpt lat="45.7924" lon="4.88052">
        <ele>167</ele>
        <time>2016-08-19T08:14:17.000Z</time>
      </trkpt>
      <trkpt lat="45.79243" lon="4.88053">
        <ele>167</ele>
        <time>2016-08-19T08:14:18.000Z</time>
      </trkpt>
      <trkpt lat="45.79246" lon="4.88054">
        <ele>167</ele>
        <time>2016-08-19T08:14:19.000Z</time>
      </trkpt>
      <trkpt lat="45.79249" lon="4.88055">
        <ele>167</ele>
        <time>2016-08-19T08:14:20.000Z</time>
      </trkpt>
      <trkpt lat="45.79251" lon="4.88056">
        <ele>167</ele>
        <time>2016-08-19T08:14:21.000Z</time>
      </trkpt>
      <trkpt lat="45.79254" lon="4.88056">
        <ele>167</ele>
        <time>2016-08-19T08:14:22.000Z</time>
      </trkpt>
      <trkpt lat="45.79257" lon="4.88057">
        <ele>167</ele>
        <time>2016-08-19T08:14:23.000Z</time>
      </trkpt>
      <trkpt lat="45.7926" lon="4.88058">
        <ele>167</ele>
        <time>2016-08-19T08:14:24.000Z</time>
      </trkpt>
      <trkpt lat="45.79262" lon="4.88058">
        <ele>167</ele>
        <time>2016-08-19T08:14:25.000Z</time>
      </trkpt>
      <trkpt lat="45.79265" lon="4.88059">
        <ele>167</ele>
        <time>2016-08-19T08:14:26.000Z</time>
      </trkpt>
      <trkpt lat="45.79267" lon="4.88061">
        <ele>167</ele>
        <time>2016-08-19T08:14:27.000Z</time>
      </trkpt>
      <trkpt lat="45.79269" lon="4.88063">
        <ele>167</ele>
        <time>2016-08-19T08:14:28.000Z</time>
      </trkpt>
      <trkpt lat="45.79271" lon="4.88064">
        <ele>167</ele>
        <time>2016-08-19T08:14:29.000Z</time>
      </trkpt>
      <trkpt lat="45.79272" lon="4.88066">
        <ele>167</ele>
        <time>2016-08-19T08:14:30.000Z</time>
      </trkpt>
      <trkpt lat="45.79274" lon="4.88068">
        <ele>167</ele>
        <time>2016-08-19T08:14:31.000Z</time>
      </trkpt>
      <trkpt lat="45.79275" lon="4.88069">
        <ele>167</ele>
        <time>2016-08-19T08:14:32.000Z</time>
      </trkpt>
      <trkpt lat="45.79276" lon="4.88071">
        <ele>167</ele>
        <time>2016-08-19T08:14:33.000Z</time>
      </trkpt>
      <trkpt lat="45.79277" lon="4.88073">
        <ele>167</ele>
        <time>2016-08-19T08:14:34.000Z</time>
      </trkpt>
      <trkpt lat="45.79279" lon="4.88075">
        <ele>167</ele>
        <time>2016-08-19T08:14:35.000Z</time>
      </trkpt>
      <trkpt lat="45.79282" lon="4.88077">
        <ele>167</ele>
        <time>2016-08-19T08:14:36.000Z</time>
      </trkpt>
      <trkpt lat="45.79285" lon="4.88079">
        <ele>167</ele>
        <time>2016-08-19T08:14:37.000Z</time>
      </trkpt>
      <trkpt lat="45.79288" lon="4.88082">
        <ele>167</ele>
        <time>2016-08-19T08:14:38.000Z</time>
      </trkpt>
      <trkpt lat="45.7929" lon="4.88085">
        <ele>167</ele>
        <time>2016-08-19T08:14:39.000Z</time>
      </trkpt>
      <trkpt lat="45.79292" lon="4.88088">
        <ele>167</ele>
        <time>2016-08-19T08:14:40.000Z</time>
      </trkpt>
      <trkpt lat="45.79294" lon="4.88092">
        <ele>167</ele>
        <time>2016-08-19T08:14:41.000Z</time>
      </trkpt>
      <trkpt lat="45.79295" lon="4.88096">
        <ele>167</ele>
        <time>2016-08-19T08:14:42.000Z</time>
      </trkpt>
      <trkpt lat="45.79295" lon="4.88101">
        <ele>167</ele>
        <time>2016-08-19T08:14:43.000Z</time>
      </trkpt>
      <trkpt lat="45.79296" lon="4.88104">
        <ele>167</ele>
        <time>2016-08-19T08:14:44.000Z</time>
      </trkpt>
      <trkpt lat="45.79297" lon="4.88108">
        <ele>167</ele>
        <time>2016-08-19T08:14:45.000Z</time>
      </trkpt>
      <trkpt lat="45.79297" lon="4.88111">
        <ele>167</ele>
        <time>2016-08-19T08:14:46.000Z</time>
      </trkpt>
      <trkpt lat="45.79298" lon="4.88115">
        <ele>167</ele>
        <time>2016-08-19T08:14:47.000Z</time>
      </trkpt>
      <trkpt lat="45.793" lon="4.88119">
        <ele>167</ele>
        <time>2016-08-19T08:14:48.000Z</time>
      </trkpt>
      <trkpt lat="45.79301" lon="4.88123">
        <ele>167</ele>
        <time>2016-08-19T08:14:49.000Z</time>
      </trkpt>
      <trkpt lat="45.79303" lon="4.88126">
        <ele>167</ele>
        <time>2016-08-19T08:14:50.000Z</time>
      </trkpt>
      <trkpt lat="45.79304" lon="4.8813">
        <ele>167</ele>
        <time>2016-08-19T08:14:51.000Z</time>
      </trkpt>
      <trkpt lat="45.79304" lon="4.88133">
        <ele>167</ele>
        <time>2016-08-19T08:14:52.000Z</time>
      </trkpt>
      <trkpt lat="45.79306" lon="4.88136">
        <ele>167</ele>
        <time>2016-08-19T08:14:53.000Z</time>
      </trkpt>
      <trkpt lat="45.79306" lon="4.88139">
        <ele>167</ele>
        <time>2016-08-19T08:14:54.000Z</time>
      </trkpt>
      <trkpt lat="45.79307" lon="4.88143">
        <ele>167</ele>
        <time>2016-08-19T08:14:55.000Z</time>
      </trkpt>
      <trkpt lat="45.79307" lon="4.88147">
        <ele>167</ele>
        <time>2016-08-19T08:14:56.000Z</time>
      </trkpt>
      <trkpt lat="45.79308" lon="4.88151">
        <ele>167</ele>
        <time>2016-08-19T08:14:57.000Z</time>
      </trkpt>
      <trkpt lat="45.79309" lon="4.88155">
        <ele>167</ele>
        <time>2016-08-19T08:14:58.000Z</time>
      </trkpt>
      <trkpt lat="45.7931" lon="4.88159">
        <ele>167</ele>
        <time>2016-08-19T08:14:59.000Z</time>
      </trkpt>
      <trkpt lat="45.7931" lon="4.88163">
        <ele>167</ele>
        <time>2016-08-19T08:15:00.000Z</time>
      </trkpt>
      <trkpt lat="45.7931" lon="4.88168">
        <ele>167</ele>
        <time>2016-08-19T08:15:01.000Z</time>
      </trkpt>
      <trkpt lat="45.79311" lon="4.88171">
        <ele>167</ele>
        <time>2016-08-19T08:15:02.000Z</time>
      </trkpt>
      <trkpt lat="45.79311" lon="4.88175">
        <ele>167</ele>
        <time>2016-08-19T08:15:03.000Z</time>
      </trkpt>
      <trkpt lat="45.79311" lon="4.88179">
        <ele>167</ele>
        <time>2016-08-19T08:15:04.000Z</time>
      </trkpt>
      <trkpt lat="45.79311" lon="4.88184">
        <ele>167</ele>
        <time>2016-08-19T08:15:05.000Z</time>
      </trkpt>
      <trkpt lat="45.79311" lon="4.88188">
        <ele>167</ele>
        <time>2016-08-19T08:15:06.000Z</time>
      </trkpt>
      <trkpt lat="45.79311" lon="4.88192">
        <ele>167</ele>
        <time>2016-08-19T08:15:07.000Z</time>
      </trkpt>
      <trkpt lat="45.79311" lon="4.88197">
        <ele>167</ele>
        <time>2016-08-19T08:15:08.000Z</time>
      </trkpt>
      <trkpt lat="45.79311" lon="4.882">
        <ele>167</ele>
        <time>2016-08-19T08:15:09.000Z</time>
      </trkpt>
      <trkpt lat="45.79309" lon="4.88204">
        <ele>167</ele>
        <time>2016-08-19T08:15:10.000Z</time>
      </trkpt>
      <trkpt lat="45.79309" lon="4.88208">
        <ele>167</ele>
        <time>2016-08-19T08:15:11.000Z</time>
      </trkpt>
      <trkpt lat="45.79308" lon="4.88212">
        <ele>167</ele>
        <time>2016-08-19T08:15:12.000Z</time>
      </trkpt>
      <trkpt lat="45.79308" lon="4.88215">
        <ele>167.19999694824</ele>
        <time>2016-08-19T08:15:13.000Z</time>
      </trkpt>
      <trkpt lat="45.79306" lon="4.88219">
        <ele>167.19999694824</ele>
        <time>2016-08-19T08:15:14.000Z</time>
      </trkpt>
      <trkpt lat="45.79307" lon="4.88222">
        <ele>167.19999694824</ele>
        <time>2016-08-19T08:15:15.000Z</time>
      </trkpt>
      <trkpt lat="45.79307" lon="4.88225">
        <ele>167.19999694824</ele>
        <time>2016-08-19T08:15:16.000Z</time>
      </trkpt>
      <trkpt lat="45.79307" lon="4.88228">
        <ele>167.19999694824</ele>
        <time>2016-08-19T08:15:17.000Z</time>
      </trkpt>
      <trkpt lat="45.79307" lon="4.88231">
        <ele>167.19999694824</ele>
        <time>2016-08-19T08:15:18.000Z</time>
      </trkpt>
      <trkpt lat="45.79308" lon="4.88234">
        <ele>167.39999389648</ele>
        <time>2016-08-19T08:15:19.000Z</time>
      </trkpt>
      <trkpt lat="45.79308" lon="4.88237">
        <ele>167.39999389648</ele>
        <time>2016-08-19T08:15:20.000Z</time>
      </trkpt>
      <trkpt lat="45.79307" lon="4.8824">
        <ele>167.39999389648</ele>
        <time>2016-08-19T08:15:21.000Z</time>
      </trkpt>
      <trkpt lat="45.79307" lon="4.88243">
        <ele>167.39999389648</ele>
        <time>2016-08-19T08:15:22.000Z</time>
      </trkpt>
      <trkpt lat="45.79307" lon="4.88246">
        <ele>167.39999389648</ele>
        <time>2016-08-19T08:15:23.000Z</time>
      </trkpt>
      <trkpt lat="45.79307" lon="4.88249">
        <ele>167.60000610352</ele>
        <time>2016-08-19T08:15:24.000Z</time>
      </trkpt>
      <trkpt lat="45.79306" lon="4.88252">
        <ele>167.60000610352</ele>
        <time>2016-08-19T08:15:25.000Z</time>
      </trkpt>
      <trkpt lat="45.79307" lon="4.88256">
        <ele>167.60000610352</ele>
        <time>2016-08-19T08:15:26.000Z</time>
      </trkpt>
      <trkpt lat="45.79307" lon="4.88259">
        <ele>167.60000610352</ele>
        <time>2016-08-19T08:15:27.000Z</time>
      </trkpt>
      <trkpt lat="45.79307" lon="4.88262">
        <ele>167.60000610352</ele>
        <time>2016-08-19T08:15:28.000Z</time>
      </trkpt>
      <trkpt lat="45.79307" lon="4.88266">
        <ele>167.80000305176</ele>
        <time>2016-08-19T08:15:29.000Z</time>
      </trkpt>
      <trkpt lat="45.79307" lon="4.88269">
        <ele>167.80000305176</ele>
        <time>2016-08-19T08:15:30.000Z</time>
      </trkpt>
      <trkpt lat="45.79306" lon="4.88273">
        <ele>167.80000305176</ele>
        <time>2016-08-19T08:15:31.000Z</time>
      </trkpt>
      <trkpt lat="45.79306" lon="4.88276">
        <ele>167.80000305176</ele>
        <time>2016-08-19T08:15:32.000Z</time>
      </trkpt>
      <trkpt lat="45.79305" lon="4.88279">
        <ele>167.80000305176</ele>
        <time>2016-08-19T08:15:33.000Z</time>
      </trkpt>
      <trkpt lat="45.79304" lon="4.88283">
        <ele>168</ele>
        <time>2016-08-19T08:15:34.000Z</time>
      </trkpt>
      <trkpt lat="45.79304" lon="4.88286">
        <ele>168</ele>
        <time>2016-08-19T08:15:35.000Z</time>
      </trkpt>
      <trkpt lat="45.79304" lon="4.88289">
        <ele>168</ele>
        <time>2016-08-19T08:15:36.000Z</time>
      </trkpt>
      <trkpt lat="45.79303" lon="4.88293">
        <ele>168</ele>
        <time>2016-08-19T08:15:37.000Z</time>
      </trkpt>
      <trkpt lat="45.79302" lon="4.88296">
        <ele>168</ele>
        <time>2016-08-19T08:15:38.000Z</time>
      </trkpt>
      <trkpt lat="45.79301" lon="4.88299">
        <ele>168</ele>
        <time>2016-08-19T08:15:39.000Z</time>
      </trkpt>
      <trkpt lat="45.79301" lon="4.88303">
        <ele>168</ele>
        <time>2016-08-19T08:15:40.000Z</time>
      </trkpt>
      <trkpt lat="45.79299" lon="4.88306">
        <ele>168</ele>
        <time>2016-08-19T08:15:41.000Z</time>
      </trkpt>
      <trkpt lat="45.79298" lon="4.88309">
        <ele>168</ele>
        <time>2016-08-19T08:15:42.000Z</time>
      </trkpt>
      <trkpt lat="45.79296" lon="4.88311">
        <ele>168.19999694824</ele>
        <time>2016-08-19T08:15:43.000Z</time>
      </trkpt>
      <trkpt lat="45.79294" lon="4.88314">
        <ele>168.19999694824</ele>
        <time>2016-08-19T08:15:44.000Z</time>
      </trkpt>
      <trkpt lat="45.79293" lon="4.88316">
        <ele>168.19999694824</ele>
        <time>2016-08-19T08:15:45.000Z</time>
      </trkpt>
      <trkpt lat="45.79291" lon="4.88319">
        <ele>168.19999694824</ele>
        <time>2016-08-19T08:15:46.000Z</time>
      </trkpt>
      <trkpt lat="45.79289" lon="4.88322">
        <ele>168.19999694824</ele>
        <time>2016-08-19T08:15:47.000Z</time>
      </trkpt>
      <trkpt lat="45.79287" lon="4.88324">
        <ele>168.19999694824</ele>
        <time>2016-08-19T08:15:48.000Z</time>
      </trkpt>
      <trkpt lat="45.79284" lon="4.88326">
        <ele>168.19999694824</ele>
        <time>2016-08-19T08:15:49.000Z</time>
      </trkpt>
      <trkpt lat="45.79283" lon="4.88328">
        <ele>168.19999694824</ele>
        <time>2016-08-19T08:15:50.000Z</time>
      </trkpt>
      <trkpt lat="45.79281" lon="4.88329">
        <ele>168.19999694824</ele>
        <time>2016-08-19T08:15:51.000Z</time>
      </trkpt>
      <trkpt lat="45.79279" lon="4.88332">
        <ele>168.39999389648</ele>
        <time>2016-08-19T08:15:52.000Z</time>
      </trkpt>
      <trkpt lat="45.79278" lon="4.88333">
        <ele>168.39999389648</ele>
        <time>2016-08-19T08:15:53.000Z</time>
      </trkpt>
      <trkpt lat="45.79276" lon="4.88335">
        <ele>168.39999389648</ele>
        <time>2016-08-19T08:15:54.000Z</time>
      </trkpt>
      <trkpt lat="45.79273" lon="4.88337">
        <ele>168.39999389648</ele>
        <time>2016-08-19T08:15:55.000Z</time>
      </trkpt>
      <trkpt lat="45.79272" lon="4.88339">
        <ele>168.39999389648</ele>
        <time>2016-08-19T08:15:56.000Z</time>
      </trkpt>
      <trkpt lat="45.79269" lon="4.88341">
        <ele>168.39999389648</ele>
        <time>2016-08-19T08:15:57.000Z</time>
      </trkpt>
      <trkpt lat="45.79268" lon="4.88343">
        <ele>168.60000610352</ele>
        <time>2016-08-19T08:15:58.000Z</time>
      </trkpt>
      <trkpt lat="45.79266" lon="4.88345">
        <ele>168.60000610352</ele>
        <time>2016-08-19T08:15:59.000Z</time>
      </trkpt>
      <trkpt lat="45.79265" lon="4.88347">
        <ele>168.60000610352</ele>
        <time>2016-08-19T08:16:00.000Z</time>
      </trkpt>
      <trkpt lat="45.79264" lon="4.88349">
        <ele>168.80000305176</ele>
        <time>2016-08-19T08:16:01.000Z</time>
      </trkpt>
      <trkpt lat="45.79263" lon="4.88352">
        <ele>168.80000305176</ele>
        <time>2016-08-19T08:16:02.000Z</time>
      </trkpt>
      <trkpt lat="45.79261" lon="4.88354">
        <ele>168.80000305176</ele>
        <time>2016-08-19T08:16:03.000Z</time>
      </trkpt>
      <trkpt lat="45.79259" lon="4.88356">
        <ele>168.80000305176</ele>
        <time>2016-08-19T08:16:04.000Z</time>
      </trkpt>
      <trkpt lat="45.79257" lon="4.88358">
        <ele>169</ele>
        <time>2016-08-19T08:16:05.000Z</time>
      </trkpt>
      <trkpt lat="45.79256" lon="4.8836">
        <ele>169</ele>
        <time>2016-08-19T08:16:06.000Z</time>
      </trkpt>
      <trkpt lat="45.79255" lon="4.88362">
        <ele>169</ele>
        <time>2016-08-19T08:16:07.000Z</time>
      </trkpt>
      <trkpt lat="45.79253" lon="4.88364">
        <ele>169.19999694824</ele>
        <time>2016-08-19T08:16:08.000Z</time>
      </trkpt>
      <trkpt lat="45.79252" lon="4.88366">
        <ele>169.19999694824</ele>
        <time>2016-08-19T08:16:09.000Z</time>
      </trkpt>
      <trkpt lat="45.7925" lon="4.88368">
        <ele>169.19999694824</ele>
        <time>2016-08-19T08:16:10.000Z</time>
      </trkpt>
      <trkpt lat="45.79248" lon="4.8837">
        <ele>169.39999389648</ele>
        <time>2016-08-19T08:16:11.000Z</time>
      </trkpt>
      <trkpt lat="45.79246" lon="4.88372">
        <ele>169.39999389648</ele>
        <time>2016-08-19T08:16:12.000Z</time>
      </trkpt>
      <trkpt lat="45.79245" lon="4.88375">
        <ele>169.39999389648</ele>
        <time>2016-08-19T08:16:13.000Z</time>
      </trkpt>
      <trkpt lat="45.79243" lon="4.88377">
        <ele>169.39999389648</ele>
        <time>2016-08-19T08:16:14.000Z</time>
      </trkpt>
      <trkpt lat="45.79242" lon="4.8838">
        <ele>169.60000610352</ele>
        <time>2016-08-19T08:16:15.000Z</time>
      </trkpt>
      <trkpt lat="45.79241" lon="4.88382">
        <ele>169.60000610352</ele>
        <time>2016-08-19T08:16:16.000Z</time>
      </trkpt>
      <trkpt lat="45.7924" lon="4.88385">
        <ele>169.60000610352</ele>
        <time>2016-08-19T08:16:17.000Z</time>
      </trkpt>
      <trkpt lat="45.7924" lon="4.88388">
        <ele>169.60000610352</ele>
        <time>2016-08-19T08:16:18.000Z</time>
      </trkpt>
      <trkpt lat="45.79239" lon="4.88391">
        <ele>169.60000610352</ele>
        <time>2016-08-19T08:16:19.000Z</time>
      </trkpt>
      <trkpt lat="45.79238" lon="4.88394">
        <ele>169.60000610352</ele>
        <time>2016-08-19T08:16:20.000Z</time>
      </trkpt>
      <trkpt lat="45.79236" lon="4.88396">
        <ele>169.39999389648</ele>
        <time>2016-08-19T08:16:21.000Z</time>
      </trkpt>
      <trkpt lat="45.79234" lon="4.88399">
        <ele>169.39999389648</ele>
        <time>2016-08-19T08:16:22.000Z</time>
      </trkpt>
      <trkpt lat="45.79232" lon="4.88401">
        <ele>169.39999389648</ele>
        <time>2016-08-19T08:16:23.000Z</time>
      </trkpt>
      <trkpt lat="45.79231" lon="4.88403">
        <ele>169.19999694824</ele>
        <time>2016-08-19T08:16:24.000Z</time>
      </trkpt>
      <trkpt lat="45.7923" lon="4.88405">
        <ele>169.19999694824</ele>
        <time>2016-08-19T08:16:25.000Z</time>
      </trkpt>
      <trkpt lat="45.79228" lon="4.88407">
        <ele>169.19999694824</ele>
        <time>2016-08-19T08:16:26.000Z</time>
      </trkpt>
      <trkpt lat="45.79227" lon="4.8841">
        <ele>169.19999694824</ele>
        <time>2016-08-19T08:16:27.000Z</time>
      </trkpt>
      <trkpt lat="45.79224" lon="4.88413">
        <ele>169</ele>
        <time>2016-08-19T08:16:28.000Z</time>
      </trkpt>
      <trkpt lat="45.79223" lon="4.88416">
        <ele>169</ele>
        <time>2016-08-19T08:16:29.000Z</time>
      </trkpt>
      <trkpt lat="45.79222" lon="4.88419">
        <ele>169</ele>
        <time>2016-08-19T08:16:30.000Z</time>
      </trkpt>
      <trkpt lat="45.7922" lon="4.88422">
        <ele>168.80000305176</ele>
        <time>2016-08-19T08:16:31.000Z</time>
      </trkpt>
      <trkpt lat="45.79219" lon="4.88424">
        <ele>168.80000305176</ele>
        <time>2016-08-19T08:16:32.000Z</time>
      </trkpt>
      <trkpt lat="45.79216" lon="4.88427">
        <ele>168.80000305176</ele>
        <time>2016-08-19T08:16:33.000Z</time>
      </trkpt>
      <trkpt lat="45.79216" lon="4.88429">
        <ele>168.80000305176</ele>
        <time>2016-08-19T08:16:34.000Z</time>
      </trkpt>
      <trkpt lat="45.79215" lon="4.88431">
        <ele>168.80000305176</ele>
        <time>2016-08-19T08:16:35.000Z</time>
      </trkpt>
      <trkpt lat="45.79214" lon="4.88435">
        <ele>168.80000305176</ele>
        <time>2016-08-19T08:16:36.000Z</time>
      </trkpt>
      <trkpt lat="45.79212" lon="4.88437">
        <ele>168.80000305176</ele>
        <time>2016-08-19T08:16:37.000Z</time>
      </trkpt>
      <trkpt lat="45.79211" lon="4.8844">
        <ele>168.80000305176</ele>
        <time>2016-08-19T08:16:38.000Z</time>
      </trkpt>
      <trkpt lat="45.79209" lon="4.88442">
        <ele>168.80000305176</ele>
        <time>2016-08-19T08:16:39.000Z</time>
      </trkpt>
      <trkpt lat="45.79207" lon="4.88444">
        <ele>168.80000305176</ele>
        <time>2016-08-19T08:16:40.000Z</time>
      </trkpt>
      <trkpt lat="45.79204" lon="4.88447">
        <ele>168.80000305176</ele>
        <time>2016-08-19T08:16:41.000Z</time>
      </trkpt>
      <trkpt lat="45.79202" lon="4.88449">
        <ele>168.80000305176</ele>
        <time>2016-08-19T08:16:42.000Z</time>
      </trkpt>
      <trkpt lat="45.792" lon="4.88451">
        <ele>169</ele>
        <time>2016-08-19T08:16:43.000Z</time>
      </trkpt>
      <trkpt lat="45.79198" lon="4.88454">
        <ele>169</ele>
        <time>2016-08-19T08:16:44.000Z</time>
      </trkpt>
      <trkpt lat="45.79196" lon="4.88456">
        <ele>169</ele>
        <time>2016-08-19T08:16:45.000Z</time>
      </trkpt>
      <trkpt lat="45.79194" lon="4.88459">
        <ele>169</ele>
        <time>2016-08-19T08:16:46.000Z</time>
      </trkpt>
      <trkpt lat="45.79192" lon="4.88461">
        <ele>169</ele>
        <time>2016-08-19T08:16:47.000Z</time>
      </trkpt>
      <trkpt lat="45.7919" lon="4.88464">
        <ele>169.19999694824</ele>
        <time>2016-08-19T08:16:48.000Z</time>
      </trkpt>
      <trkpt lat="45.79188" lon="4.88467">
        <ele>169.19999694824</ele>
        <time>2016-08-19T08:16:49.000Z</time>
      </trkpt>
      <trkpt lat="45.79186" lon="4.88469">
        <ele>169.19999694824</ele>
        <time>2016-08-19T08:16:50.000Z</time>
      </trkpt>
      <trkpt lat="45.79184" lon="4.88472">
        <ele>169.39999389648</ele>
        <time>2016-08-19T08:16:51.000Z</time>
      </trkpt>
      <trkpt lat="45.79182" lon="4.88474">
        <ele>169.39999389648</ele>
        <time>2016-08-19T08:16:52.000Z</time>
      </trkpt>
      <trkpt lat="45.79179" lon="4.88477">
        <ele>169.60000610352</ele>
        <time>2016-08-19T08:16:53.000Z</time>
      </trkpt>
      <trkpt lat="45.79178" lon="4.8848">
        <ele>169.60000610352</ele>
        <time>2016-08-19T08:16:54.000Z</time>
      </trkpt>
      <trkpt lat="45.79175" lon="4.88483">
        <ele>169.60000610352</ele>
        <time>2016-08-19T08:16:55.000Z</time>
      </trkpt>
      <trkpt lat="45.79173" lon="4.88486">
        <ele>169.80000305176</ele>
        <time>2016-08-19T08:16:56.000Z</time>
      </trkpt>
      <trkpt lat="45.7917" lon="4.88489">
        <ele>169.80000305176</ele>
        <time>2016-08-19T08:16:57.000Z</time>
      </trkpt>
      <trkpt lat="45.79168" lon="4.88492">
        <ele>169.80000305176</ele>
        <time>2016-08-19T08:16:58.000Z</time>
      </trkpt>
      <trkpt lat="45.79165" lon="4.88494">
        <ele>169.60000610352</ele>
        <time>2016-08-19T08:16:59.000Z</time>
      </trkpt>
      <trkpt lat="45.79163" lon="4.88496">
        <ele>169.60000610352</ele>
        <time>2016-08-19T08:17:00.000Z</time>
      </trkpt>
      <trkpt lat="45.79161" lon="4.88498">
        <ele>169.39999389648</ele>
        <time>2016-08-19T08:17:01.000Z</time>
      </trkpt>
      <trkpt lat="45.79159" lon="4.88501">
        <ele>169.39999389648</ele>
        <time>2016-08-19T08:17:02.000Z</time>
      </trkpt>
      <trkpt lat="45.79157" lon="4.88503">
        <ele>169.39999389648</ele>
        <time>2016-08-19T08:17:03.000Z</time>
      </trkpt>
      <trkpt lat="45.79156" lon="4.88505">
        <ele>169.19999694824</ele>
        <time>2016-08-19T08:17:04.000Z</time>
      </trkpt>
      <trkpt lat="45.79155" lon="4.88506">
        <ele>169.19999694824</ele>
        <time>2016-08-19T08:17:05.000Z</time>
      </trkpt>
      <trkpt lat="45.79153" lon="4.88507">
        <ele>169.19999694824</ele>
        <time>2016-08-19T08:17:06.000Z</time>
      </trkpt>
      <trkpt lat="45.79151" lon="4.88509">
        <ele>169.19999694824</ele>
        <time>2016-08-19T08:17:07.000Z</time>
      </trkpt>
      <trkpt lat="45.7915" lon="4.8851">
        <ele>169</ele>
        <time>2016-08-19T08:17:08.000Z</time>
      </trkpt>
      <trkpt lat="45.7915" lon="4.88511">
        <ele>169</ele>
        <time>2016-08-19T08:17:09.000Z</time>
      </trkpt>
      <trkpt lat="45.79148" lon="4.88513">
        <ele>169</ele>
        <time>2016-08-19T08:17:10.000Z</time>
      </trkpt>
      <trkpt lat="45.79146" lon="4.88516">
        <ele>168.80000305176</ele>
        <time>2016-08-19T08:17:11.000Z</time>
      </trkpt>
      <trkpt lat="45.79145" lon="4.88518">
        <ele>168.80000305176</ele>
        <time>2016-08-19T08:17:12.000Z</time>
      </trkpt>
      <trkpt lat="45.79143" lon="4.88519">
        <ele>168.80000305176</ele>
        <time>2016-08-19T08:17:13.000Z</time>
      </trkpt>
      <trkpt lat="45.79142" lon="4.88521">
        <ele>168.60000610352</ele>
        <time>2016-08-19T08:17:14.000Z</time>
      </trkpt>
      <trkpt lat="45.7914" lon="4.88523">
        <ele>168.60000610352</ele>
        <time>2016-08-19T08:17:15.000Z</time>
      </trkpt>
      <trkpt lat="45.79137" lon="4.88524">
        <ele>168.60000610352</ele>
        <time>2016-08-19T08:17:16.000Z</time>
      </trkpt>
      <trkpt lat="45.79134" lon="4.88527">
        <ele>168.60000610352</ele>
        <time>2016-08-19T08:17:17.000Z</time>
      </trkpt>
      <trkpt lat="45.79132" lon="4.88529">
        <ele>168.39999389648</ele>
        <time>2016-08-19T08:17:18.000Z</time>
      </trkpt>
      <trkpt lat="45.7913" lon="4.88531">
        <ele>168.39999389648</ele>
        <time>2016-08-19T08:17:19.000Z</time>
      </trkpt>
      <trkpt lat="45.79129" lon="4.88532">
        <ele>168.39999389648</ele>
        <time>2016-08-19T08:17:20.000Z</time>
      </trkpt>
      <trkpt lat="45.79127" lon="4.88534">
        <ele>168.39999389648</ele>
        <time>2016-08-19T08:17:21.000Z</time>
      </trkpt>
      <trkpt lat="45.79124" lon="4.88536">
        <ele>168.60000610352</ele>
        <time>2016-08-19T08:17:22.000Z</time>
      </trkpt>
      <trkpt lat="45.79122" lon="4.88538">
        <ele>168.60000610352</ele>
        <time>2016-08-19T08:17:23.000Z</time>
      </trkpt>
      <trkpt lat="45.7912" lon="4.8854">
        <ele>168.60000610352</ele>
        <time>2016-08-19T08:17:24.000Z</time>
      </trkpt>
      <trkpt lat="45.79118" lon="4.88541">
        <ele>168.80000305176</ele>
        <time>2016-08-19T08:17:25.000Z</time>
      </trkpt>
      <trkpt lat="45.79116" lon="4.88543">
        <ele>168.80000305176</ele>
        <time>2016-08-19T08:17:26.000Z</time>
      </trkpt>
      <trkpt lat="45.79114" lon="4.88544">
        <ele>168.80000305176</ele>
        <time>2016-08-19T08:17:27.000Z</time>
      </trkpt>
      <trkpt lat="45.79112" lon="4.88545">
        <ele>169</ele>
        <time>2016-08-19T08:17:28.000Z</time>
      </trkpt>
      <trkpt lat="45.7911" lon="4.88547">
        <ele>169</ele>
        <time>2016-08-19T08:17:29.000Z</time>
      </trkpt>
      <trkpt lat="45.79108" lon="4.88549">
        <ele>169</ele>
        <time>2016-08-19T08:17:30.000Z</time>
      </trkpt>
      <trkpt lat="45.79106" lon="4.88552">
        <ele>169.19999694824</ele>
        <time>2016-08-19T08:17:31.000Z</time>
      </trkpt>
      <trkpt lat="45.79104" lon="4.88554">
        <ele>169.19999694824</ele>
        <time>2016-08-19T08:17:32.000Z</time>
      </trkpt>
      <trkpt lat="45.79102" lon="4.88556">
        <ele>169.39999389648</ele>
        <time>2016-08-19T08:17:33.000Z</time>
      </trkpt>
      <trkpt lat="45.79099" lon="4.88559">
        <ele>169.39999389648</ele>
        <time>2016-08-19T08:17:34.000Z</time>
      </trkpt>
      <trkpt lat="45.79097" lon="4.88561">
        <ele>169.60000610352</ele>
        <time>2016-08-19T08:17:35.000Z</time>
      </trkpt>
      <trkpt lat="45.79094" lon="4.88563">
        <ele>169.60000610352</ele>
        <time>2016-08-19T08:17:36.000Z</time>
      </trkpt>
      <trkpt lat="45.79091" lon="4.88565">
        <ele>169.60000610352</ele>
        <time>2016-08-19T08:17:37.000Z</time>
      </trkpt>
      <trkpt lat="45.79089" lon="4.88568">
        <ele>169.80000305176</ele>
        <time>2016-08-19T08:17:38.000Z</time>
      </trkpt>
      <trkpt lat="45.79087" lon="4.8857">
        <ele>169.80000305176</ele>
        <time>2016-08-19T08:17:39.000Z</time>
      </trkpt>
      <trkpt lat="45.79085" lon="4.88572">
        <ele>170</ele>
        <time>2016-08-19T08:17:40.000Z</time>
      </trkpt>
      <trkpt lat="45.79083" lon="4.88575">
        <ele>170</ele>
        <time>2016-08-19T08:17:41.000Z</time>
      </trkpt>
      <trkpt lat="45.79081" lon="4.88577">
        <ele>170.19999694824</ele>
        <time>2016-08-19T08:17:42.000Z</time>
      </trkpt>
      <trkpt lat="45.7908" lon="4.88579">
        <ele>170.19999694824</ele>
        <time>2016-08-19T08:17:43.000Z</time>
      </trkpt>
      <trkpt lat="45.79079" lon="4.88581">
        <ele>170.39999389648</ele>
        <time>2016-08-19T08:17:44.000Z</time>
      </trkpt>
      <trkpt lat="45.79077" lon="4.88582">
        <ele>170.39999389648</ele>
        <time>2016-08-19T08:17:45.000Z</time>
      </trkpt>
      <trkpt lat="45.79076" lon="4.88584">
        <ele>170.60000610352</ele>
        <time>2016-08-19T08:17:46.000Z</time>
      </trkpt>
      <trkpt lat="45.79074" lon="4.88586">
        <ele>170.60000610352</ele>
        <time>2016-08-19T08:17:47.000Z</time>
      </trkpt>
      <trkpt lat="45.79072" lon="4.88587">
        <ele>170.80000305176</ele>
        <time>2016-08-19T08:17:48.000Z</time>
      </trkpt>
      <trkpt lat="45.7907" lon="4.88589">
        <ele>170.80000305176</ele>
        <time>2016-08-19T08:17:49.000Z</time>
      </trkpt>
      <trkpt lat="45.79068" lon="4.88591">
        <ele>171</ele>
        <time>2016-08-19T08:17:50.000Z</time>
      </trkpt>
      <trkpt lat="45.79066" lon="4.88593">
        <ele>171.19999694824</ele>
        <time>2016-08-19T08:17:51.000Z</time>
      </trkpt>
      <trkpt lat="45.79064" lon="4.88594">
        <ele>171.19999694824</ele>
        <time>2016-08-19T08:17:52.000Z</time>
      </trkpt>
      <trkpt lat="45.79062" lon="4.88596">
        <ele>171.39999389648</ele>
        <time>2016-08-19T08:17:53.000Z</time>
      </trkpt>
      <trkpt lat="45.7906" lon="4.88598">
        <ele>171.39999389648</ele>
        <time>2016-08-19T08:17:54.000Z</time>
      </trkpt>
      <trkpt lat="45.79058" lon="4.886">
        <ele>171.60000610352</ele>
        <time>2016-08-19T08:17:55.000Z</time>
      </trkpt>
      <trkpt lat="45.79056" lon="4.88602">
        <ele>171.60000610352</ele>
        <time>2016-08-19T08:17:56.000Z</time>
      </trkpt>
      <trkpt lat="45.79054" lon="4.88604">
        <ele>171.80000305176</ele>
        <time>2016-08-19T08:17:57.000Z</time>
      </trkpt>
      <trkpt lat="45.79052" lon="4.88607">
        <ele>171.80000305176</ele>
        <time>2016-08-19T08:17:58.000Z</time>
      </trkpt>
      <trkpt lat="45.7905" lon="4.88608">
        <ele>172</ele>
        <time>2016-08-19T08:17:59.000Z</time>
      </trkpt>
      <trkpt lat="45.79048" lon="4.8861">
        <ele>172</ele>
        <time>2016-08-19T08:18:00.000Z</time>
      </trkpt>
      <trkpt lat="45.79046" lon="4.88611">
        <ele>172</ele>
        <time>2016-08-19T08:18:01.000Z</time>
      </trkpt>
      <trkpt lat="45.79044" lon="4.88613">
        <ele>172.19999694824</ele>
        <time>2016-08-19T08:18:02.000Z</time>
      </trkpt>
      <trkpt lat="45.79042" lon="4.88615">
        <ele>172.19999694824</ele>
        <time>2016-08-19T08:18:03.000Z</time>
      </trkpt>
      <trkpt lat="45.7904" lon="4.88617">
        <ele>172</ele>
        <time>2016-08-19T08:18:04.000Z</time>
      </trkpt>
      <trkpt lat="45.79037" lon="4.88619">
        <ele>172</ele>
        <time>2016-08-19T08:18:05.000Z</time>
      </trkpt>
      <trkpt lat="45.79035" lon="4.88621">
        <ele>172</ele>
        <time>2016-08-19T08:18:06.000Z</time>
      </trkpt>
      <trkpt lat="45.79033" lon="4.88623">
        <ele>172</ele>
        <time>2016-08-19T08:18:07.000Z</time>
      </trkpt>
      <trkpt lat="45.79031" lon="4.88625">
        <ele>172</ele>
        <time>2016-08-19T08:18:08.000Z</time>
      </trkpt>
      <trkpt lat="45.79029" lon="4.88627">
        <ele>172</ele>
        <time>2016-08-19T08:18:09.000Z</time>
      </trkpt>
      <trkpt lat="45.79027" lon="4.88629">
        <ele>172.19999694824</ele>
        <time>2016-08-19T08:18:10.000Z</time>
      </trkpt>
      <trkpt lat="45.79025" lon="4.88631">
        <ele>172.19999694824</ele>
        <time>2016-08-19T08:18:11.000Z</time>
      </trkpt>
      <trkpt lat="45.79023" lon="4.88632">
        <ele>172.19999694824</ele>
        <time>2016-08-19T08:18:12.000Z</time>
      </trkpt>
      <trkpt lat="45.79021" lon="4.88634">
        <ele>172.19999694824</ele>
        <time>2016-08-19T08:18:13.000Z</time>
      </trkpt>
      <trkpt lat="45.79019" lon="4.88636">
        <ele>172.39999389648</ele>
        <time>2016-08-19T08:18:14.000Z</time>
      </trkpt>
      <trkpt lat="45.79017" lon="4.88638">
        <ele>172.39999389648</ele>
        <time>2016-08-19T08:18:15.000Z</time>
      </trkpt>
      <trkpt lat="45.79015" lon="4.8864">
        <ele>172.39999389648</ele>
        <time>2016-08-19T08:18:16.000Z</time>
      </trkpt>
      <trkpt lat="45.79013" lon="4.88641">
        <ele>172.39999389648</ele>
        <time>2016-08-19T08:18:17.000Z</time>
      </trkpt>
      <trkpt lat="45.79011" lon="4.88643">
        <ele>172.39999389648</ele>
        <time>2016-08-19T08:18:18.000Z</time>
      </trkpt>
      <trkpt lat="45.79009" lon="4.88645">
        <ele>172.60000610352</ele>
        <time>2016-08-19T08:18:19.000Z</time>
      </trkpt>
      <trkpt lat="45.79008" lon="4.88646">
        <ele>172.60000610352</ele>
        <time>2016-08-19T08:18:20.000Z</time>
      </trkpt>
      <trkpt lat="45.79006" lon="4.88647">
        <ele>172.60000610352</ele>
        <time>2016-08-19T08:18:21.000Z</time>
      </trkpt>
      <trkpt lat="45.79005" lon="4.88648">
        <ele>172.60000610352</ele>
        <time>2016-08-19T08:18:22.000Z</time>
      </trkpt>
      <trkpt lat="45.79002" lon="4.8865">
        <ele>172.60000610352</ele>
        <time>2016-08-19T08:18:23.000Z</time>
      </trkpt>
      <trkpt lat="45.79" lon="4.88652">
        <ele>172.60000610352</ele>
        <time>2016-08-19T08:18:24.000Z</time>
      </trkpt>
      <trkpt lat="45.78999" lon="4.88653">
        <ele>172.60000610352</ele>
        <time>2016-08-19T08:18:25.000Z</time>
      </trkpt>
      <trkpt lat="45.78997" lon="4.88655">
        <ele>172.60000610352</ele>
        <time>2016-08-19T08:18:26.000Z</time>
      </trkpt>
      <trkpt lat="45.78996" lon="4.88656">
        <ele>172.60000610352</ele>
        <time>2016-08-19T08:18:27.000Z</time>
      </trkpt>
      <trkpt lat="45.78994" lon="4.88657">
        <ele>172.60000610352</ele>
        <time>2016-08-19T08:18:28.000Z</time>
      </trkpt>
      <trkpt lat="45.78992" lon="4.88659">
        <ele>172.39999389648</ele>
        <time>2016-08-19T08:18:29.000Z</time>
      </trkpt>
      <trkpt lat="45.7899" lon="4.8866">
        <ele>172.39999389648</ele>
        <time>2016-08-19T08:18:30.000Z</time>
      </trkpt>
      <trkpt lat="45.78988" lon="4.88662">
        <ele>172.39999389648</ele>
        <time>2016-08-19T08:18:31.000Z</time>
      </trkpt>
      <trkpt lat="45.78986" lon="4.88663">
        <ele>172.39999389648</ele>
        <time>2016-08-19T08:18:32.000Z</time>
      </trkpt>
      <trkpt lat="45.78984" lon="4.88665">
        <ele>172.39999389648</ele>
        <time>2016-08-19T08:18:33.000Z</time>
      </trkpt>
      <trkpt lat="45.78982" lon="4.88668">
        <ele>172.19999694824</ele>
        <time>2016-08-19T08:18:34.000Z</time>
      </trkpt>
      <trkpt lat="45.7898" lon="4.8867">
        <ele>172.19999694824</ele>
        <time>2016-08-19T08:18:35.000Z</time>
      </trkpt>
      <trkpt lat="45.78978" lon="4.88672">
        <ele>172.19999694824</ele>
        <time>2016-08-19T08:18:36.000Z</time>
      </trkpt>
      <trkpt lat="45.78975" lon="4.88675">
        <ele>172</ele>
        <time>2016-08-19T08:18:37.000Z</time>
      </trkpt>
      <trkpt lat="45.78972" lon="4.88678">
        <ele>172</ele>
        <time>2016-08-19T08:18:38.000Z</time>
      </trkpt>
      <trkpt lat="45.7897" lon="4.8868">
        <ele>172</ele>
        <time>2016-08-19T08:18:39.000Z</time>
      </trkpt>
      <trkpt lat="45.78968" lon="4.88683">
        <ele>172</ele>
        <time>2016-08-19T08:18:40.000Z</time>
      </trkpt>
      <trkpt lat="45.78967" lon="4.88685">
        <ele>172.19999694824</ele>
        <time>2016-08-19T08:18:41.000Z</time>
      </trkpt>
      <trkpt lat="45.78966" lon="4.88686">
        <ele>172.19999694824</ele>
        <time>2016-08-19T08:18:42.000Z</time>
      </trkpt>
      <trkpt lat="45.78965" lon="4.88689">
        <ele>172.19999694824</ele>
        <time>2016-08-19T08:18:43.000Z</time>
      </trkpt>
      <trkpt lat="45.78963" lon="4.88692">
        <ele>172.19999694824</ele>
        <time>2016-08-19T08:18:44.000Z</time>
      </trkpt>
      <trkpt lat="45.78962" lon="4.88695">
        <ele>172.19999694824</ele>
        <time>2016-08-19T08:18:45.000Z</time>
      </trkpt>
      <trkpt lat="45.7896" lon="4.88698">
        <ele>172.19999694824</ele>
        <time>2016-08-19T08:18:46.000Z</time>
      </trkpt>
      <trkpt lat="45.78958" lon="4.887">
        <ele>172</ele>
        <time>2016-08-19T08:18:47.000Z</time>
      </trkpt>
      <trkpt lat="45.78956" lon="4.88702">
        <ele>171.80000305176</ele>
        <time>2016-08-19T08:18:48.000Z</time>
      </trkpt>
      <trkpt lat="45.78954" lon="4.88705">
        <ele>171.60000610352</ele>
        <time>2016-08-19T08:18:49.000Z</time>
      </trkpt>
      <trkpt lat="45.78953" lon="4.88707">
        <ele>171.60000610352</ele>
        <time>2016-08-19T08:18:50.000Z</time>
      </trkpt>
      <trkpt lat="45.78952" lon="4.88709">
        <ele>171.60000610352</ele>
        <time>2016-08-19T08:18:51.000Z</time>
      </trkpt>
      <trkpt lat="45.7895" lon="4.8871">
        <ele>171.60000610352</ele>
        <time>2016-08-19T08:18:52.000Z</time>
      </trkpt>
      <trkpt lat="45.78949" lon="4.88712">
        <ele>171.60000610352</ele>
        <time>2016-08-19T08:18:53.000Z</time>
      </trkpt>
      <trkpt lat="45.78947" lon="4.88714">
        <ele>171.60000610352</ele>
        <time>2016-08-19T08:18:54.000Z</time>
      </trkpt>
      <trkpt lat="45.78946" lon="4.88716">
        <ele>171.60000610352</ele>
        <time>2016-08-19T08:18:55.000Z</time>
      </trkpt>
      <trkpt lat="45.78944" lon="4.88718">
        <ele>171.39999389648</ele>
        <time>2016-08-19T08:18:56.000Z</time>
      </trkpt>
      <trkpt lat="45.78942" lon="4.88722">
        <ele>171.39999389648</ele>
        <time>2016-08-19T08:18:57.000Z</time>
      </trkpt>
      <trkpt lat="45.7894" lon="4.88724">
        <ele>171.39999389648</ele>
        <time>2016-08-19T08:18:58.000Z</time>
      </trkpt>
      <trkpt lat="45.78938" lon="4.88726">
        <ele>171.39999389648</ele>
        <time>2016-08-19T08:18:59.000Z</time>
      </trkpt>
      <trkpt lat="45.78936" lon="4.88728">
        <ele>171.39999389648</ele>
        <time>2016-08-19T08:19:00.000Z</time>
      </trkpt>
      <trkpt lat="45.78934" lon="4.88731">
        <ele>171.39999389648</ele>
        <time>2016-08-19T08:19:01.000Z</time>
      </trkpt>
      <trkpt lat="45.78931" lon="4.88733">
        <ele>171.39999389648</ele>
        <time>2016-08-19T08:19:02.000Z</time>
      </trkpt>
      <trkpt lat="45.78928" lon="4.88735">
        <ele>171.39999389648</ele>
        <time>2016-08-19T08:19:03.000Z</time>
      </trkpt>
      <trkpt lat="45.78926" lon="4.88738">
        <ele>171.19999694824</ele>
        <time>2016-08-19T08:19:04.000Z</time>
      </trkpt>
      <trkpt lat="45.78924" lon="4.88741">
        <ele>171.19999694824</ele>
        <time>2016-08-19T08:19:05.000Z</time>
      </trkpt>
      <trkpt lat="45.78922" lon="4.88743">
        <ele>171.19999694824</ele>
        <time>2016-08-19T08:19:06.000Z</time>
      </trkpt>
      <trkpt lat="45.78921" lon="4.88745">
        <ele>171</ele>
        <time>2016-08-19T08:19:07.000Z</time>
      </trkpt>
      <trkpt lat="45.78919" lon="4.88746">
        <ele>171</ele>
        <time>2016-08-19T08:19:08.000Z</time>
      </trkpt>
      <trkpt lat="45.78918" lon="4.88748">
        <ele>170.80000305176</ele>
        <time>2016-08-19T08:19:09.000Z</time>
      </trkpt>
      <trkpt lat="45.78917" lon="4.88749">
        <ele>170.80000305176</ele>
        <time>2016-08-19T08:19:10.000Z</time>
      </trkpt>
      <trkpt lat="45.78916" lon="4.88751">
        <ele>170.60000610352</ele>
        <time>2016-08-19T08:19:11.000Z</time>
      </trkpt>
      <trkpt lat="45.78915" lon="4.88752">
        <ele>170.39999389648</ele>
        <time>2016-08-19T08:19:12.000Z</time>
      </trkpt>
      <trkpt lat="45.78913" lon="4.88754">
        <ele>170.39999389648</ele>
        <time>2016-08-19T08:19:13.000Z</time>
      </trkpt>
      <trkpt lat="45.78912" lon="4.88757">
        <ele>170.19999694824</ele>
        <time>2016-08-19T08:19:14.000Z</time>
      </trkpt>
      <trkpt lat="45.7891" lon="4.88759">
        <ele>170</ele>
        <time>2016-08-19T08:19:15.000Z</time>
      </trkpt>
      <trkpt lat="45.78908" lon="4.88761">
        <ele>170</ele>
        <time>2016-08-19T08:19:16.000Z</time>
      </trkpt>
      <trkpt lat="45.78906" lon="4.88764">
        <ele>169.60000610352</ele>
        <time>2016-08-19T08:19:17.000Z</time>
      </trkpt>
      <trkpt lat="45.78904" lon="4.88767">
        <ele>169.39999389648</ele>
        <time>2016-08-19T08:19:18.000Z</time>
      </trkpt>
      <trkpt lat="45.78902" lon="4.88769">
        <ele>169.39999389648</ele>
        <time>2016-08-19T08:19:19.000Z</time>
      </trkpt>
      <trkpt lat="45.789" lon="4.88772">
        <ele>169.19999694824</ele>
        <time>2016-08-19T08:19:20.000Z</time>
      </trkpt>
      <trkpt lat="45.78898" lon="4.88775">
        <ele>169</ele>
        <time>2016-08-19T08:19:21.000Z</time>
      </trkpt>
      <trkpt lat="45.78896" lon="4.88777">
        <ele>168.80000305176</ele>
        <time>2016-08-19T08:19:22.000Z</time>
      </trkpt>
      <trkpt lat="45.78893" lon="4.88781">
        <ele>168.60000610352</ele>
        <time>2016-08-19T08:19:23.000Z</time>
      </trkpt>
      <trkpt lat="45.78892" lon="4.88783">
        <ele>168.39999389648</ele>
        <time>2016-08-19T08:19:24.000Z</time>
      </trkpt>
      <trkpt lat="45.78891" lon="4.88785">
        <ele>168.19999694824</ele>
        <time>2016-08-19T08:19:25.000Z</time>
      </trkpt>
      <trkpt lat="45.78889" lon="4.88788">
        <ele>168.19999694824</ele>
        <time>2016-08-19T08:19:26.000Z</time>
      </trkpt>
      <trkpt lat="45.78887" lon="4.8879">
        <ele>168</ele>
        <time>2016-08-19T08:19:27.000Z</time>
      </trkpt>
      <trkpt lat="45.78886" lon="4.88793">
        <ele>168</ele>
        <time>2016-08-19T08:19:28.000Z</time>
      </trkpt>
      <trkpt lat="45.78883" lon="4.88796">
        <ele>168.19999694824</ele>
        <time>2016-08-19T08:19:29.000Z</time>
      </trkpt>
      <trkpt lat="45.78881" lon="4.88799">
        <ele>168.19999694824</ele>
        <time>2016-08-19T08:19:30.000Z</time>
      </trkpt>
      <trkpt lat="45.7888" lon="4.88801">
        <ele>168.39999389648</ele>
        <time>2016-08-19T08:19:31.000Z</time>
      </trkpt>
      <trkpt lat="45.78877" lon="4.88806">
        <ele>168.39999389648</ele>
        <time>2016-08-19T08:19:32.000Z</time>
      </trkpt>
      <trkpt lat="45.78874" lon="4.88809">
        <ele>168.60000610352</ele>
        <time>2016-08-19T08:19:33.000Z</time>
      </trkpt>
      <trkpt lat="45.78872" lon="4.88813">
        <ele>168.60000610352</ele>
        <time>2016-08-19T08:19:34.000Z</time>
      </trkpt>
      <trkpt lat="45.78869" lon="4.88817">
        <ele>168.80000305176</ele>
        <time>2016-08-19T08:19:35.000Z</time>
      </trkpt>
      <trkpt lat="45.78866" lon="4.88821">
        <ele>169</ele>
        <time>2016-08-19T08:19:36.000Z</time>
      </trkpt>
      <trkpt lat="45.78863" lon="4.88824">
        <ele>169</ele>
        <time>2016-08-19T08:19:37.000Z</time>
      </trkpt>
      <trkpt lat="45.78861" lon="4.88828">
        <ele>169.19999694824</ele>
        <time>2016-08-19T08:19:38.000Z</time>
      </trkpt>
      <trkpt lat="45.78859" lon="4.88831">
        <ele>169.19999694824</ele>
        <time>2016-08-19T08:19:39.000Z</time>
      </trkpt>
      <trkpt lat="45.78857" lon="4.88834">
        <ele>169.19999694824</ele>
        <time>2016-08-19T08:19:40.000Z</time>
      </trkpt>
      <trkpt lat="45.78857" lon="4.88836">
        <ele>169.39999389648</ele>
        <time>2016-08-19T08:19:41.000Z</time>
      </trkpt>
      <trkpt lat="45.78856" lon="4.88839">
        <ele>169.39999389648</ele>
        <time>2016-08-19T08:19:42.000Z</time>
      </trkpt>
      <trkpt lat="45.78855" lon="4.88842">
        <ele>169.39999389648</ele>
        <time>2016-08-19T08:19:43.000Z</time>
      </trkpt>
      <trkpt lat="45.78855" lon="4.88844">
        <ele>169.60000610352</ele>
        <time>2016-08-19T08:19:44.000Z</time>
      </trkpt>
      <trkpt lat="45.78854" lon="4.88846">
        <ele>170</ele>
        <time>2016-08-19T08:19:45.000Z</time>
      </trkpt>
      <trkpt lat="45.78854" lon="4.88848">
        <ele>170</ele>
        <time>2016-08-19T08:19:46.000Z</time>
      </trkpt>
      <trkpt lat="45.78853" lon="4.88849">
        <ele>170.19999694824</ele>
        <time>2016-08-19T08:19:47.000Z</time>
      </trkpt>
      <trkpt lat="45.78852" lon="4.88852">
        <ele>170.39999389648</ele>
        <time>2016-08-19T08:19:48.000Z</time>
      </trkpt>
      <trkpt lat="45.78851" lon="4.88854">
        <ele>170.60000610352</ele>
        <time>2016-08-19T08:19:49.000Z</time>
      </trkpt>
      <trkpt lat="45.78851" lon="4.88856">
        <ele>170.80000305176</ele>
        <time>2016-08-19T08:19:50.000Z</time>
      </trkpt>
      <trkpt lat="45.78849" lon="4.88858">
        <ele>171.19999694824</ele>
        <time>2016-08-19T08:19:51.000Z</time>
      </trkpt>
      <trkpt lat="45.78848" lon="4.88862">
        <ele>171.60000610352</ele>
        <time>2016-08-19T08:19:52.000Z</time>
      </trkpt>
      <trkpt lat="45.78846" lon="4.88867">
        <ele>172</ele>
        <time>2016-08-19T08:19:53.000Z</time>
      </trkpt>
      <trkpt lat="45.78844" lon="4.8887">
        <ele>172.60000610352</ele>
        <time>2016-08-19T08:19:54.000Z</time>
      </trkpt>
      <trkpt lat="45.78842" lon="4.88873">
        <ele>172.80000305176</ele>
        <time>2016-08-19T08:19:55.000Z</time>
      </trkpt>
      <trkpt lat="45.78841" lon="4.88876">
        <ele>173</ele>
        <time>2016-08-19T08:19:56.000Z</time>
      </trkpt>
      <trkpt lat="45.7884" lon="4.88878">
        <ele>173</ele>
        <time>2016-08-19T08:19:57.000Z</time>
      </trkpt>
      <trkpt lat="45.78838" lon="4.88881">
        <ele>173.19999694824</ele>
        <time>2016-08-19T08:19:58.000Z</time>
      </trkpt>
      <trkpt lat="45.78836" lon="4.88884">
        <ele>173.19999694824</ele>
        <time>2016-08-19T08:19:59.000Z</time>
      </trkpt>
      <trkpt lat="45.78835" lon="4.88887">
        <ele>173.39999389648</ele>
        <time>2016-08-19T08:20:00.000Z</time>
      </trkpt>
      <trkpt lat="45.78834" lon="4.88889">
        <ele>173.39999389648</ele>
        <time>2016-08-19T08:20:01.000Z</time>
      </trkpt>
      <trkpt lat="45.78832" lon="4.88892">
        <ele>173.39999389648</ele>
        <time>2016-08-19T08:20:02.000Z</time>
      </trkpt>
      <trkpt lat="45.78831" lon="4.88894">
        <ele>173.60000610352</ele>
        <time>2016-08-19T08:20:03.000Z</time>
      </trkpt>
      <trkpt lat="45.78829" lon="4.88897">
        <ele>173.60000610352</ele>
        <time>2016-08-19T08:20:04.000Z</time>
      </trkpt>
      <trkpt lat="45.78828" lon="4.88899">
        <ele>173.60000610352</ele>
        <time>2016-08-19T08:20:05.000Z</time>
      </trkpt>
      <trkpt lat="45.78827" lon="4.88902">
        <ele>173.60000610352</ele>
        <time>2016-08-19T08:20:06.000Z</time>
      </trkpt>
      <trkpt lat="45.78827" lon="4.88905">
        <ele>173.39999389648</ele>
        <time>2016-08-19T08:20:07.000Z</time>
      </trkpt>
      <trkpt lat="45.78826" lon="4.88907">
        <ele>173.39999389648</ele>
        <time>2016-08-19T08:20:08.000Z</time>
      </trkpt>
      <trkpt lat="45.78825" lon="4.8891">
        <ele>173.19999694824</ele>
        <time>2016-08-19T08:20:09.000Z</time>
      </trkpt>
      <trkpt lat="45.78822" lon="4.88913">
        <ele>173.19999694824</ele>
        <time>2016-08-19T08:20:10.000Z</time>
      </trkpt>
      <trkpt lat="45.78821" lon="4.88916">
        <ele>173.19999694824</ele>
        <time>2016-08-19T08:20:11.000Z</time>
      </trkpt>
      <trkpt lat="45.78819" lon="4.88918">
        <ele>173.19999694824</ele>
        <time>2016-08-19T08:20:12.000Z</time>
      </trkpt>
      <trkpt lat="45.78818" lon="4.88921">
        <ele>173</ele>
        <time>2016-08-19T08:20:13.000Z</time>
      </trkpt>
      <trkpt lat="45.78816" lon="4.88923">
        <ele>173</ele>
        <time>2016-08-19T08:20:14.000Z</time>
      </trkpt>
      <trkpt lat="45.78814" lon="4.88925">
        <ele>173</ele>
        <time>2016-08-19T08:20:15.000Z</time>
      </trkpt>
      <trkpt lat="45.78814" lon="4.88927">
        <ele>173</ele>
        <time>2016-08-19T08:20:16.000Z</time>
      </trkpt>
      <trkpt lat="45.78813" lon="4.88929">
        <ele>173</ele>
        <time>2016-08-19T08:20:17.000Z</time>
      </trkpt>
      <trkpt lat="45.78812" lon="4.88931">
        <ele>172.80000305176</ele>
        <time>2016-08-19T08:20:18.000Z</time>
      </trkpt>
      <trkpt lat="45.7881" lon="4.88934">
        <ele>172.80000305176</ele>
        <time>2016-08-19T08:20:19.000Z</time>
      </trkpt>
      <trkpt lat="45.78808" lon="4.88937">
        <ele>172.80000305176</ele>
        <time>2016-08-19T08:20:20.000Z</time>
      </trkpt>
      <trkpt lat="45.78807" lon="4.88939">
        <ele>172.80000305176</ele>
        <time>2016-08-19T08:20:21.000Z</time>
      </trkpt>
      <trkpt lat="45.78805" lon="4.88942">
        <ele>172.80000305176</ele>
        <time>2016-08-19T08:20:22.000Z</time>
      </trkpt>
      <trkpt lat="45.78803" lon="4.88944">
        <ele>172.60000610352</ele>
        <time>2016-08-19T08:20:23.000Z</time>
      </trkpt>
      <trkpt lat="45.78801" lon="4.88946">
        <ele>172.39999389648</ele>
        <time>2016-08-19T08:20:24.000Z</time>
      </trkpt>
      <trkpt lat="45.78798" lon="4.8895">
        <ele>172.19999694824</ele>
        <time>2016-08-19T08:20:25.000Z</time>
      </trkpt>
      <trkpt lat="45.78796" lon="4.88953">
        <ele>172.39999389648</ele>
        <time>2016-08-19T08:20:26.000Z</time>
      </trkpt>
      <trkpt lat="45.78794" lon="4.88956">
        <ele>172.39999389648</ele>
        <time>2016-08-19T08:20:27.000Z</time>
      </trkpt>
      <trkpt lat="45.78792" lon="4.88959">
        <ele>172.39999389648</ele>
        <time>2016-08-19T08:20:28.000Z</time>
      </trkpt>
      <trkpt lat="45.7879" lon="4.88962">
        <ele>172.39999389648</ele>
        <time>2016-08-19T08:20:29.000Z</time>
      </trkpt>
      <trkpt lat="45.78788" lon="4.88965">
        <ele>172.39999389648</ele>
        <time>2016-08-19T08:20:30.000Z</time>
      </trkpt>
      <trkpt lat="45.78787" lon="4.88967">
        <ele>172.39999389648</ele>
        <time>2016-08-19T08:20:31.000Z</time>
      </trkpt>
      <trkpt lat="45.78786" lon="4.88969">
        <ele>172.39999389648</ele>
        <time>2016-08-19T08:20:32.000Z</time>
      </trkpt>
      <trkpt lat="45.78784" lon="4.88972">
        <ele>172.39999389648</ele>
        <time>2016-08-19T08:20:33.000Z</time>
      </trkpt>
      <trkpt lat="45.78783" lon="4.88974">
        <ele>172.39999389648</ele>
        <time>2016-08-19T08:20:34.000Z</time>
      </trkpt>
      <trkpt lat="45.78781" lon="4.88977">
        <ele>172.39999389648</ele>
        <time>2016-08-19T08:20:35.000Z</time>
      </trkpt>
      <trkpt lat="45.7878" lon="4.8898">
        <ele>172.39999389648</ele>
        <time>2016-08-19T08:20:36.000Z</time>
      </trkpt>
      <trkpt lat="45.78779" lon="4.88984">
        <ele>172.19999694824</ele>
        <time>2016-08-19T08:20:37.000Z</time>
      </trkpt>
      <trkpt lat="45.78778" lon="4.88987">
        <ele>172.19999694824</ele>
        <time>2016-08-19T08:20:38.000Z</time>
      </trkpt>
      <trkpt lat="45.78777" lon="4.8899">
        <ele>172.19999694824</ele>
        <time>2016-08-19T08:20:39.000Z</time>
      </trkpt>
      <trkpt lat="45.78775" lon="4.88993">
        <ele>172.19999694824</ele>
        <time>2016-08-19T08:20:40.000Z</time>
      </trkpt>
      <trkpt lat="45.78772" lon="4.88995">
        <ele>172.19999694824</ele>
        <time>2016-08-19T08:20:41.000Z</time>
      </trkpt>
      <trkpt lat="45.7877" lon="4.88998">
        <ele>172.19999694824</ele>
        <time>2016-08-19T08:20:42.000Z</time>
      </trkpt>
      <trkpt lat="45.78769" lon="4.89">
        <ele>172.19999694824</ele>
        <time>2016-08-19T08:20:43.000Z</time>
      </trkpt>
      <trkpt lat="45.78768" lon="4.89002">
        <ele>172.19999694824</ele>
        <time>2016-08-19T08:20:44.000Z</time>
      </trkpt>
      <trkpt lat="45.78766" lon="4.89005">
        <ele>172.39999389648</ele>
        <time>2016-08-19T08:20:45.000Z</time>
      </trkpt>
      <trkpt lat="45.78764" lon="4.89007">
        <ele>172.60000610352</ele>
        <time>2016-08-19T08:20:46.000Z</time>
      </trkpt>
      <trkpt lat="45.78763" lon="4.8901">
        <ele>172.60000610352</ele>
        <time>2016-08-19T08:20:47.000Z</time>
      </trkpt>
      <trkpt lat="45.78761" lon="4.89012">
        <ele>172.80000305176</ele>
        <time>2016-08-19T08:20:48.000Z</time>
      </trkpt>
      <trkpt lat="45.78759" lon="4.89015">
        <ele>173</ele>
        <time>2016-08-19T08:20:49.000Z</time>
      </trkpt>
      <trkpt lat="45.78758" lon="4.89017">
        <ele>173.19999694824</ele>
        <time>2016-08-19T08:20:50.000Z</time>
      </trkpt>
      <trkpt lat="45.78756" lon="4.8902">
        <ele>173.19999694824</ele>
        <time>2016-08-19T08:20:51.000Z</time>
      </trkpt>
      <trkpt lat="45.78755" lon="4.89022">
        <ele>173.39999389648</ele>
        <time>2016-08-19T08:20:52.000Z</time>
      </trkpt>
      <trkpt lat="45.78754" lon="4.89024">
        <ele>173.39999389648</ele>
        <time>2016-08-19T08:20:53.000Z</time>
      </trkpt>
      <trkpt lat="45.78752" lon="4.89026">
        <ele>173.60000610352</ele>
        <time>2016-08-19T08:20:54.000Z</time>
      </trkpt>
      <trkpt lat="45.78751" lon="4.89029">
        <ele>173.80000305176</ele>
        <time>2016-08-19T08:20:55.000Z</time>
      </trkpt>
      <trkpt lat="45.78749" lon="4.89031">
        <ele>174</ele>
        <time>2016-08-19T08:20:56.000Z</time>
      </trkpt>
      <trkpt lat="45.78747" lon="4.89034">
        <ele>174</ele>
        <time>2016-08-19T08:20:57.000Z</time>
      </trkpt>
      <trkpt lat="45.78745" lon="4.89036">
        <ele>174.19999694824</ele>
        <time>2016-08-19T08:20:58.000Z</time>
      </trkpt>
      <trkpt lat="45.78742" lon="4.89039">
        <ele>174.60000610352</ele>
        <time>2016-08-19T08:20:59.000Z</time>
      </trkpt>
      <trkpt lat="45.78739" lon="4.89041">
        <ele>174.80000305176</ele>
        <time>2016-08-19T08:21:00.000Z</time>
      </trkpt>
      <trkpt lat="45.78737" lon="4.89044">
        <ele>175</ele>
        <time>2016-08-19T08:21:01.000Z</time>
      </trkpt>
      <trkpt lat="45.78735" lon="4.89046">
        <ele>175</ele>
        <time>2016-08-19T08:21:02.000Z</time>
      </trkpt>
      <trkpt lat="45.78733" lon="4.89049">
        <ele>175.19999694824</ele>
        <time>2016-08-19T08:21:03.000Z</time>
      </trkpt>
      <trkpt lat="45.7873" lon="4.89052">
        <ele>175.19999694824</ele>
        <time>2016-08-19T08:21:04.000Z</time>
      </trkpt>
      <trkpt lat="45.78729" lon="4.89053">
        <ele>175</ele>
        <time>2016-08-19T08:21:05.000Z</time>
      </trkpt>
      <trkpt lat="45.78727" lon="4.89055">
        <ele>174.80000305176</ele>
        <time>2016-08-19T08:21:06.000Z</time>
      </trkpt>
      <trkpt lat="45.78726" lon="4.89057">
        <ele>174.80000305176</ele>
        <time>2016-08-19T08:21:07.000Z</time>
      </trkpt>
      <trkpt lat="45.78725" lon="4.89059">
        <ele>174.60000610352</ele>
        <time>2016-08-19T08:21:08.000Z</time>
      </trkpt>
      <trkpt lat="45.78723" lon="4.89061">
        <ele>174.39999389648</ele>
        <time>2016-08-19T08:21:09.000Z</time>
      </trkpt>
      <trkpt lat="45.78721" lon="4.89062">
        <ele>174.39999389648</ele>
        <time>2016-08-19T08:21:10.000Z</time>
      </trkpt>
      <trkpt lat="45.7872" lon="4.89064">
        <ele>174.19999694824</ele>
        <time>2016-08-19T08:21:11.000Z</time>
      </trkpt>
      <trkpt lat="45.78718" lon="4.89066">
        <ele>174</ele>
        <time>2016-08-19T08:21:12.000Z</time>
      </trkpt>
      <trkpt lat="45.78716" lon="4.89068">
        <ele>174</ele>
        <time>2016-08-19T08:21:13.000Z</time>
      </trkpt>
      <trkpt lat="45.78714" lon="4.8907">
        <ele>173.80000305176</ele>
        <time>2016-08-19T08:21:14.000Z</time>
      </trkpt>
      <trkpt lat="45.78711" lon="4.89071">
        <ele>173.60000610352</ele>
        <time>2016-08-19T08:21:15.000Z</time>
      </trkpt>
      <trkpt lat="45.7871" lon="4.89073">
        <ele>173.39999389648</ele>
        <time>2016-08-19T08:21:16.000Z</time>
      </trkpt>
      <trkpt lat="45.78709" lon="4.89074">
        <ele>173.39999389648</ele>
        <time>2016-08-19T08:21:17.000Z</time>
      </trkpt>
      <trkpt lat="45.78707" lon="4.89076">
        <ele>173.19999694824</ele>
        <time>2016-08-19T08:21:18.000Z</time>
      </trkpt>
      <trkpt lat="45.78705" lon="4.89077">
        <ele>173.19999694824</ele>
        <time>2016-08-19T08:21:19.000Z</time>
      </trkpt>
      <trkpt lat="45.78704" lon="4.89079">
        <ele>173</ele>
        <time>2016-08-19T08:21:20.000Z</time>
      </trkpt>
      <trkpt lat="45.78702" lon="4.8908">
        <ele>172.80000305176</ele>
        <time>2016-08-19T08:21:21.000Z</time>
      </trkpt>
      <trkpt lat="45.787" lon="4.89083">
        <ele>172.60000610352</ele>
        <time>2016-08-19T08:21:22.000Z</time>
      </trkpt>
      <trkpt lat="45.78698" lon="4.89084">
        <ele>172.60000610352</ele>
        <time>2016-08-19T08:21:23.000Z</time>
      </trkpt>
      <trkpt lat="45.78696" lon="4.89086">
        <ele>172.39999389648</ele>
        <time>2016-08-19T08:21:24.000Z</time>
      </trkpt>
      <trkpt lat="45.78694" lon="4.89088">
        <ele>172.19999694824</ele>
        <time>2016-08-19T08:21:25.000Z</time>
      </trkpt>
      <trkpt lat="45.78691" lon="4.89089">
        <ele>172</ele>
        <time>2016-08-19T08:21:26.000Z</time>
      </trkpt>
      <trkpt lat="45.7869" lon="4.8909">
        <ele>172</ele>
        <time>2016-08-19T08:21:27.000Z</time>
      </trkpt>
      <trkpt lat="45.78687" lon="4.89092">
        <ele>172</ele>
        <time>2016-08-19T08:21:28.000Z</time>
      </trkpt>
      <trkpt lat="45.78685" lon="4.89095">
        <ele>172.19999694824</ele>
        <time>2016-08-19T08:21:29.000Z</time>
      </trkpt>
      <trkpt lat="45.78683" lon="4.89098">
        <ele>172.39999389648</ele>
        <time>2016-08-19T08:21:30.000Z</time>
      </trkpt>
      <trkpt lat="45.7868" lon="4.891">
        <ele>172.39999389648</ele>
        <time>2016-08-19T08:21:31.000Z</time>
      </trkpt>
      <trkpt lat="45.78679" lon="4.89103">
        <ele>172.60000610352</ele>
        <time>2016-08-19T08:21:32.000Z</time>
      </trkpt>
      <trkpt lat="45.78677" lon="4.89105">
        <ele>172.60000610352</ele>
        <time>2016-08-19T08:21:33.000Z</time>
      </trkpt>
      <trkpt lat="45.78675" lon="4.89108">
        <ele>172.80000305176</ele>
        <time>2016-08-19T08:21:34.000Z</time>
      </trkpt>
      <trkpt lat="45.78674" lon="4.8911">
        <ele>172.80000305176</ele>
        <time>2016-08-19T08:21:35.000Z</time>
      </trkpt>
      <trkpt lat="45.78672" lon="4.89113">
        <ele>173</ele>
        <time>2016-08-19T08:21:36.000Z</time>
      </trkpt>
      <trkpt lat="45.7867" lon="4.89115">
        <ele>173</ele>
        <time>2016-08-19T08:21:37.000Z</time>
      </trkpt>
      <trkpt lat="45.78668" lon="4.89118">
        <ele>173.19999694824</ele>
        <time>2016-08-19T08:21:38.000Z</time>
      </trkpt>
      <trkpt lat="45.78666" lon="4.8912">
        <ele>173.39999389648</ele>
        <time>2016-08-19T08:21:39.000Z</time>
      </trkpt>
      <trkpt lat="45.78665" lon="4.89122">
        <ele>173.39999389648</ele>
        <time>2016-08-19T08:21:40.000Z</time>
      </trkpt>
      <trkpt lat="45.78664" lon="4.89123">
        <ele>173.39999389648</ele>
        <time>2016-08-19T08:21:41.000Z</time>
      </trkpt>
      <trkpt lat="45.78663" lon="4.89125">
        <ele>173.60000610352</ele>
        <time>2016-08-19T08:21:42.000Z</time>
      </trkpt>
      <trkpt lat="45.78661" lon="4.89126">
        <ele>173.60000610352</ele>
        <time>2016-08-19T08:21:43.000Z</time>
      </trkpt>
      <trkpt lat="45.7866" lon="4.89128">
        <ele>173.80000305176</ele>
        <time>2016-08-19T08:21:44.000Z</time>
      </trkpt>
      <trkpt lat="45.78657" lon="4.8913">
        <ele>174</ele>
        <time>2016-08-19T08:21:45.000Z</time>
      </trkpt>
      <trkpt lat="45.78654" lon="4.89132">
        <ele>174.19999694824</ele>
        <time>2016-08-19T08:21:46.000Z</time>
      </trkpt>
      <trkpt lat="45.78653" lon="4.89133">
        <ele>174.19999694824</ele>
        <time>2016-08-19T08:21:47.000Z</time>
      </trkpt>
      <trkpt lat="45.7865" lon="4.89135">
        <ele>174.39999389648</ele>
        <time>2016-08-19T08:21:48.000Z</time>
      </trkpt>
      <trkpt lat="45.78648" lon="4.89138">
        <ele>174.39999389648</ele>
        <time>2016-08-19T08:21:49.000Z</time>
      </trkpt>
      <trkpt lat="45.78646" lon="4.89139">
        <ele>174.39999389648</ele>
        <time>2016-08-19T08:21:50.000Z</time>
      </trkpt>
      <trkpt lat="45.78644" lon="4.89141">
        <ele>174.19999694824</ele>
        <time>2016-08-19T08:21:51.000Z</time>
      </trkpt>
      <trkpt lat="45.78643" lon="4.89142">
        <ele>174.19999694824</ele>
        <time>2016-08-19T08:21:52.000Z</time>
      </trkpt>
      <trkpt lat="45.78641" lon="4.89144">
        <ele>174.19999694824</ele>
        <time>2016-08-19T08:21:53.000Z</time>
      </trkpt>
      <trkpt lat="45.78639" lon="4.89146">
        <ele>174.19999694824</ele>
        <time>2016-08-19T08:21:54.000Z</time>
      </trkpt>
      <trkpt lat="45.78637" lon="4.89147">
        <ele>174.19999694824</ele>
        <time>2016-08-19T08:21:55.000Z</time>
      </trkpt>
      <trkpt lat="45.78634" lon="4.8915">
        <ele>174.19999694824</ele>
        <time>2016-08-19T08:21:56.000Z</time>
      </trkpt>
      <trkpt lat="45.78632" lon="4.89152">
        <ele>174.19999694824</ele>
        <time>2016-08-19T08:21:57.000Z</time>
      </trkpt>
      <trkpt lat="45.78629" lon="4.89154">
        <ele>174.19999694824</ele>
        <time>2016-08-19T08:21:58.000Z</time>
      </trkpt>
      <trkpt lat="45.78627" lon="4.89154">
        <ele>174.19999694824</ele>
        <time>2016-08-19T08:21:59.000Z</time>
      </trkpt>
      <trkpt lat="45.78625" lon="4.89154">
        <ele>174.39999389648</ele>
        <time>2016-08-19T08:22:00.000Z</time>
      </trkpt>
      <trkpt lat="45.78622" lon="4.89155">
        <ele>174.39999389648</ele>
        <time>2016-08-19T08:22:01.000Z</time>
      </trkpt>
      <trkpt lat="45.7862" lon="4.89156">
        <ele>174.60000610352</ele>
        <time>2016-08-19T08:22:02.000Z</time>
      </trkpt>
      <trkpt lat="45.78618" lon="4.89156">
        <ele>174.60000610352</ele>
        <time>2016-08-19T08:22:03.000Z</time>
      </trkpt>
      <trkpt lat="45.78616" lon="4.89157">
        <ele>174.60000610352</ele>
        <time>2016-08-19T08:22:04.000Z</time>
      </trkpt>
      <trkpt lat="45.78615" lon="4.89158">
        <ele>174.60000610352</ele>
        <time>2016-08-19T08:22:05.000Z</time>
      </trkpt>
      <trkpt lat="45.78613" lon="4.89159">
        <ele>174.60000610352</ele>
        <time>2016-08-19T08:22:06.000Z</time>
      </trkpt>
      <trkpt lat="45.78611" lon="4.89161">
        <ele>174.60000610352</ele>
        <time>2016-08-19T08:22:07.000Z</time>
      </trkpt>
      <trkpt lat="45.78609" lon="4.89162">
        <ele>174.60000610352</ele>
        <time>2016-08-19T08:22:08.000Z</time>
      </trkpt>
      <trkpt lat="45.78607" lon="4.89162">
        <ele>174.80000305176</ele>
        <time>2016-08-19T08:22:09.000Z</time>
      </trkpt>
      <trkpt lat="45.78604" lon="4.89163">
        <ele>174.80000305176</ele>
        <time>2016-08-19T08:22:10.000Z</time>
      </trkpt>
      <trkpt lat="45.78603" lon="4.89164">
        <ele>174.80000305176</ele>
        <time>2016-08-19T08:22:11.000Z</time>
      </trkpt>
      <trkpt lat="45.78599" lon="4.89165">
        <ele>174.80000305176</ele>
        <time>2016-08-19T08:22:12.000Z</time>
      </trkpt>
      <trkpt lat="45.78596" lon="4.89166">
        <ele>175</ele>
        <time>2016-08-19T08:22:13.000Z</time>
      </trkpt>
      <trkpt lat="45.78594" lon="4.89167">
        <ele>175</ele>
        <time>2016-08-19T08:22:14.000Z</time>
      </trkpt>
      <trkpt lat="45.78593" lon="4.89169">
        <ele>175.19999694824</ele>
        <time>2016-08-19T08:22:15.000Z</time>
      </trkpt>
      <trkpt lat="45.78591" lon="4.8917">
        <ele>175.19999694824</ele>
        <time>2016-08-19T08:22:16.000Z</time>
      </trkpt>
      <trkpt lat="45.78589" lon="4.89172">
        <ele>175.19999694824</ele>
        <time>2016-08-19T08:22:17.000Z</time>
      </trkpt>
      <trkpt lat="45.78587" lon="4.89174">
        <ele>175.19999694824</ele>
        <time>2016-08-19T08:22:18.000Z</time>
      </trkpt>
      <trkpt lat="45.78585" lon="4.89175">
        <ele>175.39999389648</ele>
        <time>2016-08-19T08:22:19.000Z</time>
      </trkpt>
      <trkpt lat="45.78583" lon="4.89176">
        <ele>175.39999389648</ele>
        <time>2016-08-19T08:22:20.000Z</time>
      </trkpt>
      <trkpt lat="45.78581" lon="4.89178">
        <ele>175.39999389648</ele>
        <time>2016-08-19T08:22:21.000Z</time>
      </trkpt>
      <trkpt lat="45.78579" lon="4.89179">
        <ele>175.60000610352</ele>
        <time>2016-08-19T08:22:22.000Z</time>
      </trkpt>
      <trkpt lat="45.78576" lon="4.8918">
        <ele>175.60000610352</ele>
        <time>2016-08-19T08:22:23.000Z</time>
      </trkpt>
      <trkpt lat="45.78575" lon="4.89182">
        <ele>175.60000610352</ele>
        <time>2016-08-19T08:22:24.000Z</time>
      </trkpt>
      <trkpt lat="45.78573" lon="4.89183">
        <ele>175.60000610352</ele>
        <time>2016-08-19T08:22:25.000Z</time>
      </trkpt>
      <trkpt lat="45.78572" lon="4.89184">
        <ele>175.60000610352</ele>
        <time>2016-08-19T08:22:26.000Z</time>
      </trkpt>
      <trkpt lat="45.7857" lon="4.89185">
        <ele>175.80000305176</ele>
        <time>2016-08-19T08:22:27.000Z</time>
      </trkpt>
      <trkpt lat="45.78569" lon="4.89186">
        <ele>175.80000305176</ele>
        <time>2016-08-19T08:22:28.000Z</time>
      </trkpt>
      <trkpt lat="45.78567" lon="4.89186">
        <ele>175.80000305176</ele>
        <time>2016-08-19T08:22:29.000Z</time>
      </trkpt>
      <trkpt lat="45.78566" lon="4.89187">
        <ele>176</ele>
        <time>2016-08-19T08:22:30.000Z</time>
      </trkpt>
      <trkpt lat="45.78565" lon="4.89187">
        <ele>176</ele>
        <time>2016-08-19T08:22:31.000Z</time>
      </trkpt>
      <trkpt lat="45.78563" lon="4.89188">
        <ele>176</ele>
        <time>2016-08-19T08:22:32.000Z</time>
      </trkpt>
      <trkpt lat="45.78562" lon="4.89188">
        <ele>176</ele>
        <time>2016-08-19T08:22:33.000Z</time>
      </trkpt>
      <trkpt lat="45.78561" lon="4.89189">
        <ele>176.19999694824</ele>
        <time>2016-08-19T08:22:34.000Z</time>
      </trkpt>
      <trkpt lat="45.78559" lon="4.89191">
        <ele>176.19999694824</ele>
        <time>2016-08-19T08:22:35.000Z</time>
      </trkpt>
      <trkpt lat="45.78557" lon="4.89192">
        <ele>176.19999694824</ele>
        <time>2016-08-19T08:22:36.000Z</time>
      </trkpt>
      <trkpt lat="45.78555" lon="4.89193">
        <ele>176.39999389648</ele>
        <time>2016-08-19T08:22:37.000Z</time>
      </trkpt>
      <trkpt lat="45.78555" lon="4.89193">
        <ele>176.39999389648</ele>
        <time>2016-08-19T08:22:38.000Z</time>
      </trkpt>
      <trkpt lat="45.78553" lon="4.89194">
        <ele>176.19999694824</ele>
        <time>2016-08-19T08:22:39.000Z</time>
      </trkpt>
      <trkpt lat="45.78552" lon="4.89194">
        <ele>176.19999694824</ele>
        <time>2016-08-19T08:22:40.000Z</time>
      </trkpt>
      <trkpt lat="45.7855" lon="4.89195">
        <ele>176</ele>
        <time>2016-08-19T08:22:41.000Z</time>
      </trkpt>
      <trkpt lat="45.78549" lon="4.89197">
        <ele>175.80000305176</ele>
        <time>2016-08-19T08:22:42.000Z</time>
      </trkpt>
      <trkpt lat="45.78547" lon="4.89198">
        <ele>175.80000305176</ele>
        <time>2016-08-19T08:22:43.000Z</time>
      </trkpt>
      <trkpt lat="45.78545" lon="4.892">
        <ele>175.80000305176</ele>
        <time>2016-08-19T08:22:44.000Z</time>
      </trkpt>
      <trkpt lat="45.78543" lon="4.89201">
        <ele>175.80000305176</ele>
        <time>2016-08-19T08:22:45.000Z</time>
      </trkpt>
      <trkpt lat="45.7854" lon="4.89203">
        <ele>175.80000305176</ele>
        <time>2016-08-19T08:22:46.000Z</time>
      </trkpt>
      <trkpt lat="45.78537" lon="4.89204">
        <ele>175.80000305176</ele>
        <time>2016-08-19T08:22:47.000Z</time>
      </trkpt>
      <trkpt lat="45.78534" lon="4.89205">
        <ele>175.80000305176</ele>
        <time>2016-08-19T08:22:48.000Z</time>
      </trkpt>
      <trkpt lat="45.78531" lon="4.89207">
        <ele>175.60000610352</ele>
        <time>2016-08-19T08:22:49.000Z</time>
      </trkpt>
      <trkpt lat="45.78528" lon="4.89209">
        <ele>175.60000610352</ele>
        <time>2016-08-19T08:22:50.000Z</time>
      </trkpt>
      <trkpt lat="45.78526" lon="4.8921">
        <ele>175.39999389648</ele>
        <time>2016-08-19T08:22:51.000Z</time>
      </trkpt>
      <trkpt lat="45.78525" lon="4.89211">
        <ele>175.39999389648</ele>
        <time>2016-08-19T08:22:52.000Z</time>
      </trkpt>
      <trkpt lat="45.78522" lon="4.89212">
        <ele>175.19999694824</ele>
        <time>2016-08-19T08:22:53.000Z</time>
      </trkpt>
      <trkpt lat="45.78521" lon="4.89213">
        <ele>175.19999694824</ele>
        <time>2016-08-19T08:22:54.000Z</time>
      </trkpt>
      <trkpt lat="45.78519" lon="4.89215">
        <ele>175</ele>
        <time>2016-08-19T08:22:55.000Z</time>
      </trkpt>
      <trkpt lat="45.78517" lon="4.89216">
        <ele>175</ele>
        <time>2016-08-19T08:22:56.000Z</time>
      </trkpt>
      <trkpt lat="45.78515" lon="4.89218">
        <ele>174.80000305176</ele>
        <time>2016-08-19T08:22:57.000Z</time>
      </trkpt>
      <trkpt lat="45.78512" lon="4.89219">
        <ele>174.80000305176</ele>
        <time>2016-08-19T08:22:58.000Z</time>
      </trkpt>
      <trkpt lat="45.7851" lon="4.89221">
        <ele>174.60000610352</ele>
        <time>2016-08-19T08:22:59.000Z</time>
      </trkpt>
      <trkpt lat="45.78508" lon="4.89223">
        <ele>174.39999389648</ele>
        <time>2016-08-19T08:23:00.000Z</time>
      </trkpt>
      <trkpt lat="45.78505" lon="4.89224">
        <ele>174.39999389648</ele>
        <time>2016-08-19T08:23:01.000Z</time>
      </trkpt>
      <trkpt lat="45.78503" lon="4.89226">
        <ele>174.19999694824</ele>
        <time>2016-08-19T08:23:02.000Z</time>
      </trkpt>
      <trkpt lat="45.78501" lon="4.89227">
        <ele>174.19999694824</ele>
        <time>2016-08-19T08:23:03.000Z</time>
      </trkpt>
      <trkpt lat="45.78498" lon="4.89228">
        <ele>174</ele>
        <time>2016-08-19T08:23:04.000Z</time>
      </trkpt>
      <trkpt lat="45.78497" lon="4.89229">
        <ele>174</ele>
        <time>2016-08-19T08:23:05.000Z</time>
      </trkpt>
      <trkpt lat="45.78494" lon="4.89231">
        <ele>173.80000305176</ele>
        <time>2016-08-19T08:23:06.000Z</time>
      </trkpt>
      <trkpt lat="45.78492" lon="4.89233">
        <ele>173.80000305176</ele>
        <time>2016-08-19T08:23:07.000Z</time>
      </trkpt>
      <trkpt lat="45.7849" lon="4.89234">
        <ele>173.60000610352</ele>
        <time>2016-08-19T08:23:08.000Z</time>
      </trkpt>
      <trkpt lat="45.78487" lon="4.89234">
        <ele>173.60000610352</ele>
        <time>2016-08-19T08:23:09.000Z</time>
      </trkpt>
      <trkpt lat="45.78481" lon="4.89239">
        <ele>173.39999389648</ele>
        <time>2016-08-19T08:23:10.000Z</time>
      </trkpt>
      <trkpt lat="45.78478" lon="4.89241">
        <ele>173.39999389648</ele>
        <time>2016-08-19T08:23:11.000Z</time>
      </trkpt>
      <trkpt lat="45.78472" lon="4.89245">
        <ele>173.19999694824</ele>
        <time>2016-08-19T08:23:12.000Z</time>
      </trkpt>
      <trkpt lat="45.78468" lon="4.89248">
        <ele>173</ele>
        <time>2016-08-19T08:23:13.000Z</time>
      </trkpt>
      <trkpt lat="45.78465" lon="4.89251">
        <ele>172.80000305176</ele>
        <time>2016-08-19T08:23:14.000Z</time>
      </trkpt>
      <trkpt lat="45.78463" lon="4.89252">
        <ele>172.60000610352</ele>
        <time>2016-08-19T08:23:15.000Z</time>
      </trkpt>
      <trkpt lat="45.78459" lon="4.89253">
        <ele>172.39999389648</ele>
        <time>2016-08-19T08:23:16.000Z</time>
      </trkpt>
      <trkpt lat="45.78456" lon="4.89252">
        <ele>172.39999389648</ele>
        <time>2016-08-19T08:23:17.000Z</time>
      </trkpt>
      <trkpt lat="45.78454" lon="4.8925">
        <ele>172.60000610352</ele>
        <time>2016-08-19T08:23:18.000Z</time>
      </trkpt>
      <trkpt lat="45.78452" lon="4.89247">
        <ele>172.60000610352</ele>
        <time>2016-08-19T08:23:19.000Z</time>
      </trkpt>
      <trkpt lat="45.7845" lon="4.89244">
        <ele>172.80000305176</ele>
        <time>2016-08-19T08:23:20.000Z</time>
      </trkpt>
      <trkpt lat="45.7845" lon="4.8924">
        <ele>172.80000305176</ele>
        <time>2016-08-19T08:23:21.000Z</time>
      </trkpt>
      <trkpt lat="45.78449" lon="4.89236">
        <ele>173</ele>
        <time>2016-08-19T08:23:22.000Z</time>
      </trkpt>
      <trkpt lat="45.7845" lon="4.89232">
        <ele>173.19999694824</ele>
        <time>2016-08-19T08:23:23.000Z</time>
      </trkpt>
      <trkpt lat="45.78451" lon="4.89229">
        <ele>173.39999389648</ele>
        <time>2016-08-19T08:23:24.000Z</time>
      </trkpt>
      <trkpt lat="45.78452" lon="4.89226">
        <ele>173.60000610352</ele>
        <time>2016-08-19T08:23:25.000Z</time>
      </trkpt>
      <trkpt lat="45.78452" lon="4.89223">
        <ele>173.80000305176</ele>
        <time>2016-08-19T08:23:26.000Z</time>
      </trkpt>
      <trkpt lat="45.78451" lon="4.89222">
        <ele>173.80000305176</ele>
        <time>2016-08-19T08:23:27.000Z</time>
      </trkpt>
      <trkpt lat="45.78449" lon="4.89222">
        <ele>173.80000305176</ele>
        <time>2016-08-19T08:23:28.000Z</time>
      </trkpt>
      <trkpt lat="45.78447" lon="4.8922">
        <ele>173.80000305176</ele>
        <time>2016-08-19T08:23:29.000Z</time>
      </trkpt>
      <trkpt lat="45.78445" lon="4.89219">
        <ele>173.80000305176</ele>
        <time>2016-08-19T08:23:30.000Z</time>
      </trkpt>
      <trkpt lat="45.78444" lon="4.89217">
        <ele>173.80000305176</ele>
        <time>2016-08-19T08:23:31.000Z</time>
      </trkpt>
      <trkpt lat="45.78442" lon="4.89218">
        <ele>173.80000305176</ele>
        <time>2016-08-19T08:23:32.000Z</time>
      </trkpt>
      <trkpt lat="45.7844" lon="4.89219">
        <ele>173.60000610352</ele>
        <time>2016-08-19T08:23:33.000Z</time>
      </trkpt>
      <trkpt lat="45.78438" lon="4.8922">
        <ele>173.60000610352</ele>
        <time>2016-08-19T08:23:34.000Z</time>
      </trkpt>
      <trkpt lat="45.78436" lon="4.89221">
        <ele>173.39999389648</ele>
        <time>2016-08-19T08:23:35.000Z</time>
      </trkpt>
      <trkpt lat="45.78433" lon="4.89223">
        <ele>173.39999389648</ele>
        <time>2016-08-19T08:23:36.000Z</time>
      </trkpt>
      <trkpt lat="45.78431" lon="4.89224">
        <ele>173.19999694824</ele>
        <time>2016-08-19T08:23:37.000Z</time>
      </trkpt>
      <trkpt lat="45.78429" lon="4.89226">
        <ele>173</ele>
        <time>2016-08-19T08:23:38.000Z</time>
      </trkpt>
      <trkpt lat="45.78427" lon="4.89227">
        <ele>173</ele>
        <time>2016-08-19T08:23:39.000Z</time>
      </trkpt>
      <trkpt lat="45.78424" lon="4.89228">
        <ele>172.80000305176</ele>
        <time>2016-08-19T08:23:40.000Z</time>
      </trkpt>
      <trkpt lat="45.78422" lon="4.89228">
        <ele>172.80000305176</ele>
        <time>2016-08-19T08:23:41.000Z</time>
      </trkpt>
      <trkpt lat="45.7842" lon="4.89227">
        <ele>172.80000305176</ele>
        <time>2016-08-19T08:23:42.000Z</time>
      </trkpt>
      <trkpt lat="45.78418" lon="4.89225">
        <ele>172.80000305176</ele>
        <time>2016-08-19T08:23:43.000Z</time>
      </trkpt>
      <trkpt lat="45.78416" lon="4.89224">
        <ele>172.80000305176</ele>
        <time>2016-08-19T08:23:44.000Z</time>
      </trkpt>
      <trkpt lat="45.78413" lon="4.89222">
        <ele>172.80000305176</ele>
        <time>2016-08-19T08:23:45.000Z</time>
      </trkpt>
      <trkpt lat="45.78411" lon="4.8922">
        <ele>172.80000305176</ele>
        <time>2016-08-19T08:23:46.000Z</time>
      </trkpt>
      <trkpt lat="45.78409" lon="4.89219">
        <ele>173</ele>
        <time>2016-08-19T08:23:47.000Z</time>
      </trkpt>
      <trkpt lat="45.78406" lon="4.89217">
        <ele>173</ele>
        <time>2016-08-19T08:23:48.000Z</time>
      </trkpt>
      <trkpt lat="45.78404" lon="4.89215">
        <ele>173</ele>
        <time>2016-08-19T08:23:49.000Z</time>
      </trkpt>
      <trkpt lat="45.78403" lon="4.89214">
        <ele>173</ele>
        <time>2016-08-19T08:23:50.000Z</time>
      </trkpt>
      <trkpt lat="45.78402" lon="4.89212">
        <ele>173</ele>
        <time>2016-08-19T08:23:51.000Z</time>
      </trkpt>
      <trkpt lat="45.78402" lon="4.89211">
        <ele>173.19999694824</ele>
        <time>2016-08-19T08:23:52.000Z</time>
      </trkpt>
      <trkpt lat="45.78401" lon="4.8921">
        <ele>173.19999694824</ele>
        <time>2016-08-19T08:23:53.000Z</time>
      </trkpt>
      <trkpt lat="45.78401" lon="4.8921">
        <ele>173.19999694824</ele>
        <time>2016-08-19T08:23:54.000Z</time>
      </trkpt>
      <trkpt lat="45.784" lon="4.89209">
        <ele>173.19999694824</ele>
        <time>2016-08-19T08:23:55.000Z</time>
      </trkpt>
      <trkpt lat="45.784" lon="4.89209">
        <ele>173.19999694824</ele>
        <time>2016-08-19T08:23:56.000Z</time>
      </trkpt>
      <trkpt lat="45.784" lon="4.89208">
        <ele>173.19999694824</ele>
        <time>2016-08-19T08:23:57.000Z</time>
      </trkpt>
      <trkpt lat="45.78401" lon="4.89207">
        <ele>173.19999694824</ele>
        <time>2016-08-19T08:23:58.000Z</time>
      </trkpt>
      <trkpt lat="45.78401" lon="4.89204">
        <ele>173.39999389648</ele>
        <time>2016-08-19T08:23:59.000Z</time>
      </trkpt>
      <trkpt lat="45.78403" lon="4.89201">
        <ele>173.39999389648</ele>
        <time>2016-08-19T08:24:00.000Z</time>
      </trkpt>
      <trkpt lat="45.78406" lon="4.89198">
        <ele>173.60000610352</ele>
        <time>2016-08-19T08:24:01.000Z</time>
      </trkpt>
      <trkpt lat="45.78408" lon="4.89195">
        <ele>173.60000610352</ele>
        <time>2016-08-19T08:24:02.000Z</time>
      </trkpt>
      <trkpt lat="45.7841" lon="4.89193">
        <ele>173.60000610352</ele>
        <time>2016-08-19T08:24:03.000Z</time>
      </trkpt>
      <trkpt lat="45.78412" lon="4.89191">
        <ele>173.80000305176</ele>
        <time>2016-08-19T08:24:04.000Z</time>
      </trkpt>
      <trkpt lat="45.78414" lon="4.89189">
        <ele>173.80000305176</ele>
        <time>2016-08-19T08:24:05.000Z</time>
      </trkpt>
      <trkpt lat="45.78416" lon="4.89186">
        <ele>174</ele>
        <time>2016-08-19T08:24:06.000Z</time>
      </trkpt>
      <trkpt lat="45.78418" lon="4.89184">
        <ele>174</ele>
        <time>2016-08-19T08:24:07.000Z</time>
      </trkpt>
      <trkpt lat="45.78421" lon="4.89181">
        <ele>174</ele>
        <time>2016-08-19T08:24:08.000Z</time>
      </trkpt>
      <trkpt lat="45.78424" lon="4.89179">
        <ele>174.19999694824</ele>
        <time>2016-08-19T08:24:09.000Z</time>
      </trkpt>
      <trkpt lat="45.78427" lon="4.89177">
        <ele>174.19999694824</ele>
        <time>2016-08-19T08:24:10.000Z</time>
      </trkpt>
      <trkpt lat="45.7843" lon="4.89175">
        <ele>174.39999389648</ele>
        <time>2016-08-19T08:24:11.000Z</time>
      </trkpt>
      <trkpt lat="45.78432" lon="4.89174">
        <ele>174.39999389648</ele>
        <time>2016-08-19T08:24:12.000Z</time>
      </trkpt>
      <trkpt lat="45.78434" lon="4.89171">
        <ele>174.60000610352</ele>
        <time>2016-08-19T08:24:13.000Z</time>
      </trkpt>
      <trkpt lat="45.78434" lon="4.89168">
        <ele>174.60000610352</ele>
        <time>2016-08-19T08:24:14.000Z</time>
      </trkpt>
      <trkpt lat="45.78434" lon="4.89165">
        <ele>174.39999389648</ele>
        <time>2016-08-19T08:24:15.000Z</time>
      </trkpt>
      <trkpt lat="45.78433" lon="4.89163">
        <ele>174.39999389648</ele>
        <time>2016-08-19T08:24:16.000Z</time>
      </trkpt>
      <trkpt lat="45.78432" lon="4.89161">
        <ele>174.39999389648</ele>
        <time>2016-08-19T08:24:17.000Z</time>
      </trkpt>
      <trkpt lat="45.78429" lon="4.89163">
        <ele>174.39999389648</ele>
        <time>2016-08-19T08:24:18.000Z</time>
      </trkpt>
      <trkpt lat="45.78426" lon="4.89166">
        <ele>174.39999389648</ele>
        <time>2016-08-19T08:24:19.000Z</time>
      </trkpt>
      <trkpt lat="45.78422" lon="4.89168">
        <ele>174.19999694824</ele>
        <time>2016-08-19T08:24:20.000Z</time>
      </trkpt>
      <trkpt lat="45.78419" lon="4.8917">
        <ele>174.19999694824</ele>
        <time>2016-08-19T08:24:21.000Z</time>
      </trkpt>
      <trkpt lat="45.78416" lon="4.89172">
        <ele>174</ele>
        <time>2016-08-19T08:24:22.000Z</time>
      </trkpt>
      <trkpt lat="45.78413" lon="4.89174">
        <ele>174</ele>
        <time>2016-08-19T08:24:23.000Z</time>
      </trkpt>
      <trkpt lat="45.78411" lon="4.89176">
        <ele>174</ele>
        <time>2016-08-19T08:24:24.000Z</time>
      </trkpt>
      <trkpt lat="45.78408" lon="4.89178">
        <ele>173.80000305176</ele>
        <time>2016-08-19T08:24:25.000Z</time>
      </trkpt>
      <trkpt lat="45.78405" lon="4.8918">
        <ele>173.80000305176</ele>
        <time>2016-08-19T08:24:26.000Z</time>
      </trkpt>
      <trkpt lat="45.78402" lon="4.89182">
        <ele>173.60000610352</ele>
        <time>2016-08-19T08:24:27.000Z</time>
      </trkpt>
      <trkpt lat="45.784" lon="4.89184">
        <ele>173.60000610352</ele>
        <time>2016-08-19T08:24:28.000Z</time>
      </trkpt>
      <trkpt lat="45.78398" lon="4.89185">
        <ele>173.39999389648</ele>
        <time>2016-08-19T08:24:29.000Z</time>
      </trkpt>
      <trkpt lat="45.78397" lon="4.89187">
        <ele>173.39999389648</ele>
        <time>2016-08-19T08:24:30.000Z</time>
      </trkpt>
      <trkpt lat="45.78395" lon="4.89189">
        <ele>173.39999389648</ele>
        <time>2016-08-19T08:24:31.000Z</time>
      </trkpt>
      <trkpt lat="45.78393" lon="4.89191">
        <ele>173.39999389648</ele>
        <time>2016-08-19T08:24:32.000Z</time>
      </trkpt>
      <trkpt lat="45.7839" lon="4.89193">
        <ele>173.19999694824</ele>
        <time>2016-08-19T08:24:33.000Z</time>
      </trkpt>
      <trkpt lat="45.78387" lon="4.89196">
        <ele>173.19999694824</ele>
        <time>2016-08-19T08:24:34.000Z</time>
      </trkpt>
      <trkpt lat="45.78385" lon="4.89198">
        <ele>173</ele>
        <time>2016-08-19T08:24:35.000Z</time>
      </trkpt>
      <trkpt lat="45.78383" lon="4.89201">
        <ele>173</ele>
        <time>2016-08-19T08:24:36.000Z</time>
      </trkpt>
      <trkpt lat="45.7838" lon="4.89204">
        <ele>173.19999694824</ele>
        <time>2016-08-19T08:24:37.000Z</time>
      </trkpt>
      <trkpt lat="45.78378" lon="4.89206">
        <ele>173.19999694824</ele>
        <time>2016-08-19T08:24:38.000Z</time>
      </trkpt>
      <trkpt lat="45.78376" lon="4.89209">
        <ele>173.19999694824</ele>
        <time>2016-08-19T08:24:39.000Z</time>
      </trkpt>
      <trkpt lat="45.78373" lon="4.89211">
        <ele>173.19999694824</ele>
        <time>2016-08-19T08:24:40.000Z</time>
      </trkpt>
      <trkpt lat="45.78371" lon="4.89214">
        <ele>173.19999694824</ele>
        <time>2016-08-19T08:24:41.000Z</time>
      </trkpt>
      <trkpt lat="45.78368" lon="4.89216">
        <ele>173.19999694824</ele>
        <time>2016-08-19T08:24:42.000Z</time>
      </trkpt>
      <trkpt lat="45.78366" lon="4.89219">
        <ele>173.19999694824</ele>
        <time>2016-08-19T08:24:43.000Z</time>
      </trkpt>
      <trkpt lat="45.78363" lon="4.89222">
        <ele>173.19999694824</ele>
        <time>2016-08-19T08:24:44.000Z</time>
      </trkpt>
      <trkpt lat="45.78361" lon="4.89226">
        <ele>173.19999694824</ele>
        <time>2016-08-19T08:24:45.000Z</time>
      </trkpt>
      <trkpt lat="45.78359" lon="4.8923">
        <ele>173.19999694824</ele>
        <time>2016-08-19T08:24:46.000Z</time>
      </trkpt>
      <trkpt lat="45.78358" lon="4.89234">
        <ele>173</ele>
        <time>2016-08-19T08:24:47.000Z</time>
      </trkpt>
      <trkpt lat="45.78356" lon="4.89237">
        <ele>173</ele>
        <time>2016-08-19T08:24:48.000Z</time>
      </trkpt>
      <trkpt lat="45.78355" lon="4.89241">
        <ele>173</ele>
        <time>2016-08-19T08:24:49.000Z</time>
      </trkpt>
      <trkpt lat="45.78354" lon="4.89244">
        <ele>173</ele>
        <time>2016-08-19T08:24:50.000Z</time>
      </trkpt>
      <trkpt lat="45.78354" lon="4.89247">
        <ele>172.80000305176</ele>
        <time>2016-08-19T08:24:51.000Z</time>
      </trkpt>
      <trkpt lat="45.78354" lon="4.89251">
        <ele>172.80000305176</ele>
        <time>2016-08-19T08:24:52.000Z</time>
      </trkpt>
      <trkpt lat="45.78356" lon="4.89255">
        <ele>172.60000610352</ele>
        <time>2016-08-19T08:24:53.000Z</time>
      </trkpt>
      <trkpt lat="45.78357" lon="4.89258">
        <ele>172.60000610352</ele>
        <time>2016-08-19T08:24:54.000Z</time>
      </trkpt>
      <trkpt lat="45.78358" lon="4.89262">
        <ele>172.39999389648</ele>
        <time>2016-08-19T08:24:55.000Z</time>
      </trkpt>
      <trkpt lat="45.78359" lon="4.89265">
        <ele>172.19999694824</ele>
        <time>2016-08-19T08:24:56.000Z</time>
      </trkpt>
      <trkpt lat="45.7836" lon="4.89269">
        <ele>172</ele>
        <time>2016-08-19T08:24:57.000Z</time>
      </trkpt>
      <trkpt lat="45.78361" lon="4.89272">
        <ele>171.80000305176</ele>
        <time>2016-08-19T08:24:58.000Z</time>
      </trkpt>
      <trkpt lat="45.78361" lon="4.89275">
        <ele>171.80000305176</ele>
        <time>2016-08-19T08:24:59.000Z</time>
      </trkpt>
      <trkpt lat="45.78362" lon="4.89278">
        <ele>171.60000610352</ele>
        <time>2016-08-19T08:25:00.000Z</time>
      </trkpt>
      <trkpt lat="45.78363" lon="4.89282">
        <ele>171.39999389648</ele>
        <time>2016-08-19T08:25:01.000Z</time>
      </trkpt>
      <trkpt lat="45.78363" lon="4.89285">
        <ele>171.19999694824</ele>
        <time>2016-08-19T08:25:02.000Z</time>
      </trkpt>
      <trkpt lat="45.78364" lon="4.89288">
        <ele>171</ele>
        <time>2016-08-19T08:25:03.000Z</time>
      </trkpt>
      <trkpt lat="45.78365" lon="4.89292">
        <ele>171</ele>
        <time>2016-08-19T08:25:04.000Z</time>
      </trkpt>
      <trkpt lat="45.78367" lon="4.89295">
        <ele>171</ele>
        <time>2016-08-19T08:25:05.000Z</time>
      </trkpt>
      <trkpt lat="45.78368" lon="4.89298">
        <ele>171.19999694824</ele>
        <time>2016-08-19T08:25:06.000Z</time>
      </trkpt>
      <trkpt lat="45.78369" lon="4.89302">
        <ele>171.19999694824</ele>
        <time>2016-08-19T08:25:07.000Z</time>
      </trkpt>
      <trkpt lat="45.7837" lon="4.89306">
        <ele>171.19999694824</ele>
        <time>2016-08-19T08:25:08.000Z</time>
      </trkpt>
      <trkpt lat="45.78371" lon="4.89309">
        <ele>171.19999694824</ele>
        <time>2016-08-19T08:25:09.000Z</time>
      </trkpt>
      <trkpt lat="45.78372" lon="4.89313">
        <ele>171.19999694824</ele>
        <time>2016-08-19T08:25:10.000Z</time>
      </trkpt>
      <trkpt lat="45.78374" lon="4.89316">
        <ele>171.39999389648</ele>
        <time>2016-08-19T08:25:11.000Z</time>
      </trkpt>
      <trkpt lat="45.78375" lon="4.8932">
        <ele>171.39999389648</ele>
        <time>2016-08-19T08:25:12.000Z</time>
      </trkpt>
      <trkpt lat="45.78376" lon="4.89323">
        <ele>171.39999389648</ele>
        <time>2016-08-19T08:25:13.000Z</time>
      </trkpt>
      <trkpt lat="45.78377" lon="4.89327">
        <ele>171.39999389648</ele>
        <time>2016-08-19T08:25:14.000Z</time>
      </trkpt>
      <trkpt lat="45.78378" lon="4.8933">
        <ele>171.39999389648</ele>
        <time>2016-08-19T08:25:15.000Z</time>
      </trkpt>
      <trkpt lat="45.78379" lon="4.89333">
        <ele>171.60000610352</ele>
        <time>2016-08-19T08:25:16.000Z</time>
      </trkpt>
      <trkpt lat="45.7838" lon="4.89337">
        <ele>171.60000610352</ele>
        <time>2016-08-19T08:25:17.000Z</time>
      </trkpt>
      <trkpt lat="45.78381" lon="4.8934">
        <ele>171.60000610352</ele>
        <time>2016-08-19T08:25:18.000Z</time>
      </trkpt>
      <trkpt lat="45.78382" lon="4.89343">
        <ele>171.60000610352</ele>
        <time>2016-08-19T08:25:19.000Z</time>
      </trkpt>
      <trkpt lat="45.78383" lon="4.89346">
        <ele>171.60000610352</ele>
        <time>2016-08-19T08:25:20.000Z</time>
      </trkpt>
      <trkpt lat="45.78384" lon="4.8935">
        <ele>171.80000305176</ele>
        <time>2016-08-19T08:25:21.000Z</time>
      </trkpt>
      <trkpt lat="45.78385" lon="4.89353">
        <ele>171.80000305176</ele>
        <time>2016-08-19T08:25:22.000Z</time>
      </trkpt>
      <trkpt lat="45.78387" lon="4.89357">
        <ele>171.80000305176</ele>
        <time>2016-08-19T08:25:23.000Z</time>
      </trkpt>
      <trkpt lat="45.78388" lon="4.89361">
        <ele>171.80000305176</ele>
        <time>2016-08-19T08:25:24.000Z</time>
      </trkpt>
      <trkpt lat="45.78389" lon="4.89364">
        <ele>171.80000305176</ele>
        <time>2016-08-19T08:25:25.000Z</time>
      </trkpt>
      <trkpt lat="45.7839" lon="4.89367">
        <ele>172</ele>
        <time>2016-08-19T08:25:26.000Z</time>
      </trkpt>
      <trkpt lat="45.78391" lon="4.89371">
        <ele>172</ele>
        <time>2016-08-19T08:25:27.000Z</time>
      </trkpt>
      <trkpt lat="45.78392" lon="4.89375">
        <ele>172</ele>
        <time>2016-08-19T08:25:28.000Z</time>
      </trkpt>
      <trkpt lat="45.78393" lon="4.89378">
        <ele>172</ele>
        <time>2016-08-19T08:25:29.000Z</time>
      </trkpt>
      <trkpt lat="45.78394" lon="4.89381">
        <ele>172</ele>
        <time>2016-08-19T08:25:30.000Z</time>
      </trkpt>
      <trkpt lat="45.78395" lon="4.89385">
        <ele>172</ele>
        <time>2016-08-19T08:25:31.000Z</time>
      </trkpt>
      <trkpt lat="45.78395" lon="4.89389">
        <ele>172</ele>
        <time>2016-08-19T08:25:32.000Z</time>
      </trkpt>
      <trkpt lat="45.78396" lon="4.89393">
        <ele>172</ele>
        <time>2016-08-19T08:25:33.000Z</time>
      </trkpt>
      <trkpt lat="45.78397" lon="4.89396">
        <ele>172</ele>
        <time>2016-08-19T08:25:34.000Z</time>
      </trkpt>
      <trkpt lat="45.78398" lon="4.89399">
        <ele>172</ele>
        <time>2016-08-19T08:25:35.000Z</time>
      </trkpt>
      <trkpt lat="45.78399" lon="4.89402">
        <ele>172</ele>
        <time>2016-08-19T08:25:36.000Z</time>
      </trkpt>
      <trkpt lat="45.784" lon="4.89406">
        <ele>172</ele>
        <time>2016-08-19T08:25:37.000Z</time>
      </trkpt>
      <trkpt lat="45.784" lon="4.89409">
        <ele>172</ele>
        <time>2016-08-19T08:25:38.000Z</time>
      </trkpt>
      <trkpt lat="45.78401" lon="4.89412">
        <ele>172</ele>
        <time>2016-08-19T08:25:39.000Z</time>
      </trkpt>
      <trkpt lat="45.78402" lon="4.89415">
        <ele>172</ele>
        <time>2016-08-19T08:25:40.000Z</time>
      </trkpt>
      <trkpt lat="45.78403" lon="4.89419">
        <ele>172</ele>
        <time>2016-08-19T08:25:41.000Z</time>
      </trkpt>
      <trkpt lat="45.78405" lon="4.89422">
        <ele>172</ele>
        <time>2016-08-19T08:25:42.000Z</time>
      </trkpt>
      <trkpt lat="45.78406" lon="4.89426">
        <ele>172</ele>
        <time>2016-08-19T08:25:43.000Z</time>
      </trkpt>
      <trkpt lat="45.78406" lon="4.89429">
        <ele>172</ele>
        <time>2016-08-19T08:25:44.000Z</time>
      </trkpt>
      <trkpt lat="45.78407" lon="4.89432">
        <ele>172</ele>
        <time>2016-08-19T08:25:45.000Z</time>
      </trkpt>
      <trkpt lat="45.78408" lon="4.89435">
        <ele>172</ele>
        <time>2016-08-19T08:25:46.000Z</time>
      </trkpt>
      <trkpt lat="45.7841" lon="4.89439">
        <ele>172</ele>
        <time>2016-08-19T08:25:47.000Z</time>
      </trkpt>
      <trkpt lat="45.78411" lon="4.89443">
        <ele>172</ele>
        <time>2016-08-19T08:25:48.000Z</time>
      </trkpt>
      <trkpt lat="45.78412" lon="4.89446">
        <ele>172</ele>
        <time>2016-08-19T08:25:49.000Z</time>
      </trkpt>
      <trkpt lat="45.78412" lon="4.8945">
        <ele>172</ele>
        <time>2016-08-19T08:25:50.000Z</time>
      </trkpt>
      <trkpt lat="45.78414" lon="4.89453">
        <ele>172</ele>
        <time>2016-08-19T08:25:51.000Z</time>
      </trkpt>
      <trkpt lat="45.78415" lon="4.89457">
        <ele>172</ele>
        <time>2016-08-19T08:25:52.000Z</time>
      </trkpt>
      <trkpt lat="45.78414" lon="4.8946">
        <ele>172</ele>
        <time>2016-08-19T08:25:53.000Z</time>
      </trkpt>
      <trkpt lat="45.78415" lon="4.89463">
        <ele>172</ele>
        <time>2016-08-19T08:25:54.000Z</time>
      </trkpt>
      <trkpt lat="45.78417" lon="4.89466">
        <ele>172</ele>
        <time>2016-08-19T08:25:55.000Z</time>
      </trkpt>
      <trkpt lat="45.78418" lon="4.89468">
        <ele>172</ele>
        <time>2016-08-19T08:25:56.000Z</time>
      </trkpt>
      <trkpt lat="45.78419" lon="4.89471">
        <ele>172</ele>
        <time>2016-08-19T08:25:57.000Z</time>
      </trkpt>
      <trkpt lat="45.7842" lon="4.89475">
        <ele>172</ele>
        <time>2016-08-19T08:25:58.000Z</time>
      </trkpt>
      <trkpt lat="45.78422" lon="4.89477">
        <ele>172</ele>
        <time>2016-08-19T08:25:59.000Z</time>
      </trkpt>
      <trkpt lat="45.78424" lon="4.8948">
        <ele>172</ele>
        <time>2016-08-19T08:26:00.000Z</time>
      </trkpt>
      <trkpt lat="45.78426" lon="4.89482">
        <ele>172</ele>
        <time>2016-08-19T08:26:01.000Z</time>
      </trkpt>
      <trkpt lat="45.78428" lon="4.89484">
        <ele>172</ele>
        <time>2016-08-19T08:26:02.000Z</time>
      </trkpt>
      <trkpt lat="45.78429" lon="4.89487">
        <ele>172</ele>
        <time>2016-08-19T08:26:03.000Z</time>
      </trkpt>
      <trkpt lat="45.7843" lon="4.8949">
        <ele>172</ele>
        <time>2016-08-19T08:26:04.000Z</time>
      </trkpt>
      <trkpt lat="45.78431" lon="4.89493">
        <ele>172</ele>
        <time>2016-08-19T08:26:05.000Z</time>
      </trkpt>
      <trkpt lat="45.78433" lon="4.89496">
        <ele>172</ele>
        <time>2016-08-19T08:26:06.000Z</time>
      </trkpt>
      <trkpt lat="45.78434" lon="4.89499">
        <ele>172</ele>
        <time>2016-08-19T08:26:07.000Z</time>
      </trkpt>
      <trkpt lat="45.78436" lon="4.89503">
        <ele>172</ele>
        <time>2016-08-19T08:26:08.000Z</time>
      </trkpt>
      <trkpt lat="45.78438" lon="4.89506">
        <ele>172</ele>
        <time>2016-08-19T08:26:09.000Z</time>
      </trkpt>
      <trkpt lat="45.7844" lon="4.89509">
        <ele>172</ele>
        <time>2016-08-19T08:26:10.000Z</time>
      </trkpt>
      <trkpt lat="45.78441" lon="4.89512">
        <ele>172.19999694824</ele>
        <time>2016-08-19T08:26:11.000Z</time>
      </trkpt>
      <trkpt lat="45.78443" lon="4.89515">
        <ele>172.19999694824</ele>
        <time>2016-08-19T08:26:12.000Z</time>
      </trkpt>
      <trkpt lat="45.78444" lon="4.89518">
        <ele>172.19999694824</ele>
        <time>2016-08-19T08:26:13.000Z</time>
      </trkpt>
      <trkpt lat="45.78446" lon="4.89521">
        <ele>172.39999389648</ele>
        <time>2016-08-19T08:26:14.000Z</time>
      </trkpt>
      <trkpt lat="45.78448" lon="4.89524">
        <ele>172.39999389648</ele>
        <time>2016-08-19T08:26:15.000Z</time>
      </trkpt>
      <trkpt lat="45.78449" lon="4.89526">
        <ele>172.39999389648</ele>
        <time>2016-08-19T08:26:16.000Z</time>
      </trkpt>
      <trkpt lat="45.78451" lon="4.89529">
        <ele>172.39999389648</ele>
        <time>2016-08-19T08:26:17.000Z</time>
      </trkpt>
      <trkpt lat="45.78453" lon="4.89532">
        <ele>172.60000610352</ele>
        <time>2016-08-19T08:26:18.000Z</time>
      </trkpt>
      <trkpt lat="45.78454" lon="4.89534">
        <ele>172.60000610352</ele>
        <time>2016-08-19T08:26:19.000Z</time>
      </trkpt>
      <trkpt lat="45.78456" lon="4.89537">
        <ele>172.60000610352</ele>
        <time>2016-08-19T08:26:20.000Z</time>
      </trkpt>
      <trkpt lat="45.78457" lon="4.8954">
        <ele>172.80000305176</ele>
        <time>2016-08-19T08:26:21.000Z</time>
      </trkpt>
      <trkpt lat="45.78457" lon="4.89543">
        <ele>172.80000305176</ele>
        <time>2016-08-19T08:26:22.000Z</time>
      </trkpt>
      <trkpt lat="45.78457" lon="4.89543">
        <ele>172.80000305176</ele>
        <time>2016-08-19T08:26:23.000Z</time>
      </trkpt>
      <trkpt lat="45.78456" lon="4.89543">
        <ele>172.80000305176</ele>
        <time>2016-08-19T08:26:24.000Z</time>
      </trkpt>
      <trkpt lat="45.78456" lon="4.89543">
        <ele>172.80000305176</ele>
        <time>2016-08-19T08:26:25.000Z</time>
      </trkpt>
      <trkpt lat="45.78455" lon="4.89543">
        <ele>172.80000305176</ele>
        <time>2016-08-19T08:26:26.000Z</time>
      </trkpt>
      <trkpt lat="45.78455" lon="4.89542">
        <ele>172.80000305176</ele>
        <time>2016-08-19T08:26:27.000Z</time>
      </trkpt>
      <trkpt lat="45.78454" lon="4.89539">
        <ele>172.80000305176</ele>
        <time>2016-08-19T08:26:28.000Z</time>
      </trkpt>
      <trkpt lat="45.78454" lon="4.89537">
        <ele>172.60000610352</ele>
        <time>2016-08-19T08:26:29.000Z</time>
      </trkpt>
      <trkpt lat="45.78453" lon="4.89535">
        <ele>172.60000610352</ele>
        <time>2016-08-19T08:26:30.000Z</time>
      </trkpt>
      <trkpt lat="45.78452" lon="4.89532">
        <ele>172.60000610352</ele>
        <time>2016-08-19T08:26:31.000Z</time>
      </trkpt>
      <trkpt lat="45.7845" lon="4.8953">
        <ele>172.60000610352</ele>
        <time>2016-08-19T08:26:32.000Z</time>
      </trkpt>
      <trkpt lat="45.78449" lon="4.89527">
        <ele>172.39999389648</ele>
        <time>2016-08-19T08:26:33.000Z</time>
      </trkpt>
      <trkpt lat="45.78448" lon="4.89525">
        <ele>172.39999389648</ele>
        <time>2016-08-19T08:26:34.000Z</time>
      </trkpt>
      <trkpt lat="45.78447" lon="4.89522">
        <ele>172.39999389648</ele>
        <time>2016-08-19T08:26:35.000Z</time>
      </trkpt>
      <trkpt lat="45.78446" lon="4.89519">
        <ele>172.19999694824</ele>
        <time>2016-08-19T08:26:36.000Z</time>
      </trkpt>
      <trkpt lat="45.78445" lon="4.89515">
        <ele>172.19999694824</ele>
        <time>2016-08-19T08:26:37.000Z</time>
      </trkpt>
      <trkpt lat="45.78444" lon="4.89512">
        <ele>172</ele>
        <time>2016-08-19T08:26:38.000Z</time>
      </trkpt>
      <trkpt lat="45.78444" lon="4.89509">
        <ele>172</ele>
        <time>2016-08-19T08:26:39.000Z</time>
      </trkpt>
      <trkpt lat="45.78443" lon="4.89506">
        <ele>172</ele>
        <time>2016-08-19T08:26:40.000Z</time>
      </trkpt>
      <trkpt lat="45.78442" lon="4.89503">
        <ele>172</ele>
        <time>2016-08-19T08:26:41.000Z</time>
      </trkpt>
      <trkpt lat="45.78441" lon="4.89499">
        <ele>172</ele>
        <time>2016-08-19T08:26:42.000Z</time>
      </trkpt>
      <trkpt lat="45.7844" lon="4.89496">
        <ele>172</ele>
        <time>2016-08-19T08:26:43.000Z</time>
      </trkpt>
      <trkpt lat="45.78438" lon="4.89493">
        <ele>172</ele>
        <time>2016-08-19T08:26:44.000Z</time>
      </trkpt>
      <trkpt lat="45.78437" lon="4.8949">
        <ele>172</ele>
        <time>2016-08-19T08:26:45.000Z</time>
      </trkpt>
      <trkpt lat="45.78436" lon="4.89487">
        <ele>172</ele>
        <time>2016-08-19T08:26:46.000Z</time>
      </trkpt>
      <trkpt lat="45.78435" lon="4.89484">
        <ele>172</ele>
        <time>2016-08-19T08:26:47.000Z</time>
      </trkpt>
      <trkpt lat="45.78434" lon="4.8948">
        <ele>172</ele>
        <time>2016-08-19T08:26:48.000Z</time>
      </trkpt>
      <trkpt lat="45.78434" lon="4.89477">
        <ele>172</ele>
        <time>2016-08-19T08:26:49.000Z</time>
      </trkpt>
      <trkpt lat="45.78433" lon="4.89473">
        <ele>172</ele>
        <time>2016-08-19T08:26:50.000Z</time>
      </trkpt>
      <trkpt lat="45.78432" lon="4.8947">
        <ele>172</ele>
        <time>2016-08-19T08:26:51.000Z</time>
      </trkpt>
      <trkpt lat="45.78431" lon="4.89467">
        <ele>172</ele>
        <time>2016-08-19T08:26:52.000Z</time>
      </trkpt>
      <trkpt lat="45.7843" lon="4.89464">
        <ele>172</ele>
        <time>2016-08-19T08:26:53.000Z</time>
      </trkpt>
      <trkpt lat="45.78428" lon="4.89461">
        <ele>172</ele>
        <time>2016-08-19T08:26:54.000Z</time>
      </trkpt>
      <trkpt lat="45.78427" lon="4.89458">
        <ele>172</ele>
        <time>2016-08-19T08:26:55.000Z</time>
      </trkpt>
      <trkpt lat="45.78425" lon="4.89454">
        <ele>172</ele>
        <time>2016-08-19T08:26:56.000Z</time>
      </trkpt>
      <trkpt lat="45.78424" lon="4.89451">
        <ele>172</ele>
        <time>2016-08-19T08:26:57.000Z</time>
      </trkpt>
      <trkpt lat="45.78423" lon="4.89448">
        <ele>172</ele>
        <time>2016-08-19T08:26:58.000Z</time>
      </trkpt>
      <trkpt lat="45.78422" lon="4.89444">
        <ele>172</ele>
        <time>2016-08-19T08:26:59.000Z</time>
      </trkpt>
      <trkpt lat="45.78421" lon="4.8944">
        <ele>172</ele>
        <time>2016-08-19T08:27:00.000Z</time>
      </trkpt>
      <trkpt lat="45.78421" lon="4.89436">
        <ele>172</ele>
        <time>2016-08-19T08:27:01.000Z</time>
      </trkpt>
      <trkpt lat="45.78421" lon="4.89433">
        <ele>172</ele>
        <time>2016-08-19T08:27:02.000Z</time>
      </trkpt>
      <trkpt lat="45.78422" lon="4.8943">
        <ele>172</ele>
        <time>2016-08-19T08:27:03.000Z</time>
      </trkpt>
      <trkpt lat="45.78424" lon="4.89427">
        <ele>172</ele>
        <time>2016-08-19T08:27:04.000Z</time>
      </trkpt>
      <trkpt lat="45.78426" lon="4.89424">
        <ele>172</ele>
        <time>2016-08-19T08:27:05.000Z</time>
      </trkpt>
      <trkpt lat="45.78428" lon="4.89423">
        <ele>172</ele>
        <time>2016-08-19T08:27:06.000Z</time>
      </trkpt>
      <trkpt lat="45.7843" lon="4.89421">
        <ele>172</ele>
        <time>2016-08-19T08:27:07.000Z</time>
      </trkpt>
      <trkpt lat="45.78432" lon="4.8942">
        <ele>172</ele>
        <time>2016-08-19T08:27:08.000Z</time>
      </trkpt>
      <trkpt lat="45.78434" lon="4.89419">
        <ele>172</ele>
        <time>2016-08-19T08:27:09.000Z</time>
      </trkpt>
      <trkpt lat="45.78437" lon="4.89418">
        <ele>172</ele>
        <time>2016-08-19T08:27:10.000Z</time>
      </trkpt>
      <trkpt lat="45.78439" lon="4.89419">
        <ele>172</ele>
        <time>2016-08-19T08:27:11.000Z</time>
      </trkpt>
      <trkpt lat="45.78442" lon="4.89419">
        <ele>172</ele>
        <time>2016-08-19T08:27:12.000Z</time>
      </trkpt>
      <trkpt lat="45.78444" lon="4.89419">
        <ele>172</ele>
        <time>2016-08-19T08:27:13.000Z</time>
      </trkpt>
      <trkpt lat="45.78446" lon="4.89418">
        <ele>172</ele>
        <time>2016-08-19T08:27:14.000Z</time>
      </trkpt>
      <trkpt lat="45.78448" lon="4.89417">
        <ele>172</ele>
        <time>2016-08-19T08:27:15.000Z</time>
      </trkpt>
      <trkpt lat="45.7845" lon="4.89415">
        <ele>172</ele>
        <time>2016-08-19T08:27:16.000Z</time>
      </trkpt>
      <trkpt lat="45.78452" lon="4.89414">
        <ele>172</ele>
        <time>2016-08-19T08:27:17.000Z</time>
      </trkpt>
      <trkpt lat="45.78455" lon="4.89413">
        <ele>172</ele>
        <time>2016-08-19T08:27:18.000Z</time>
      </trkpt>
      <trkpt lat="45.78458" lon="4.89412">
        <ele>172</ele>
        <time>2016-08-19T08:27:19.000Z</time>
      </trkpt>
      <trkpt lat="45.7846" lon="4.8941">
        <ele>172</ele>
        <time>2016-08-19T08:27:20.000Z</time>
      </trkpt>
      <trkpt lat="45.78462" lon="4.89409">
        <ele>172</ele>
        <time>2016-08-19T08:27:21.000Z</time>
      </trkpt>
      <trkpt lat="45.78464" lon="4.89408">
        <ele>172</ele>
        <time>2016-08-19T08:27:22.000Z</time>
      </trkpt>
      <trkpt lat="45.78467" lon="4.89408">
        <ele>172</ele>
        <time>2016-08-19T08:27:23.000Z</time>
      </trkpt>
      <trkpt lat="45.78469" lon="4.89407">
        <ele>172</ele>
        <time>2016-08-19T08:27:24.000Z</time>
      </trkpt>
      <trkpt lat="45.78472" lon="4.89406">
        <ele>172</ele>
        <time>2016-08-19T08:27:25.000Z</time>
      </trkpt>
      <trkpt lat="45.78474" lon="4.89405">
        <ele>172</ele>
        <time>2016-08-19T08:27:26.000Z</time>
      </trkpt>
      <trkpt lat="45.78477" lon="4.89405">
        <ele>172</ele>
        <time>2016-08-19T08:27:27.000Z</time>
      </trkpt>
      <trkpt lat="45.78479" lon="4.89404">
        <ele>172</ele>
        <time>2016-08-19T08:27:28.000Z</time>
      </trkpt>
      <trkpt lat="45.78482" lon="4.89403">
        <ele>171.80000305176</ele>
        <time>2016-08-19T08:27:29.000Z</time>
      </trkpt>
      <trkpt lat="45.78485" lon="4.89402">
        <ele>171.80000305176</ele>
        <time>2016-08-19T08:27:30.000Z</time>
      </trkpt>
      <trkpt lat="45.78488" lon="4.89401">
        <ele>171.80000305176</ele>
        <time>2016-08-19T08:27:31.000Z</time>
      </trkpt>
      <trkpt lat="45.7849" lon="4.89399">
        <ele>171.80000305176</ele>
        <time>2016-08-19T08:27:32.000Z</time>
      </trkpt>
      <trkpt lat="45.78493" lon="4.89398">
        <ele>171.80000305176</ele>
        <time>2016-08-19T08:27:33.000Z</time>
      </trkpt>
      <trkpt lat="45.78496" lon="4.89397">
        <ele>171.80000305176</ele>
        <time>2016-08-19T08:27:34.000Z</time>
      </trkpt>
      <trkpt lat="45.78499" lon="4.89396">
        <ele>171.80000305176</ele>
        <time>2016-08-19T08:27:35.000Z</time>
      </trkpt>
      <trkpt lat="45.78502" lon="4.89395">
        <ele>171.80000305176</ele>
        <time>2016-08-19T08:27:36.000Z</time>
      </trkpt>
      <trkpt lat="45.78505" lon="4.89393">
        <ele>171.80000305176</ele>
        <time>2016-08-19T08:27:37.000Z</time>
      </trkpt>
      <trkpt lat="45.78508" lon="4.89392">
        <ele>171.80000305176</ele>
        <time>2016-08-19T08:27:38.000Z</time>
      </trkpt>
      <trkpt lat="45.7851" lon="4.8939">
        <ele>171.80000305176</ele>
        <time>2016-08-19T08:27:39.000Z</time>
      </trkpt>
      <trkpt lat="45.78513" lon="4.89389">
        <ele>171.80000305176</ele>
        <time>2016-08-19T08:27:40.000Z</time>
      </trkpt>
      <trkpt lat="45.78516" lon="4.89387">
        <ele>171.80000305176</ele>
        <time>2016-08-19T08:27:41.000Z</time>
      </trkpt>
      <trkpt lat="45.78518" lon="4.89386">
        <ele>171.80000305176</ele>
        <time>2016-08-19T08:27:42.000Z</time>
      </trkpt>
      <trkpt lat="45.7852" lon="4.89384">
        <ele>171.80000305176</ele>
        <time>2016-08-19T08:27:43.000Z</time>
      </trkpt>
      <trkpt lat="45.78523" lon="4.89382">
        <ele>171.80000305176</ele>
        <time>2016-08-19T08:27:44.000Z</time>
      </trkpt>
      <trkpt lat="45.78525" lon="4.89381">
        <ele>172</ele>
        <time>2016-08-19T08:27:45.000Z</time>
      </trkpt>
      <trkpt lat="45.78527" lon="4.89379">
        <ele>172</ele>
        <time>2016-08-19T08:27:46.000Z</time>
      </trkpt>
      <trkpt lat="45.78529" lon="4.89378">
        <ele>172</ele>
        <time>2016-08-19T08:27:47.000Z</time>
      </trkpt>
      <trkpt lat="45.78531" lon="4.89377">
        <ele>172</ele>
        <time>2016-08-19T08:27:48.000Z</time>
      </trkpt>
      <trkpt lat="45.78533" lon="4.89376">
        <ele>172</ele>
        <time>2016-08-19T08:27:49.000Z</time>
      </trkpt>
      <trkpt lat="45.78535" lon="4.89374">
        <ele>172</ele>
        <time>2016-08-19T08:27:50.000Z</time>
      </trkpt>
      <trkpt lat="45.78537" lon="4.89373">
        <ele>172</ele>
        <time>2016-08-19T08:27:51.000Z</time>
      </trkpt>
      <trkpt lat="45.78539" lon="4.89371">
        <ele>172</ele>
        <time>2016-08-19T08:27:52.000Z</time>
      </trkpt>
      <trkpt lat="45.78542" lon="4.8937">
        <ele>172</ele>
        <time>2016-08-19T08:27:53.000Z</time>
      </trkpt>
      <trkpt lat="45.78544" lon="4.89369">
        <ele>172</ele>
        <time>2016-08-19T08:27:54.000Z</time>
      </trkpt>
      <trkpt lat="45.78546" lon="4.89367">
        <ele>172</ele>
        <time>2016-08-19T08:27:55.000Z</time>
      </trkpt>
      <trkpt lat="45.7855" lon="4.89365">
        <ele>172</ele>
        <time>2016-08-19T08:27:56.000Z</time>
      </trkpt>
      <trkpt lat="45.78552" lon="4.89364">
        <ele>171.80000305176</ele>
        <time>2016-08-19T08:27:57.000Z</time>
      </trkpt>
      <trkpt lat="45.78554" lon="4.89362">
        <ele>171.80000305176</ele>
        <time>2016-08-19T08:27:58.000Z</time>
      </trkpt>
      <trkpt lat="45.78556" lon="4.89361">
        <ele>171.80000305176</ele>
        <time>2016-08-19T08:27:59.000Z</time>
      </trkpt>
      <trkpt lat="45.78558" lon="4.8936">
        <ele>171.80000305176</ele>
        <time>2016-08-19T08:28:00.000Z</time>
      </trkpt>
      <trkpt lat="45.7856" lon="4.89359">
        <ele>171.80000305176</ele>
        <time>2016-08-19T08:28:01.000Z</time>
      </trkpt>
      <trkpt lat="45.78562" lon="4.89358">
        <ele>171.80000305176</ele>
        <time>2016-08-19T08:28:02.000Z</time>
      </trkpt>
      <trkpt lat="45.78565" lon="4.89356">
        <ele>171.80000305176</ele>
        <time>2016-08-19T08:28:03.000Z</time>
      </trkpt>
      <trkpt lat="45.78568" lon="4.89354">
        <ele>171.80000305176</ele>
        <time>2016-08-19T08:28:04.000Z</time>
      </trkpt>
      <trkpt lat="45.78571" lon="4.89353">
        <ele>171.80000305176</ele>
        <time>2016-08-19T08:28:05.000Z</time>
      </trkpt>
      <trkpt lat="45.78573" lon="4.89351">
        <ele>171.80000305176</ele>
        <time>2016-08-19T08:28:06.000Z</time>
      </trkpt>
      <trkpt lat="45.78575" lon="4.89349">
        <ele>171.80000305176</ele>
        <time>2016-08-19T08:28:07.000Z</time>
      </trkpt>
      <trkpt lat="45.78578" lon="4.89348">
        <ele>171.60000610352</ele>
        <time>2016-08-19T08:28:08.000Z</time>
      </trkpt>
      <trkpt lat="45.7858" lon="4.89346">
        <ele>171.60000610352</ele>
        <time>2016-08-19T08:28:09.000Z</time>
      </trkpt>
      <trkpt lat="45.78582" lon="4.89344">
        <ele>171.60000610352</ele>
        <time>2016-08-19T08:28:10.000Z</time>
      </trkpt>
      <trkpt lat="45.78584" lon="4.89343">
        <ele>171.60000610352</ele>
        <time>2016-08-19T08:28:11.000Z</time>
      </trkpt>
      <trkpt lat="45.78586" lon="4.89341">
        <ele>171.60000610352</ele>
        <time>2016-08-19T08:28:12.000Z</time>
      </trkpt>
      <trkpt lat="45.78589" lon="4.89339">
        <ele>171.60000610352</ele>
        <time>2016-08-19T08:28:13.000Z</time>
      </trkpt>
      <trkpt lat="45.78591" lon="4.89338">
        <ele>171.60000610352</ele>
        <time>2016-08-19T08:28:14.000Z</time>
      </trkpt>
      <trkpt lat="45.78593" lon="4.89337">
        <ele>171.60000610352</ele>
        <time>2016-08-19T08:28:15.000Z</time>
      </trkpt>
      <trkpt lat="45.78596" lon="4.89336">
        <ele>171.60000610352</ele>
        <time>2016-08-19T08:28:16.000Z</time>
      </trkpt>
      <trkpt lat="45.78598" lon="4.89334">
        <ele>171.60000610352</ele>
        <time>2016-08-19T08:28:17.000Z</time>
      </trkpt>
      <trkpt lat="45.786" lon="4.89333">
        <ele>171.60000610352</ele>
        <time>2016-08-19T08:28:18.000Z</time>
      </trkpt>
      <trkpt lat="45.78603" lon="4.89332">
        <ele>171.60000610352</ele>
        <time>2016-08-19T08:28:19.000Z</time>
      </trkpt>
      <trkpt lat="45.78605" lon="4.89331">
        <ele>171.39999389648</ele>
        <time>2016-08-19T08:28:20.000Z</time>
      </trkpt>
      <trkpt lat="45.78607" lon="4.89329">
        <ele>171.39999389648</ele>
        <time>2016-08-19T08:28:21.000Z</time>
      </trkpt>
      <trkpt lat="45.78609" lon="4.89328">
        <ele>171.39999389648</ele>
        <time>2016-08-19T08:28:22.000Z</time>
      </trkpt>
      <trkpt lat="45.78612" lon="4.89328">
        <ele>171.39999389648</ele>
        <time>2016-08-19T08:28:23.000Z</time>
      </trkpt>
      <trkpt lat="45.78614" lon="4.89327">
        <ele>171.39999389648</ele>
        <time>2016-08-19T08:28:24.000Z</time>
      </trkpt>
      <trkpt lat="45.78617" lon="4.89325">
        <ele>171.39999389648</ele>
        <time>2016-08-19T08:28:25.000Z</time>
      </trkpt>
      <trkpt lat="45.78619" lon="4.89324">
        <ele>171.39999389648</ele>
        <time>2016-08-19T08:28:26.000Z</time>
      </trkpt>
      <trkpt lat="45.78621" lon="4.89323">
        <ele>171.39999389648</ele>
        <time>2016-08-19T08:28:27.000Z</time>
      </trkpt>
      <trkpt lat="45.78624" lon="4.89323">
        <ele>171.39999389648</ele>
        <time>2016-08-19T08:28:28.000Z</time>
      </trkpt>
      <trkpt lat="45.78625" lon="4.89323">
        <ele>171.39999389648</ele>
        <time>2016-08-19T08:28:29.000Z</time>
      </trkpt>
      <trkpt lat="45.78627" lon="4.89324">
        <ele>171.39999389648</ele>
        <time>2016-08-19T08:28:30.000Z</time>
      </trkpt>
      <trkpt lat="45.78628" lon="4.89324">
        <ele>171.39999389648</ele>
        <time>2016-08-19T08:28:31.000Z</time>
      </trkpt>
      <trkpt lat="45.78629" lon="4.89324">
        <ele>171.39999389648</ele>
        <time>2016-08-19T08:28:32.000Z</time>
      </trkpt>
      <trkpt lat="45.78629" lon="4.89324">
        <ele>171.39999389648</ele>
        <time>2016-08-19T08:28:33.000Z</time>
      </trkpt>
      <trkpt lat="45.78628" lon="4.89325">
        <ele>171.39999389648</ele>
        <time>2016-08-19T08:28:34.000Z</time>
      </trkpt>
      <trkpt lat="45.7863" lon="4.89324">
        <ele>171.39999389648</ele>
        <time>2016-08-19T08:28:35.000Z</time>
      </trkpt>
      <trkpt lat="45.7863" lon="4.89323">
        <ele>171.39999389648</ele>
        <time>2016-08-19T08:28:36.000Z</time>
      </trkpt>
      <trkpt lat="45.78632" lon="4.89321">
        <ele>171.39999389648</ele>
        <time>2016-08-19T08:28:37.000Z</time>
      </trkpt>
      <trkpt lat="45.78632" lon="4.89319">
        <ele>171.39999389648</ele>
        <time>2016-08-19T08:28:38.000Z</time>
      </trkpt>
      <trkpt lat="45.78632" lon="4.89316">
        <ele>171.39999389648</ele>
        <time>2016-08-19T08:28:39.000Z</time>
      </trkpt>
      <trkpt lat="45.78632" lon="4.89312">
        <ele>171.19999694824</ele>
        <time>2016-08-19T08:28:40.000Z</time>
      </trkpt>
      <trkpt lat="45.78633" lon="4.89308">
        <ele>171.19999694824</ele>
        <time>2016-08-19T08:28:41.000Z</time>
      </trkpt>
      <trkpt lat="45.78633" lon="4.89304">
        <ele>171.19999694824</ele>
        <time>2016-08-19T08:28:42.000Z</time>
      </trkpt>
      <trkpt lat="45.78634" lon="4.89302">
        <ele>171.19999694824</ele>
        <time>2016-08-19T08:28:43.000Z</time>
      </trkpt>
      <trkpt lat="45.78636" lon="4.89299">
        <ele>171.19999694824</ele>
        <time>2016-08-19T08:28:44.000Z</time>
      </trkpt>
      <trkpt lat="45.78638" lon="4.89295">
        <ele>171</ele>
        <time>2016-08-19T08:28:45.000Z</time>
      </trkpt>
      <trkpt lat="45.7864" lon="4.89292">
        <ele>171</ele>
        <time>2016-08-19T08:28:46.000Z</time>
      </trkpt>
      <trkpt lat="45.78643" lon="4.89289">
        <ele>171</ele>
        <time>2016-08-19T08:28:47.000Z</time>
      </trkpt>
      <trkpt lat="45.78645" lon="4.89287">
        <ele>171</ele>
        <time>2016-08-19T08:28:48.000Z</time>
      </trkpt>
      <trkpt lat="45.78647" lon="4.89284">
        <ele>171</ele>
        <time>2016-08-19T08:28:49.000Z</time>
      </trkpt>
      <trkpt lat="45.78649" lon="4.89283">
        <ele>171</ele>
        <time>2016-08-19T08:28:50.000Z</time>
      </trkpt>
      <trkpt lat="45.78651" lon="4.89281">
        <ele>171.19999694824</ele>
        <time>2016-08-19T08:28:51.000Z</time>
      </trkpt>
      <trkpt lat="45.78653" lon="4.89279">
        <ele>171.19999694824</ele>
        <time>2016-08-19T08:28:52.000Z</time>
      </trkpt>
      <trkpt lat="45.78654" lon="4.89278">
        <ele>171.19999694824</ele>
        <time>2016-08-19T08:28:53.000Z</time>
      </trkpt>
      <trkpt lat="45.78656" lon="4.89276">
        <ele>171.19999694824</ele>
        <time>2016-08-19T08:28:54.000Z</time>
      </trkpt>
      <trkpt lat="45.78658" lon="4.89275">
        <ele>171.19999694824</ele>
        <time>2016-08-19T08:28:55.000Z</time>
      </trkpt>
      <trkpt lat="45.78661" lon="4.89274">
        <ele>171.19999694824</ele>
        <time>2016-08-19T08:28:56.000Z</time>
      </trkpt>
      <trkpt lat="45.78663" lon="4.89272">
        <ele>171.19999694824</ele>
        <time>2016-08-19T08:28:57.000Z</time>
      </trkpt>
      <trkpt lat="45.78665" lon="4.8927">
        <ele>171.19999694824</ele>
        <time>2016-08-19T08:28:58.000Z</time>
      </trkpt>
      <trkpt lat="45.78667" lon="4.89269">
        <ele>171.19999694824</ele>
        <time>2016-08-19T08:28:59.000Z</time>
      </trkpt>
      <trkpt lat="45.78669" lon="4.89267">
        <ele>171.19999694824</ele>
        <time>2016-08-19T08:29:00.000Z</time>
      </trkpt>
      <trkpt lat="45.78671" lon="4.89266">
        <ele>171.19999694824</ele>
        <time>2016-08-19T08:29:01.000Z</time>
      </trkpt>
      <trkpt lat="45.78673" lon="4.89264">
        <ele>171.39999389648</ele>
        <time>2016-08-19T08:29:02.000Z</time>
      </trkpt>
      <trkpt lat="45.78676" lon="4.89262">
        <ele>171.39999389648</ele>
        <time>2016-08-19T08:29:03.000Z</time>
      </trkpt>
      <trkpt lat="45.78678" lon="4.8926">
        <ele>171.39999389648</ele>
        <time>2016-08-19T08:29:04.000Z</time>
      </trkpt>
      <trkpt lat="45.78681" lon="4.89258">
        <ele>171.39999389648</ele>
        <time>2016-08-19T08:29:05.000Z</time>
      </trkpt>
      <trkpt lat="45.78683" lon="4.89256">
        <ele>171.39999389648</ele>
        <time>2016-08-19T08:29:06.000Z</time>
      </trkpt>
      <trkpt lat="45.78685" lon="4.89255">
        <ele>171.39999389648</ele>
        <time>2016-08-19T08:29:07.000Z</time>
      </trkpt>
      <trkpt lat="45.78686" lon="4.89253">
        <ele>171.39999389648</ele>
        <time>2016-08-19T08:29:08.000Z</time>
      </trkpt>
      <trkpt lat="45.78688" lon="4.89251">
        <ele>171.39999389648</ele>
        <time>2016-08-19T08:29:09.000Z</time>
      </trkpt>
      <trkpt lat="45.78691" lon="4.89249">
        <ele>171.39999389648</ele>
        <time>2016-08-19T08:29:10.000Z</time>
      </trkpt>
      <trkpt lat="45.78694" lon="4.89247">
        <ele>171.39999389648</ele>
        <time>2016-08-19T08:29:11.000Z</time>
      </trkpt>
      <trkpt lat="45.78698" lon="4.89245">
        <ele>171.19999694824</ele>
        <time>2016-08-19T08:29:12.000Z</time>
      </trkpt>
      <trkpt lat="45.78701" lon="4.89243">
        <ele>171.19999694824</ele>
        <time>2016-08-19T08:29:13.000Z</time>
      </trkpt>
      <trkpt lat="45.78703" lon="4.89241">
        <ele>171.19999694824</ele>
        <time>2016-08-19T08:29:14.000Z</time>
      </trkpt>
      <trkpt lat="45.78705" lon="4.89239">
        <ele>171.19999694824</ele>
        <time>2016-08-19T08:29:15.000Z</time>
      </trkpt>
      <trkpt lat="45.78707" lon="4.89237">
        <ele>171.19999694824</ele>
        <time>2016-08-19T08:29:16.000Z</time>
      </trkpt>
      <trkpt lat="45.78709" lon="4.89235">
        <ele>171.19999694824</ele>
        <time>2016-08-19T08:29:17.000Z</time>
      </trkpt>
      <trkpt lat="45.78711" lon="4.89233">
        <ele>171.19999694824</ele>
        <time>2016-08-19T08:29:18.000Z</time>
      </trkpt>
      <trkpt lat="45.78713" lon="4.89231">
        <ele>171</ele>
        <time>2016-08-19T08:29:19.000Z</time>
      </trkpt>
      <trkpt lat="45.78715" lon="4.89229">
        <ele>171</ele>
        <time>2016-08-19T08:29:20.000Z</time>
      </trkpt>
      <trkpt lat="45.78718" lon="4.89227">
        <ele>171</ele>
        <time>2016-08-19T08:29:21.000Z</time>
      </trkpt>
      <trkpt lat="45.7872" lon="4.89226">
        <ele>171</ele>
        <time>2016-08-19T08:29:22.000Z</time>
      </trkpt>
      <trkpt lat="45.78722" lon="4.89224">
        <ele>171</ele>
        <time>2016-08-19T08:29:23.000Z</time>
      </trkpt>
      <trkpt lat="45.78724" lon="4.89222">
        <ele>171</ele>
        <time>2016-08-19T08:29:24.000Z</time>
      </trkpt>
      <trkpt lat="45.78726" lon="4.8922">
        <ele>171</ele>
        <time>2016-08-19T08:29:25.000Z</time>
      </trkpt>
      <trkpt lat="45.78728" lon="4.89217">
        <ele>171</ele>
        <time>2016-08-19T08:29:26.000Z</time>
      </trkpt>
      <trkpt lat="45.7873" lon="4.89215">
        <ele>171</ele>
        <time>2016-08-19T08:29:27.000Z</time>
      </trkpt>
      <trkpt lat="45.78732" lon="4.89212">
        <ele>171</ele>
        <time>2016-08-19T08:29:28.000Z</time>
      </trkpt>
      <trkpt lat="45.78735" lon="4.8921">
        <ele>171.19999694824</ele>
        <time>2016-08-19T08:29:29.000Z</time>
      </trkpt>
      <trkpt lat="45.78737" lon="4.89209">
        <ele>171.19999694824</ele>
        <time>2016-08-19T08:29:30.000Z</time>
      </trkpt>
      <trkpt lat="45.78739" lon="4.89206">
        <ele>171.39999389648</ele>
        <time>2016-08-19T08:29:31.000Z</time>
      </trkpt>
      <trkpt lat="45.78741" lon="4.89204">
        <ele>171.39999389648</ele>
        <time>2016-08-19T08:29:32.000Z</time>
      </trkpt>
      <trkpt lat="45.78744" lon="4.89201">
        <ele>171.39999389648</ele>
        <time>2016-08-19T08:29:33.000Z</time>
      </trkpt>
      <trkpt lat="45.78745" lon="4.892">
        <ele>171.39999389648</ele>
        <time>2016-08-19T08:29:34.000Z</time>
      </trkpt>
      <trkpt lat="45.78747" lon="4.89198">
        <ele>171.60000610352</ele>
        <time>2016-08-19T08:29:35.000Z</time>
      </trkpt>
      <trkpt lat="45.78749" lon="4.89197">
        <ele>171.60000610352</ele>
        <time>2016-08-19T08:29:36.000Z</time>
      </trkpt>
      <trkpt lat="45.78751" lon="4.89197">
        <ele>171.60000610352</ele>
        <time>2016-08-19T08:29:37.000Z</time>
      </trkpt>
      <trkpt lat="45.78754" lon="4.89198">
        <ele>171.60000610352</ele>
        <time>2016-08-19T08:29:38.000Z</time>
      </trkpt>
      <trkpt lat="45.78755" lon="4.89201">
        <ele>171.80000305176</ele>
        <time>2016-08-19T08:29:39.000Z</time>
      </trkpt>
      <trkpt lat="45.78756" lon="4.89205">
        <ele>171.80000305176</ele>
        <time>2016-08-19T08:29:40.000Z</time>
      </trkpt>
      <trkpt lat="45.78757" lon="4.89208">
        <ele>171.80000305176</ele>
        <time>2016-08-19T08:29:41.000Z</time>
      </trkpt>
      <trkpt lat="45.78757" lon="4.89211">
        <ele>171.80000305176</ele>
        <time>2016-08-19T08:29:42.000Z</time>
      </trkpt>
      <trkpt lat="45.78758" lon="4.89214">
        <ele>171.60000610352</ele>
        <time>2016-08-19T08:29:43.000Z</time>
      </trkpt>
      <trkpt lat="45.78759" lon="4.89217">
        <ele>171.60000610352</ele>
        <time>2016-08-19T08:29:44.000Z</time>
      </trkpt>
      <trkpt lat="45.78759" lon="4.8922">
        <ele>171.39999389648</ele>
        <time>2016-08-19T08:29:45.000Z</time>
      </trkpt>
      <trkpt lat="45.78759" lon="4.89223">
        <ele>171.39999389648</ele>
        <time>2016-08-19T08:29:46.000Z</time>
      </trkpt>
      <trkpt lat="45.7876" lon="4.89226">
        <ele>171.19999694824</ele>
        <time>2016-08-19T08:29:47.000Z</time>
      </trkpt>
      <trkpt lat="45.78761" lon="4.89229">
        <ele>171.19999694824</ele>
        <time>2016-08-19T08:29:48.000Z</time>
      </trkpt>
      <trkpt lat="45.78761" lon="4.89233">
        <ele>171</ele>
        <time>2016-08-19T08:29:49.000Z</time>
      </trkpt>
      <trkpt lat="45.78762" lon="4.89236">
        <ele>171</ele>
        <time>2016-08-19T08:29:50.000Z</time>
      </trkpt>
      <trkpt lat="45.78763" lon="4.8924">
        <ele>170.80000305176</ele>
        <time>2016-08-19T08:29:51.000Z</time>
      </trkpt>
      <trkpt lat="45.78764" lon="4.89243">
        <ele>170.60000610352</ele>
        <time>2016-08-19T08:29:52.000Z</time>
      </trkpt>
      <trkpt lat="45.78765" lon="4.89247">
        <ele>170.60000610352</ele>
        <time>2016-08-19T08:29:53.000Z</time>
      </trkpt>
      <trkpt lat="45.78766" lon="4.89251">
        <ele>170.39999389648</ele>
        <time>2016-08-19T08:29:54.000Z</time>
      </trkpt>
      <trkpt lat="45.78767" lon="4.89254">
        <ele>170.39999389648</ele>
        <time>2016-08-19T08:29:55.000Z</time>
      </trkpt>
      <trkpt lat="45.78768" lon="4.89257">
        <ele>170.39999389648</ele>
        <time>2016-08-19T08:29:56.000Z</time>
      </trkpt>
      <trkpt lat="45.78769" lon="4.89261">
        <ele>170.39999389648</ele>
        <time>2016-08-19T08:29:57.000Z</time>
      </trkpt>
      <trkpt lat="45.78769" lon="4.89264">
        <ele>170.39999389648</ele>
        <time>2016-08-19T08:29:58.000Z</time>
      </trkpt>
      <trkpt lat="45.7877" lon="4.89267">
        <ele>170.39999389648</ele>
        <time>2016-08-19T08:29:59.000Z</time>
      </trkpt>
      <trkpt lat="45.78772" lon="4.89271">
        <ele>170.39999389648</ele>
        <time>2016-08-19T08:30:00.000Z</time>
      </trkpt>
      <trkpt lat="45.78773" lon="4.89274">
        <ele>170.39999389648</ele>
        <time>2016-08-19T08:30:01.000Z</time>
      </trkpt>
      <trkpt lat="45.78774" lon="4.89278">
        <ele>170.39999389648</ele>
        <time>2016-08-19T08:30:02.000Z</time>
      </trkpt>
      <trkpt lat="45.78775" lon="4.89281">
        <ele>170.39999389648</ele>
        <time>2016-08-19T08:30:03.000Z</time>
      </trkpt>
      <trkpt lat="45.78776" lon="4.89285">
        <ele>170.39999389648</ele>
        <time>2016-08-19T08:30:04.000Z</time>
      </trkpt>
      <trkpt lat="45.78776" lon="4.89288">
        <ele>170.39999389648</ele>
        <time>2016-08-19T08:30:05.000Z</time>
      </trkpt>
      <trkpt lat="45.78777" lon="4.89292">
        <ele>170.39999389648</ele>
        <time>2016-08-19T08:30:06.000Z</time>
      </trkpt>
      <trkpt lat="45.78778" lon="4.89295">
        <ele>170.39999389648</ele>
        <time>2016-08-19T08:30:07.000Z</time>
      </trkpt>
      <trkpt lat="45.78778" lon="4.89299">
        <ele>170.39999389648</ele>
        <time>2016-08-19T08:30:08.000Z</time>
      </trkpt>
      <trkpt lat="45.78778" lon="4.89302">
        <ele>170.39999389648</ele>
        <time>2016-08-19T08:30:09.000Z</time>
      </trkpt>
      <trkpt lat="45.78779" lon="4.89306">
        <ele>170.39999389648</ele>
        <time>2016-08-19T08:30:10.000Z</time>
      </trkpt>
      <trkpt lat="45.7878" lon="4.89309">
        <ele>170.19999694824</ele>
        <time>2016-08-19T08:30:11.000Z</time>
      </trkpt>
      <trkpt lat="45.78781" lon="4.89312">
        <ele>170.19999694824</ele>
        <time>2016-08-19T08:30:12.000Z</time>
      </trkpt>
      <trkpt lat="45.78782" lon="4.89316">
        <ele>170.19999694824</ele>
        <time>2016-08-19T08:30:13.000Z</time>
      </trkpt>
      <trkpt lat="45.78783" lon="4.89319">
        <ele>170.19999694824</ele>
        <time>2016-08-19T08:30:14.000Z</time>
      </trkpt>
      <trkpt lat="45.78784" lon="4.89322">
        <ele>170.19999694824</ele>
        <time>2016-08-19T08:30:15.000Z</time>
      </trkpt>
      <trkpt lat="45.78785" lon="4.89325">
        <ele>170.19999694824</ele>
        <time>2016-08-19T08:30:16.000Z</time>
      </trkpt>
      <trkpt lat="45.78786" lon="4.89329">
        <ele>170.19999694824</ele>
        <time>2016-08-19T08:30:17.000Z</time>
      </trkpt>
      <trkpt lat="45.78787" lon="4.89332">
        <ele>170.19999694824</ele>
        <time>2016-08-19T08:30:18.000Z</time>
      </trkpt>
      <trkpt lat="45.78788" lon="4.89335">
        <ele>170.19999694824</ele>
        <time>2016-08-19T08:30:19.000Z</time>
      </trkpt>
      <trkpt lat="45.7879" lon="4.89338">
        <ele>170.19999694824</ele>
        <time>2016-08-19T08:30:20.000Z</time>
      </trkpt>
      <trkpt lat="45.78792" lon="4.89341">
        <ele>170.19999694824</ele>
        <time>2016-08-19T08:30:21.000Z</time>
      </trkpt>
      <trkpt lat="45.78793" lon="4.89344">
        <ele>170.19999694824</ele>
        <time>2016-08-19T08:30:22.000Z</time>
      </trkpt>
      <trkpt lat="45.78794" lon="4.89348">
        <ele>170.19999694824</ele>
        <time>2016-08-19T08:30:23.000Z</time>
      </trkpt>
      <trkpt lat="45.78795" lon="4.89351">
        <ele>170.19999694824</ele>
        <time>2016-08-19T08:30:24.000Z</time>
      </trkpt>
      <trkpt lat="45.78797" lon="4.89354">
        <ele>170</ele>
        <time>2016-08-19T08:30:25.000Z</time>
      </trkpt>
      <trkpt lat="45.78798" lon="4.89357">
        <ele>170</ele>
        <time>2016-08-19T08:30:26.000Z</time>
      </trkpt>
      <trkpt lat="45.788" lon="4.8936">
        <ele>170</ele>
        <time>2016-08-19T08:30:27.000Z</time>
      </trkpt>
      <trkpt lat="45.78801" lon="4.89364">
        <ele>170</ele>
        <time>2016-08-19T08:30:28.000Z</time>
      </trkpt>
      <trkpt lat="45.78802" lon="4.89367">
        <ele>170</ele>
        <time>2016-08-19T08:30:29.000Z</time>
      </trkpt>
      <trkpt lat="45.78803" lon="4.8937">
        <ele>170</ele>
        <time>2016-08-19T08:30:30.000Z</time>
      </trkpt>
      <trkpt lat="45.78804" lon="4.89373">
        <ele>170</ele>
        <time>2016-08-19T08:30:31.000Z</time>
      </trkpt>
      <trkpt lat="45.78805" lon="4.89376">
        <ele>170</ele>
        <time>2016-08-19T08:30:32.000Z</time>
      </trkpt>
      <trkpt lat="45.78806" lon="4.89379">
        <ele>170</ele>
        <time>2016-08-19T08:30:33.000Z</time>
      </trkpt>
      <trkpt lat="45.78807" lon="4.89382">
        <ele>170.19999694824</ele>
        <time>2016-08-19T08:30:34.000Z</time>
      </trkpt>
      <trkpt lat="45.78808" lon="4.89385">
        <ele>170.19999694824</ele>
        <time>2016-08-19T08:30:35.000Z</time>
      </trkpt>
      <trkpt lat="45.78809" lon="4.89388">
        <ele>170.19999694824</ele>
        <time>2016-08-19T08:30:36.000Z</time>
      </trkpt>
      <trkpt lat="45.78811" lon="4.89391">
        <ele>170.39999389648</ele>
        <time>2016-08-19T08:30:37.000Z</time>
      </trkpt>
      <trkpt lat="45.78812" lon="4.89394">
        <ele>170.39999389648</ele>
        <time>2016-08-19T08:30:38.000Z</time>
      </trkpt>
      <trkpt lat="45.78813" lon="4.89398">
        <ele>170.39999389648</ele>
        <time>2016-08-19T08:30:39.000Z</time>
      </trkpt>
      <trkpt lat="45.78814" lon="4.89401">
        <ele>170.60000610352</ele>
        <time>2016-08-19T08:30:40.000Z</time>
      </trkpt>
      <trkpt lat="45.78815" lon="4.89404">
        <ele>170.60000610352</ele>
        <time>2016-08-19T08:30:41.000Z</time>
      </trkpt>
      <trkpt lat="45.78816" lon="4.89406">
        <ele>170.60000610352</ele>
        <time>2016-08-19T08:30:42.000Z</time>
      </trkpt>
      <trkpt lat="45.78817" lon="4.89409">
        <ele>170.80000305176</ele>
        <time>2016-08-19T08:30:43.000Z</time>
      </trkpt>
      <trkpt lat="45.78818" lon="4.89413">
        <ele>170.80000305176</ele>
        <time>2016-08-19T08:30:44.000Z</time>
      </trkpt>
      <trkpt lat="45.78819" lon="4.89416">
        <ele>170.80000305176</ele>
        <time>2016-08-19T08:30:45.000Z</time>
      </trkpt>
      <trkpt lat="45.78821" lon="4.89419">
        <ele>171</ele>
        <time>2016-08-19T08:30:46.000Z</time>
      </trkpt>
      <trkpt lat="45.78822" lon="4.89422">
        <ele>171</ele>
        <time>2016-08-19T08:30:47.000Z</time>
      </trkpt>
      <trkpt lat="45.78823" lon="4.89425">
        <ele>171</ele>
        <time>2016-08-19T08:30:48.000Z</time>
      </trkpt>
      <trkpt lat="45.78823" lon="4.89427">
        <ele>171</ele>
        <time>2016-08-19T08:30:49.000Z</time>
      </trkpt>
      <trkpt lat="45.78823" lon="4.89429">
        <ele>171.19999694824</ele>
        <time>2016-08-19T08:30:50.000Z</time>
      </trkpt>
      <trkpt lat="45.78824" lon="4.89432">
        <ele>171.19999694824</ele>
        <time>2016-08-19T08:30:51.000Z</time>
      </trkpt>
      <trkpt lat="45.78825" lon="4.89435">
        <ele>171.19999694824</ele>
        <time>2016-08-19T08:30:52.000Z</time>
      </trkpt>
      <trkpt lat="45.78826" lon="4.89438">
        <ele>171.19999694824</ele>
        <time>2016-08-19T08:30:53.000Z</time>
      </trkpt>
      <trkpt lat="45.78827" lon="4.89441">
        <ele>171.39999389648</ele>
        <time>2016-08-19T08:30:54.000Z</time>
      </trkpt>
      <trkpt lat="45.78828" lon="4.89443">
        <ele>171.39999389648</ele>
        <time>2016-08-19T08:30:55.000Z</time>
      </trkpt>
      <trkpt lat="45.78829" lon="4.89446">
        <ele>171.39999389648</ele>
        <time>2016-08-19T08:30:56.000Z</time>
      </trkpt>
      <trkpt lat="45.78829" lon="4.89449">
        <ele>171.39999389648</ele>
        <time>2016-08-19T08:30:57.000Z</time>
      </trkpt>
      <trkpt lat="45.78831" lon="4.89452">
        <ele>171.60000610352</ele>
        <time>2016-08-19T08:30:58.000Z</time>
      </trkpt>
      <trkpt lat="45.78832" lon="4.89454">
        <ele>171.60000610352</ele>
        <time>2016-08-19T08:30:59.000Z</time>
      </trkpt>
      <trkpt lat="45.78834" lon="4.89457">
        <ele>171.60000610352</ele>
        <time>2016-08-19T08:31:00.000Z</time>
      </trkpt>
      <trkpt lat="45.78835" lon="4.89459">
        <ele>171.80000305176</ele>
        <time>2016-08-19T08:31:01.000Z</time>
      </trkpt>
      <trkpt lat="45.78837" lon="4.89461">
        <ele>171.80000305176</ele>
        <time>2016-08-19T08:31:02.000Z</time>
      </trkpt>
      <trkpt lat="45.78839" lon="4.89463">
        <ele>172</ele>
        <time>2016-08-19T08:31:03.000Z</time>
      </trkpt>
      <trkpt lat="45.7884" lon="4.89465">
        <ele>172</ele>
        <time>2016-08-19T08:31:04.000Z</time>
      </trkpt>
      <trkpt lat="45.78841" lon="4.89468">
        <ele>172.19999694824</ele>
        <time>2016-08-19T08:31:05.000Z</time>
      </trkpt>
      <trkpt lat="45.78842" lon="4.8947">
        <ele>172.19999694824</ele>
        <time>2016-08-19T08:31:06.000Z</time>
      </trkpt>
      <trkpt lat="45.78843" lon="4.89472">
        <ele>172.39999389648</ele>
        <time>2016-08-19T08:31:07.000Z</time>
      </trkpt>
      <trkpt lat="45.78845" lon="4.89475">
        <ele>172.39999389648</ele>
        <time>2016-08-19T08:31:08.000Z</time>
      </trkpt>
      <trkpt lat="45.78846" lon="4.89477">
        <ele>172.39999389648</ele>
        <time>2016-08-19T08:31:09.000Z</time>
      </trkpt>
      <trkpt lat="45.78847" lon="4.8948">
        <ele>172.60000610352</ele>
        <time>2016-08-19T08:31:10.000Z</time>
      </trkpt>
      <trkpt lat="45.78848" lon="4.89483">
        <ele>172.60000610352</ele>
        <time>2016-08-19T08:31:11.000Z</time>
      </trkpt>
      <trkpt lat="45.7885" lon="4.89485">
        <ele>172.80000305176</ele>
        <time>2016-08-19T08:31:12.000Z</time>
      </trkpt>
      <trkpt lat="45.78852" lon="4.89488">
        <ele>172.80000305176</ele>
        <time>2016-08-19T08:31:13.000Z</time>
      </trkpt>
      <trkpt lat="45.78854" lon="4.8949">
        <ele>173</ele>
        <time>2016-08-19T08:31:14.000Z</time>
      </trkpt>
      <trkpt lat="45.78856" lon="4.89493">
        <ele>173.19999694824</ele>
        <time>2016-08-19T08:31:15.000Z</time>
      </trkpt>
      <trkpt lat="45.78858" lon="4.89495">
        <ele>173.19999694824</ele>
        <time>2016-08-19T08:31:16.000Z</time>
      </trkpt>
      <trkpt lat="45.7886" lon="4.89498">
        <ele>173.39999389648</ele>
        <time>2016-08-19T08:31:17.000Z</time>
      </trkpt>
      <trkpt lat="45.78862" lon="4.89501">
        <ele>173.39999389648</ele>
        <time>2016-08-19T08:31:18.000Z</time>
      </trkpt>
      <trkpt lat="45.78864" lon="4.89503">
        <ele>173.60000610352</ele>
        <time>2016-08-19T08:31:19.000Z</time>
      </trkpt>
      <trkpt lat="45.78866" lon="4.89506">
        <ele>173.60000610352</ele>
        <time>2016-08-19T08:31:20.000Z</time>
      </trkpt>
      <trkpt lat="45.78868" lon="4.89508">
        <ele>173.80000305176</ele>
        <time>2016-08-19T08:31:21.000Z</time>
      </trkpt>
      <trkpt lat="45.7887" lon="4.89511">
        <ele>173.80000305176</ele>
        <time>2016-08-19T08:31:22.000Z</time>
      </trkpt>
      <trkpt lat="45.78873" lon="4.89514">
        <ele>174</ele>
        <time>2016-08-19T08:31:23.000Z</time>
      </trkpt>
      <trkpt lat="45.78875" lon="4.89516">
        <ele>174</ele>
        <time>2016-08-19T08:31:24.000Z</time>
      </trkpt>
      <trkpt lat="45.78877" lon="4.89519">
        <ele>174.19999694824</ele>
        <time>2016-08-19T08:31:25.000Z</time>
      </trkpt>
      <trkpt lat="45.78879" lon="4.89521">
        <ele>174.39999389648</ele>
        <time>2016-08-19T08:31:26.000Z</time>
      </trkpt>
      <trkpt lat="45.78881" lon="4.89524">
        <ele>174.39999389648</ele>
        <time>2016-08-19T08:31:27.000Z</time>
      </trkpt>
      <trkpt lat="45.78883" lon="4.89527">
        <ele>174.60000610352</ele>
        <time>2016-08-19T08:31:28.000Z</time>
      </trkpt>
      <trkpt lat="45.78885" lon="4.8953">
        <ele>174.60000610352</ele>
        <time>2016-08-19T08:31:29.000Z</time>
      </trkpt>
      <trkpt lat="45.78887" lon="4.89532">
        <ele>174.80000305176</ele>
        <time>2016-08-19T08:31:30.000Z</time>
      </trkpt>
      <trkpt lat="45.78889" lon="4.89534">
        <ele>174.80000305176</ele>
        <time>2016-08-19T08:31:31.000Z</time>
      </trkpt>
      <trkpt lat="45.78891" lon="4.89537">
        <ele>175</ele>
        <time>2016-08-19T08:31:32.000Z</time>
      </trkpt>
      <trkpt lat="45.78893" lon="4.89539">
        <ele>175</ele>
        <time>2016-08-19T08:31:33.000Z</time>
      </trkpt>
      <trkpt lat="45.78894" lon="4.89541">
        <ele>175.19999694824</ele>
        <time>2016-08-19T08:31:34.000Z</time>
      </trkpt>
      <trkpt lat="45.78897" lon="4.89543">
        <ele>175.19999694824</ele>
        <time>2016-08-19T08:31:35.000Z</time>
      </trkpt>
      <trkpt lat="45.78898" lon="4.89545">
        <ele>175.19999694824</ele>
        <time>2016-08-19T08:31:36.000Z</time>
      </trkpt>
      <trkpt lat="45.789" lon="4.89548">
        <ele>175</ele>
        <time>2016-08-19T08:31:37.000Z</time>
      </trkpt>
      <trkpt lat="45.78901" lon="4.8955">
        <ele>175</ele>
        <time>2016-08-19T08:31:38.000Z</time>
      </trkpt>
      <trkpt lat="45.78902" lon="4.89553">
        <ele>175</ele>
        <time>2016-08-19T08:31:39.000Z</time>
      </trkpt>
      <trkpt lat="45.78903" lon="4.89555">
        <ele>175</ele>
        <time>2016-08-19T08:31:40.000Z</time>
      </trkpt>
      <trkpt lat="45.78904" lon="4.89558">
        <ele>175</ele>
        <time>2016-08-19T08:31:41.000Z</time>
      </trkpt>
      <trkpt lat="45.78906" lon="4.8956">
        <ele>175</ele>
        <time>2016-08-19T08:31:42.000Z</time>
      </trkpt>
      <trkpt lat="45.78907" lon="4.89563">
        <ele>175</ele>
        <time>2016-08-19T08:31:43.000Z</time>
      </trkpt>
      <trkpt lat="45.78908" lon="4.89567">
        <ele>175</ele>
        <time>2016-08-19T08:31:44.000Z</time>
      </trkpt>
      <trkpt lat="45.7891" lon="4.8957">
        <ele>175</ele>
        <time>2016-08-19T08:31:45.000Z</time>
      </trkpt>
      <trkpt lat="45.78911" lon="4.89573">
        <ele>175</ele>
        <time>2016-08-19T08:31:46.000Z</time>
      </trkpt>
      <trkpt lat="45.78912" lon="4.89577">
        <ele>175</ele>
        <time>2016-08-19T08:31:47.000Z</time>
      </trkpt>
      <trkpt lat="45.78913" lon="4.89581">
        <ele>175</ele>
        <time>2016-08-19T08:31:48.000Z</time>
      </trkpt>
      <trkpt lat="45.78912" lon="4.89585">
        <ele>175</ele>
        <time>2016-08-19T08:31:49.000Z</time>
      </trkpt>
      <trkpt lat="45.78911" lon="4.89589">
        <ele>175</ele>
        <time>2016-08-19T08:31:50.000Z</time>
      </trkpt>
      <trkpt lat="45.78911" lon="4.89592">
        <ele>175</ele>
        <time>2016-08-19T08:31:51.000Z</time>
      </trkpt>
      <trkpt lat="45.7891" lon="4.89595">
        <ele>175</ele>
        <time>2016-08-19T08:31:52.000Z</time>
      </trkpt>
      <trkpt lat="45.78909" lon="4.89598">
        <ele>175</ele>
        <time>2016-08-19T08:31:53.000Z</time>
      </trkpt>
      <trkpt lat="45.78908" lon="4.89602">
        <ele>175</ele>
        <time>2016-08-19T08:31:54.000Z</time>
      </trkpt>
      <trkpt lat="45.78907" lon="4.89605">
        <ele>175</ele>
        <time>2016-08-19T08:31:55.000Z</time>
      </trkpt>
      <trkpt lat="45.78906" lon="4.89609">
        <ele>175</ele>
        <time>2016-08-19T08:31:56.000Z</time>
      </trkpt>
      <trkpt lat="45.78905" lon="4.89612">
        <ele>175</ele>
        <time>2016-08-19T08:31:57.000Z</time>
      </trkpt>
      <trkpt lat="45.78904" lon="4.89615">
        <ele>175</ele>
        <time>2016-08-19T08:31:58.000Z</time>
      </trkpt>
      <trkpt lat="45.78902" lon="4.89619">
        <ele>175</ele>
        <time>2016-08-19T08:31:59.000Z</time>
      </trkpt>
      <trkpt lat="45.789" lon="4.89622">
        <ele>175</ele>
        <time>2016-08-19T08:32:00.000Z</time>
      </trkpt>
      <trkpt lat="45.78899" lon="4.89626">
        <ele>175</ele>
        <time>2016-08-19T08:32:01.000Z</time>
      </trkpt>
      <trkpt lat="45.78898" lon="4.89629">
        <ele>175</ele>
        <time>2016-08-19T08:32:02.000Z</time>
      </trkpt>
      <trkpt lat="45.78896" lon="4.89632">
        <ele>175</ele>
        <time>2016-08-19T08:32:03.000Z</time>
      </trkpt>
      <trkpt lat="45.78894" lon="4.89636">
        <ele>174.80000305176</ele>
        <time>2016-08-19T08:32:04.000Z</time>
      </trkpt>
      <trkpt lat="45.78893" lon="4.89639">
        <ele>174.60000610352</ele>
        <time>2016-08-19T08:32:05.000Z</time>
      </trkpt>
      <trkpt lat="45.78891" lon="4.89642">
        <ele>174.39999389648</ele>
        <time>2016-08-19T08:32:06.000Z</time>
      </trkpt>
      <trkpt lat="45.7889" lon="4.89645">
        <ele>174.19999694824</ele>
        <time>2016-08-19T08:32:07.000Z</time>
      </trkpt>
      <trkpt lat="45.78887" lon="4.89651">
        <ele>174</ele>
        <time>2016-08-19T08:32:08.000Z</time>
      </trkpt>
      <trkpt lat="45.78884" lon="4.89655">
        <ele>174</ele>
        <time>2016-08-19T08:32:09.000Z</time>
      </trkpt>
      <trkpt lat="45.78883" lon="4.89658">
        <ele>173.80000305176</ele>
        <time>2016-08-19T08:32:10.000Z</time>
      </trkpt>
      <trkpt lat="45.78882" lon="4.89662">
        <ele>173.60000610352</ele>
        <time>2016-08-19T08:32:11.000Z</time>
      </trkpt>
      <trkpt lat="45.7888" lon="4.89665">
        <ele>173.60000610352</ele>
        <time>2016-08-19T08:32:12.000Z</time>
      </trkpt>
      <trkpt lat="45.78879" lon="4.89668">
        <ele>173.39999389648</ele>
        <time>2016-08-19T08:32:13.000Z</time>
      </trkpt>
      <trkpt lat="45.78877" lon="4.89671">
        <ele>173.39999389648</ele>
        <time>2016-08-19T08:32:14.000Z</time>
      </trkpt>
      <trkpt lat="45.78877" lon="4.89674">
        <ele>173.39999389648</ele>
        <time>2016-08-19T08:32:15.000Z</time>
      </trkpt>
      <trkpt lat="45.78877" lon="4.89677">
        <ele>173.19999694824</ele>
        <time>2016-08-19T08:32:16.000Z</time>
      </trkpt>
      <trkpt lat="45.78877" lon="4.89679">
        <ele>173.19999694824</ele>
        <time>2016-08-19T08:32:17.000Z</time>
      </trkpt>
      <trkpt lat="45.78876" lon="4.89682">
        <ele>173</ele>
        <time>2016-08-19T08:32:18.000Z</time>
      </trkpt>
      <trkpt lat="45.78875" lon="4.89685">
        <ele>173</ele>
        <time>2016-08-19T08:32:19.000Z</time>
      </trkpt>
      <trkpt lat="45.78874" lon="4.89689">
        <ele>172.80000305176</ele>
        <time>2016-08-19T08:32:20.000Z</time>
      </trkpt>
      <trkpt lat="45.78873" lon="4.89692">
        <ele>172.80000305176</ele>
        <time>2016-08-19T08:32:21.000Z</time>
      </trkpt>
      <trkpt lat="45.78873" lon="4.89696">
        <ele>172.60000610352</ele>
        <time>2016-08-19T08:32:22.000Z</time>
      </trkpt>
      <trkpt lat="45.78872" lon="4.897">
        <ele>172.60000610352</ele>
        <time>2016-08-19T08:32:23.000Z</time>
      </trkpt>
      <trkpt lat="45.78871" lon="4.89704">
        <ele>172.60000610352</ele>
        <time>2016-08-19T08:32:24.000Z</time>
      </trkpt>
      <trkpt lat="45.7887" lon="4.89708">
        <ele>172.60000610352</ele>
        <time>2016-08-19T08:32:25.000Z</time>
      </trkpt>
      <trkpt lat="45.78869" lon="4.89711">
        <ele>172.80000305176</ele>
        <time>2016-08-19T08:32:26.000Z</time>
      </trkpt>
      <trkpt lat="45.7887" lon="4.89715">
        <ele>172.80000305176</ele>
        <time>2016-08-19T08:32:27.000Z</time>
      </trkpt>
      <trkpt lat="45.78871" lon="4.89719">
        <ele>173</ele>
        <time>2016-08-19T08:32:28.000Z</time>
      </trkpt>
      <trkpt lat="45.78871" lon="4.89723">
        <ele>173</ele>
        <time>2016-08-19T08:32:29.000Z</time>
      </trkpt>
      <trkpt lat="45.7887" lon="4.89726">
        <ele>173.19999694824</ele>
        <time>2016-08-19T08:32:30.000Z</time>
      </trkpt>
      <trkpt lat="45.7887" lon="4.8973">
        <ele>173.19999694824</ele>
        <time>2016-08-19T08:32:31.000Z</time>
      </trkpt>
      <trkpt lat="45.7887" lon="4.89733">
        <ele>173.19999694824</ele>
        <time>2016-08-19T08:32:32.000Z</time>
      </trkpt>
      <trkpt lat="45.7887" lon="4.89737">
        <ele>173.39999389648</ele>
        <time>2016-08-19T08:32:33.000Z</time>
      </trkpt>
      <trkpt lat="45.78871" lon="4.8974">
        <ele>173.39999389648</ele>
        <time>2016-08-19T08:32:34.000Z</time>
      </trkpt>
      <trkpt lat="45.78872" lon="4.89744">
        <ele>173.39999389648</ele>
        <time>2016-08-19T08:32:35.000Z</time>
      </trkpt>
      <trkpt lat="45.78871" lon="4.89747">
        <ele>173.60000610352</ele>
        <time>2016-08-19T08:32:36.000Z</time>
      </trkpt>
      <trkpt lat="45.78871" lon="4.89751">
        <ele>173.60000610352</ele>
        <time>2016-08-19T08:32:37.000Z</time>
      </trkpt>
      <trkpt lat="45.78871" lon="4.89754">
        <ele>173.80000305176</ele>
        <time>2016-08-19T08:32:38.000Z</time>
      </trkpt>
      <trkpt lat="45.78871" lon="4.89758">
        <ele>173.80000305176</ele>
        <time>2016-08-19T08:32:39.000Z</time>
      </trkpt>
      <trkpt lat="45.78873" lon="4.89761">
        <ele>173.80000305176</ele>
        <time>2016-08-19T08:32:40.000Z</time>
      </trkpt>
      <trkpt lat="45.78874" lon="4.89765">
        <ele>174</ele>
        <time>2016-08-19T08:32:41.000Z</time>
      </trkpt>
      <trkpt lat="45.78875" lon="4.89768">
        <ele>174</ele>
        <time>2016-08-19T08:32:42.000Z</time>
      </trkpt>
      <trkpt lat="45.78876" lon="4.89772">
        <ele>174</ele>
        <time>2016-08-19T08:32:43.000Z</time>
      </trkpt>
      <trkpt lat="45.78879" lon="4.89775">
        <ele>174</ele>
        <time>2016-08-19T08:32:44.000Z</time>
      </trkpt>
      <trkpt lat="45.7888" lon="4.89778">
        <ele>174</ele>
        <time>2016-08-19T08:32:45.000Z</time>
      </trkpt>
      <trkpt lat="45.78881" lon="4.89782">
        <ele>174</ele>
        <time>2016-08-19T08:32:46.000Z</time>
      </trkpt>
      <trkpt lat="45.78882" lon="4.89785">
        <ele>174</ele>
        <time>2016-08-19T08:32:47.000Z</time>
      </trkpt>
      <trkpt lat="45.78883" lon="4.89789">
        <ele>173.80000305176</ele>
        <time>2016-08-19T08:32:48.000Z</time>
      </trkpt>
      <trkpt lat="45.78884" lon="4.89793">
        <ele>173.80000305176</ele>
        <time>2016-08-19T08:32:49.000Z</time>
      </trkpt>
      <trkpt lat="45.78884" lon="4.89796">
        <ele>173.80000305176</ele>
        <time>2016-08-19T08:32:50.000Z</time>
      </trkpt>
      <trkpt lat="45.78885" lon="4.89799">
        <ele>173.80000305176</ele>
        <time>2016-08-19T08:32:51.000Z</time>
      </trkpt>
      <trkpt lat="45.78884" lon="4.89803">
        <ele>173.80000305176</ele>
        <time>2016-08-19T08:32:52.000Z</time>
      </trkpt>
      <trkpt lat="45.78885" lon="4.89806">
        <ele>173.80000305176</ele>
        <time>2016-08-19T08:32:53.000Z</time>
      </trkpt>
      <trkpt lat="45.78886" lon="4.8981">
        <ele>174</ele>
        <time>2016-08-19T08:32:54.000Z</time>
      </trkpt>
      <trkpt lat="45.78887" lon="4.89814">
        <ele>174</ele>
        <time>2016-08-19T08:32:55.000Z</time>
      </trkpt>
      <trkpt lat="45.78888" lon="4.89817">
        <ele>174</ele>
        <time>2016-08-19T08:32:56.000Z</time>
      </trkpt>
      <trkpt lat="45.78889" lon="4.89821">
        <ele>174</ele>
        <time>2016-08-19T08:32:57.000Z</time>
      </trkpt>
      <trkpt lat="45.7889" lon="4.89824">
        <ele>174</ele>
        <time>2016-08-19T08:32:58.000Z</time>
      </trkpt>
      <trkpt lat="45.78891" lon="4.89828">
        <ele>174</ele>
        <time>2016-08-19T08:32:59.000Z</time>
      </trkpt>
      <trkpt lat="45.78892" lon="4.89832">
        <ele>174</ele>
        <time>2016-08-19T08:33:00.000Z</time>
      </trkpt>
      <trkpt lat="45.78893" lon="4.89836">
        <ele>174</ele>
        <time>2016-08-19T08:33:01.000Z</time>
      </trkpt>
      <trkpt lat="45.78894" lon="4.8984">
        <ele>174</ele>
        <time>2016-08-19T08:33:02.000Z</time>
      </trkpt>
      <trkpt lat="45.78896" lon="4.89844">
        <ele>174</ele>
        <time>2016-08-19T08:33:03.000Z</time>
      </trkpt>
      <trkpt lat="45.78897" lon="4.89848">
        <ele>174</ele>
        <time>2016-08-19T08:33:04.000Z</time>
      </trkpt>
      <trkpt lat="45.78899" lon="4.89851">
        <ele>174</ele>
        <time>2016-08-19T08:33:05.000Z</time>
      </trkpt>
      <trkpt lat="45.78901" lon="4.89855">
        <ele>174</ele>
        <time>2016-08-19T08:33:06.000Z</time>
      </trkpt>
      <trkpt lat="45.78903" lon="4.89858">
        <ele>174</ele>
        <time>2016-08-19T08:33:07.000Z</time>
      </trkpt>
      <trkpt lat="45.78904" lon="4.89861">
        <ele>174</ele>
        <time>2016-08-19T08:33:08.000Z</time>
      </trkpt>
      <trkpt lat="45.78905" lon="4.89864">
        <ele>174</ele>
        <time>2016-08-19T08:33:09.000Z</time>
      </trkpt>
      <trkpt lat="45.78906" lon="4.89867">
        <ele>174</ele>
        <time>2016-08-19T08:33:10.000Z</time>
      </trkpt>
      <trkpt lat="45.78908" lon="4.8987">
        <ele>174</ele>
        <time>2016-08-19T08:33:11.000Z</time>
      </trkpt>
      <trkpt lat="45.78908" lon="4.89873">
        <ele>174</ele>
        <time>2016-08-19T08:33:12.000Z</time>
      </trkpt>
      <trkpt lat="45.78909" lon="4.89876">
        <ele>173.80000305176</ele>
        <time>2016-08-19T08:33:13.000Z</time>
      </trkpt>
      <trkpt lat="45.78909" lon="4.89879">
        <ele>173.80000305176</ele>
        <time>2016-08-19T08:33:14.000Z</time>
      </trkpt>
      <trkpt lat="45.78909" lon="4.89883">
        <ele>173.60000610352</ele>
        <time>2016-08-19T08:33:15.000Z</time>
      </trkpt>
      <trkpt lat="45.7891" lon="4.89886">
        <ele>173.39999389648</ele>
        <time>2016-08-19T08:33:16.000Z</time>
      </trkpt>
      <trkpt lat="45.7891" lon="4.89889">
        <ele>173.19999694824</ele>
        <time>2016-08-19T08:33:17.000Z</time>
      </trkpt>
      <trkpt lat="45.78911" lon="4.89892">
        <ele>173</ele>
        <time>2016-08-19T08:33:18.000Z</time>
      </trkpt>
      <trkpt lat="45.78912" lon="4.89896">
        <ele>173</ele>
        <time>2016-08-19T08:33:19.000Z</time>
      </trkpt>
      <trkpt lat="45.78913" lon="4.89899">
        <ele>172.80000305176</ele>
        <time>2016-08-19T08:33:20.000Z</time>
      </trkpt>
      <trkpt lat="45.78914" lon="4.89902">
        <ele>172.60000610352</ele>
        <time>2016-08-19T08:33:21.000Z</time>
      </trkpt>
      <trkpt lat="45.78916" lon="4.89906">
        <ele>172.60000610352</ele>
        <time>2016-08-19T08:33:22.000Z</time>
      </trkpt>
      <trkpt lat="45.78916" lon="4.89909">
        <ele>172.39999389648</ele>
        <time>2016-08-19T08:33:23.000Z</time>
      </trkpt>
      <trkpt lat="45.78917" lon="4.89913">
        <ele>172.39999389648</ele>
        <time>2016-08-19T08:33:24.000Z</time>
      </trkpt>
      <trkpt lat="45.78918" lon="4.89917">
        <ele>172.19999694824</ele>
        <time>2016-08-19T08:33:25.000Z</time>
      </trkpt>
      <trkpt lat="45.78919" lon="4.8992">
        <ele>172.19999694824</ele>
        <time>2016-08-19T08:33:26.000Z</time>
      </trkpt>
      <trkpt lat="45.78919" lon="4.89924">
        <ele>172</ele>
        <time>2016-08-19T08:33:27.000Z</time>
      </trkpt>
      <trkpt lat="45.7892" lon="4.89927">
        <ele>172</ele>
        <time>2016-08-19T08:33:28.000Z</time>
      </trkpt>
      <trkpt lat="45.78921" lon="4.8993">
        <ele>171.80000305176</ele>
        <time>2016-08-19T08:33:29.000Z</time>
      </trkpt>
      <trkpt lat="45.78922" lon="4.89933">
        <ele>171.80000305176</ele>
        <time>2016-08-19T08:33:30.000Z</time>
      </trkpt>
      <trkpt lat="45.78923" lon="4.89937">
        <ele>171.60000610352</ele>
        <time>2016-08-19T08:33:31.000Z</time>
      </trkpt>
      <trkpt lat="45.78924" lon="4.8994">
        <ele>171.60000610352</ele>
        <time>2016-08-19T08:33:32.000Z</time>
      </trkpt>
      <trkpt lat="45.78925" lon="4.89943">
        <ele>171.39999389648</ele>
        <time>2016-08-19T08:33:33.000Z</time>
      </trkpt>
      <trkpt lat="45.78925" lon="4.89946">
        <ele>171.39999389648</ele>
        <time>2016-08-19T08:33:34.000Z</time>
      </trkpt>
      <trkpt lat="45.78925" lon="4.8995">
        <ele>171.19999694824</ele>
        <time>2016-08-19T08:33:35.000Z</time>
      </trkpt>
      <trkpt lat="45.78926" lon="4.89953">
        <ele>171.19999694824</ele>
        <time>2016-08-19T08:33:36.000Z</time>
      </trkpt>
      <trkpt lat="45.78927" lon="4.89957">
        <ele>171</ele>
        <time>2016-08-19T08:33:37.000Z</time>
      </trkpt>
      <trkpt lat="45.78927" lon="4.8996">
        <ele>171</ele>
        <time>2016-08-19T08:33:38.000Z</time>
      </trkpt>
      <trkpt lat="45.78928" lon="4.89963">
        <ele>171</ele>
        <time>2016-08-19T08:33:39.000Z</time>
      </trkpt>
      <trkpt lat="45.78928" lon="4.89967">
        <ele>171</ele>
        <time>2016-08-19T08:33:40.000Z</time>
      </trkpt>
      <trkpt lat="45.78929" lon="4.8997">
        <ele>170.80000305176</ele>
        <time>2016-08-19T08:33:41.000Z</time>
      </trkpt>
      <trkpt lat="45.7893" lon="4.89972">
        <ele>170.80000305176</ele>
        <time>2016-08-19T08:33:42.000Z</time>
      </trkpt>
      <trkpt lat="45.78931" lon="4.89976">
        <ele>170.80000305176</ele>
        <time>2016-08-19T08:33:43.000Z</time>
      </trkpt>
      <trkpt lat="45.78932" lon="4.89979">
        <ele>170.60000610352</ele>
        <time>2016-08-19T08:33:44.000Z</time>
      </trkpt>
      <trkpt lat="45.78932" lon="4.89982">
        <ele>170.60000610352</ele>
        <time>2016-08-19T08:33:45.000Z</time>
      </trkpt>
      <trkpt lat="45.78933" lon="4.89986">
        <ele>170.60000610352</ele>
        <time>2016-08-19T08:33:46.000Z</time>
      </trkpt>
      <trkpt lat="45.78934" lon="4.89989">
        <ele>170.60000610352</ele>
        <time>2016-08-19T08:33:47.000Z</time>
      </trkpt>
      <trkpt lat="45.78934" lon="4.89992">
        <ele>170.39999389648</ele>
        <time>2016-08-19T08:33:48.000Z</time>
      </trkpt>
      <trkpt lat="45.78934" lon="4.89995">
        <ele>170.39999389648</ele>
        <time>2016-08-19T08:33:49.000Z</time>
      </trkpt>
      <trkpt lat="45.78935" lon="4.89998">
        <ele>170.39999389648</ele>
        <time>2016-08-19T08:33:50.000Z</time>
      </trkpt>
      <trkpt lat="45.78937" lon="4.90001">
        <ele>170.39999389648</ele>
        <time>2016-08-19T08:33:51.000Z</time>
      </trkpt>
      <trkpt lat="45.78938" lon="4.90004">
        <ele>170.19999694824</ele>
        <time>2016-08-19T08:33:52.000Z</time>
      </trkpt>
      <trkpt lat="45.78938" lon="4.90007">
        <ele>170.19999694824</ele>
        <time>2016-08-19T08:33:53.000Z</time>
      </trkpt>
      <trkpt lat="45.78938" lon="4.9001">
        <ele>170.19999694824</ele>
        <time>2016-08-19T08:33:54.000Z</time>
      </trkpt>
      <trkpt lat="45.78939" lon="4.90012">
        <ele>170</ele>
        <time>2016-08-19T08:33:55.000Z</time>
      </trkpt>
      <trkpt lat="45.7894" lon="4.90015">
        <ele>170</ele>
        <time>2016-08-19T08:33:56.000Z</time>
      </trkpt>
      <trkpt lat="45.78941" lon="4.90019">
        <ele>169.80000305176</ele>
        <time>2016-08-19T08:33:57.000Z</time>
      </trkpt>
      <trkpt lat="45.78942" lon="4.90022">
        <ele>169.80000305176</ele>
        <time>2016-08-19T08:33:58.000Z</time>
      </trkpt>
      <trkpt lat="45.78943" lon="4.90025">
        <ele>169.60000610352</ele>
        <time>2016-08-19T08:33:59.000Z</time>
      </trkpt>
      <trkpt lat="45.78944" lon="4.90029">
        <ele>169.60000610352</ele>
        <time>2016-08-19T08:34:00.000Z</time>
      </trkpt>
      <trkpt lat="45.78945" lon="4.90032">
        <ele>169.60000610352</ele>
        <time>2016-08-19T08:34:01.000Z</time>
      </trkpt>
      <trkpt lat="45.78946" lon="4.90035">
        <ele>169.39999389648</ele>
        <time>2016-08-19T08:34:02.000Z</time>
      </trkpt>
      <trkpt lat="45.78947" lon="4.90038">
        <ele>169.39999389648</ele>
        <time>2016-08-19T08:34:03.000Z</time>
      </trkpt>
      <trkpt lat="45.78948" lon="4.90041">
        <ele>169.19999694824</ele>
        <time>2016-08-19T08:34:04.000Z</time>
      </trkpt>
      <trkpt lat="45.78949" lon="4.90044">
        <ele>169.39999389648</ele>
        <time>2016-08-19T08:34:05.000Z</time>
      </trkpt>
      <trkpt lat="45.78949" lon="4.90047">
        <ele>169.39999389648</ele>
        <time>2016-08-19T08:34:06.000Z</time>
      </trkpt>
      <trkpt lat="45.78949" lon="4.90049">
        <ele>169.39999389648</ele>
        <time>2016-08-19T08:34:07.000Z</time>
      </trkpt>
      <trkpt lat="45.7895" lon="4.90052">
        <ele>169.60000610352</ele>
        <time>2016-08-19T08:34:08.000Z</time>
      </trkpt>
      <trkpt lat="45.7895" lon="4.90055">
        <ele>169.60000610352</ele>
        <time>2016-08-19T08:34:09.000Z</time>
      </trkpt>
      <trkpt lat="45.7895" lon="4.90058">
        <ele>169.60000610352</ele>
        <time>2016-08-19T08:34:10.000Z</time>
      </trkpt>
      <trkpt lat="45.7895" lon="4.9006">
        <ele>169.80000305176</ele>
        <time>2016-08-19T08:34:11.000Z</time>
      </trkpt>
      <trkpt lat="45.78951" lon="4.90063">
        <ele>169.80000305176</ele>
        <time>2016-08-19T08:34:12.000Z</time>
      </trkpt>
      <trkpt lat="45.78951" lon="4.90067">
        <ele>169.80000305176</ele>
        <time>2016-08-19T08:34:13.000Z</time>
      </trkpt>
      <trkpt lat="45.78952" lon="4.9007">
        <ele>170</ele>
        <time>2016-08-19T08:34:14.000Z</time>
      </trkpt>
      <trkpt lat="45.78952" lon="4.90073">
        <ele>170</ele>
        <time>2016-08-19T08:34:15.000Z</time>
      </trkpt>
      <trkpt lat="45.78953" lon="4.90076">
        <ele>170</ele>
        <time>2016-08-19T08:34:16.000Z</time>
      </trkpt>
      <trkpt lat="45.78954" lon="4.90079">
        <ele>170.19999694824</ele>
        <time>2016-08-19T08:34:17.000Z</time>
      </trkpt>
      <trkpt lat="45.78954" lon="4.90081">
        <ele>170.19999694824</ele>
        <time>2016-08-19T08:34:18.000Z</time>
      </trkpt>
      <trkpt lat="45.78955" lon="4.90084">
        <ele>170.19999694824</ele>
        <time>2016-08-19T08:34:19.000Z</time>
      </trkpt>
      <trkpt lat="45.78957" lon="4.90086">
        <ele>170.19999694824</ele>
        <time>2016-08-19T08:34:20.000Z</time>
      </trkpt>
      <trkpt lat="45.78958" lon="4.90089">
        <ele>170.39999389648</ele>
        <time>2016-08-19T08:34:21.000Z</time>
      </trkpt>
      <trkpt lat="45.7896" lon="4.90092">
        <ele>170.39999389648</ele>
        <time>2016-08-19T08:34:22.000Z</time>
      </trkpt>
      <trkpt lat="45.78962" lon="4.90095">
        <ele>170.39999389648</ele>
        <time>2016-08-19T08:34:23.000Z</time>
      </trkpt>
      <trkpt lat="45.78963" lon="4.90098">
        <ele>170.39999389648</ele>
        <time>2016-08-19T08:34:24.000Z</time>
      </trkpt>
      <trkpt lat="45.78964" lon="4.901">
        <ele>170.60000610352</ele>
        <time>2016-08-19T08:34:25.000Z</time>
      </trkpt>
      <trkpt lat="45.78966" lon="4.90103">
        <ele>170.60000610352</ele>
        <time>2016-08-19T08:34:26.000Z</time>
      </trkpt>
      <trkpt lat="45.78967" lon="4.90106">
        <ele>170.60000610352</ele>
        <time>2016-08-19T08:34:27.000Z</time>
      </trkpt>
      <trkpt lat="45.78969" lon="4.90109">
        <ele>170.60000610352</ele>
        <time>2016-08-19T08:34:28.000Z</time>
      </trkpt>
      <trkpt lat="45.7897" lon="4.90112">
        <ele>170.80000305176</ele>
        <time>2016-08-19T08:34:29.000Z</time>
      </trkpt>
      <trkpt lat="45.78971" lon="4.90115">
        <ele>170.80000305176</ele>
        <time>2016-08-19T08:34:30.000Z</time>
      </trkpt>
      <trkpt lat="45.78973" lon="4.90119">
        <ele>171</ele>
        <time>2016-08-19T08:34:31.000Z</time>
      </trkpt>
      <trkpt lat="45.78975" lon="4.90122">
        <ele>171</ele>
        <time>2016-08-19T08:34:32.000Z</time>
      </trkpt>
      <trkpt lat="45.78976" lon="4.90126">
        <ele>171.19999694824</ele>
        <time>2016-08-19T08:34:33.000Z</time>
      </trkpt>
      <trkpt lat="45.78977" lon="4.90129">
        <ele>171.19999694824</ele>
        <time>2016-08-19T08:34:34.000Z</time>
      </trkpt>
      <trkpt lat="45.78979" lon="4.90131">
        <ele>171.19999694824</ele>
        <time>2016-08-19T08:34:35.000Z</time>
      </trkpt>
      <trkpt lat="45.78981" lon="4.90134">
        <ele>171.39999389648</ele>
        <time>2016-08-19T08:34:36.000Z</time>
      </trkpt>
      <trkpt lat="45.78983" lon="4.90135">
        <ele>171.39999389648</ele>
        <time>2016-08-19T08:34:37.000Z</time>
      </trkpt>
      <trkpt lat="45.78985" lon="4.90137">
        <ele>171.60000610352</ele>
        <time>2016-08-19T08:34:38.000Z</time>
      </trkpt>
      <trkpt lat="45.78987" lon="4.90139">
        <ele>171.60000610352</ele>
        <time>2016-08-19T08:34:39.000Z</time>
      </trkpt>
      <trkpt lat="45.7899" lon="4.90142">
        <ele>171.60000610352</ele>
        <time>2016-08-19T08:34:40.000Z</time>
      </trkpt>
      <trkpt lat="45.78992" lon="4.90145">
        <ele>171.80000305176</ele>
        <time>2016-08-19T08:34:41.000Z</time>
      </trkpt>
      <trkpt lat="45.78995" lon="4.90147">
        <ele>171.80000305176</ele>
        <time>2016-08-19T08:34:42.000Z</time>
      </trkpt>
      <trkpt lat="45.78997" lon="4.90149">
        <ele>172</ele>
        <time>2016-08-19T08:34:43.000Z</time>
      </trkpt>
      <trkpt lat="45.79" lon="4.90151">
        <ele>172</ele>
        <time>2016-08-19T08:34:44.000Z</time>
      </trkpt>
      <trkpt lat="45.79002" lon="4.90153">
        <ele>172</ele>
        <time>2016-08-19T08:34:45.000Z</time>
      </trkpt>
      <trkpt lat="45.79004" lon="4.90155">
        <ele>172.19999694824</ele>
        <time>2016-08-19T08:34:46.000Z</time>
      </trkpt>
      <trkpt lat="45.79006" lon="4.90158">
        <ele>172.19999694824</ele>
        <time>2016-08-19T08:34:47.000Z</time>
      </trkpt>
      <trkpt lat="45.79009" lon="4.9016">
        <ele>172.39999389648</ele>
        <time>2016-08-19T08:34:48.000Z</time>
      </trkpt>
      <trkpt lat="45.79011" lon="4.90161">
        <ele>172.39999389648</ele>
        <time>2016-08-19T08:34:49.000Z</time>
      </trkpt>
      <trkpt lat="45.79013" lon="4.90163">
        <ele>172.39999389648</ele>
        <time>2016-08-19T08:34:50.000Z</time>
      </trkpt>
      <trkpt lat="45.79015" lon="4.90166">
        <ele>172.60000610352</ele>
        <time>2016-08-19T08:34:51.000Z</time>
      </trkpt>
      <trkpt lat="45.79016" lon="4.90168">
        <ele>172.60000610352</ele>
        <time>2016-08-19T08:34:52.000Z</time>
      </trkpt>
      <trkpt lat="45.79018" lon="4.9017">
        <ele>172.60000610352</ele>
        <time>2016-08-19T08:34:53.000Z</time>
      </trkpt>
      <trkpt lat="45.79019" lon="4.90173">
        <ele>172.80000305176</ele>
        <time>2016-08-19T08:34:54.000Z</time>
      </trkpt>
      <trkpt lat="45.79021" lon="4.90176">
        <ele>172.80000305176</ele>
        <time>2016-08-19T08:34:55.000Z</time>
      </trkpt>
      <trkpt lat="45.79024" lon="4.90178">
        <ele>173</ele>
        <time>2016-08-19T08:34:56.000Z</time>
      </trkpt>
      <trkpt lat="45.79026" lon="4.9018">
        <ele>173</ele>
        <time>2016-08-19T08:34:57.000Z</time>
      </trkpt>
      <trkpt lat="45.79028" lon="4.90183">
        <ele>173.19999694824</ele>
        <time>2016-08-19T08:34:58.000Z</time>
      </trkpt>
      <trkpt lat="45.79031" lon="4.90185">
        <ele>173.19999694824</ele>
        <time>2016-08-19T08:34:59.000Z</time>
      </trkpt>
      <trkpt lat="45.79033" lon="4.90187">
        <ele>173.19999694824</ele>
        <time>2016-08-19T08:35:00.000Z</time>
      </trkpt>
      <trkpt lat="45.79035" lon="4.90189">
        <ele>173.39999389648</ele>
        <time>2016-08-19T08:35:01.000Z</time>
      </trkpt>
      <trkpt lat="45.79037" lon="4.90191">
        <ele>173.39999389648</ele>
        <time>2016-08-19T08:35:02.000Z</time>
      </trkpt>
      <trkpt lat="45.7904" lon="4.90192">
        <ele>173.39999389648</ele>
        <time>2016-08-19T08:35:03.000Z</time>
      </trkpt>
      <trkpt lat="45.79043" lon="4.90194">
        <ele>173.60000610352</ele>
        <time>2016-08-19T08:35:04.000Z</time>
      </trkpt>
      <trkpt lat="45.79045" lon="4.90196">
        <ele>173.60000610352</ele>
        <time>2016-08-19T08:35:05.000Z</time>
      </trkpt>
      <trkpt lat="45.79047" lon="4.90197">
        <ele>173.80000305176</ele>
        <time>2016-08-19T08:35:06.000Z</time>
      </trkpt>
      <trkpt lat="45.79049" lon="4.90198">
        <ele>173.80000305176</ele>
        <time>2016-08-19T08:35:07.000Z</time>
      </trkpt>
      <trkpt lat="45.79051" lon="4.902">
        <ele>173.80000305176</ele>
        <time>2016-08-19T08:35:08.000Z</time>
      </trkpt>
      <trkpt lat="45.79053" lon="4.90203">
        <ele>174</ele>
        <time>2016-08-19T08:35:09.000Z</time>
      </trkpt>
      <trkpt lat="45.79054" lon="4.90206">
        <ele>174</ele>
        <time>2016-08-19T08:35:10.000Z</time>
      </trkpt>
      <trkpt lat="45.79055" lon="4.90208">
        <ele>174</ele>
        <time>2016-08-19T08:35:11.000Z</time>
      </trkpt>
      <trkpt lat="45.79056" lon="4.90209">
        <ele>174</ele>
        <time>2016-08-19T08:35:12.000Z</time>
      </trkpt>
      <trkpt lat="45.79058" lon="4.90211">
        <ele>173.80000305176</ele>
        <time>2016-08-19T08:35:13.000Z</time>
      </trkpt>
      <trkpt lat="45.79059" lon="4.90213">
        <ele>173.80000305176</ele>
        <time>2016-08-19T08:35:14.000Z</time>
      </trkpt>
      <trkpt lat="45.79061" lon="4.90215">
        <ele>173.80000305176</ele>
        <time>2016-08-19T08:35:15.000Z</time>
      </trkpt>
      <trkpt lat="45.79063" lon="4.90217">
        <ele>173.60000610352</ele>
        <time>2016-08-19T08:35:16.000Z</time>
      </trkpt>
      <trkpt lat="45.79065" lon="4.9022">
        <ele>173.60000610352</ele>
        <time>2016-08-19T08:35:17.000Z</time>
      </trkpt>
      <trkpt lat="45.79067" lon="4.90223">
        <ele>173.39999389648</ele>
        <time>2016-08-19T08:35:18.000Z</time>
      </trkpt>
      <trkpt lat="45.79069" lon="4.90225">
        <ele>173.39999389648</ele>
        <time>2016-08-19T08:35:19.000Z</time>
      </trkpt>
      <trkpt lat="45.79071" lon="4.90227">
        <ele>173.19999694824</ele>
        <time>2016-08-19T08:35:20.000Z</time>
      </trkpt>
      <trkpt lat="45.79073" lon="4.90229">
        <ele>173.19999694824</ele>
        <time>2016-08-19T08:35:21.000Z</time>
      </trkpt>
      <trkpt lat="45.79075" lon="4.90232">
        <ele>173.19999694824</ele>
        <time>2016-08-19T08:35:22.000Z</time>
      </trkpt>
      <trkpt lat="45.79077" lon="4.90234">
        <ele>173</ele>
        <time>2016-08-19T08:35:23.000Z</time>
      </trkpt>
      <trkpt lat="45.79078" lon="4.90237">
        <ele>173</ele>
        <time>2016-08-19T08:35:24.000Z</time>
      </trkpt>
      <trkpt lat="45.7908" lon="4.90239">
        <ele>173</ele>
        <time>2016-08-19T08:35:25.000Z</time>
      </trkpt>
      <trkpt lat="45.79082" lon="4.90242">
        <ele>172.80000305176</ele>
        <time>2016-08-19T08:35:26.000Z</time>
      </trkpt>
      <trkpt lat="45.79083" lon="4.90244">
        <ele>172.80000305176</ele>
        <time>2016-08-19T08:35:27.000Z</time>
      </trkpt>
      <trkpt lat="45.79085" lon="4.90247">
        <ele>172.60000610352</ele>
        <time>2016-08-19T08:35:28.000Z</time>
      </trkpt>
      <trkpt lat="45.79087" lon="4.90249">
        <ele>172.60000610352</ele>
        <time>2016-08-19T08:35:29.000Z</time>
      </trkpt>
      <trkpt lat="45.79088" lon="4.90251">
        <ele>172.60000610352</ele>
        <time>2016-08-19T08:35:30.000Z</time>
      </trkpt>
      <trkpt lat="45.7909" lon="4.90253">
        <ele>172.39999389648</ele>
        <time>2016-08-19T08:35:31.000Z</time>
      </trkpt>
      <trkpt lat="45.79091" lon="4.90255">
        <ele>172.39999389648</ele>
        <time>2016-08-19T08:35:32.000Z</time>
      </trkpt>
      <trkpt lat="45.79092" lon="4.90256">
        <ele>172.39999389648</ele>
        <time>2016-08-19T08:35:33.000Z</time>
      </trkpt>
      <trkpt lat="45.79093" lon="4.90258">
        <ele>172.39999389648</ele>
        <time>2016-08-19T08:35:34.000Z</time>
      </trkpt>
      <trkpt lat="45.79094" lon="4.9026">
        <ele>172.39999389648</ele>
        <time>2016-08-19T08:35:35.000Z</time>
      </trkpt>
      <trkpt lat="45.79094" lon="4.90262">
        <ele>172.19999694824</ele>
        <time>2016-08-19T08:35:36.000Z</time>
      </trkpt>
      <trkpt lat="45.79094" lon="4.90264">
        <ele>172.39999389648</ele>
        <time>2016-08-19T08:35:37.000Z</time>
      </trkpt>
      <trkpt lat="45.79095" lon="4.90266">
        <ele>172.39999389648</ele>
        <time>2016-08-19T08:35:38.000Z</time>
      </trkpt>
      <trkpt lat="45.79095" lon="4.90269">
        <ele>172.39999389648</ele>
        <time>2016-08-19T08:35:39.000Z</time>
      </trkpt>
      <trkpt lat="45.79095" lon="4.90271">
        <ele>172.39999389648</ele>
        <time>2016-08-19T08:35:40.000Z</time>
      </trkpt>
      <trkpt lat="45.79094" lon="4.90274">
        <ele>172.39999389648</ele>
        <time>2016-08-19T08:35:41.000Z</time>
      </trkpt>
      <trkpt lat="45.79095" lon="4.90277">
        <ele>172.39999389648</ele>
        <time>2016-08-19T08:35:42.000Z</time>
      </trkpt>
      <trkpt lat="45.79095" lon="4.9028">
        <ele>172.39999389648</ele>
        <time>2016-08-19T08:35:43.000Z</time>
      </trkpt>
      <trkpt lat="45.79096" lon="4.90283">
        <ele>172.39999389648</ele>
        <time>2016-08-19T08:35:44.000Z</time>
      </trkpt>
      <trkpt lat="45.79096" lon="4.90285">
        <ele>172.39999389648</ele>
        <time>2016-08-19T08:35:45.000Z</time>
      </trkpt>
      <trkpt lat="45.79095" lon="4.90287">
        <ele>172.60000610352</ele>
        <time>2016-08-19T08:35:46.000Z</time>
      </trkpt>
      <trkpt lat="45.79095" lon="4.9029">
        <ele>172.60000610352</ele>
        <time>2016-08-19T08:35:47.000Z</time>
      </trkpt>
      <trkpt lat="45.79098" lon="4.90292">
        <ele>172.39999389648</ele>
        <time>2016-08-19T08:35:48.000Z</time>
      </trkpt>
      <trkpt lat="45.79099" lon="4.90295">
        <ele>172.39999389648</ele>
        <time>2016-08-19T08:35:49.000Z</time>
      </trkpt>
      <trkpt lat="45.791" lon="4.90298">
        <ele>172.39999389648</ele>
        <time>2016-08-19T08:35:50.000Z</time>
      </trkpt>
      <trkpt lat="45.79101" lon="4.90301">
        <ele>172.19999694824</ele>
        <time>2016-08-19T08:35:51.000Z</time>
      </trkpt>
      <trkpt lat="45.79102" lon="4.90303">
        <ele>172.19999694824</ele>
        <time>2016-08-19T08:35:52.000Z</time>
      </trkpt>
      <trkpt lat="45.79103" lon="4.90306">
        <ele>172.19999694824</ele>
        <time>2016-08-19T08:35:53.000Z</time>
      </trkpt>
      <trkpt lat="45.79103" lon="4.90308">
        <ele>172</ele>
        <time>2016-08-19T08:35:54.000Z</time>
      </trkpt>
      <trkpt lat="45.79104" lon="4.90311">
        <ele>172</ele>
        <time>2016-08-19T08:35:55.000Z</time>
      </trkpt>
      <trkpt lat="45.79104" lon="4.90313">
        <ele>172</ele>
        <time>2016-08-19T08:35:56.000Z</time>
      </trkpt>
      <trkpt lat="45.79104" lon="4.90316">
        <ele>172</ele>
        <time>2016-08-19T08:35:57.000Z</time>
      </trkpt>
      <trkpt lat="45.79104" lon="4.90319">
        <ele>172</ele>
        <time>2016-08-19T08:35:58.000Z</time>
      </trkpt>
      <trkpt lat="45.79105" lon="4.90322">
        <ele>172</ele>
        <time>2016-08-19T08:35:59.000Z</time>
      </trkpt>
      <trkpt lat="45.79105" lon="4.90324">
        <ele>172</ele>
        <time>2016-08-19T08:36:00.000Z</time>
      </trkpt>
      <trkpt lat="45.79106" lon="4.90327">
        <ele>172</ele>
        <time>2016-08-19T08:36:01.000Z</time>
      </trkpt>
      <trkpt lat="45.79107" lon="4.9033">
        <ele>171.80000305176</ele>
        <time>2016-08-19T08:36:02.000Z</time>
      </trkpt>
      <trkpt lat="45.79107" lon="4.90335">
        <ele>171.80000305176</ele>
        <time>2016-08-19T08:36:03.000Z</time>
      </trkpt>
      <trkpt lat="45.79107" lon="4.90338">
        <ele>171.80000305176</ele>
        <time>2016-08-19T08:36:04.000Z</time>
      </trkpt>
      <trkpt lat="45.79108" lon="4.9034">
        <ele>171.80000305176</ele>
        <time>2016-08-19T08:36:05.000Z</time>
      </trkpt>
      <trkpt lat="45.79108" lon="4.90345">
        <ele>172</ele>
        <time>2016-08-19T08:36:06.000Z</time>
      </trkpt>
      <trkpt lat="45.79109" lon="4.90348">
        <ele>172</ele>
        <time>2016-08-19T08:36:07.000Z</time>
      </trkpt>
      <trkpt lat="45.79109" lon="4.90352">
        <ele>172.19999694824</ele>
        <time>2016-08-19T08:36:08.000Z</time>
      </trkpt>
      <trkpt lat="45.7911" lon="4.90355">
        <ele>172.19999694824</ele>
        <time>2016-08-19T08:36:09.000Z</time>
      </trkpt>
      <trkpt lat="45.79112" lon="4.90358">
        <ele>172.19999694824</ele>
        <time>2016-08-19T08:36:10.000Z</time>
      </trkpt>
      <trkpt lat="45.79114" lon="4.90361">
        <ele>172.19999694824</ele>
        <time>2016-08-19T08:36:11.000Z</time>
      </trkpt>
      <trkpt lat="45.79115" lon="4.90364">
        <ele>172.19999694824</ele>
        <time>2016-08-19T08:36:12.000Z</time>
      </trkpt>
      <trkpt lat="45.79115" lon="4.90367">
        <ele>172.39999389648</ele>
        <time>2016-08-19T08:36:13.000Z</time>
      </trkpt>
      <trkpt lat="45.79115" lon="4.90371">
        <ele>172.60000610352</ele>
        <time>2016-08-19T08:36:14.000Z</time>
      </trkpt>
      <trkpt lat="45.79117" lon="4.90374">
        <ele>172.60000610352</ele>
        <time>2016-08-19T08:36:15.000Z</time>
      </trkpt>
      <trkpt lat="45.79119" lon="4.90377">
        <ele>172.39999389648</ele>
        <time>2016-08-19T08:36:16.000Z</time>
      </trkpt>
      <trkpt lat="45.79121" lon="4.9038">
        <ele>172</ele>
        <time>2016-08-19T08:36:17.000Z</time>
      </trkpt>
      <trkpt lat="45.79123" lon="4.90383">
        <ele>171.80000305176</ele>
        <time>2016-08-19T08:36:18.000Z</time>
      </trkpt>
      <trkpt lat="45.79124" lon="4.90387">
        <ele>171.60000610352</ele>
        <time>2016-08-19T08:36:19.000Z</time>
      </trkpt>
      <trkpt lat="45.79125" lon="4.9039">
        <ele>171.60000610352</ele>
        <time>2016-08-19T08:36:20.000Z</time>
      </trkpt>
      <trkpt lat="45.79127" lon="4.90394">
        <ele>171.39999389648</ele>
        <time>2016-08-19T08:36:21.000Z</time>
      </trkpt>
      <trkpt lat="45.7913" lon="4.90398">
        <ele>171</ele>
        <time>2016-08-19T08:36:22.000Z</time>
      </trkpt>
      <trkpt lat="45.79131" lon="4.90402">
        <ele>170.80000305176</ele>
        <time>2016-08-19T08:36:23.000Z</time>
      </trkpt>
      <trkpt lat="45.79133" lon="4.90407">
        <ele>170.60000610352</ele>
        <time>2016-08-19T08:36:24.000Z</time>
      </trkpt>
      <trkpt lat="45.79134" lon="4.90411">
        <ele>170.60000610352</ele>
        <time>2016-08-19T08:36:25.000Z</time>
      </trkpt>
      <trkpt lat="45.79134" lon="4.90415">
        <ele>170.39999389648</ele>
        <time>2016-08-19T08:36:26.000Z</time>
      </trkpt>
      <trkpt lat="45.79134" lon="4.9042">
        <ele>170.60000610352</ele>
        <time>2016-08-19T08:36:27.000Z</time>
      </trkpt>
      <trkpt lat="45.79134" lon="4.90424">
        <ele>170.60000610352</ele>
        <time>2016-08-19T08:36:28.000Z</time>
      </trkpt>
      <trkpt lat="45.79132" lon="4.9043">
        <ele>170.80000305176</ele>
        <time>2016-08-19T08:36:29.000Z</time>
      </trkpt>
      <trkpt lat="45.79131" lon="4.90436">
        <ele>170.80000305176</ele>
        <time>2016-08-19T08:36:30.000Z</time>
      </trkpt>
      <trkpt lat="45.79131" lon="4.9044">
        <ele>170.80000305176</ele>
        <time>2016-08-19T08:36:31.000Z</time>
      </trkpt>
      <trkpt lat="45.79131" lon="4.90446">
        <ele>170.80000305176</ele>
        <time>2016-08-19T08:36:32.000Z</time>
      </trkpt>
      <trkpt lat="45.79131" lon="4.90451">
        <ele>170.80000305176</ele>
        <time>2016-08-19T08:36:33.000Z</time>
      </trkpt>
      <trkpt lat="45.79132" lon="4.90457">
        <ele>170.80000305176</ele>
        <time>2016-08-19T08:36:34.000Z</time>
      </trkpt>
      <trkpt lat="45.79132" lon="4.90461">
        <ele>170.80000305176</ele>
        <time>2016-08-19T08:36:35.000Z</time>
      </trkpt>
      <trkpt lat="45.79132" lon="4.90465">
        <ele>171</ele>
        <time>2016-08-19T08:36:36.000Z</time>
      </trkpt>
      <trkpt lat="45.79132" lon="4.90469">
        <ele>171</ele>
        <time>2016-08-19T08:36:37.000Z</time>
      </trkpt>
      <trkpt lat="45.79132" lon="4.90473">
        <ele>171.19999694824</ele>
        <time>2016-08-19T08:36:38.000Z</time>
      </trkpt>
      <trkpt lat="45.79132" lon="4.90476">
        <ele>171.19999694824</ele>
        <time>2016-08-19T08:36:39.000Z</time>
      </trkpt>
      <trkpt lat="45.79132" lon="4.9048">
        <ele>171.39999389648</ele>
        <time>2016-08-19T08:36:40.000Z</time>
      </trkpt>
      <trkpt lat="45.79131" lon="4.90482">
        <ele>171.39999389648</ele>
        <time>2016-08-19T08:36:41.000Z</time>
      </trkpt>
      <trkpt lat="45.79131" lon="4.90485">
        <ele>171.60000610352</ele>
        <time>2016-08-19T08:36:42.000Z</time>
      </trkpt>
      <trkpt lat="45.7913" lon="4.90488">
        <ele>171.60000610352</ele>
        <time>2016-08-19T08:36:43.000Z</time>
      </trkpt>
      <trkpt lat="45.79131" lon="4.9049">
        <ele>171.80000305176</ele>
        <time>2016-08-19T08:36:44.000Z</time>
      </trkpt>
      <trkpt lat="45.7913" lon="4.90493">
        <ele>171.80000305176</ele>
        <time>2016-08-19T08:36:45.000Z</time>
      </trkpt>
      <trkpt lat="45.79129" lon="4.90496">
        <ele>172</ele>
        <time>2016-08-19T08:36:46.000Z</time>
      </trkpt>
      <trkpt lat="45.79129" lon="4.90499">
        <ele>172.19999694824</ele>
        <time>2016-08-19T08:36:47.000Z</time>
      </trkpt>
      <trkpt lat="45.79129" lon="4.90502">
        <ele>172.19999694824</ele>
        <time>2016-08-19T08:36:48.000Z</time>
      </trkpt>
      <trkpt lat="45.79129" lon="4.90505">
        <ele>172.39999389648</ele>
        <time>2016-08-19T08:36:49.000Z</time>
      </trkpt>
      <trkpt lat="45.79129" lon="4.90509">
        <ele>172.39999389648</ele>
        <time>2016-08-19T08:36:50.000Z</time>
      </trkpt>
      <trkpt lat="45.79129" lon="4.90512">
        <ele>172.39999389648</ele>
        <time>2016-08-19T08:36:51.000Z</time>
      </trkpt>
      <trkpt lat="45.7913" lon="4.90516">
        <ele>172.39999389648</ele>
        <time>2016-08-19T08:36:52.000Z</time>
      </trkpt>
      <trkpt lat="45.79131" lon="4.90519">
        <ele>172.39999389648</ele>
        <time>2016-08-19T08:36:53.000Z</time>
      </trkpt>
      <trkpt lat="45.79131" lon="4.90523">
        <ele>172.39999389648</ele>
        <time>2016-08-19T08:36:54.000Z</time>
      </trkpt>
      <trkpt lat="45.79131" lon="4.90527">
        <ele>172.60000610352</ele>
        <time>2016-08-19T08:36:55.000Z</time>
      </trkpt>
      <trkpt lat="45.79131" lon="4.9053">
        <ele>172.80000305176</ele>
        <time>2016-08-19T08:36:56.000Z</time>
      </trkpt>
      <trkpt lat="45.79129" lon="4.90534">
        <ele>172.80000305176</ele>
        <time>2016-08-19T08:36:57.000Z</time>
      </trkpt>
      <trkpt lat="45.79129" lon="4.90538">
        <ele>172.80000305176</ele>
        <time>2016-08-19T08:36:58.000Z</time>
      </trkpt>
      <trkpt lat="45.79129" lon="4.90541">
        <ele>172.60000610352</ele>
        <time>2016-08-19T08:36:59.000Z</time>
      </trkpt>
      <trkpt lat="45.79128" lon="4.90544">
        <ele>172.80000305176</ele>
        <time>2016-08-19T08:37:00.000Z</time>
      </trkpt>
      <trkpt lat="45.79127" lon="4.90548">
        <ele>172.80000305176</ele>
        <time>2016-08-19T08:37:01.000Z</time>
      </trkpt>
      <trkpt lat="45.79126" lon="4.90551">
        <ele>172.80000305176</ele>
        <time>2016-08-19T08:37:02.000Z</time>
      </trkpt>
      <trkpt lat="45.79125" lon="4.90554">
        <ele>172.80000305176</ele>
        <time>2016-08-19T08:37:03.000Z</time>
      </trkpt>
      <trkpt lat="45.79125" lon="4.90558">
        <ele>172.80000305176</ele>
        <time>2016-08-19T08:37:04.000Z</time>
      </trkpt>
      <trkpt lat="45.79125" lon="4.90562">
        <ele>172.80000305176</ele>
        <time>2016-08-19T08:37:05.000Z</time>
      </trkpt>
      <trkpt lat="45.79124" lon="4.90565">
        <ele>172.80000305176</ele>
        <time>2016-08-19T08:37:06.000Z</time>
      </trkpt>
      <trkpt lat="45.79123" lon="4.90568">
        <ele>172.80000305176</ele>
        <time>2016-08-19T08:37:07.000Z</time>
      </trkpt>
      <trkpt lat="45.79122" lon="4.90571">
        <ele>172.80000305176</ele>
        <time>2016-08-19T08:37:08.000Z</time>
      </trkpt>
      <trkpt lat="45.79121" lon="4.90575">
        <ele>172.80000305176</ele>
        <time>2016-08-19T08:37:09.000Z</time>
      </trkpt>
      <trkpt lat="45.79121" lon="4.90578">
        <ele>172.80000305176</ele>
        <time>2016-08-19T08:37:10.000Z</time>
      </trkpt>
      <trkpt lat="45.7912" lon="4.9058">
        <ele>172.80000305176</ele>
        <time>2016-08-19T08:37:11.000Z</time>
      </trkpt>
      <trkpt lat="45.7912" lon="4.90584">
        <ele>172.80000305176</ele>
        <time>2016-08-19T08:37:12.000Z</time>
      </trkpt>
      <trkpt lat="45.79119" lon="4.90587">
        <ele>172.80000305176</ele>
        <time>2016-08-19T08:37:13.000Z</time>
      </trkpt>
      <trkpt lat="45.79119" lon="4.9059">
        <ele>172.80000305176</ele>
        <time>2016-08-19T08:37:14.000Z</time>
      </trkpt>
      <trkpt lat="45.79119" lon="4.90594">
        <ele>172.80000305176</ele>
        <time>2016-08-19T08:37:15.000Z</time>
      </trkpt>
      <trkpt lat="45.79118" lon="4.90597">
        <ele>172.80000305176</ele>
        <time>2016-08-19T08:37:16.000Z</time>
      </trkpt>
      <trkpt lat="45.79117" lon="4.906">
        <ele>172.80000305176</ele>
        <time>2016-08-19T08:37:17.000Z</time>
      </trkpt>
      <trkpt lat="45.79118" lon="4.90603">
        <ele>172.80000305176</ele>
        <time>2016-08-19T08:37:18.000Z</time>
      </trkpt>
      <trkpt lat="45.79117" lon="4.90606">
        <ele>172.60000610352</ele>
        <time>2016-08-19T08:37:19.000Z</time>
      </trkpt>
      <trkpt lat="45.79117" lon="4.90609">
        <ele>172.60000610352</ele>
        <time>2016-08-19T08:37:20.000Z</time>
      </trkpt>
      <trkpt lat="45.79117" lon="4.90612">
        <ele>172.39999389648</ele>
        <time>2016-08-19T08:37:21.000Z</time>
      </trkpt>
      <trkpt lat="45.79118" lon="4.90615">
        <ele>172.19999694824</ele>
        <time>2016-08-19T08:37:22.000Z</time>
      </trkpt>
      <trkpt lat="45.79119" lon="4.90619">
        <ele>172</ele>
        <time>2016-08-19T08:37:23.000Z</time>
      </trkpt>
      <trkpt lat="45.7912" lon="4.90622">
        <ele>172</ele>
        <time>2016-08-19T08:37:24.000Z</time>
      </trkpt>
      <trkpt lat="45.7912" lon="4.90625">
        <ele>171.80000305176</ele>
        <time>2016-08-19T08:37:25.000Z</time>
      </trkpt>
      <trkpt lat="45.79121" lon="4.90628">
        <ele>171.80000305176</ele>
        <time>2016-08-19T08:37:26.000Z</time>
      </trkpt>
      <trkpt lat="45.7912" lon="4.90632">
        <ele>171.80000305176</ele>
        <time>2016-08-19T08:37:27.000Z</time>
      </trkpt>
      <trkpt lat="45.7912" lon="4.90635">
        <ele>171.80000305176</ele>
        <time>2016-08-19T08:37:28.000Z</time>
      </trkpt>
      <trkpt lat="45.79119" lon="4.90639">
        <ele>171.80000305176</ele>
        <time>2016-08-19T08:37:29.000Z</time>
      </trkpt>
      <trkpt lat="45.79119" lon="4.90642">
        <ele>171.80000305176</ele>
        <time>2016-08-19T08:37:30.000Z</time>
      </trkpt>
      <trkpt lat="45.79118" lon="4.90646">
        <ele>171.80000305176</ele>
        <time>2016-08-19T08:37:31.000Z</time>
      </trkpt>
      <trkpt lat="45.79118" lon="4.90649">
        <ele>171.60000610352</ele>
        <time>2016-08-19T08:37:32.000Z</time>
      </trkpt>
      <trkpt lat="45.79117" lon="4.90652">
        <ele>171.60000610352</ele>
        <time>2016-08-19T08:37:33.000Z</time>
      </trkpt>
      <trkpt lat="45.79117" lon="4.90655">
        <ele>171.60000610352</ele>
        <time>2016-08-19T08:37:34.000Z</time>
      </trkpt>
      <trkpt lat="45.79116" lon="4.90658">
        <ele>171.60000610352</ele>
        <time>2016-08-19T08:37:35.000Z</time>
      </trkpt>
      <trkpt lat="45.79115" lon="4.90662">
        <ele>171.60000610352</ele>
        <time>2016-08-19T08:37:36.000Z</time>
      </trkpt>
      <trkpt lat="45.79114" lon="4.90665">
        <ele>171.60000610352</ele>
        <time>2016-08-19T08:37:37.000Z</time>
      </trkpt>
      <trkpt lat="45.79114" lon="4.90668">
        <ele>171.60000610352</ele>
        <time>2016-08-19T08:37:38.000Z</time>
      </trkpt>
      <trkpt lat="45.79112" lon="4.90672">
        <ele>171.60000610352</ele>
        <time>2016-08-19T08:37:39.000Z</time>
      </trkpt>
      <trkpt lat="45.79111" lon="4.90675">
        <ele>171.80000305176</ele>
        <time>2016-08-19T08:37:40.000Z</time>
      </trkpt>
      <trkpt lat="45.79109" lon="4.90679">
        <ele>171.80000305176</ele>
        <time>2016-08-19T08:37:41.000Z</time>
      </trkpt>
      <trkpt lat="45.79108" lon="4.90683">
        <ele>171.80000305176</ele>
        <time>2016-08-19T08:37:42.000Z</time>
      </trkpt>
      <trkpt lat="45.79107" lon="4.90686">
        <ele>171.80000305176</ele>
        <time>2016-08-19T08:37:43.000Z</time>
      </trkpt>
      <trkpt lat="45.79106" lon="4.90689">
        <ele>171.80000305176</ele>
        <time>2016-08-19T08:37:44.000Z</time>
      </trkpt>
      <trkpt lat="45.79106" lon="4.90693">
        <ele>171.80000305176</ele>
        <time>2016-08-19T08:37:45.000Z</time>
      </trkpt>
      <trkpt lat="45.79105" lon="4.90695">
        <ele>171.80000305176</ele>
        <time>2016-08-19T08:37:46.000Z</time>
      </trkpt>
      <trkpt lat="45.79105" lon="4.90698">
        <ele>171.60000610352</ele>
        <time>2016-08-19T08:37:47.000Z</time>
      </trkpt>
      <trkpt lat="45.79105" lon="4.90701">
        <ele>171.60000610352</ele>
        <time>2016-08-19T08:37:48.000Z</time>
      </trkpt>
      <trkpt lat="45.79105" lon="4.90704">
        <ele>171.60000610352</ele>
        <time>2016-08-19T08:37:49.000Z</time>
      </trkpt>
      <trkpt lat="45.79104" lon="4.90706">
        <ele>171.60000610352</ele>
        <time>2016-08-19T08:37:50.000Z</time>
      </trkpt>
      <trkpt lat="45.79104" lon="4.9071">
        <ele>171.60000610352</ele>
        <time>2016-08-19T08:37:51.000Z</time>
      </trkpt>
      <trkpt lat="45.79104" lon="4.90713">
        <ele>171.60000610352</ele>
        <time>2016-08-19T08:37:52.000Z</time>
      </trkpt>
      <trkpt lat="45.79104" lon="4.90716">
        <ele>171.60000610352</ele>
        <time>2016-08-19T08:37:53.000Z</time>
      </trkpt>
      <trkpt lat="45.79103" lon="4.90718">
        <ele>171.60000610352</ele>
        <time>2016-08-19T08:37:54.000Z</time>
      </trkpt>
      <trkpt lat="45.79103" lon="4.9072">
        <ele>171.60000610352</ele>
        <time>2016-08-19T08:37:55.000Z</time>
      </trkpt>
      <trkpt lat="45.79104" lon="4.90723">
        <ele>171.60000610352</ele>
        <time>2016-08-19T08:37:56.000Z</time>
      </trkpt>
      <trkpt lat="45.79104" lon="4.90726">
        <ele>171.60000610352</ele>
        <time>2016-08-19T08:37:57.000Z</time>
      </trkpt>
      <trkpt lat="45.79104" lon="4.90729">
        <ele>171.60000610352</ele>
        <time>2016-08-19T08:37:58.000Z</time>
      </trkpt>
      <trkpt lat="45.79103" lon="4.90731">
        <ele>171.80000305176</ele>
        <time>2016-08-19T08:37:59.000Z</time>
      </trkpt>
      <trkpt lat="45.79104" lon="4.90736">
        <ele>171.60000610352</ele>
        <time>2016-08-19T08:38:00.000Z</time>
      </trkpt>
      <trkpt lat="45.79106" lon="4.90741">
        <ele>171.60000610352</ele>
        <time>2016-08-19T08:38:01.000Z</time>
      </trkpt>
      <trkpt lat="45.79113" lon="4.9075">
        <ele>171.19999694824</ele>
        <time>2016-08-19T08:38:02.000Z</time>
      </trkpt>
      <trkpt lat="45.79113" lon="4.90754">
        <ele>171.19999694824</ele>
        <time>2016-08-19T08:38:03.000Z</time>
      </trkpt>
      <trkpt lat="45.79113" lon="4.90757">
        <ele>171.19999694824</ele>
        <time>2016-08-19T08:38:04.000Z</time>
      </trkpt>
      <trkpt lat="45.79114" lon="4.90762">
        <ele>171.19999694824</ele>
        <time>2016-08-19T08:38:05.000Z</time>
      </trkpt>
      <trkpt lat="45.79115" lon="4.90767">
        <ele>171.19999694824</ele>
        <time>2016-08-19T08:38:06.000Z</time>
      </trkpt>
      <trkpt lat="45.79115" lon="4.90771">
        <ele>171</ele>
        <time>2016-08-19T08:38:07.000Z</time>
      </trkpt>
      <trkpt lat="45.79115" lon="4.90774">
        <ele>171</ele>
        <time>2016-08-19T08:38:08.000Z</time>
      </trkpt>
      <trkpt lat="45.79116" lon="4.90779">
        <ele>170.80000305176</ele>
        <time>2016-08-19T08:38:09.000Z</time>
      </trkpt>
      <trkpt lat="45.79117" lon="4.90783">
        <ele>170.60000610352</ele>
        <time>2016-08-19T08:38:10.000Z</time>
      </trkpt>
      <trkpt lat="45.79117" lon="4.90787">
        <ele>170.60000610352</ele>
        <time>2016-08-19T08:38:11.000Z</time>
      </trkpt>
      <trkpt lat="45.79117" lon="4.90791">
        <ele>170.60000610352</ele>
        <time>2016-08-19T08:38:12.000Z</time>
      </trkpt>
      <trkpt lat="45.79117" lon="4.90795">
        <ele>170.60000610352</ele>
        <time>2016-08-19T08:38:13.000Z</time>
      </trkpt>
      <trkpt lat="45.79117" lon="4.90798">
        <ele>170.60000610352</ele>
        <time>2016-08-19T08:38:14.000Z</time>
      </trkpt>
      <trkpt lat="45.79119" lon="4.90802">
        <ele>170.39999389648</ele>
        <time>2016-08-19T08:38:15.000Z</time>
      </trkpt>
      <trkpt lat="45.79119" lon="4.90805">
        <ele>170.39999389648</ele>
        <time>2016-08-19T08:38:16.000Z</time>
      </trkpt>
      <trkpt lat="45.7912" lon="4.90809">
        <ele>170.39999389648</ele>
        <time>2016-08-19T08:38:17.000Z</time>
      </trkpt>
      <trkpt lat="45.7912" lon="4.90812">
        <ele>170.39999389648</ele>
        <time>2016-08-19T08:38:18.000Z</time>
      </trkpt>
      <trkpt lat="45.79121" lon="4.90816">
        <ele>170.39999389648</ele>
        <time>2016-08-19T08:38:19.000Z</time>
      </trkpt>
      <trkpt lat="45.79121" lon="4.9082">
        <ele>170.39999389648</ele>
        <time>2016-08-19T08:38:20.000Z</time>
      </trkpt>
      <trkpt lat="45.79121" lon="4.90824">
        <ele>170.39999389648</ele>
        <time>2016-08-19T08:38:21.000Z</time>
      </trkpt>
      <trkpt lat="45.79122" lon="4.90827">
        <ele>170.39999389648</ele>
        <time>2016-08-19T08:38:22.000Z</time>
      </trkpt>
      <trkpt lat="45.79122" lon="4.9083">
        <ele>170.39999389648</ele>
        <time>2016-08-19T08:38:23.000Z</time>
      </trkpt>
      <trkpt lat="45.79122" lon="4.90834">
        <ele>170.39999389648</ele>
        <time>2016-08-19T08:38:24.000Z</time>
      </trkpt>
      <trkpt lat="45.79122" lon="4.90838">
        <ele>170.39999389648</ele>
        <time>2016-08-19T08:38:25.000Z</time>
      </trkpt>
      <trkpt lat="45.79123" lon="4.90841">
        <ele>170.39999389648</ele>
        <time>2016-08-19T08:38:26.000Z</time>
      </trkpt>
      <trkpt lat="45.79123" lon="4.90844">
        <ele>170.39999389648</ele>
        <time>2016-08-19T08:38:27.000Z</time>
      </trkpt>
      <trkpt lat="45.79123" lon="4.90848">
        <ele>170.39999389648</ele>
        <time>2016-08-19T08:38:28.000Z</time>
      </trkpt>
      <trkpt lat="45.79123" lon="4.90851">
        <ele>170.39999389648</ele>
        <time>2016-08-19T08:38:29.000Z</time>
      </trkpt>
      <trkpt lat="45.79124" lon="4.90854">
        <ele>170.39999389648</ele>
        <time>2016-08-19T08:38:30.000Z</time>
      </trkpt>
      <trkpt lat="45.79125" lon="4.90857">
        <ele>170.39999389648</ele>
        <time>2016-08-19T08:38:31.000Z</time>
      </trkpt>
      <trkpt lat="45.79126" lon="4.9086">
        <ele>170.19999694824</ele>
        <time>2016-08-19T08:38:32.000Z</time>
      </trkpt>
      <trkpt lat="45.79126" lon="4.90863">
        <ele>170.19999694824</ele>
        <time>2016-08-19T08:38:33.000Z</time>
      </trkpt>
      <trkpt lat="45.79126" lon="4.90867">
        <ele>170</ele>
        <time>2016-08-19T08:38:34.000Z</time>
      </trkpt>
      <trkpt lat="45.79126" lon="4.9087">
        <ele>169.80000305176</ele>
        <time>2016-08-19T08:38:35.000Z</time>
      </trkpt>
      <trkpt lat="45.79126" lon="4.90874">
        <ele>169.80000305176</ele>
        <time>2016-08-19T08:38:36.000Z</time>
      </trkpt>
      <trkpt lat="45.79127" lon="4.90877">
        <ele>169.80000305176</ele>
        <time>2016-08-19T08:38:37.000Z</time>
      </trkpt>
      <trkpt lat="45.79126" lon="4.9088">
        <ele>169.80000305176</ele>
        <time>2016-08-19T08:38:38.000Z</time>
      </trkpt>
      <trkpt lat="45.79126" lon="4.90883">
        <ele>169.80000305176</ele>
        <time>2016-08-19T08:38:39.000Z</time>
      </trkpt>
      <trkpt lat="45.79126" lon="4.90886">
        <ele>169.80000305176</ele>
        <time>2016-08-19T08:38:40.000Z</time>
      </trkpt>
      <trkpt lat="45.79126" lon="4.90889">
        <ele>169.80000305176</ele>
        <time>2016-08-19T08:38:41.000Z</time>
      </trkpt>
      <trkpt lat="45.79127" lon="4.90892">
        <ele>170</ele>
        <time>2016-08-19T08:38:42.000Z</time>
      </trkpt>
      <trkpt lat="45.79128" lon="4.90894">
        <ele>170</ele>
        <time>2016-08-19T08:38:43.000Z</time>
      </trkpt>
      <trkpt lat="45.79128" lon="4.90898">
        <ele>170</ele>
        <time>2016-08-19T08:38:44.000Z</time>
      </trkpt>
      <trkpt lat="45.79129" lon="4.90901">
        <ele>170.19999694824</ele>
        <time>2016-08-19T08:38:45.000Z</time>
      </trkpt>
      <trkpt lat="45.79129" lon="4.90904">
        <ele>170.19999694824</ele>
        <time>2016-08-19T08:38:46.000Z</time>
      </trkpt>
      <trkpt lat="45.79129" lon="4.90908">
        <ele>170.19999694824</ele>
        <time>2016-08-19T08:38:47.000Z</time>
      </trkpt>
      <trkpt lat="45.79129" lon="4.9091">
        <ele>170.19999694824</ele>
        <time>2016-08-19T08:38:48.000Z</time>
      </trkpt>
      <trkpt lat="45.7913" lon="4.90913">
        <ele>170.19999694824</ele>
        <time>2016-08-19T08:38:49.000Z</time>
      </trkpt>
      <trkpt lat="45.7913" lon="4.90916">
        <ele>170.39999389648</ele>
        <time>2016-08-19T08:38:50.000Z</time>
      </trkpt>
      <trkpt lat="45.7913" lon="4.90919">
        <ele>170.39999389648</ele>
        <time>2016-08-19T08:38:51.000Z</time>
      </trkpt>
      <trkpt lat="45.7913" lon="4.90922">
        <ele>170.39999389648</ele>
        <time>2016-08-19T08:38:52.000Z</time>
      </trkpt>
      <trkpt lat="45.79131" lon="4.90925">
        <ele>170.39999389648</ele>
        <time>2016-08-19T08:38:53.000Z</time>
      </trkpt>
      <trkpt lat="45.7913" lon="4.90929">
        <ele>170.39999389648</ele>
        <time>2016-08-19T08:38:54.000Z</time>
      </trkpt>
      <trkpt lat="45.7913" lon="4.90932">
        <ele>170.60000610352</ele>
        <time>2016-08-19T08:38:55.000Z</time>
      </trkpt>
      <trkpt lat="45.7913" lon="4.90935">
        <ele>170.60000610352</ele>
        <time>2016-08-19T08:38:56.000Z</time>
      </trkpt>
      <trkpt lat="45.7913" lon="4.90937">
        <ele>170.60000610352</ele>
        <time>2016-08-19T08:38:57.000Z</time>
      </trkpt>
      <trkpt lat="45.79131" lon="4.9094">
        <ele>170.60000610352</ele>
        <time>2016-08-19T08:38:58.000Z</time>
      </trkpt>
      <trkpt lat="45.79132" lon="4.90943">
        <ele>170.60000610352</ele>
        <time>2016-08-19T08:38:59.000Z</time>
      </trkpt>
      <trkpt lat="45.79132" lon="4.90946">
        <ele>170.80000305176</ele>
        <time>2016-08-19T08:39:00.000Z</time>
      </trkpt>
      <trkpt lat="45.79133" lon="4.90949">
        <ele>170.80000305176</ele>
        <time>2016-08-19T08:39:01.000Z</time>
      </trkpt>
      <trkpt lat="45.79133" lon="4.90952">
        <ele>170.80000305176</ele>
        <time>2016-08-19T08:39:02.000Z</time>
      </trkpt>
      <trkpt lat="45.79133" lon="4.90955">
        <ele>171</ele>
        <time>2016-08-19T08:39:03.000Z</time>
      </trkpt>
      <trkpt lat="45.79135" lon="4.90957">
        <ele>171</ele>
        <time>2016-08-19T08:39:04.000Z</time>
      </trkpt>
      <trkpt lat="45.79136" lon="4.90961">
        <ele>171</ele>
        <time>2016-08-19T08:39:05.000Z</time>
      </trkpt>
      <trkpt lat="45.79137" lon="4.90965">
        <ele>171</ele>
        <time>2016-08-19T08:39:06.000Z</time>
      </trkpt>
      <trkpt lat="45.79138" lon="4.90968">
        <ele>171</ele>
        <time>2016-08-19T08:39:07.000Z</time>
      </trkpt>
      <trkpt lat="45.79139" lon="4.90971">
        <ele>171</ele>
        <time>2016-08-19T08:39:08.000Z</time>
      </trkpt>
      <trkpt lat="45.7914" lon="4.90974">
        <ele>171</ele>
        <time>2016-08-19T08:39:09.000Z</time>
      </trkpt>
      <trkpt lat="45.79141" lon="4.90977">
        <ele>171</ele>
        <time>2016-08-19T08:39:10.000Z</time>
      </trkpt>
      <trkpt lat="45.79141" lon="4.90981">
        <ele>171</ele>
        <time>2016-08-19T08:39:11.000Z</time>
      </trkpt>
      <trkpt lat="45.79142" lon="4.90984">
        <ele>171</ele>
        <time>2016-08-19T08:39:12.000Z</time>
      </trkpt>
      <trkpt lat="45.79143" lon="4.90988">
        <ele>171</ele>
        <time>2016-08-19T08:39:13.000Z</time>
      </trkpt>
      <trkpt lat="45.79144" lon="4.90991">
        <ele>171</ele>
        <time>2016-08-19T08:39:14.000Z</time>
      </trkpt>
      <trkpt lat="45.79144" lon="4.90995">
        <ele>171</ele>
        <time>2016-08-19T08:39:15.000Z</time>
      </trkpt>
      <trkpt lat="45.79144" lon="4.90998">
        <ele>171</ele>
        <time>2016-08-19T08:39:16.000Z</time>
      </trkpt>
      <trkpt lat="45.79144" lon="4.91001">
        <ele>171</ele>
        <time>2016-08-19T08:39:17.000Z</time>
      </trkpt>
      <trkpt lat="45.79144" lon="4.91004">
        <ele>171</ele>
        <time>2016-08-19T08:39:18.000Z</time>
      </trkpt>
      <trkpt lat="45.79144" lon="4.91007">
        <ele>171</ele>
        <time>2016-08-19T08:39:19.000Z</time>
      </trkpt>
      <trkpt lat="45.79144" lon="4.9101">
        <ele>171</ele>
        <time>2016-08-19T08:39:20.000Z</time>
      </trkpt>
      <trkpt lat="45.79143" lon="4.91013">
        <ele>171</ele>
        <time>2016-08-19T08:39:21.000Z</time>
      </trkpt>
      <trkpt lat="45.79143" lon="4.91016">
        <ele>171</ele>
        <time>2016-08-19T08:39:22.000Z</time>
      </trkpt>
      <trkpt lat="45.79143" lon="4.91019">
        <ele>171</ele>
        <time>2016-08-19T08:39:23.000Z</time>
      </trkpt>
      <trkpt lat="45.79145" lon="4.91022">
        <ele>171</ele>
        <time>2016-08-19T08:39:24.000Z</time>
      </trkpt>
      <trkpt lat="45.79145" lon="4.91027">
        <ele>171</ele>
        <time>2016-08-19T08:39:25.000Z</time>
      </trkpt>
      <trkpt lat="45.79146" lon="4.91031">
        <ele>171</ele>
        <time>2016-08-19T08:39:26.000Z</time>
      </trkpt>
      <trkpt lat="45.79148" lon="4.91036">
        <ele>170.80000305176</ele>
        <time>2016-08-19T08:39:27.000Z</time>
      </trkpt>
      <trkpt lat="45.79149" lon="4.91041">
        <ele>170.80000305176</ele>
        <time>2016-08-19T08:39:28.000Z</time>
      </trkpt>
      <trkpt lat="45.79151" lon="4.91045">
        <ele>170.80000305176</ele>
        <time>2016-08-19T08:39:29.000Z</time>
      </trkpt>
      <trkpt lat="45.79153" lon="4.91048">
        <ele>170.80000305176</ele>
        <time>2016-08-19T08:39:30.000Z</time>
      </trkpt>
      <trkpt lat="45.79154" lon="4.91052">
        <ele>170.60000610352</ele>
        <time>2016-08-19T08:39:31.000Z</time>
      </trkpt>
      <trkpt lat="45.79156" lon="4.91055">
        <ele>170.60000610352</ele>
        <time>2016-08-19T08:39:32.000Z</time>
      </trkpt>
      <trkpt lat="45.79157" lon="4.91058">
        <ele>170.60000610352</ele>
        <time>2016-08-19T08:39:33.000Z</time>
      </trkpt>
      <trkpt lat="45.7916" lon="4.91061">
        <ele>170.39999389648</ele>
        <time>2016-08-19T08:39:34.000Z</time>
      </trkpt>
      <trkpt lat="45.79161" lon="4.91065">
        <ele>170.39999389648</ele>
        <time>2016-08-19T08:39:35.000Z</time>
      </trkpt>
      <trkpt lat="45.79163" lon="4.91067">
        <ele>170.39999389648</ele>
        <time>2016-08-19T08:39:36.000Z</time>
      </trkpt>
      <trkpt lat="45.79164" lon="4.91071">
        <ele>170.39999389648</ele>
        <time>2016-08-19T08:39:37.000Z</time>
      </trkpt>
      <trkpt lat="45.79165" lon="4.91075">
        <ele>170.39999389648</ele>
        <time>2016-08-19T08:39:38.000Z</time>
      </trkpt>
      <trkpt lat="45.79166" lon="4.91078">
        <ele>170.39999389648</ele>
        <time>2016-08-19T08:39:39.000Z</time>
      </trkpt>
      <trkpt lat="45.79167" lon="4.91082">
        <ele>170.39999389648</ele>
        <time>2016-08-19T08:39:40.000Z</time>
      </trkpt>
      <trkpt lat="45.79168" lon="4.91086">
        <ele>170.19999694824</ele>
        <time>2016-08-19T08:39:41.000Z</time>
      </trkpt>
      <trkpt lat="45.79168" lon="4.91089">
        <ele>170.19999694824</ele>
        <time>2016-08-19T08:39:42.000Z</time>
      </trkpt>
      <trkpt lat="45.79169" lon="4.91093">
        <ele>170.19999694824</ele>
        <time>2016-08-19T08:39:43.000Z</time>
      </trkpt>
      <trkpt lat="45.79169" lon="4.91096">
        <ele>170.19999694824</ele>
        <time>2016-08-19T08:39:44.000Z</time>
      </trkpt>
      <trkpt lat="45.79171" lon="4.911">
        <ele>170.19999694824</ele>
        <time>2016-08-19T08:39:45.000Z</time>
      </trkpt>
      <trkpt lat="45.79171" lon="4.91103">
        <ele>170.19999694824</ele>
        <time>2016-08-19T08:39:46.000Z</time>
      </trkpt>
      <trkpt lat="45.79172" lon="4.91106">
        <ele>170.19999694824</ele>
        <time>2016-08-19T08:39:47.000Z</time>
      </trkpt>
      <trkpt lat="45.79172" lon="4.91109">
        <ele>170.19999694824</ele>
        <time>2016-08-19T08:39:48.000Z</time>
      </trkpt>
      <trkpt lat="45.79173" lon="4.91112">
        <ele>170.19999694824</ele>
        <time>2016-08-19T08:39:49.000Z</time>
      </trkpt>
      <trkpt lat="45.79174" lon="4.91115">
        <ele>170.19999694824</ele>
        <time>2016-08-19T08:39:50.000Z</time>
      </trkpt>
      <trkpt lat="45.79173" lon="4.91118">
        <ele>170.19999694824</ele>
        <time>2016-08-19T08:39:51.000Z</time>
      </trkpt>
      <trkpt lat="45.79173" lon="4.91121">
        <ele>170.19999694824</ele>
        <time>2016-08-19T08:39:52.000Z</time>
      </trkpt>
      <trkpt lat="45.79173" lon="4.91124">
        <ele>170.19999694824</ele>
        <time>2016-08-19T08:39:53.000Z</time>
      </trkpt>
      <trkpt lat="45.79174" lon="4.91127">
        <ele>170.19999694824</ele>
        <time>2016-08-19T08:39:54.000Z</time>
      </trkpt>
      <trkpt lat="45.79175" lon="4.91131">
        <ele>170.19999694824</ele>
        <time>2016-08-19T08:39:55.000Z</time>
      </trkpt>
      <trkpt lat="45.79175" lon="4.91134">
        <ele>170.19999694824</ele>
        <time>2016-08-19T08:39:56.000Z</time>
      </trkpt>
      <trkpt lat="45.79175" lon="4.91139">
        <ele>170.19999694824</ele>
        <time>2016-08-19T08:39:57.000Z</time>
      </trkpt>
      <trkpt lat="45.79176" lon="4.91142">
        <ele>170</ele>
        <time>2016-08-19T08:39:58.000Z</time>
      </trkpt>
      <trkpt lat="45.79177" lon="4.91147">
        <ele>170</ele>
        <time>2016-08-19T08:39:59.000Z</time>
      </trkpt>
      <trkpt lat="45.7918" lon="4.91151">
        <ele>170</ele>
        <time>2016-08-19T08:40:00.000Z</time>
      </trkpt>
      <trkpt lat="45.79181" lon="4.91154">
        <ele>170</ele>
        <time>2016-08-19T08:40:01.000Z</time>
      </trkpt>
      <trkpt lat="45.79182" lon="4.91158">
        <ele>170</ele>
        <time>2016-08-19T08:40:02.000Z</time>
      </trkpt>
      <trkpt lat="45.79182" lon="4.91162">
        <ele>170</ele>
        <time>2016-08-19T08:40:03.000Z</time>
      </trkpt>
      <trkpt lat="45.79182" lon="4.91166">
        <ele>170</ele>
        <time>2016-08-19T08:40:04.000Z</time>
      </trkpt>
      <trkpt lat="45.79182" lon="4.9117">
        <ele>170</ele>
        <time>2016-08-19T08:40:05.000Z</time>
      </trkpt>
      <trkpt lat="45.79183" lon="4.91174">
        <ele>170</ele>
        <time>2016-08-19T08:40:06.000Z</time>
      </trkpt>
      <trkpt lat="45.79184" lon="4.91178">
        <ele>170</ele>
        <time>2016-08-19T08:40:07.000Z</time>
      </trkpt>
      <trkpt lat="45.79185" lon="4.91181">
        <ele>170</ele>
        <time>2016-08-19T08:40:08.000Z</time>
      </trkpt>
      <trkpt lat="45.79186" lon="4.91185">
        <ele>170</ele>
        <time>2016-08-19T08:40:09.000Z</time>
      </trkpt>
      <trkpt lat="45.79187" lon="4.91188">
        <ele>170</ele>
        <time>2016-08-19T08:40:10.000Z</time>
      </trkpt>
      <trkpt lat="45.79189" lon="4.91191">
        <ele>170</ele>
        <time>2016-08-19T08:40:11.000Z</time>
      </trkpt>
      <trkpt lat="45.7919" lon="4.91195">
        <ele>170</ele>
        <time>2016-08-19T08:40:12.000Z</time>
      </trkpt>
      <trkpt lat="45.79191" lon="4.91198">
        <ele>170</ele>
        <time>2016-08-19T08:40:13.000Z</time>
      </trkpt>
      <trkpt lat="45.79191" lon="4.91201">
        <ele>170</ele>
        <time>2016-08-19T08:40:14.000Z</time>
      </trkpt>
      <trkpt lat="45.79191" lon="4.91204">
        <ele>170</ele>
        <time>2016-08-19T08:40:15.000Z</time>
      </trkpt>
      <trkpt lat="45.79192" lon="4.91206">
        <ele>170</ele>
        <time>2016-08-19T08:40:16.000Z</time>
      </trkpt>
      <trkpt lat="45.79193" lon="4.91209">
        <ele>170</ele>
        <time>2016-08-19T08:40:17.000Z</time>
      </trkpt>
      <trkpt lat="45.79194" lon="4.91211">
        <ele>170</ele>
        <time>2016-08-19T08:40:18.000Z</time>
      </trkpt>
      <trkpt lat="45.79196" lon="4.91214">
        <ele>170.19999694824</ele>
        <time>2016-08-19T08:40:19.000Z</time>
      </trkpt>
      <trkpt lat="45.79197" lon="4.91217">
        <ele>170.19999694824</ele>
        <time>2016-08-19T08:40:20.000Z</time>
      </trkpt>
      <trkpt lat="45.79199" lon="4.91219">
        <ele>170.19999694824</ele>
        <time>2016-08-19T08:40:21.000Z</time>
      </trkpt>
      <trkpt lat="45.79201" lon="4.91222">
        <ele>170</ele>
        <time>2016-08-19T08:40:22.000Z</time>
      </trkpt>
      <trkpt lat="45.79202" lon="4.91224">
        <ele>170.19999694824</ele>
        <time>2016-08-19T08:40:23.000Z</time>
      </trkpt>
      <trkpt lat="45.79204" lon="4.91227">
        <ele>170.19999694824</ele>
        <time>2016-08-19T08:40:24.000Z</time>
      </trkpt>
      <trkpt lat="45.79205" lon="4.9123">
        <ele>170.19999694824</ele>
        <time>2016-08-19T08:40:25.000Z</time>
      </trkpt>
      <trkpt lat="45.79206" lon="4.91233">
        <ele>170.19999694824</ele>
        <time>2016-08-19T08:40:26.000Z</time>
      </trkpt>
      <trkpt lat="45.79208" lon="4.91236">
        <ele>170.19999694824</ele>
        <time>2016-08-19T08:40:27.000Z</time>
      </trkpt>
      <trkpt lat="45.79209" lon="4.91239">
        <ele>170.19999694824</ele>
        <time>2016-08-19T08:40:28.000Z</time>
      </trkpt>
      <trkpt lat="45.7921" lon="4.91242">
        <ele>170.19999694824</ele>
        <time>2016-08-19T08:40:29.000Z</time>
      </trkpt>
      <trkpt lat="45.79211" lon="4.91245">
        <ele>170.39999389648</ele>
        <time>2016-08-19T08:40:30.000Z</time>
      </trkpt>
      <trkpt lat="45.79211" lon="4.91248">
        <ele>170.39999389648</ele>
        <time>2016-08-19T08:40:31.000Z</time>
      </trkpt>
      <trkpt lat="45.79212" lon="4.9125">
        <ele>170.39999389648</ele>
        <time>2016-08-19T08:40:32.000Z</time>
      </trkpt>
      <trkpt lat="45.79213" lon="4.91253">
        <ele>170.39999389648</ele>
        <time>2016-08-19T08:40:33.000Z</time>
      </trkpt>
      <trkpt lat="45.79213" lon="4.91256">
        <ele>170.39999389648</ele>
        <time>2016-08-19T08:40:34.000Z</time>
      </trkpt>
      <trkpt lat="45.79213" lon="4.91262">
        <ele>170.60000610352</ele>
        <time>2016-08-19T08:40:35.000Z</time>
      </trkpt>
      <trkpt lat="45.79215" lon="4.91265">
        <ele>170.60000610352</ele>
        <time>2016-08-19T08:40:36.000Z</time>
      </trkpt>
      <trkpt lat="45.79216" lon="4.91268">
        <ele>170.60000610352</ele>
        <time>2016-08-19T08:40:37.000Z</time>
      </trkpt>
      <trkpt lat="45.79217" lon="4.91272">
        <ele>170.80000305176</ele>
        <time>2016-08-19T08:40:38.000Z</time>
      </trkpt>
      <trkpt lat="45.79218" lon="4.91275">
        <ele>170.80000305176</ele>
        <time>2016-08-19T08:40:39.000Z</time>
      </trkpt>
      <trkpt lat="45.79219" lon="4.91278">
        <ele>170.80000305176</ele>
        <time>2016-08-19T08:40:40.000Z</time>
      </trkpt>
      <trkpt lat="45.7922" lon="4.91281">
        <ele>170.80000305176</ele>
        <time>2016-08-19T08:40:41.000Z</time>
      </trkpt>
      <trkpt lat="45.7922" lon="4.91284">
        <ele>171</ele>
        <time>2016-08-19T08:40:42.000Z</time>
      </trkpt>
      <trkpt lat="45.7922" lon="4.91287">
        <ele>171</ele>
        <time>2016-08-19T08:40:43.000Z</time>
      </trkpt>
      <trkpt lat="45.7922" lon="4.91291">
        <ele>171</ele>
        <time>2016-08-19T08:40:44.000Z</time>
      </trkpt>
      <trkpt lat="45.79221" lon="4.91294">
        <ele>171</ele>
        <time>2016-08-19T08:40:45.000Z</time>
      </trkpt>
      <trkpt lat="45.79221" lon="4.91298">
        <ele>171</ele>
        <time>2016-08-19T08:40:46.000Z</time>
      </trkpt>
      <trkpt lat="45.79222" lon="4.91301">
        <ele>171.19999694824</ele>
        <time>2016-08-19T08:40:47.000Z</time>
      </trkpt>
      <trkpt lat="45.79223" lon="4.91304">
        <ele>171.19999694824</ele>
        <time>2016-08-19T08:40:48.000Z</time>
      </trkpt>
      <trkpt lat="45.79224" lon="4.91307">
        <ele>171.19999694824</ele>
        <time>2016-08-19T08:40:49.000Z</time>
      </trkpt>
      <trkpt lat="45.79226" lon="4.91309">
        <ele>171.19999694824</ele>
        <time>2016-08-19T08:40:50.000Z</time>
      </trkpt>
      <trkpt lat="45.79227" lon="4.91311">
        <ele>171.19999694824</ele>
        <time>2016-08-19T08:40:51.000Z</time>
      </trkpt>
      <trkpt lat="45.79229" lon="4.91315">
        <ele>171.19999694824</ele>
        <time>2016-08-19T08:40:52.000Z</time>
      </trkpt>
      <trkpt lat="45.7923" lon="4.91317">
        <ele>171.19999694824</ele>
        <time>2016-08-19T08:40:53.000Z</time>
      </trkpt>
      <trkpt lat="45.79231" lon="4.91321">
        <ele>171.19999694824</ele>
        <time>2016-08-19T08:40:54.000Z</time>
      </trkpt>
      <trkpt lat="45.79231" lon="4.91325">
        <ele>171.19999694824</ele>
        <time>2016-08-19T08:40:55.000Z</time>
      </trkpt>
      <trkpt lat="45.79232" lon="4.91328">
        <ele>171.19999694824</ele>
        <time>2016-08-19T08:40:56.000Z</time>
      </trkpt>
      <trkpt lat="45.79232" lon="4.91332">
        <ele>171.19999694824</ele>
        <time>2016-08-19T08:40:57.000Z</time>
      </trkpt>
      <trkpt lat="45.79232" lon="4.91336">
        <ele>171.19999694824</ele>
        <time>2016-08-19T08:40:58.000Z</time>
      </trkpt>
      <trkpt lat="45.79232" lon="4.91339">
        <ele>171.39999389648</ele>
        <time>2016-08-19T08:40:59.000Z</time>
      </trkpt>
      <trkpt lat="45.79232" lon="4.91342">
        <ele>171.39999389648</ele>
        <time>2016-08-19T08:41:00.000Z</time>
      </trkpt>
      <trkpt lat="45.79233" lon="4.91345">
        <ele>171.39999389648</ele>
        <time>2016-08-19T08:41:01.000Z</time>
      </trkpt>
      <trkpt lat="45.79233" lon="4.91348">
        <ele>171.39999389648</ele>
        <time>2016-08-19T08:41:02.000Z</time>
      </trkpt>
      <trkpt lat="45.79232" lon="4.91351">
        <ele>171.39999389648</ele>
        <time>2016-08-19T08:41:03.000Z</time>
      </trkpt>
      <trkpt lat="45.79232" lon="4.91354">
        <ele>171.60000610352</ele>
        <time>2016-08-19T08:41:04.000Z</time>
      </trkpt>
      <trkpt lat="45.79233" lon="4.91357">
        <ele>171.60000610352</ele>
        <time>2016-08-19T08:41:05.000Z</time>
      </trkpt>
      <trkpt lat="45.79234" lon="4.91361">
        <ele>171.60000610352</ele>
        <time>2016-08-19T08:41:06.000Z</time>
      </trkpt>
      <trkpt lat="45.79235" lon="4.91363">
        <ele>171.60000610352</ele>
        <time>2016-08-19T08:41:07.000Z</time>
      </trkpt>
      <trkpt lat="45.79236" lon="4.91366">
        <ele>171.60000610352</ele>
        <time>2016-08-19T08:41:08.000Z</time>
      </trkpt>
      <trkpt lat="45.79237" lon="4.91369">
        <ele>171.60000610352</ele>
        <time>2016-08-19T08:41:09.000Z</time>
      </trkpt>
      <trkpt lat="45.79238" lon="4.91373">
        <ele>171.60000610352</ele>
        <time>2016-08-19T08:41:10.000Z</time>
      </trkpt>
      <trkpt lat="45.79239" lon="4.91376">
        <ele>171.60000610352</ele>
        <time>2016-08-19T08:41:11.000Z</time>
      </trkpt>
      <trkpt lat="45.79239" lon="4.91378">
        <ele>171.60000610352</ele>
        <time>2016-08-19T08:41:12.000Z</time>
      </trkpt>
      <trkpt lat="45.7924" lon="4.91381">
        <ele>171.60000610352</ele>
        <time>2016-08-19T08:41:13.000Z</time>
      </trkpt>
      <trkpt lat="45.79241" lon="4.91384">
        <ele>171.60000610352</ele>
        <time>2016-08-19T08:41:14.000Z</time>
      </trkpt>
      <trkpt lat="45.79243" lon="4.91388">
        <ele>171.60000610352</ele>
        <time>2016-08-19T08:41:15.000Z</time>
      </trkpt>
      <trkpt lat="45.79244" lon="4.91391">
        <ele>171.60000610352</ele>
        <time>2016-08-19T08:41:16.000Z</time>
      </trkpt>
      <trkpt lat="45.79245" lon="4.91395">
        <ele>171.60000610352</ele>
        <time>2016-08-19T08:41:17.000Z</time>
      </trkpt>
      <trkpt lat="45.79246" lon="4.91398">
        <ele>171.80000305176</ele>
        <time>2016-08-19T08:41:18.000Z</time>
      </trkpt>
      <trkpt lat="45.79246" lon="4.91402">
        <ele>171.60000610352</ele>
        <time>2016-08-19T08:41:19.000Z</time>
      </trkpt>
      <trkpt lat="45.79247" lon="4.91405">
        <ele>171.60000610352</ele>
        <time>2016-08-19T08:41:20.000Z</time>
      </trkpt>
      <trkpt lat="45.79247" lon="4.91409">
        <ele>171.60000610352</ele>
        <time>2016-08-19T08:41:21.000Z</time>
      </trkpt>
      <trkpt lat="45.79248" lon="4.91412">
        <ele>171.60000610352</ele>
        <time>2016-08-19T08:41:22.000Z</time>
      </trkpt>
      <trkpt lat="45.79249" lon="4.91415">
        <ele>171.60000610352</ele>
        <time>2016-08-19T08:41:23.000Z</time>
      </trkpt>
      <trkpt lat="45.79249" lon="4.91418">
        <ele>171.39999389648</ele>
        <time>2016-08-19T08:41:24.000Z</time>
      </trkpt>
      <trkpt lat="45.79249" lon="4.91421">
        <ele>171.39999389648</ele>
        <time>2016-08-19T08:41:25.000Z</time>
      </trkpt>
      <trkpt lat="45.79249" lon="4.91425">
        <ele>171.39999389648</ele>
        <time>2016-08-19T08:41:26.000Z</time>
      </trkpt>
      <trkpt lat="45.7925" lon="4.91427">
        <ele>171.39999389648</ele>
        <time>2016-08-19T08:41:27.000Z</time>
      </trkpt>
      <trkpt lat="45.7925" lon="4.9143">
        <ele>171.39999389648</ele>
        <time>2016-08-19T08:41:28.000Z</time>
      </trkpt>
      <trkpt lat="45.7925" lon="4.91434">
        <ele>171.19999694824</ele>
        <time>2016-08-19T08:41:29.000Z</time>
      </trkpt>
      <trkpt lat="45.79251" lon="4.91437">
        <ele>171.19999694824</ele>
        <time>2016-08-19T08:41:30.000Z</time>
      </trkpt>
      <trkpt lat="45.79251" lon="4.9144">
        <ele>171.19999694824</ele>
        <time>2016-08-19T08:41:31.000Z</time>
      </trkpt>
      <trkpt lat="45.79251" lon="4.91443">
        <ele>171.19999694824</ele>
        <time>2016-08-19T08:41:32.000Z</time>
      </trkpt>
      <trkpt lat="45.79251" lon="4.91446">
        <ele>171.19999694824</ele>
        <time>2016-08-19T08:41:33.000Z</time>
      </trkpt>
      <trkpt lat="45.79251" lon="4.91449">
        <ele>171</ele>
        <time>2016-08-19T08:41:34.000Z</time>
      </trkpt>
      <trkpt lat="45.79251" lon="4.91451">
        <ele>171</ele>
        <time>2016-08-19T08:41:35.000Z</time>
      </trkpt>
      <trkpt lat="45.79251" lon="4.91454">
        <ele>171</ele>
        <time>2016-08-19T08:41:36.000Z</time>
      </trkpt>
      <trkpt lat="45.79251" lon="4.91457">
        <ele>171</ele>
        <time>2016-08-19T08:41:37.000Z</time>
      </trkpt>
      <trkpt lat="45.79251" lon="4.91459">
        <ele>171</ele>
        <time>2016-08-19T08:41:38.000Z</time>
      </trkpt>
      <trkpt lat="45.79251" lon="4.91462">
        <ele>171</ele>
        <time>2016-08-19T08:41:39.000Z</time>
      </trkpt>
      <trkpt lat="45.79251" lon="4.91466">
        <ele>170.80000305176</ele>
        <time>2016-08-19T08:41:40.000Z</time>
      </trkpt>
      <trkpt lat="45.79252" lon="4.91468">
        <ele>170.80000305176</ele>
        <time>2016-08-19T08:41:41.000Z</time>
      </trkpt>
      <trkpt lat="45.79252" lon="4.91471">
        <ele>170.80000305176</ele>
        <time>2016-08-19T08:41:42.000Z</time>
      </trkpt>
      <trkpt lat="45.79253" lon="4.91474">
        <ele>170.80000305176</ele>
        <time>2016-08-19T08:41:43.000Z</time>
      </trkpt>
      <trkpt lat="45.79254" lon="4.91477">
        <ele>170.80000305176</ele>
        <time>2016-08-19T08:41:44.000Z</time>
      </trkpt>
      <trkpt lat="45.79255" lon="4.9148">
        <ele>170.80000305176</ele>
        <time>2016-08-19T08:41:45.000Z</time>
      </trkpt>
      <trkpt lat="45.79256" lon="4.91483">
        <ele>170.60000610352</ele>
        <time>2016-08-19T08:41:46.000Z</time>
      </trkpt>
      <trkpt lat="45.79257" lon="4.91486">
        <ele>170.60000610352</ele>
        <time>2016-08-19T08:41:47.000Z</time>
      </trkpt>
      <trkpt lat="45.79257" lon="4.91491">
        <ele>170.60000610352</ele>
        <time>2016-08-19T08:41:48.000Z</time>
      </trkpt>
      <trkpt lat="45.79258" lon="4.91494">
        <ele>170.60000610352</ele>
        <time>2016-08-19T08:41:49.000Z</time>
      </trkpt>
      <trkpt lat="45.79262" lon="4.91498">
        <ele>170.60000610352</ele>
        <time>2016-08-19T08:41:50.000Z</time>
      </trkpt>
      <trkpt lat="45.79263" lon="4.91502">
        <ele>170.60000610352</ele>
        <time>2016-08-19T08:41:51.000Z</time>
      </trkpt>
      <trkpt lat="45.79265" lon="4.91507">
        <ele>170.60000610352</ele>
        <time>2016-08-19T08:41:52.000Z</time>
      </trkpt>
      <trkpt lat="45.79267" lon="4.9151">
        <ele>170.60000610352</ele>
        <time>2016-08-19T08:41:53.000Z</time>
      </trkpt>
      <trkpt lat="45.79268" lon="4.91514">
        <ele>170.60000610352</ele>
        <time>2016-08-19T08:41:54.000Z</time>
      </trkpt>
      <trkpt lat="45.79268" lon="4.91519">
        <ele>170.60000610352</ele>
        <time>2016-08-19T08:41:55.000Z</time>
      </trkpt>
      <trkpt lat="45.79269" lon="4.91523">
        <ele>170.60000610352</ele>
        <time>2016-08-19T08:41:56.000Z</time>
      </trkpt>
      <trkpt lat="45.7927" lon="4.91526">
        <ele>170.60000610352</ele>
        <time>2016-08-19T08:41:57.000Z</time>
      </trkpt>
      <trkpt lat="45.79271" lon="4.9153">
        <ele>170.60000610352</ele>
        <time>2016-08-19T08:41:58.000Z</time>
      </trkpt>
      <trkpt lat="45.79273" lon="4.91534">
        <ele>170.60000610352</ele>
        <time>2016-08-19T08:41:59.000Z</time>
      </trkpt>
      <trkpt lat="45.79275" lon="4.91537">
        <ele>170.60000610352</ele>
        <time>2016-08-19T08:42:00.000Z</time>
      </trkpt>
      <trkpt lat="45.79275" lon="4.9154">
        <ele>170.80000305176</ele>
        <time>2016-08-19T08:42:01.000Z</time>
      </trkpt>
      <trkpt lat="45.79276" lon="4.91543">
        <ele>170.80000305176</ele>
        <time>2016-08-19T08:42:02.000Z</time>
      </trkpt>
      <trkpt lat="45.79277" lon="4.91547">
        <ele>170.60000610352</ele>
        <time>2016-08-19T08:42:03.000Z</time>
      </trkpt>
      <trkpt lat="45.79277" lon="4.91551">
        <ele>170.60000610352</ele>
        <time>2016-08-19T08:42:04.000Z</time>
      </trkpt>
      <trkpt lat="45.79278" lon="4.91554">
        <ele>170.60000610352</ele>
        <time>2016-08-19T08:42:05.000Z</time>
      </trkpt>
      <trkpt lat="45.79279" lon="4.91557">
        <ele>170.60000610352</ele>
        <time>2016-08-19T08:42:06.000Z</time>
      </trkpt>
      <trkpt lat="45.7928" lon="4.91561">
        <ele>170.60000610352</ele>
        <time>2016-08-19T08:42:07.000Z</time>
      </trkpt>
      <trkpt lat="45.79281" lon="4.91565">
        <ele>170.60000610352</ele>
        <time>2016-08-19T08:42:08.000Z</time>
      </trkpt>
      <trkpt lat="45.79281" lon="4.91568">
        <ele>170.60000610352</ele>
        <time>2016-08-19T08:42:09.000Z</time>
      </trkpt>
      <trkpt lat="45.79283" lon="4.91573">
        <ele>170.60000610352</ele>
        <time>2016-08-19T08:42:10.000Z</time>
      </trkpt>
      <trkpt lat="45.79284" lon="4.91577">
        <ele>170.60000610352</ele>
        <time>2016-08-19T08:42:11.000Z</time>
      </trkpt>
      <trkpt lat="45.79285" lon="4.91582">
        <ele>170.39999389648</ele>
        <time>2016-08-19T08:42:12.000Z</time>
      </trkpt>
      <trkpt lat="45.79286" lon="4.91585">
        <ele>170.39999389648</ele>
        <time>2016-08-19T08:42:13.000Z</time>
      </trkpt>
      <trkpt lat="45.79287" lon="4.91589">
        <ele>170.39999389648</ele>
        <time>2016-08-19T08:42:14.000Z</time>
      </trkpt>
      <trkpt lat="45.79287" lon="4.91593">
        <ele>170.39999389648</ele>
        <time>2016-08-19T08:42:15.000Z</time>
      </trkpt>
      <trkpt lat="45.79288" lon="4.91597">
        <ele>170.39999389648</ele>
        <time>2016-08-19T08:42:16.000Z</time>
      </trkpt>
      <trkpt lat="45.79289" lon="4.916">
        <ele>170.39999389648</ele>
        <time>2016-08-19T08:42:17.000Z</time>
      </trkpt>
      <trkpt lat="45.79289" lon="4.91603">
        <ele>170.39999389648</ele>
        <time>2016-08-19T08:42:18.000Z</time>
      </trkpt>
      <trkpt lat="45.7929" lon="4.91607">
        <ele>170.39999389648</ele>
        <time>2016-08-19T08:42:19.000Z</time>
      </trkpt>
      <trkpt lat="45.79291" lon="4.9161">
        <ele>170.39999389648</ele>
        <time>2016-08-19T08:42:20.000Z</time>
      </trkpt>
      <trkpt lat="45.79291" lon="4.91613">
        <ele>170.39999389648</ele>
        <time>2016-08-19T08:42:21.000Z</time>
      </trkpt>
      <trkpt lat="45.79292" lon="4.91617">
        <ele>170.39999389648</ele>
        <time>2016-08-19T08:42:22.000Z</time>
      </trkpt>
      <trkpt lat="45.79293" lon="4.9162">
        <ele>170.39999389648</ele>
        <time>2016-08-19T08:42:23.000Z</time>
      </trkpt>
      <trkpt lat="45.79294" lon="4.91622">
        <ele>170.39999389648</ele>
        <time>2016-08-19T08:42:24.000Z</time>
      </trkpt>
      <trkpt lat="45.79294" lon="4.91625">
        <ele>170.39999389648</ele>
        <time>2016-08-19T08:42:25.000Z</time>
      </trkpt>
      <trkpt lat="45.79294" lon="4.91628">
        <ele>170.39999389648</ele>
        <time>2016-08-19T08:42:26.000Z</time>
      </trkpt>
      <trkpt lat="45.79294" lon="4.91631">
        <ele>170.39999389648</ele>
        <time>2016-08-19T08:42:27.000Z</time>
      </trkpt>
      <trkpt lat="45.79294" lon="4.91634">
        <ele>170.60000610352</ele>
        <time>2016-08-19T08:42:28.000Z</time>
      </trkpt>
      <trkpt lat="45.79294" lon="4.91636">
        <ele>170.60000610352</ele>
        <time>2016-08-19T08:42:29.000Z</time>
      </trkpt>
      <trkpt lat="45.79294" lon="4.91639">
        <ele>170.60000610352</ele>
        <time>2016-08-19T08:42:30.000Z</time>
      </trkpt>
      <trkpt lat="45.79293" lon="4.91642">
        <ele>170.60000610352</ele>
        <time>2016-08-19T08:42:31.000Z</time>
      </trkpt>
      <trkpt lat="45.79293" lon="4.91645">
        <ele>170.60000610352</ele>
        <time>2016-08-19T08:42:32.000Z</time>
      </trkpt>
      <trkpt lat="45.79293" lon="4.91648">
        <ele>170.80000305176</ele>
        <time>2016-08-19T08:42:33.000Z</time>
      </trkpt>
      <trkpt lat="45.79294" lon="4.9165">
        <ele>170.80000305176</ele>
        <time>2016-08-19T08:42:34.000Z</time>
      </trkpt>
      <trkpt lat="45.79296" lon="4.91653">
        <ele>170.60000610352</ele>
        <time>2016-08-19T08:42:35.000Z</time>
      </trkpt>
      <trkpt lat="45.79298" lon="4.91656">
        <ele>170.60000610352</ele>
        <time>2016-08-19T08:42:36.000Z</time>
      </trkpt>
      <trkpt lat="45.793" lon="4.9166">
        <ele>170.60000610352</ele>
        <time>2016-08-19T08:42:37.000Z</time>
      </trkpt>
      <trkpt lat="45.79301" lon="4.91663">
        <ele>170.60000610352</ele>
        <time>2016-08-19T08:42:38.000Z</time>
      </trkpt>
      <trkpt lat="45.79303" lon="4.91666">
        <ele>170.60000610352</ele>
        <time>2016-08-19T08:42:39.000Z</time>
      </trkpt>
      <trkpt lat="45.79304" lon="4.91669">
        <ele>170.60000610352</ele>
        <time>2016-08-19T08:42:40.000Z</time>
      </trkpt>
      <trkpt lat="45.79306" lon="4.91673">
        <ele>170.60000610352</ele>
        <time>2016-08-19T08:42:41.000Z</time>
      </trkpt>
      <trkpt lat="45.79306" lon="4.91676">
        <ele>170.60000610352</ele>
        <time>2016-08-19T08:42:42.000Z</time>
      </trkpt>
      <trkpt lat="45.79307" lon="4.91679">
        <ele>170.60000610352</ele>
        <time>2016-08-19T08:42:43.000Z</time>
      </trkpt>
      <trkpt lat="45.79307" lon="4.91682">
        <ele>170.60000610352</ele>
        <time>2016-08-19T08:42:44.000Z</time>
      </trkpt>
      <trkpt lat="45.79307" lon="4.91684">
        <ele>170.80000305176</ele>
        <time>2016-08-19T08:42:45.000Z</time>
      </trkpt>
      <trkpt lat="45.79307" lon="4.91687">
        <ele>170.80000305176</ele>
        <time>2016-08-19T08:42:46.000Z</time>
      </trkpt>
      <trkpt lat="45.79307" lon="4.9169">
        <ele>170.80000305176</ele>
        <time>2016-08-19T08:42:47.000Z</time>
      </trkpt>
      <trkpt lat="45.79307" lon="4.91693">
        <ele>170.80000305176</ele>
        <time>2016-08-19T08:42:48.000Z</time>
      </trkpt>
      <trkpt lat="45.79308" lon="4.91695">
        <ele>170.80000305176</ele>
        <time>2016-08-19T08:42:49.000Z</time>
      </trkpt>
      <trkpt lat="45.79308" lon="4.91698">
        <ele>170.80000305176</ele>
        <time>2016-08-19T08:42:50.000Z</time>
      </trkpt>
      <trkpt lat="45.79309" lon="4.917">
        <ele>170.80000305176</ele>
        <time>2016-08-19T08:42:51.000Z</time>
      </trkpt>
      <trkpt lat="45.7931" lon="4.91703">
        <ele>171</ele>
        <time>2016-08-19T08:42:52.000Z</time>
      </trkpt>
      <trkpt lat="45.7931" lon="4.91707">
        <ele>171</ele>
        <time>2016-08-19T08:42:53.000Z</time>
      </trkpt>
      <trkpt lat="45.7931" lon="4.9171">
        <ele>171</ele>
        <time>2016-08-19T08:42:54.000Z</time>
      </trkpt>
      <trkpt lat="45.7931" lon="4.91714">
        <ele>171.19999694824</ele>
        <time>2016-08-19T08:42:55.000Z</time>
      </trkpt>
      <trkpt lat="45.7931" lon="4.91717">
        <ele>171.19999694824</ele>
        <time>2016-08-19T08:42:56.000Z</time>
      </trkpt>
      <trkpt lat="45.79311" lon="4.9172">
        <ele>171.19999694824</ele>
        <time>2016-08-19T08:42:57.000Z</time>
      </trkpt>
      <trkpt lat="45.7931" lon="4.91724">
        <ele>171.19999694824</ele>
        <time>2016-08-19T08:42:58.000Z</time>
      </trkpt>
      <trkpt lat="45.7931" lon="4.91727">
        <ele>171.39999389648</ele>
        <time>2016-08-19T08:42:59.000Z</time>
      </trkpt>
      <trkpt lat="45.7931" lon="4.91731">
        <ele>171.39999389648</ele>
        <time>2016-08-19T08:43:00.000Z</time>
      </trkpt>
      <trkpt lat="45.79311" lon="4.91734">
        <ele>171.39999389648</ele>
        <time>2016-08-19T08:43:01.000Z</time>
      </trkpt>
      <trkpt lat="45.79312" lon="4.91738">
        <ele>171.39999389648</ele>
        <time>2016-08-19T08:43:02.000Z</time>
      </trkpt>
      <trkpt lat="45.79312" lon="4.91741">
        <ele>171.39999389648</ele>
        <time>2016-08-19T08:43:03.000Z</time>
      </trkpt>
      <trkpt lat="45.79312" lon="4.91745">
        <ele>171.60000610352</ele>
        <time>2016-08-19T08:43:04.000Z</time>
      </trkpt>
      <trkpt lat="45.79313" lon="4.91748">
        <ele>171.60000610352</ele>
        <time>2016-08-19T08:43:05.000Z</time>
      </trkpt>
      <trkpt lat="45.79313" lon="4.91751">
        <ele>171.60000610352</ele>
        <time>2016-08-19T08:43:06.000Z</time>
      </trkpt>
      <trkpt lat="45.79313" lon="4.91754">
        <ele>171.60000610352</ele>
        <time>2016-08-19T08:43:07.000Z</time>
      </trkpt>
      <trkpt lat="45.79313" lon="4.91758">
        <ele>171.80000305176</ele>
        <time>2016-08-19T08:43:08.000Z</time>
      </trkpt>
      <trkpt lat="45.79315" lon="4.91762">
        <ele>171.80000305176</ele>
        <time>2016-08-19T08:43:09.000Z</time>
      </trkpt>
      <trkpt lat="45.79317" lon="4.91764">
        <ele>171.80000305176</ele>
        <time>2016-08-19T08:43:10.000Z</time>
      </trkpt>
      <trkpt lat="45.79318" lon="4.91767">
        <ele>171.80000305176</ele>
        <time>2016-08-19T08:43:11.000Z</time>
      </trkpt>
      <trkpt lat="45.79319" lon="4.91771">
        <ele>172</ele>
        <time>2016-08-19T08:43:12.000Z</time>
      </trkpt>
      <trkpt lat="45.7932" lon="4.91774">
        <ele>172</ele>
        <time>2016-08-19T08:43:13.000Z</time>
      </trkpt>
      <trkpt lat="45.79321" lon="4.91778">
        <ele>172</ele>
        <time>2016-08-19T08:43:14.000Z</time>
      </trkpt>
      <trkpt lat="45.79323" lon="4.91781">
        <ele>172.19999694824</ele>
        <time>2016-08-19T08:43:15.000Z</time>
      </trkpt>
      <trkpt lat="45.79324" lon="4.91785">
        <ele>172.19999694824</ele>
        <time>2016-08-19T08:43:16.000Z</time>
      </trkpt>
      <trkpt lat="45.79325" lon="4.91788">
        <ele>172.19999694824</ele>
        <time>2016-08-19T08:43:17.000Z</time>
      </trkpt>
      <trkpt lat="45.79326" lon="4.91791">
        <ele>172.19999694824</ele>
        <time>2016-08-19T08:43:18.000Z</time>
      </trkpt>
      <trkpt lat="45.79328" lon="4.91795">
        <ele>172.19999694824</ele>
        <time>2016-08-19T08:43:19.000Z</time>
      </trkpt>
      <trkpt lat="45.79331" lon="4.91799">
        <ele>172.19999694824</ele>
        <time>2016-08-19T08:43:20.000Z</time>
      </trkpt>
      <trkpt lat="45.79333" lon="4.91802">
        <ele>172.19999694824</ele>
        <time>2016-08-19T08:43:21.000Z</time>
      </trkpt>
      <trkpt lat="45.79334" lon="4.91805">
        <ele>172.19999694824</ele>
        <time>2016-08-19T08:43:22.000Z</time>
      </trkpt>
      <trkpt lat="45.79336" lon="4.91809">
        <ele>172.19999694824</ele>
        <time>2016-08-19T08:43:23.000Z</time>
      </trkpt>
      <trkpt lat="45.79337" lon="4.91812">
        <ele>172.19999694824</ele>
        <time>2016-08-19T08:43:24.000Z</time>
      </trkpt>
      <trkpt lat="45.79339" lon="4.91815">
        <ele>172.19999694824</ele>
        <time>2016-08-19T08:43:25.000Z</time>
      </trkpt>
      <trkpt lat="45.79339" lon="4.91818">
        <ele>172</ele>
        <time>2016-08-19T08:43:26.000Z</time>
      </trkpt>
      <trkpt lat="45.7934" lon="4.91821">
        <ele>172</ele>
        <time>2016-08-19T08:43:27.000Z</time>
      </trkpt>
      <trkpt lat="45.7934" lon="4.91824">
        <ele>172</ele>
        <time>2016-08-19T08:43:28.000Z</time>
      </trkpt>
      <trkpt lat="45.79341" lon="4.91827">
        <ele>172</ele>
        <time>2016-08-19T08:43:29.000Z</time>
      </trkpt>
      <trkpt lat="45.79342" lon="4.91829">
        <ele>172</ele>
        <time>2016-08-19T08:43:30.000Z</time>
      </trkpt>
      <trkpt lat="45.79344" lon="4.91832">
        <ele>172</ele>
        <time>2016-08-19T08:43:31.000Z</time>
      </trkpt>
      <trkpt lat="45.79344" lon="4.91835">
        <ele>172</ele>
        <time>2016-08-19T08:43:32.000Z</time>
      </trkpt>
      <trkpt lat="45.79344" lon="4.91837">
        <ele>172</ele>
        <time>2016-08-19T08:43:33.000Z</time>
      </trkpt>
      <trkpt lat="45.79344" lon="4.9184">
        <ele>172</ele>
        <time>2016-08-19T08:43:34.000Z</time>
      </trkpt>
      <trkpt lat="45.79344" lon="4.91843">
        <ele>172</ele>
        <time>2016-08-19T08:43:35.000Z</time>
      </trkpt>
      <trkpt lat="45.79345" lon="4.91846">
        <ele>172</ele>
        <time>2016-08-19T08:43:36.000Z</time>
      </trkpt>
      <trkpt lat="45.79346" lon="4.91849">
        <ele>172</ele>
        <time>2016-08-19T08:43:37.000Z</time>
      </trkpt>
      <trkpt lat="45.79348" lon="4.91852">
        <ele>172</ele>
        <time>2016-08-19T08:43:38.000Z</time>
      </trkpt>
      <trkpt lat="45.7935" lon="4.91855">
        <ele>172</ele>
        <time>2016-08-19T08:43:39.000Z</time>
      </trkpt>
      <trkpt lat="45.7935" lon="4.91859">
        <ele>172</ele>
        <time>2016-08-19T08:43:40.000Z</time>
      </trkpt>
      <trkpt lat="45.79351" lon="4.91862">
        <ele>172</ele>
        <time>2016-08-19T08:43:41.000Z</time>
      </trkpt>
      <trkpt lat="45.79352" lon="4.91866">
        <ele>172</ele>
        <time>2016-08-19T08:43:42.000Z</time>
      </trkpt>
      <trkpt lat="45.79353" lon="4.9187">
        <ele>172</ele>
        <time>2016-08-19T08:43:43.000Z</time>
      </trkpt>
      <trkpt lat="45.79355" lon="4.91874">
        <ele>172</ele>
        <time>2016-08-19T08:43:44.000Z</time>
      </trkpt>
      <trkpt lat="45.79357" lon="4.91877">
        <ele>171.80000305176</ele>
        <time>2016-08-19T08:43:45.000Z</time>
      </trkpt>
      <trkpt lat="45.79359" lon="4.91881">
        <ele>171.80000305176</ele>
        <time>2016-08-19T08:43:46.000Z</time>
      </trkpt>
      <trkpt lat="45.79359" lon="4.91885">
        <ele>171.60000610352</ele>
        <time>2016-08-19T08:43:47.000Z</time>
      </trkpt>
      <trkpt lat="45.79361" lon="4.91888">
        <ele>171.39999389648</ele>
        <time>2016-08-19T08:43:48.000Z</time>
      </trkpt>
      <trkpt lat="45.79362" lon="4.91891">
        <ele>171.39999389648</ele>
        <time>2016-08-19T08:43:49.000Z</time>
      </trkpt>
      <trkpt lat="45.79364" lon="4.91894">
        <ele>171.19999694824</ele>
        <time>2016-08-19T08:43:50.000Z</time>
      </trkpt>
      <trkpt lat="45.79364" lon="4.91897">
        <ele>171.19999694824</ele>
        <time>2016-08-19T08:43:51.000Z</time>
      </trkpt>
      <trkpt lat="45.79365" lon="4.919">
        <ele>171</ele>
        <time>2016-08-19T08:43:52.000Z</time>
      </trkpt>
      <trkpt lat="45.79365" lon="4.91903">
        <ele>171</ele>
        <time>2016-08-19T08:43:53.000Z</time>
      </trkpt>
      <trkpt lat="45.79366" lon="4.91906">
        <ele>170.80000305176</ele>
        <time>2016-08-19T08:43:54.000Z</time>
      </trkpt>
      <trkpt lat="45.79367" lon="4.91909">
        <ele>170.80000305176</ele>
        <time>2016-08-19T08:43:55.000Z</time>
      </trkpt>
      <trkpt lat="45.79367" lon="4.91913">
        <ele>170.60000610352</ele>
        <time>2016-08-19T08:43:56.000Z</time>
      </trkpt>
      <trkpt lat="45.79368" lon="4.91917">
        <ele>170.39999389648</ele>
        <time>2016-08-19T08:43:57.000Z</time>
      </trkpt>
      <trkpt lat="45.79368" lon="4.91921">
        <ele>170.39999389648</ele>
        <time>2016-08-19T08:43:58.000Z</time>
      </trkpt>
      <trkpt lat="45.79369" lon="4.91924">
        <ele>170.19999694824</ele>
        <time>2016-08-19T08:43:59.000Z</time>
      </trkpt>
      <trkpt lat="45.79369" lon="4.91928">
        <ele>170</ele>
        <time>2016-08-19T08:44:00.000Z</time>
      </trkpt>
      <trkpt lat="45.79369" lon="4.91931">
        <ele>170</ele>
        <time>2016-08-19T08:44:01.000Z</time>
      </trkpt>
      <trkpt lat="45.79371" lon="4.91935">
        <ele>169.80000305176</ele>
        <time>2016-08-19T08:44:02.000Z</time>
      </trkpt>
      <trkpt lat="45.79372" lon="4.91938">
        <ele>169.60000610352</ele>
        <time>2016-08-19T08:44:03.000Z</time>
      </trkpt>
      <trkpt lat="45.79374" lon="4.91942">
        <ele>169.60000610352</ele>
        <time>2016-08-19T08:44:04.000Z</time>
      </trkpt>
      <trkpt lat="45.79375" lon="4.91945">
        <ele>169.39999389648</ele>
        <time>2016-08-19T08:44:05.000Z</time>
      </trkpt>
      <trkpt lat="45.79376" lon="4.91948">
        <ele>169.39999389648</ele>
        <time>2016-08-19T08:44:06.000Z</time>
      </trkpt>
      <trkpt lat="45.79376" lon="4.91951">
        <ele>169.39999389648</ele>
        <time>2016-08-19T08:44:07.000Z</time>
      </trkpt>
      <trkpt lat="45.79376" lon="4.91954">
        <ele>169.39999389648</ele>
        <time>2016-08-19T08:44:08.000Z</time>
      </trkpt>
      <trkpt lat="45.79376" lon="4.91957">
        <ele>169.39999389648</ele>
        <time>2016-08-19T08:44:09.000Z</time>
      </trkpt>
      <trkpt lat="45.79378" lon="4.9196">
        <ele>169.39999389648</ele>
        <time>2016-08-19T08:44:10.000Z</time>
      </trkpt>
      <trkpt lat="45.79378" lon="4.91963">
        <ele>169.39999389648</ele>
        <time>2016-08-19T08:44:11.000Z</time>
      </trkpt>
      <trkpt lat="45.79379" lon="4.91966">
        <ele>169.39999389648</ele>
        <time>2016-08-19T08:44:12.000Z</time>
      </trkpt>
      <trkpt lat="45.79381" lon="4.91969">
        <ele>169.19999694824</ele>
        <time>2016-08-19T08:44:13.000Z</time>
      </trkpt>
      <trkpt lat="45.79382" lon="4.91972">
        <ele>169.19999694824</ele>
        <time>2016-08-19T08:44:14.000Z</time>
      </trkpt>
      <trkpt lat="45.79381" lon="4.91975">
        <ele>169.19999694824</ele>
        <time>2016-08-19T08:44:15.000Z</time>
      </trkpt>
      <trkpt lat="45.79382" lon="4.91978">
        <ele>169.19999694824</ele>
        <time>2016-08-19T08:44:16.000Z</time>
      </trkpt>
      <trkpt lat="45.79383" lon="4.91981">
        <ele>169.19999694824</ele>
        <time>2016-08-19T08:44:17.000Z</time>
      </trkpt>
      <trkpt lat="45.79383" lon="4.91984">
        <ele>169.19999694824</ele>
        <time>2016-08-19T08:44:18.000Z</time>
      </trkpt>
      <trkpt lat="45.79383" lon="4.91987">
        <ele>169.19999694824</ele>
        <time>2016-08-19T08:44:19.000Z</time>
      </trkpt>
      <trkpt lat="45.79384" lon="4.9199">
        <ele>169.19999694824</ele>
        <time>2016-08-19T08:44:20.000Z</time>
      </trkpt>
      <trkpt lat="45.79384" lon="4.91993">
        <ele>169.19999694824</ele>
        <time>2016-08-19T08:44:21.000Z</time>
      </trkpt>
      <trkpt lat="45.79385" lon="4.91995">
        <ele>169.19999694824</ele>
        <time>2016-08-19T08:44:22.000Z</time>
      </trkpt>
      <trkpt lat="45.79386" lon="4.91998">
        <ele>169</ele>
        <time>2016-08-19T08:44:23.000Z</time>
      </trkpt>
      <trkpt lat="45.79387" lon="4.92001">
        <ele>169</ele>
        <time>2016-08-19T08:44:24.000Z</time>
      </trkpt>
      <trkpt lat="45.79387" lon="4.92004">
        <ele>169</ele>
        <time>2016-08-19T08:44:25.000Z</time>
      </trkpt>
      <trkpt lat="45.79388" lon="4.92008">
        <ele>169</ele>
        <time>2016-08-19T08:44:26.000Z</time>
      </trkpt>
      <trkpt lat="45.79389" lon="4.92011">
        <ele>169</ele>
        <time>2016-08-19T08:44:27.000Z</time>
      </trkpt>
      <trkpt lat="45.79389" lon="4.92015">
        <ele>169</ele>
        <time>2016-08-19T08:44:28.000Z</time>
      </trkpt>
      <trkpt lat="45.7939" lon="4.92018">
        <ele>169</ele>
        <time>2016-08-19T08:44:29.000Z</time>
      </trkpt>
      <trkpt lat="45.7939" lon="4.92022">
        <ele>169</ele>
        <time>2016-08-19T08:44:30.000Z</time>
      </trkpt>
      <trkpt lat="45.79391" lon="4.92026">
        <ele>169</ele>
        <time>2016-08-19T08:44:31.000Z</time>
      </trkpt>
      <trkpt lat="45.79392" lon="4.92029">
        <ele>169</ele>
        <time>2016-08-19T08:44:32.000Z</time>
      </trkpt>
      <trkpt lat="45.79393" lon="4.92033">
        <ele>169</ele>
        <time>2016-08-19T08:44:33.000Z</time>
      </trkpt>
      <trkpt lat="45.79393" lon="4.92036">
        <ele>169</ele>
        <time>2016-08-19T08:44:34.000Z</time>
      </trkpt>
      <trkpt lat="45.79394" lon="4.9204">
        <ele>169</ele>
        <time>2016-08-19T08:44:35.000Z</time>
      </trkpt>
      <trkpt lat="45.79394" lon="4.92043">
        <ele>169.19999694824</ele>
        <time>2016-08-19T08:44:36.000Z</time>
      </trkpt>
      <trkpt lat="45.79395" lon="4.92046">
        <ele>169.19999694824</ele>
        <time>2016-08-19T08:44:37.000Z</time>
      </trkpt>
      <trkpt lat="45.79395" lon="4.9205">
        <ele>169.39999389648</ele>
        <time>2016-08-19T08:44:38.000Z</time>
      </trkpt>
      <trkpt lat="45.79395" lon="4.92053">
        <ele>169.39999389648</ele>
        <time>2016-08-19T08:44:39.000Z</time>
      </trkpt>
      <trkpt lat="45.79395" lon="4.92057">
        <ele>169.39999389648</ele>
        <time>2016-08-19T08:44:40.000Z</time>
      </trkpt>
      <trkpt lat="45.79396" lon="4.9206">
        <ele>169.60000610352</ele>
        <time>2016-08-19T08:44:41.000Z</time>
      </trkpt>
      <trkpt lat="45.79396" lon="4.92064">
        <ele>169.60000610352</ele>
        <time>2016-08-19T08:44:42.000Z</time>
      </trkpt>
      <trkpt lat="45.79396" lon="4.92067">
        <ele>169.80000305176</ele>
        <time>2016-08-19T08:44:43.000Z</time>
      </trkpt>
      <trkpt lat="45.79396" lon="4.92072">
        <ele>169.80000305176</ele>
        <time>2016-08-19T08:44:44.000Z</time>
      </trkpt>
      <trkpt lat="45.79395" lon="4.92075">
        <ele>170</ele>
        <time>2016-08-19T08:44:45.000Z</time>
      </trkpt>
      <trkpt lat="45.79396" lon="4.92079">
        <ele>170</ele>
        <time>2016-08-19T08:44:46.000Z</time>
      </trkpt>
      <trkpt lat="45.79397" lon="4.92083">
        <ele>170.19999694824</ele>
        <time>2016-08-19T08:44:47.000Z</time>
      </trkpt>
      <trkpt lat="45.79398" lon="4.92086">
        <ele>170.19999694824</ele>
        <time>2016-08-19T08:44:48.000Z</time>
      </trkpt>
      <trkpt lat="45.79398" lon="4.9209">
        <ele>170.39999389648</ele>
        <time>2016-08-19T08:44:49.000Z</time>
      </trkpt>
      <trkpt lat="45.79399" lon="4.92093">
        <ele>170.39999389648</ele>
        <time>2016-08-19T08:44:50.000Z</time>
      </trkpt>
      <trkpt lat="45.794" lon="4.92096">
        <ele>170.39999389648</ele>
        <time>2016-08-19T08:44:51.000Z</time>
      </trkpt>
      <trkpt lat="45.79401" lon="4.92099">
        <ele>170.60000610352</ele>
        <time>2016-08-19T08:44:52.000Z</time>
      </trkpt>
      <trkpt lat="45.79402" lon="4.92102">
        <ele>170.60000610352</ele>
        <time>2016-08-19T08:44:53.000Z</time>
      </trkpt>
      <trkpt lat="45.79404" lon="4.92105">
        <ele>170.80000305176</ele>
        <time>2016-08-19T08:44:54.000Z</time>
      </trkpt>
      <trkpt lat="45.79405" lon="4.92109">
        <ele>170.80000305176</ele>
        <time>2016-08-19T08:44:55.000Z</time>
      </trkpt>
      <trkpt lat="45.79406" lon="4.92112">
        <ele>171</ele>
        <time>2016-08-19T08:44:56.000Z</time>
      </trkpt>
      <trkpt lat="45.79407" lon="4.92115">
        <ele>171</ele>
        <time>2016-08-19T08:44:57.000Z</time>
      </trkpt>
      <trkpt lat="45.79409" lon="4.92118">
        <ele>171.19999694824</ele>
        <time>2016-08-19T08:44:58.000Z</time>
      </trkpt>
      <trkpt lat="45.79409" lon="4.92121">
        <ele>171.19999694824</ele>
        <time>2016-08-19T08:44:59.000Z</time>
      </trkpt>
      <trkpt lat="45.7941" lon="4.92124">
        <ele>171.19999694824</ele>
        <time>2016-08-19T08:45:00.000Z</time>
      </trkpt>
      <trkpt lat="45.79411" lon="4.92127">
        <ele>171.39999389648</ele>
        <time>2016-08-19T08:45:01.000Z</time>
      </trkpt>
      <trkpt lat="45.79412" lon="4.9213">
        <ele>171.39999389648</ele>
        <time>2016-08-19T08:45:02.000Z</time>
      </trkpt>
      <trkpt lat="45.79413" lon="4.92133">
        <ele>171.39999389648</ele>
        <time>2016-08-19T08:45:03.000Z</time>
      </trkpt>
      <trkpt lat="45.79415" lon="4.92136">
        <ele>171.39999389648</ele>
        <time>2016-08-19T08:45:04.000Z</time>
      </trkpt>
      <trkpt lat="45.79416" lon="4.92139">
        <ele>171.60000610352</ele>
        <time>2016-08-19T08:45:05.000Z</time>
      </trkpt>
      <trkpt lat="45.79417" lon="4.92142">
        <ele>171.60000610352</ele>
        <time>2016-08-19T08:45:06.000Z</time>
      </trkpt>
      <trkpt lat="45.79417" lon="4.92146">
        <ele>171.60000610352</ele>
        <time>2016-08-19T08:45:07.000Z</time>
      </trkpt>
      <trkpt lat="45.79419" lon="4.92149">
        <ele>171.60000610352</ele>
        <time>2016-08-19T08:45:08.000Z</time>
      </trkpt>
      <trkpt lat="45.79419" lon="4.92152">
        <ele>171.80000305176</ele>
        <time>2016-08-19T08:45:09.000Z</time>
      </trkpt>
      <trkpt lat="45.7942" lon="4.92155">
        <ele>171.80000305176</ele>
        <time>2016-08-19T08:45:10.000Z</time>
      </trkpt>
      <trkpt lat="45.79421" lon="4.92159">
        <ele>171.80000305176</ele>
        <time>2016-08-19T08:45:11.000Z</time>
      </trkpt>
      <trkpt lat="45.79422" lon="4.92163">
        <ele>172</ele>
        <time>2016-08-19T08:45:12.000Z</time>
      </trkpt>
      <trkpt lat="45.79423" lon="4.92166">
        <ele>172</ele>
        <time>2016-08-19T08:45:13.000Z</time>
      </trkpt>
      <trkpt lat="45.79424" lon="4.92169">
        <ele>172</ele>
        <time>2016-08-19T08:45:14.000Z</time>
      </trkpt>
      <trkpt lat="45.79425" lon="4.92172">
        <ele>172.19999694824</ele>
        <time>2016-08-19T08:45:15.000Z</time>
      </trkpt>
      <trkpt lat="45.79426" lon="4.92176">
        <ele>172.19999694824</ele>
        <time>2016-08-19T08:45:16.000Z</time>
      </trkpt>
      <trkpt lat="45.79427" lon="4.9218">
        <ele>172.39999389648</ele>
        <time>2016-08-19T08:45:17.000Z</time>
      </trkpt>
      <trkpt lat="45.79428" lon="4.92183">
        <ele>172.39999389648</ele>
        <time>2016-08-19T08:45:18.000Z</time>
      </trkpt>
      <trkpt lat="45.79429" lon="4.92187">
        <ele>172.60000610352</ele>
        <time>2016-08-19T08:45:19.000Z</time>
      </trkpt>
      <trkpt lat="45.79431" lon="4.9219">
        <ele>172.60000610352</ele>
        <time>2016-08-19T08:45:20.000Z</time>
      </trkpt>
      <trkpt lat="45.79434" lon="4.92193">
        <ele>172.60000610352</ele>
        <time>2016-08-19T08:45:21.000Z</time>
      </trkpt>
      <trkpt lat="45.79435" lon="4.92196">
        <ele>172.80000305176</ele>
        <time>2016-08-19T08:45:22.000Z</time>
      </trkpt>
      <trkpt lat="45.79436" lon="4.92199">
        <ele>172.80000305176</ele>
        <time>2016-08-19T08:45:23.000Z</time>
      </trkpt>
      <trkpt lat="45.79436" lon="4.92202">
        <ele>172.80000305176</ele>
        <time>2016-08-19T08:45:24.000Z</time>
      </trkpt>
      <trkpt lat="45.79437" lon="4.92205">
        <ele>173</ele>
        <time>2016-08-19T08:45:25.000Z</time>
      </trkpt>
      <trkpt lat="45.79437" lon="4.92209">
        <ele>173</ele>
        <time>2016-08-19T08:45:26.000Z</time>
      </trkpt>
      <trkpt lat="45.79438" lon="4.92212">
        <ele>172.80000305176</ele>
        <time>2016-08-19T08:45:27.000Z</time>
      </trkpt>
      <trkpt lat="45.79438" lon="4.92215">
        <ele>172.80000305176</ele>
        <time>2016-08-19T08:45:28.000Z</time>
      </trkpt>
      <trkpt lat="45.79438" lon="4.92218">
        <ele>172.80000305176</ele>
        <time>2016-08-19T08:45:29.000Z</time>
      </trkpt>
      <trkpt lat="45.79439" lon="4.92221">
        <ele>172.60000610352</ele>
        <time>2016-08-19T08:45:30.000Z</time>
      </trkpt>
      <trkpt lat="45.79439" lon="4.92223">
        <ele>172.60000610352</ele>
        <time>2016-08-19T08:45:31.000Z</time>
      </trkpt>
      <trkpt lat="45.79439" lon="4.92227">
        <ele>172.60000610352</ele>
        <time>2016-08-19T08:45:32.000Z</time>
      </trkpt>
      <trkpt lat="45.7944" lon="4.9223">
        <ele>172.39999389648</ele>
        <time>2016-08-19T08:45:33.000Z</time>
      </trkpt>
      <trkpt lat="45.79442" lon="4.92233">
        <ele>172.39999389648</ele>
        <time>2016-08-19T08:45:34.000Z</time>
      </trkpt>
      <trkpt lat="45.79444" lon="4.92236">
        <ele>172.19999694824</ele>
        <time>2016-08-19T08:45:35.000Z</time>
      </trkpt>
      <trkpt lat="45.79446" lon="4.9224">
        <ele>172.19999694824</ele>
        <time>2016-08-19T08:45:36.000Z</time>
      </trkpt>
      <trkpt lat="45.79448" lon="4.92243">
        <ele>172.19999694824</ele>
        <time>2016-08-19T08:45:37.000Z</time>
      </trkpt>
      <trkpt lat="45.79449" lon="4.92246">
        <ele>172</ele>
        <time>2016-08-19T08:45:38.000Z</time>
      </trkpt>
      <trkpt lat="45.79449" lon="4.92251">
        <ele>172</ele>
        <time>2016-08-19T08:45:39.000Z</time>
      </trkpt>
      <trkpt lat="45.7945" lon="4.92254">
        <ele>171.80000305176</ele>
        <time>2016-08-19T08:45:40.000Z</time>
      </trkpt>
      <trkpt lat="45.79451" lon="4.92257">
        <ele>171.80000305176</ele>
        <time>2016-08-19T08:45:41.000Z</time>
      </trkpt>
      <trkpt lat="45.79453" lon="4.92261">
        <ele>171.80000305176</ele>
        <time>2016-08-19T08:45:42.000Z</time>
      </trkpt>
      <trkpt lat="45.79453" lon="4.92264">
        <ele>171.60000610352</ele>
        <time>2016-08-19T08:45:43.000Z</time>
      </trkpt>
      <trkpt lat="45.79454" lon="4.92268">
        <ele>171.60000610352</ele>
        <time>2016-08-19T08:45:44.000Z</time>
      </trkpt>
      <trkpt lat="45.79455" lon="4.92272">
        <ele>171.39999389648</ele>
        <time>2016-08-19T08:45:45.000Z</time>
      </trkpt>
      <trkpt lat="45.79455" lon="4.92276">
        <ele>171.39999389648</ele>
        <time>2016-08-19T08:45:46.000Z</time>
      </trkpt>
      <trkpt lat="45.79456" lon="4.92279">
        <ele>171.39999389648</ele>
        <time>2016-08-19T08:45:47.000Z</time>
      </trkpt>
      <trkpt lat="45.79457" lon="4.92282">
        <ele>171.19999694824</ele>
        <time>2016-08-19T08:45:48.000Z</time>
      </trkpt>
      <trkpt lat="45.79458" lon="4.92286">
        <ele>171.19999694824</ele>
        <time>2016-08-19T08:45:49.000Z</time>
      </trkpt>
      <trkpt lat="45.79459" lon="4.92289">
        <ele>171.19999694824</ele>
        <time>2016-08-19T08:45:50.000Z</time>
      </trkpt>
      <trkpt lat="45.79459" lon="4.92292">
        <ele>171.19999694824</ele>
        <time>2016-08-19T08:45:51.000Z</time>
      </trkpt>
      <trkpt lat="45.79459" lon="4.92296">
        <ele>171.19999694824</ele>
        <time>2016-08-19T08:45:52.000Z</time>
      </trkpt>
      <trkpt lat="45.7946" lon="4.92299">
        <ele>171.19999694824</ele>
        <time>2016-08-19T08:45:53.000Z</time>
      </trkpt>
      <trkpt lat="45.7946" lon="4.92303">
        <ele>171.19999694824</ele>
        <time>2016-08-19T08:45:54.000Z</time>
      </trkpt>
      <trkpt lat="45.79461" lon="4.92307">
        <ele>171.19999694824</ele>
        <time>2016-08-19T08:45:55.000Z</time>
      </trkpt>
      <trkpt lat="45.79461" lon="4.92311">
        <ele>171.19999694824</ele>
        <time>2016-08-19T08:45:56.000Z</time>
      </trkpt>
      <trkpt lat="45.7946" lon="4.92314">
        <ele>171.19999694824</ele>
        <time>2016-08-19T08:45:57.000Z</time>
      </trkpt>
      <trkpt lat="45.79459" lon="4.92318">
        <ele>171.19999694824</ele>
        <time>2016-08-19T08:45:58.000Z</time>
      </trkpt>
      <trkpt lat="45.79459" lon="4.92321">
        <ele>171.19999694824</ele>
        <time>2016-08-19T08:45:59.000Z</time>
      </trkpt>
      <trkpt lat="45.79459" lon="4.92325">
        <ele>171.19999694824</ele>
        <time>2016-08-19T08:46:00.000Z</time>
      </trkpt>
      <trkpt lat="45.79459" lon="4.92329">
        <ele>171.19999694824</ele>
        <time>2016-08-19T08:46:01.000Z</time>
      </trkpt>
      <trkpt lat="45.7946" lon="4.92332">
        <ele>171.19999694824</ele>
        <time>2016-08-19T08:46:02.000Z</time>
      </trkpt>
      <trkpt lat="45.79461" lon="4.92334">
        <ele>171.19999694824</ele>
        <time>2016-08-19T08:46:03.000Z</time>
      </trkpt>
      <trkpt lat="45.79462" lon="4.92337">
        <ele>171.19999694824</ele>
        <time>2016-08-19T08:46:04.000Z</time>
      </trkpt>
      <trkpt lat="45.79464" lon="4.9234">
        <ele>171</ele>
        <time>2016-08-19T08:46:05.000Z</time>
      </trkpt>
      <trkpt lat="45.79465" lon="4.92343">
        <ele>171</ele>
        <time>2016-08-19T08:46:06.000Z</time>
      </trkpt>
      <trkpt lat="45.79466" lon="4.92346">
        <ele>171</ele>
        <time>2016-08-19T08:46:07.000Z</time>
      </trkpt>
      <trkpt lat="45.79467" lon="4.92348">
        <ele>171</ele>
        <time>2016-08-19T08:46:08.000Z</time>
      </trkpt>
      <trkpt lat="45.79468" lon="4.92351">
        <ele>171</ele>
        <time>2016-08-19T08:46:09.000Z</time>
      </trkpt>
      <trkpt lat="45.79468" lon="4.92354">
        <ele>171</ele>
        <time>2016-08-19T08:46:10.000Z</time>
      </trkpt>
      <trkpt lat="45.79469" lon="4.92358">
        <ele>171</ele>
        <time>2016-08-19T08:46:11.000Z</time>
      </trkpt>
      <trkpt lat="45.7947" lon="4.92361">
        <ele>171</ele>
        <time>2016-08-19T08:46:12.000Z</time>
      </trkpt>
      <trkpt lat="45.79471" lon="4.92364">
        <ele>171</ele>
        <time>2016-08-19T08:46:13.000Z</time>
      </trkpt>
      <trkpt lat="45.79473" lon="4.92368">
        <ele>171</ele>
        <time>2016-08-19T08:46:14.000Z</time>
      </trkpt>
      <trkpt lat="45.79474" lon="4.92373">
        <ele>171</ele>
        <time>2016-08-19T08:46:15.000Z</time>
      </trkpt>
      <trkpt lat="45.79475" lon="4.92376">
        <ele>171</ele>
        <time>2016-08-19T08:46:16.000Z</time>
      </trkpt>
      <trkpt lat="45.79475" lon="4.9238">
        <ele>171</ele>
        <time>2016-08-19T08:46:17.000Z</time>
      </trkpt>
      <trkpt lat="45.79476" lon="4.92384">
        <ele>171</ele>
        <time>2016-08-19T08:46:18.000Z</time>
      </trkpt>
      <trkpt lat="45.79476" lon="4.92386">
        <ele>171.19999694824</ele>
        <time>2016-08-19T08:46:19.000Z</time>
      </trkpt>
      <trkpt lat="45.79478" lon="4.9239">
        <ele>171.19999694824</ele>
        <time>2016-08-19T08:46:20.000Z</time>
      </trkpt>
      <trkpt lat="45.79479" lon="4.92393">
        <ele>171.19999694824</ele>
        <time>2016-08-19T08:46:21.000Z</time>
      </trkpt>
      <trkpt lat="45.79479" lon="4.92396">
        <ele>171.19999694824</ele>
        <time>2016-08-19T08:46:22.000Z</time>
      </trkpt>
      <trkpt lat="45.79479" lon="4.92399">
        <ele>171.39999389648</ele>
        <time>2016-08-19T08:46:23.000Z</time>
      </trkpt>
      <trkpt lat="45.7948" lon="4.92403">
        <ele>171.39999389648</ele>
        <time>2016-08-19T08:46:24.000Z</time>
      </trkpt>
      <trkpt lat="45.79481" lon="4.92406">
        <ele>171.39999389648</ele>
        <time>2016-08-19T08:46:25.000Z</time>
      </trkpt>
      <trkpt lat="45.79483" lon="4.92409">
        <ele>171.39999389648</ele>
        <time>2016-08-19T08:46:26.000Z</time>
      </trkpt>
      <trkpt lat="45.79485" lon="4.92412">
        <ele>171.39999389648</ele>
        <time>2016-08-19T08:46:27.000Z</time>
      </trkpt>
      <trkpt lat="45.79486" lon="4.92415">
        <ele>171.39999389648</ele>
        <time>2016-08-19T08:46:28.000Z</time>
      </trkpt>
      <trkpt lat="45.79488" lon="4.92418">
        <ele>171.39999389648</ele>
        <time>2016-08-19T08:46:29.000Z</time>
      </trkpt>
      <trkpt lat="45.79489" lon="4.92421">
        <ele>171.60000610352</ele>
        <time>2016-08-19T08:46:30.000Z</time>
      </trkpt>
      <trkpt lat="45.79491" lon="4.92424">
        <ele>171.60000610352</ele>
        <time>2016-08-19T08:46:31.000Z</time>
      </trkpt>
      <trkpt lat="45.79492" lon="4.92427">
        <ele>171.60000610352</ele>
        <time>2016-08-19T08:46:32.000Z</time>
      </trkpt>
      <trkpt lat="45.79493" lon="4.9243">
        <ele>171.60000610352</ele>
        <time>2016-08-19T08:46:33.000Z</time>
      </trkpt>
      <trkpt lat="45.79494" lon="4.92433">
        <ele>171.60000610352</ele>
        <time>2016-08-19T08:46:34.000Z</time>
      </trkpt>
      <trkpt lat="45.79495" lon="4.92436">
        <ele>171.60000610352</ele>
        <time>2016-08-19T08:46:35.000Z</time>
      </trkpt>
      <trkpt lat="45.79496" lon="4.92439">
        <ele>171.60000610352</ele>
        <time>2016-08-19T08:46:36.000Z</time>
      </trkpt>
      <trkpt lat="45.79497" lon="4.92443">
        <ele>171.80000305176</ele>
        <time>2016-08-19T08:46:37.000Z</time>
      </trkpt>
      <trkpt lat="45.79498" lon="4.92445">
        <ele>171.80000305176</ele>
        <time>2016-08-19T08:46:38.000Z</time>
      </trkpt>
      <trkpt lat="45.79499" lon="4.92448">
        <ele>171.80000305176</ele>
        <time>2016-08-19T08:46:39.000Z</time>
      </trkpt>
      <trkpt lat="45.79501" lon="4.9245">
        <ele>171.80000305176</ele>
        <time>2016-08-19T08:46:40.000Z</time>
      </trkpt>
      <trkpt lat="45.79503" lon="4.92453">
        <ele>171.80000305176</ele>
        <time>2016-08-19T08:46:41.000Z</time>
      </trkpt>
      <trkpt lat="45.79506" lon="4.92455">
        <ele>171.80000305176</ele>
        <time>2016-08-19T08:46:42.000Z</time>
      </trkpt>
      <trkpt lat="45.79508" lon="4.92457">
        <ele>171.60000610352</ele>
        <time>2016-08-19T08:46:43.000Z</time>
      </trkpt>
      <trkpt lat="45.79511" lon="4.92459">
        <ele>171.60000610352</ele>
        <time>2016-08-19T08:46:44.000Z</time>
      </trkpt>
      <trkpt lat="45.79513" lon="4.92461">
        <ele>171.60000610352</ele>
        <time>2016-08-19T08:46:45.000Z</time>
      </trkpt>
      <trkpt lat="45.79516" lon="4.92464">
        <ele>171.39999389648</ele>
        <time>2016-08-19T08:46:46.000Z</time>
      </trkpt>
      <trkpt lat="45.79518" lon="4.92465">
        <ele>171.39999389648</ele>
        <time>2016-08-19T08:46:47.000Z</time>
      </trkpt>
      <trkpt lat="45.7952" lon="4.92467">
        <ele>171.39999389648</ele>
        <time>2016-08-19T08:46:48.000Z</time>
      </trkpt>
      <trkpt lat="45.79521" lon="4.92469">
        <ele>171.39999389648</ele>
        <time>2016-08-19T08:46:49.000Z</time>
      </trkpt>
      <trkpt lat="45.79522" lon="4.9247">
        <ele>171.39999389648</ele>
        <time>2016-08-19T08:46:50.000Z</time>
      </trkpt>
      <trkpt lat="45.79524" lon="4.92471">
        <ele>171.19999694824</ele>
        <time>2016-08-19T08:46:51.000Z</time>
      </trkpt>
      <trkpt lat="45.79527" lon="4.92473">
        <ele>171.19999694824</ele>
        <time>2016-08-19T08:46:52.000Z</time>
      </trkpt>
      <trkpt lat="45.79529" lon="4.92475">
        <ele>171.19999694824</ele>
        <time>2016-08-19T08:46:53.000Z</time>
      </trkpt>
      <trkpt lat="45.79531" lon="4.92476">
        <ele>171</ele>
        <time>2016-08-19T08:46:54.000Z</time>
      </trkpt>
      <trkpt lat="45.79533" lon="4.92478">
        <ele>171</ele>
        <time>2016-08-19T08:46:55.000Z</time>
      </trkpt>
      <trkpt lat="45.79535" lon="4.9248">
        <ele>171</ele>
        <time>2016-08-19T08:46:56.000Z</time>
      </trkpt>
      <trkpt lat="45.79537" lon="4.92482">
        <ele>171</ele>
        <time>2016-08-19T08:46:57.000Z</time>
      </trkpt>
      <trkpt lat="45.79539" lon="4.92484">
        <ele>171</ele>
        <time>2016-08-19T08:46:58.000Z</time>
      </trkpt>
      <trkpt lat="45.79541" lon="4.92486">
        <ele>170.80000305176</ele>
        <time>2016-08-19T08:46:59.000Z</time>
      </trkpt>
      <trkpt lat="45.79543" lon="4.92488">
        <ele>170.80000305176</ele>
        <time>2016-08-19T08:47:00.000Z</time>
      </trkpt>
      <trkpt lat="45.79545" lon="4.92489">
        <ele>170.80000305176</ele>
        <time>2016-08-19T08:47:01.000Z</time>
      </trkpt>
      <trkpt lat="45.79546" lon="4.92491">
        <ele>170.80000305176</ele>
        <time>2016-08-19T08:47:02.000Z</time>
      </trkpt>
      <trkpt lat="45.79548" lon="4.92493">
        <ele>170.60000610352</ele>
        <time>2016-08-19T08:47:03.000Z</time>
      </trkpt>
      <trkpt lat="45.7955" lon="4.92495">
        <ele>170.60000610352</ele>
        <time>2016-08-19T08:47:04.000Z</time>
      </trkpt>
      <trkpt lat="45.79552" lon="4.92496">
        <ele>170.60000610352</ele>
        <time>2016-08-19T08:47:05.000Z</time>
      </trkpt>
      <trkpt lat="45.79554" lon="4.92498">
        <ele>170.60000610352</ele>
        <time>2016-08-19T08:47:06.000Z</time>
      </trkpt>
      <trkpt lat="45.79556" lon="4.92499">
        <ele>170.39999389648</ele>
        <time>2016-08-19T08:47:07.000Z</time>
      </trkpt>
      <trkpt lat="45.79558" lon="4.92501">
        <ele>170.39999389648</ele>
        <time>2016-08-19T08:47:08.000Z</time>
      </trkpt>
      <trkpt lat="45.7956" lon="4.92502">
        <ele>170.39999389648</ele>
        <time>2016-08-19T08:47:09.000Z</time>
      </trkpt>
      <trkpt lat="45.79562" lon="4.92504">
        <ele>170.39999389648</ele>
        <time>2016-08-19T08:47:10.000Z</time>
      </trkpt>
      <trkpt lat="45.79564" lon="4.92505">
        <ele>170.39999389648</ele>
        <time>2016-08-19T08:47:11.000Z</time>
      </trkpt>
      <trkpt lat="45.79566" lon="4.92507">
        <ele>170.39999389648</ele>
        <time>2016-08-19T08:47:12.000Z</time>
      </trkpt>
      <trkpt lat="45.79569" lon="4.92508">
        <ele>170.39999389648</ele>
        <time>2016-08-19T08:47:13.000Z</time>
      </trkpt>
      <trkpt lat="45.79571" lon="4.92509">
        <ele>170.39999389648</ele>
        <time>2016-08-19T08:47:14.000Z</time>
      </trkpt>
      <trkpt lat="45.79573" lon="4.9251">
        <ele>170.39999389648</ele>
        <time>2016-08-19T08:47:15.000Z</time>
      </trkpt>
      <trkpt lat="45.79574" lon="4.92512">
        <ele>170.39999389648</ele>
        <time>2016-08-19T08:47:16.000Z</time>
      </trkpt>
      <trkpt lat="45.79576" lon="4.92513">
        <ele>170.39999389648</ele>
        <time>2016-08-19T08:47:17.000Z</time>
      </trkpt>
      <trkpt lat="45.79578" lon="4.92514">
        <ele>170.39999389648</ele>
        <time>2016-08-19T08:47:18.000Z</time>
      </trkpt>
      <trkpt lat="45.7958" lon="4.92515">
        <ele>170.39999389648</ele>
        <time>2016-08-19T08:47:19.000Z</time>
      </trkpt>
      <trkpt lat="45.79581" lon="4.92517">
        <ele>170.39999389648</ele>
        <time>2016-08-19T08:47:20.000Z</time>
      </trkpt>
      <trkpt lat="45.79583" lon="4.92518">
        <ele>170.39999389648</ele>
        <time>2016-08-19T08:47:21.000Z</time>
      </trkpt>
      <trkpt lat="45.79585" lon="4.92519">
        <ele>170.39999389648</ele>
        <time>2016-08-19T08:47:22.000Z</time>
      </trkpt>
      <trkpt lat="45.79587" lon="4.92521">
        <ele>170.39999389648</ele>
        <time>2016-08-19T08:47:23.000Z</time>
      </trkpt>
      <trkpt lat="45.7959" lon="4.92521">
        <ele>170.39999389648</ele>
        <time>2016-08-19T08:47:24.000Z</time>
      </trkpt>
      <trkpt lat="45.79592" lon="4.92522">
        <ele>170.39999389648</ele>
        <time>2016-08-19T08:47:25.000Z</time>
      </trkpt>
      <trkpt lat="45.79594" lon="4.92523">
        <ele>170.39999389648</ele>
        <time>2016-08-19T08:47:26.000Z</time>
      </trkpt>
      <trkpt lat="45.79596" lon="4.92524">
        <ele>170.39999389648</ele>
        <time>2016-08-19T08:47:27.000Z</time>
      </trkpt>
      <trkpt lat="45.79598" lon="4.92525">
        <ele>170.39999389648</ele>
        <time>2016-08-19T08:47:28.000Z</time>
      </trkpt>
      <trkpt lat="45.79599" lon="4.92526">
        <ele>170.19999694824</ele>
        <time>2016-08-19T08:47:29.000Z</time>
      </trkpt>
      <trkpt lat="45.796" lon="4.92527">
        <ele>170.19999694824</ele>
        <time>2016-08-19T08:47:30.000Z</time>
      </trkpt>
      <trkpt lat="45.79602" lon="4.92528">
        <ele>170.19999694824</ele>
        <time>2016-08-19T08:47:31.000Z</time>
      </trkpt>
      <trkpt lat="45.79604" lon="4.92528">
        <ele>170.19999694824</ele>
        <time>2016-08-19T08:47:32.000Z</time>
      </trkpt>
      <trkpt lat="45.79607" lon="4.92529">
        <ele>170.19999694824</ele>
        <time>2016-08-19T08:47:33.000Z</time>
      </trkpt>
      <trkpt lat="45.79609" lon="4.9253">
        <ele>170.19999694824</ele>
        <time>2016-08-19T08:47:34.000Z</time>
      </trkpt>
      <trkpt lat="45.79612" lon="4.92532">
        <ele>170.19999694824</ele>
        <time>2016-08-19T08:47:35.000Z</time>
      </trkpt>
      <trkpt lat="45.79614" lon="4.92533">
        <ele>170.19999694824</ele>
        <time>2016-08-19T08:47:36.000Z</time>
      </trkpt>
      <trkpt lat="45.79616" lon="4.92533">
        <ele>170.19999694824</ele>
        <time>2016-08-19T08:47:37.000Z</time>
      </trkpt>
      <trkpt lat="45.79618" lon="4.92534">
        <ele>170.19999694824</ele>
        <time>2016-08-19T08:47:38.000Z</time>
      </trkpt>
      <trkpt lat="45.7962" lon="4.92535">
        <ele>170.19999694824</ele>
        <time>2016-08-19T08:47:39.000Z</time>
      </trkpt>
      <trkpt lat="45.79622" lon="4.92535">
        <ele>170.19999694824</ele>
        <time>2016-08-19T08:47:40.000Z</time>
      </trkpt>
      <trkpt lat="45.79624" lon="4.92536">
        <ele>170.19999694824</ele>
        <time>2016-08-19T08:47:41.000Z</time>
      </trkpt>
      <trkpt lat="45.79626" lon="4.92537">
        <ele>170.19999694824</ele>
        <time>2016-08-19T08:47:42.000Z</time>
      </trkpt>
      <trkpt lat="45.79628" lon="4.92538">
        <ele>170</ele>
        <time>2016-08-19T08:47:43.000Z</time>
      </trkpt>
      <trkpt lat="45.7963" lon="4.92538">
        <ele>170</ele>
        <time>2016-08-19T08:47:44.000Z</time>
      </trkpt>
      <trkpt lat="45.79632" lon="4.92539">
        <ele>170</ele>
        <time>2016-08-19T08:47:45.000Z</time>
      </trkpt>
      <trkpt lat="45.79634" lon="4.9254">
        <ele>170</ele>
        <time>2016-08-19T08:47:46.000Z</time>
      </trkpt>
      <trkpt lat="45.79636" lon="4.9254">
        <ele>170</ele>
        <time>2016-08-19T08:47:47.000Z</time>
      </trkpt>
      <trkpt lat="45.79639" lon="4.92542">
        <ele>170</ele>
        <time>2016-08-19T08:47:48.000Z</time>
      </trkpt>
      <trkpt lat="45.79641" lon="4.92543">
        <ele>170</ele>
        <time>2016-08-19T08:47:49.000Z</time>
      </trkpt>
      <trkpt lat="45.79644" lon="4.92544">
        <ele>170</ele>
        <time>2016-08-19T08:47:50.000Z</time>
      </trkpt>
      <trkpt lat="45.79647" lon="4.92545">
        <ele>170.19999694824</ele>
        <time>2016-08-19T08:47:51.000Z</time>
      </trkpt>
      <trkpt lat="45.79649" lon="4.92546">
        <ele>170.19999694824</ele>
        <time>2016-08-19T08:47:52.000Z</time>
      </trkpt>
      <trkpt lat="45.79651" lon="4.92547">
        <ele>170.19999694824</ele>
        <time>2016-08-19T08:47:53.000Z</time>
      </trkpt>
      <trkpt lat="45.79653" lon="4.92548">
        <ele>170.19999694824</ele>
        <time>2016-08-19T08:47:54.000Z</time>
      </trkpt>
      <trkpt lat="45.79655" lon="4.92549">
        <ele>170.19999694824</ele>
        <time>2016-08-19T08:47:55.000Z</time>
      </trkpt>
      <trkpt lat="45.79657" lon="4.9255">
        <ele>170.19999694824</ele>
        <time>2016-08-19T08:47:56.000Z</time>
      </trkpt>
      <trkpt lat="45.7966" lon="4.9255">
        <ele>170.19999694824</ele>
        <time>2016-08-19T08:47:57.000Z</time>
      </trkpt>
      <trkpt lat="45.79662" lon="4.92551">
        <ele>170.19999694824</ele>
        <time>2016-08-19T08:47:58.000Z</time>
      </trkpt>
      <trkpt lat="45.79664" lon="4.92552">
        <ele>170.19999694824</ele>
        <time>2016-08-19T08:47:59.000Z</time>
      </trkpt>
      <trkpt lat="45.79666" lon="4.92553">
        <ele>170.19999694824</ele>
        <time>2016-08-19T08:48:00.000Z</time>
      </trkpt>
      <trkpt lat="45.79668" lon="4.92553">
        <ele>170.39999389648</ele>
        <time>2016-08-19T08:48:01.000Z</time>
      </trkpt>
      <trkpt lat="45.7967" lon="4.92554">
        <ele>170.39999389648</ele>
        <time>2016-08-19T08:48:02.000Z</time>
      </trkpt>
      <trkpt lat="45.79672" lon="4.92555">
        <ele>170.39999389648</ele>
        <time>2016-08-19T08:48:03.000Z</time>
      </trkpt>
      <trkpt lat="45.79674" lon="4.92556">
        <ele>170.39999389648</ele>
        <time>2016-08-19T08:48:04.000Z</time>
      </trkpt>
      <trkpt lat="45.79676" lon="4.92557">
        <ele>170.39999389648</ele>
        <time>2016-08-19T08:48:05.000Z</time>
      </trkpt>
      <trkpt lat="45.79678" lon="4.92558">
        <ele>170.39999389648</ele>
        <time>2016-08-19T08:48:06.000Z</time>
      </trkpt>
      <trkpt lat="45.7968" lon="4.92559">
        <ele>170.39999389648</ele>
        <time>2016-08-19T08:48:07.000Z</time>
      </trkpt>
      <trkpt lat="45.79683" lon="4.9256">
        <ele>170.39999389648</ele>
        <time>2016-08-19T08:48:08.000Z</time>
      </trkpt>
      <trkpt lat="45.79685" lon="4.9256">
        <ele>170.39999389648</ele>
        <time>2016-08-19T08:48:09.000Z</time>
      </trkpt>
      <trkpt lat="45.79687" lon="4.92561">
        <ele>170.39999389648</ele>
        <time>2016-08-19T08:48:10.000Z</time>
      </trkpt>
      <trkpt lat="45.79689" lon="4.92562">
        <ele>170.60000610352</ele>
        <time>2016-08-19T08:48:11.000Z</time>
      </trkpt>
      <trkpt lat="45.79691" lon="4.92563">
        <ele>170.60000610352</ele>
        <time>2016-08-19T08:48:12.000Z</time>
      </trkpt>
      <trkpt lat="45.79694" lon="4.92564">
        <ele>170.60000610352</ele>
        <time>2016-08-19T08:48:13.000Z</time>
      </trkpt>
      <trkpt lat="45.79696" lon="4.92565">
        <ele>170.60000610352</ele>
        <time>2016-08-19T08:48:14.000Z</time>
      </trkpt>
      <trkpt lat="45.79698" lon="4.92566">
        <ele>170.60000610352</ele>
        <time>2016-08-19T08:48:15.000Z</time>
      </trkpt>
      <trkpt lat="45.797" lon="4.92567">
        <ele>170.60000610352</ele>
        <time>2016-08-19T08:48:16.000Z</time>
      </trkpt>
      <trkpt lat="45.79703" lon="4.92568">
        <ele>170.60000610352</ele>
        <time>2016-08-19T08:48:17.000Z</time>
      </trkpt>
      <trkpt lat="45.79705" lon="4.9257">
        <ele>170.60000610352</ele>
        <time>2016-08-19T08:48:18.000Z</time>
      </trkpt>
      <trkpt lat="45.79707" lon="4.92571">
        <ele>170.80000305176</ele>
        <time>2016-08-19T08:48:19.000Z</time>
      </trkpt>
      <trkpt lat="45.7971" lon="4.92572">
        <ele>170.80000305176</ele>
        <time>2016-08-19T08:48:20.000Z</time>
      </trkpt>
      <trkpt lat="45.79713" lon="4.92573">
        <ele>170.80000305176</ele>
        <time>2016-08-19T08:48:21.000Z</time>
      </trkpt>
      <trkpt lat="45.79715" lon="4.92574">
        <ele>170.80000305176</ele>
        <time>2016-08-19T08:48:22.000Z</time>
      </trkpt>
      <trkpt lat="45.79718" lon="4.92575">
        <ele>170.80000305176</ele>
        <time>2016-08-19T08:48:23.000Z</time>
      </trkpt>
      <trkpt lat="45.7972" lon="4.92577">
        <ele>170.80000305176</ele>
        <time>2016-08-19T08:48:24.000Z</time>
      </trkpt>
      <trkpt lat="45.79722" lon="4.92578">
        <ele>170.80000305176</ele>
        <time>2016-08-19T08:48:25.000Z</time>
      </trkpt>
      <trkpt lat="45.79725" lon="4.92579">
        <ele>171</ele>
        <time>2016-08-19T08:48:26.000Z</time>
      </trkpt>
      <trkpt lat="45.79727" lon="4.9258">
        <ele>171</ele>
        <time>2016-08-19T08:48:27.000Z</time>
      </trkpt>
      <trkpt lat="45.79729" lon="4.92581">
        <ele>171</ele>
        <time>2016-08-19T08:48:28.000Z</time>
      </trkpt>
      <trkpt lat="45.79731" lon="4.92583">
        <ele>171</ele>
        <time>2016-08-19T08:48:29.000Z</time>
      </trkpt>
      <trkpt lat="45.79733" lon="4.92585">
        <ele>171</ele>
        <time>2016-08-19T08:48:30.000Z</time>
      </trkpt>
      <trkpt lat="45.79735" lon="4.92586">
        <ele>171.19999694824</ele>
        <time>2016-08-19T08:48:31.000Z</time>
      </trkpt>
      <trkpt lat="45.79738" lon="4.92588">
        <ele>171.19999694824</ele>
        <time>2016-08-19T08:48:32.000Z</time>
      </trkpt>
      <trkpt lat="45.7974" lon="4.9259">
        <ele>171.19999694824</ele>
        <time>2016-08-19T08:48:33.000Z</time>
      </trkpt>
      <trkpt lat="45.79742" lon="4.92591">
        <ele>171.19999694824</ele>
        <time>2016-08-19T08:48:34.000Z</time>
      </trkpt>
      <trkpt lat="45.79743" lon="4.92593">
        <ele>171.19999694824</ele>
        <time>2016-08-19T08:48:35.000Z</time>
      </trkpt>
      <trkpt lat="45.79745" lon="4.92594">
        <ele>171.19999694824</ele>
        <time>2016-08-19T08:48:36.000Z</time>
      </trkpt>
      <trkpt lat="45.79747" lon="4.92595">
        <ele>171.39999389648</ele>
        <time>2016-08-19T08:48:37.000Z</time>
      </trkpt>
      <trkpt lat="45.79749" lon="4.92597">
        <ele>171.39999389648</ele>
        <time>2016-08-19T08:48:38.000Z</time>
      </trkpt>
      <trkpt lat="45.79751" lon="4.92598">
        <ele>171.39999389648</ele>
        <time>2016-08-19T08:48:39.000Z</time>
      </trkpt>
      <trkpt lat="45.79753" lon="4.926">
        <ele>171.39999389648</ele>
        <time>2016-08-19T08:48:40.000Z</time>
      </trkpt>
      <trkpt lat="45.79756" lon="4.92602">
        <ele>171.39999389648</ele>
        <time>2016-08-19T08:48:41.000Z</time>
      </trkpt>
      <trkpt lat="45.79758" lon="4.92605">
        <ele>171.60000610352</ele>
        <time>2016-08-19T08:48:42.000Z</time>
      </trkpt>
      <trkpt lat="45.79761" lon="4.92607">
        <ele>171.60000610352</ele>
        <time>2016-08-19T08:48:43.000Z</time>
      </trkpt>
      <trkpt lat="45.79763" lon="4.92609">
        <ele>171.60000610352</ele>
        <time>2016-08-19T08:48:44.000Z</time>
      </trkpt>
      <trkpt lat="45.79765" lon="4.92611">
        <ele>171.60000610352</ele>
        <time>2016-08-19T08:48:45.000Z</time>
      </trkpt>
      <trkpt lat="45.79767" lon="4.92612">
        <ele>171.80000305176</ele>
        <time>2016-08-19T08:48:46.000Z</time>
      </trkpt>
      <trkpt lat="45.79769" lon="4.92614">
        <ele>171.80000305176</ele>
        <time>2016-08-19T08:48:47.000Z</time>
      </trkpt>
      <trkpt lat="45.79771" lon="4.92616">
        <ele>171.80000305176</ele>
        <time>2016-08-19T08:48:48.000Z</time>
      </trkpt>
      <trkpt lat="45.79773" lon="4.92618">
        <ele>171.80000305176</ele>
        <time>2016-08-19T08:48:49.000Z</time>
      </trkpt>
      <trkpt lat="45.79776" lon="4.9262">
        <ele>172</ele>
        <time>2016-08-19T08:48:50.000Z</time>
      </trkpt>
      <trkpt lat="45.79778" lon="4.92622">
        <ele>172</ele>
        <time>2016-08-19T08:48:51.000Z</time>
      </trkpt>
      <trkpt lat="45.7978" lon="4.92624">
        <ele>172</ele>
        <time>2016-08-19T08:48:52.000Z</time>
      </trkpt>
      <trkpt lat="45.79783" lon="4.92625">
        <ele>172</ele>
        <time>2016-08-19T08:48:53.000Z</time>
      </trkpt>
      <trkpt lat="45.79786" lon="4.92627">
        <ele>172</ele>
        <time>2016-08-19T08:48:54.000Z</time>
      </trkpt>
      <trkpt lat="45.79787" lon="4.92628">
        <ele>172.19999694824</ele>
        <time>2016-08-19T08:48:55.000Z</time>
      </trkpt>
      <trkpt lat="45.79789" lon="4.92631">
        <ele>172.19999694824</ele>
        <time>2016-08-19T08:48:56.000Z</time>
      </trkpt>
      <trkpt lat="45.79792" lon="4.92633">
        <ele>172.19999694824</ele>
        <time>2016-08-19T08:48:57.000Z</time>
      </trkpt>
      <trkpt lat="45.79795" lon="4.92636">
        <ele>172.19999694824</ele>
        <time>2016-08-19T08:48:58.000Z</time>
      </trkpt>
      <trkpt lat="45.79797" lon="4.92638">
        <ele>172.39999389648</ele>
        <time>2016-08-19T08:48:59.000Z</time>
      </trkpt>
      <trkpt lat="45.79799" lon="4.92639">
        <ele>172.39999389648</ele>
        <time>2016-08-19T08:49:00.000Z</time>
      </trkpt>
      <trkpt lat="45.79801" lon="4.92641">
        <ele>172.39999389648</ele>
        <time>2016-08-19T08:49:01.000Z</time>
      </trkpt>
      <trkpt lat="45.79804" lon="4.92643">
        <ele>172.39999389648</ele>
        <time>2016-08-19T08:49:02.000Z</time>
      </trkpt>
      <trkpt lat="45.79806" lon="4.92645">
        <ele>172.60000610352</ele>
        <time>2016-08-19T08:49:03.000Z</time>
      </trkpt>
      <trkpt lat="45.79808" lon="4.92648">
        <ele>172.60000610352</ele>
        <time>2016-08-19T08:49:04.000Z</time>
      </trkpt>
      <trkpt lat="45.79811" lon="4.9265">
        <ele>172.60000610352</ele>
        <time>2016-08-19T08:49:05.000Z</time>
      </trkpt>
      <trkpt lat="45.79813" lon="4.92652">
        <ele>172.60000610352</ele>
        <time>2016-08-19T08:49:06.000Z</time>
      </trkpt>
      <trkpt lat="45.79815" lon="4.92655">
        <ele>172.80000305176</ele>
        <time>2016-08-19T08:49:07.000Z</time>
      </trkpt>
      <trkpt lat="45.79817" lon="4.92657">
        <ele>172.80000305176</ele>
        <time>2016-08-19T08:49:08.000Z</time>
      </trkpt>
      <trkpt lat="45.79819" lon="4.92659">
        <ele>172.80000305176</ele>
        <time>2016-08-19T08:49:09.000Z</time>
      </trkpt>
      <trkpt lat="45.79821" lon="4.92661">
        <ele>172.80000305176</ele>
        <time>2016-08-19T08:49:10.000Z</time>
      </trkpt>
      <trkpt lat="45.79823" lon="4.92663">
        <ele>173</ele>
        <time>2016-08-19T08:49:11.000Z</time>
      </trkpt>
      <trkpt lat="45.79825" lon="4.92665">
        <ele>173</ele>
        <time>2016-08-19T08:49:12.000Z</time>
      </trkpt>
      <trkpt lat="45.79828" lon="4.92667">
        <ele>173</ele>
        <time>2016-08-19T08:49:13.000Z</time>
      </trkpt>
      <trkpt lat="45.7983" lon="4.92668">
        <ele>173</ele>
        <time>2016-08-19T08:49:14.000Z</time>
      </trkpt>
      <trkpt lat="45.79833" lon="4.9267">
        <ele>173.19999694824</ele>
        <time>2016-08-19T08:49:15.000Z</time>
      </trkpt>
      <trkpt lat="45.79835" lon="4.92671">
        <ele>173.19999694824</ele>
        <time>2016-08-19T08:49:16.000Z</time>
      </trkpt>
      <trkpt lat="45.79837" lon="4.92672">
        <ele>173.19999694824</ele>
        <time>2016-08-19T08:49:17.000Z</time>
      </trkpt>
      <trkpt lat="45.79839" lon="4.92674">
        <ele>173.19999694824</ele>
        <time>2016-08-19T08:49:18.000Z</time>
      </trkpt>
      <trkpt lat="45.79841" lon="4.92675">
        <ele>173.19999694824</ele>
        <time>2016-08-19T08:49:19.000Z</time>
      </trkpt>
      <trkpt lat="45.79843" lon="4.92677">
        <ele>173.19999694824</ele>
        <time>2016-08-19T08:49:20.000Z</time>
      </trkpt>
      <trkpt lat="45.79845" lon="4.92678">
        <ele>173.19999694824</ele>
        <time>2016-08-19T08:49:21.000Z</time>
      </trkpt>
      <trkpt lat="45.79847" lon="4.92679">
        <ele>173.39999389648</ele>
        <time>2016-08-19T08:49:22.000Z</time>
      </trkpt>
      <trkpt lat="45.79849" lon="4.92681">
        <ele>173.39999389648</ele>
        <time>2016-08-19T08:49:23.000Z</time>
      </trkpt>
      <trkpt lat="45.7985" lon="4.92683">
        <ele>173.39999389648</ele>
        <time>2016-08-19T08:49:24.000Z</time>
      </trkpt>
      <trkpt lat="45.79852" lon="4.92685">
        <ele>173.39999389648</ele>
        <time>2016-08-19T08:49:25.000Z</time>
      </trkpt>
      <trkpt lat="45.79854" lon="4.92686">
        <ele>173.39999389648</ele>
        <time>2016-08-19T08:49:26.000Z</time>
      </trkpt>
      <trkpt lat="45.79855" lon="4.92687">
        <ele>173.60000610352</ele>
        <time>2016-08-19T08:49:27.000Z</time>
      </trkpt>
      <trkpt lat="45.79858" lon="4.92688">
        <ele>173.60000610352</ele>
        <time>2016-08-19T08:49:28.000Z</time>
      </trkpt>
      <trkpt lat="45.79859" lon="4.92689">
        <ele>173.60000610352</ele>
        <time>2016-08-19T08:49:29.000Z</time>
      </trkpt>
      <trkpt lat="45.79861" lon="4.92691">
        <ele>173.60000610352</ele>
        <time>2016-08-19T08:49:30.000Z</time>
      </trkpt>
      <trkpt lat="45.79863" lon="4.92691">
        <ele>173.60000610352</ele>
        <time>2016-08-19T08:49:31.000Z</time>
      </trkpt>
      <trkpt lat="45.79864" lon="4.92691">
        <ele>173.60000610352</ele>
        <time>2016-08-19T08:49:32.000Z</time>
      </trkpt>
      <trkpt lat="45.79866" lon="4.92692">
        <ele>173.60000610352</ele>
        <time>2016-08-19T08:49:33.000Z</time>
      </trkpt>
      <trkpt lat="45.79868" lon="4.92693">
        <ele>173.60000610352</ele>
        <time>2016-08-19T08:49:34.000Z</time>
      </trkpt>
      <trkpt lat="45.7987" lon="4.92694">
        <ele>173.60000610352</ele>
        <time>2016-08-19T08:49:35.000Z</time>
      </trkpt>
      <trkpt lat="45.79872" lon="4.92694">
        <ele>173.60000610352</ele>
        <time>2016-08-19T08:49:36.000Z</time>
      </trkpt>
      <trkpt lat="45.79874" lon="4.92696">
        <ele>173.80000305176</ele>
        <time>2016-08-19T08:49:37.000Z</time>
      </trkpt>
      <trkpt lat="45.79877" lon="4.92697">
        <ele>173.80000305176</ele>
        <time>2016-08-19T08:49:38.000Z</time>
      </trkpt>
      <trkpt lat="45.79878" lon="4.92697">
        <ele>173.80000305176</ele>
        <time>2016-08-19T08:49:39.000Z</time>
      </trkpt>
      <trkpt lat="45.7988" lon="4.92698">
        <ele>173.80000305176</ele>
        <time>2016-08-19T08:49:40.000Z</time>
      </trkpt>
      <trkpt lat="45.79882" lon="4.92699">
        <ele>173.80000305176</ele>
        <time>2016-08-19T08:49:41.000Z</time>
      </trkpt>
      <trkpt lat="45.79884" lon="4.927">
        <ele>174</ele>
        <time>2016-08-19T08:49:42.000Z</time>
      </trkpt>
      <trkpt lat="45.79886" lon="4.92702">
        <ele>174</ele>
        <time>2016-08-19T08:49:43.000Z</time>
      </trkpt>
      <trkpt lat="45.79888" lon="4.92704">
        <ele>174</ele>
        <time>2016-08-19T08:49:44.000Z</time>
      </trkpt>
      <trkpt lat="45.79891" lon="4.92705">
        <ele>174.19999694824</ele>
        <time>2016-08-19T08:49:45.000Z</time>
      </trkpt>
      <trkpt lat="45.79893" lon="4.92706">
        <ele>174.19999694824</ele>
        <time>2016-08-19T08:49:46.000Z</time>
      </trkpt>
      <trkpt lat="45.79895" lon="4.92706">
        <ele>174.39999389648</ele>
        <time>2016-08-19T08:49:47.000Z</time>
      </trkpt>
      <trkpt lat="45.79897" lon="4.92708">
        <ele>174.39999389648</ele>
        <time>2016-08-19T08:49:48.000Z</time>
      </trkpt>
      <trkpt lat="45.79899" lon="4.92709">
        <ele>174.39999389648</ele>
        <time>2016-08-19T08:49:49.000Z</time>
      </trkpt>
      <trkpt lat="45.79901" lon="4.92708">
        <ele>174.60000610352</ele>
        <time>2016-08-19T08:49:50.000Z</time>
      </trkpt>
      <trkpt lat="45.79903" lon="4.92709">
        <ele>174.60000610352</ele>
        <time>2016-08-19T08:49:51.000Z</time>
      </trkpt>
      <trkpt lat="45.79905" lon="4.92709">
        <ele>174.80000305176</ele>
        <time>2016-08-19T08:49:52.000Z</time>
      </trkpt>
      <trkpt lat="45.79906" lon="4.92709">
        <ele>174.80000305176</ele>
        <time>2016-08-19T08:49:53.000Z</time>
      </trkpt>
      <trkpt lat="45.79907" lon="4.92709">
        <ele>174.80000305176</ele>
        <time>2016-08-19T08:49:54.000Z</time>
      </trkpt>
      <trkpt lat="45.7991" lon="4.92709">
        <ele>175</ele>
        <time>2016-08-19T08:49:55.000Z</time>
      </trkpt>
      <trkpt lat="45.79912" lon="4.92709">
        <ele>175</ele>
        <time>2016-08-19T08:49:56.000Z</time>
      </trkpt>
      <trkpt lat="45.79914" lon="4.92709">
        <ele>175.19999694824</ele>
        <time>2016-08-19T08:49:57.000Z</time>
      </trkpt>
      <trkpt lat="45.79917" lon="4.92709">
        <ele>175.39999389648</ele>
        <time>2016-08-19T08:49:58.000Z</time>
      </trkpt>
      <trkpt lat="45.7992" lon="4.9271">
        <ele>175.39999389648</ele>
        <time>2016-08-19T08:49:59.000Z</time>
      </trkpt>
      <trkpt lat="45.79923" lon="4.92711">
        <ele>175.60000610352</ele>
        <time>2016-08-19T08:50:00.000Z</time>
      </trkpt>
      <trkpt lat="45.79925" lon="4.92713">
        <ele>175.60000610352</ele>
        <time>2016-08-19T08:50:01.000Z</time>
      </trkpt>
      <trkpt lat="45.79927" lon="4.92714">
        <ele>175.60000610352</ele>
        <time>2016-08-19T08:50:02.000Z</time>
      </trkpt>
      <trkpt lat="45.79929" lon="4.92715">
        <ele>175.80000305176</ele>
        <time>2016-08-19T08:50:03.000Z</time>
      </trkpt>
      <trkpt lat="45.79931" lon="4.92716">
        <ele>175.80000305176</ele>
        <time>2016-08-19T08:50:04.000Z</time>
      </trkpt>
      <trkpt lat="45.79933" lon="4.92716">
        <ele>176</ele>
        <time>2016-08-19T08:50:05.000Z</time>
      </trkpt>
      <trkpt lat="45.79935" lon="4.92717">
        <ele>176</ele>
        <time>2016-08-19T08:50:06.000Z</time>
      </trkpt>
      <trkpt lat="45.79937" lon="4.92717">
        <ele>176</ele>
        <time>2016-08-19T08:50:07.000Z</time>
      </trkpt>
      <trkpt lat="45.79939" lon="4.92718">
        <ele>176.19999694824</ele>
        <time>2016-08-19T08:50:08.000Z</time>
      </trkpt>
      <trkpt lat="45.7994" lon="4.92719">
        <ele>176.19999694824</ele>
        <time>2016-08-19T08:50:09.000Z</time>
      </trkpt>
      <trkpt lat="45.79942" lon="4.9272">
        <ele>176.19999694824</ele>
        <time>2016-08-19T08:50:10.000Z</time>
      </trkpt>
      <trkpt lat="45.79944" lon="4.92721">
        <ele>176.39999389648</ele>
        <time>2016-08-19T08:50:11.000Z</time>
      </trkpt>
      <trkpt lat="45.79947" lon="4.92722">
        <ele>176.39999389648</ele>
        <time>2016-08-19T08:50:12.000Z</time>
      </trkpt>
      <trkpt lat="45.7995" lon="4.92722">
        <ele>176.60000610352</ele>
        <time>2016-08-19T08:50:13.000Z</time>
      </trkpt>
      <trkpt lat="45.79952" lon="4.92722">
        <ele>176.60000610352</ele>
        <time>2016-08-19T08:50:14.000Z</time>
      </trkpt>
      <trkpt lat="45.79953" lon="4.92722">
        <ele>176.80000305176</ele>
        <time>2016-08-19T08:50:15.000Z</time>
      </trkpt>
      <trkpt lat="45.79955" lon="4.92722">
        <ele>176.80000305176</ele>
        <time>2016-08-19T08:50:16.000Z</time>
      </trkpt>
      <trkpt lat="45.79957" lon="4.92722">
        <ele>177</ele>
        <time>2016-08-19T08:50:17.000Z</time>
      </trkpt>
      <trkpt lat="45.79959" lon="4.92722">
        <ele>177</ele>
        <time>2016-08-19T08:50:18.000Z</time>
      </trkpt>
      <trkpt lat="45.79961" lon="4.92722">
        <ele>177.19999694824</ele>
        <time>2016-08-19T08:50:19.000Z</time>
      </trkpt>
      <trkpt lat="45.79963" lon="4.92723">
        <ele>177.19999694824</ele>
        <time>2016-08-19T08:50:20.000Z</time>
      </trkpt>
      <trkpt lat="45.79966" lon="4.92723">
        <ele>177.39999389648</ele>
        <time>2016-08-19T08:50:21.000Z</time>
      </trkpt>
      <trkpt lat="45.79968" lon="4.92723">
        <ele>177.39999389648</ele>
        <time>2016-08-19T08:50:22.000Z</time>
      </trkpt>
      <trkpt lat="45.7997" lon="4.92722">
        <ele>177.60000610352</ele>
        <time>2016-08-19T08:50:23.000Z</time>
      </trkpt>
      <trkpt lat="45.79973" lon="4.92722">
        <ele>177.60000610352</ele>
        <time>2016-08-19T08:50:24.000Z</time>
      </trkpt>
      <trkpt lat="45.79975" lon="4.92722">
        <ele>177.80000305176</ele>
        <time>2016-08-19T08:50:25.000Z</time>
      </trkpt>
      <trkpt lat="45.79977" lon="4.92721">
        <ele>178</ele>
        <time>2016-08-19T08:50:26.000Z</time>
      </trkpt>
      <trkpt lat="45.7998" lon="4.92721">
        <ele>178</ele>
        <time>2016-08-19T08:50:27.000Z</time>
      </trkpt>
      <trkpt lat="45.79981" lon="4.9272">
        <ele>178.19999694824</ele>
        <time>2016-08-19T08:50:28.000Z</time>
      </trkpt>
      <trkpt lat="45.79983" lon="4.9272">
        <ele>178.19999694824</ele>
        <time>2016-08-19T08:50:29.000Z</time>
      </trkpt>
      <trkpt lat="45.79985" lon="4.92719">
        <ele>178.19999694824</ele>
        <time>2016-08-19T08:50:30.000Z</time>
      </trkpt>
      <trkpt lat="45.79987" lon="4.92719">
        <ele>178.19999694824</ele>
        <time>2016-08-19T08:50:31.000Z</time>
      </trkpt>
      <trkpt lat="45.79989" lon="4.92718">
        <ele>178.19999694824</ele>
        <time>2016-08-19T08:50:32.000Z</time>
      </trkpt>
      <trkpt lat="45.79991" lon="4.92718">
        <ele>178.19999694824</ele>
        <time>2016-08-19T08:50:33.000Z</time>
      </trkpt>
      <trkpt lat="45.79994" lon="4.92718">
        <ele>178.19999694824</ele>
        <time>2016-08-19T08:50:34.000Z</time>
      </trkpt>
      <trkpt lat="45.79996" lon="4.92718">
        <ele>178.19999694824</ele>
        <time>2016-08-19T08:50:35.000Z</time>
      </trkpt>
      <trkpt lat="45.79998" lon="4.92718">
        <ele>178.19999694824</ele>
        <time>2016-08-19T08:50:36.000Z</time>
      </trkpt>
      <trkpt lat="45.80001" lon="4.92718">
        <ele>178.19999694824</ele>
        <time>2016-08-19T08:50:37.000Z</time>
      </trkpt>
      <trkpt lat="45.80003" lon="4.92718">
        <ele>178.19999694824</ele>
        <time>2016-08-19T08:50:38.000Z</time>
      </trkpt>
      <trkpt lat="45.80004" lon="4.92718">
        <ele>178.19999694824</ele>
        <time>2016-08-19T08:50:39.000Z</time>
      </trkpt>
      <trkpt lat="45.80007" lon="4.92717">
        <ele>178.19999694824</ele>
        <time>2016-08-19T08:50:40.000Z</time>
      </trkpt>
      <trkpt lat="45.80009" lon="4.92716">
        <ele>178.19999694824</ele>
        <time>2016-08-19T08:50:41.000Z</time>
      </trkpt>
      <trkpt lat="45.80011" lon="4.92715">
        <ele>178.19999694824</ele>
        <time>2016-08-19T08:50:42.000Z</time>
      </trkpt>
      <trkpt lat="45.80014" lon="4.92714">
        <ele>178.19999694824</ele>
        <time>2016-08-19T08:50:43.000Z</time>
      </trkpt>
      <trkpt lat="45.80017" lon="4.92714">
        <ele>178.19999694824</ele>
        <time>2016-08-19T08:50:44.000Z</time>
      </trkpt>
      <trkpt lat="45.80019" lon="4.92714">
        <ele>178.19999694824</ele>
        <time>2016-08-19T08:50:45.000Z</time>
      </trkpt>
      <trkpt lat="45.80021" lon="4.92713">
        <ele>178.19999694824</ele>
        <time>2016-08-19T08:50:46.000Z</time>
      </trkpt>
      <trkpt lat="45.80023" lon="4.92713">
        <ele>178.19999694824</ele>
        <time>2016-08-19T08:50:47.000Z</time>
      </trkpt>
      <trkpt lat="45.80025" lon="4.92713">
        <ele>178.19999694824</ele>
        <time>2016-08-19T08:50:48.000Z</time>
      </trkpt>
      <trkpt lat="45.80028" lon="4.92713">
        <ele>178.19999694824</ele>
        <time>2016-08-19T08:50:49.000Z</time>
      </trkpt>
      <trkpt lat="45.80032" lon="4.92713">
        <ele>178.19999694824</ele>
        <time>2016-08-19T08:50:50.000Z</time>
      </trkpt>
      <trkpt lat="45.80034" lon="4.92713">
        <ele>178.19999694824</ele>
        <time>2016-08-19T08:50:51.000Z</time>
      </trkpt>
      <trkpt lat="45.80035" lon="4.92712">
        <ele>178.19999694824</ele>
        <time>2016-08-19T08:50:52.000Z</time>
      </trkpt>
      <trkpt lat="45.80038" lon="4.92711">
        <ele>178.19999694824</ele>
        <time>2016-08-19T08:50:53.000Z</time>
      </trkpt>
      <trkpt lat="45.8004" lon="4.92711">
        <ele>178</ele>
        <time>2016-08-19T08:50:54.000Z</time>
      </trkpt>
      <trkpt lat="45.80041" lon="4.9271">
        <ele>178</ele>
        <time>2016-08-19T08:50:55.000Z</time>
      </trkpt>
      <trkpt lat="45.80044" lon="4.92709">
        <ele>178</ele>
        <time>2016-08-19T08:50:56.000Z</time>
      </trkpt>
      <trkpt lat="45.80046" lon="4.92708">
        <ele>178</ele>
        <time>2016-08-19T08:50:57.000Z</time>
      </trkpt>
      <trkpt lat="45.80047" lon="4.92707">
        <ele>178</ele>
        <time>2016-08-19T08:50:58.000Z</time>
      </trkpt>
      <trkpt lat="45.80049" lon="4.92706">
        <ele>178</ele>
        <time>2016-08-19T08:50:59.000Z</time>
      </trkpt>
      <trkpt lat="45.8005" lon="4.92705">
        <ele>178</ele>
        <time>2016-08-19T08:51:00.000Z</time>
      </trkpt>
      <trkpt lat="45.80051" lon="4.92704">
        <ele>178</ele>
        <time>2016-08-19T08:51:01.000Z</time>
      </trkpt>
      <trkpt lat="45.80053" lon="4.92703">
        <ele>178</ele>
        <time>2016-08-19T08:51:02.000Z</time>
      </trkpt>
      <trkpt lat="45.80054" lon="4.92702">
        <ele>178</ele>
        <time>2016-08-19T08:51:03.000Z</time>
      </trkpt>
      <trkpt lat="45.80056" lon="4.92701">
        <ele>178</ele>
        <time>2016-08-19T08:51:04.000Z</time>
      </trkpt>
      <trkpt lat="45.80057" lon="4.92701">
        <ele>178</ele>
        <time>2016-08-19T08:51:05.000Z</time>
      </trkpt>
      <trkpt lat="45.8006" lon="4.927">
        <ele>178</ele>
        <time>2016-08-19T08:51:06.000Z</time>
      </trkpt>
      <trkpt lat="45.80062" lon="4.92699">
        <ele>178</ele>
        <time>2016-08-19T08:51:07.000Z</time>
      </trkpt>
      <trkpt lat="45.80064" lon="4.92698">
        <ele>177.80000305176</ele>
        <time>2016-08-19T08:51:08.000Z</time>
      </trkpt>
      <trkpt lat="45.80067" lon="4.92697">
        <ele>177.80000305176</ele>
        <time>2016-08-19T08:51:09.000Z</time>
      </trkpt>
      <trkpt lat="45.80069" lon="4.92696">
        <ele>177.80000305176</ele>
        <time>2016-08-19T08:51:10.000Z</time>
      </trkpt>
      <trkpt lat="45.8007" lon="4.92694">
        <ele>177.80000305176</ele>
        <time>2016-08-19T08:51:11.000Z</time>
      </trkpt>
      <trkpt lat="45.80072" lon="4.92692">
        <ele>177.80000305176</ele>
        <time>2016-08-19T08:51:12.000Z</time>
      </trkpt>
      <trkpt lat="45.80074" lon="4.92692">
        <ele>177.80000305176</ele>
        <time>2016-08-19T08:51:13.000Z</time>
      </trkpt>
      <trkpt lat="45.80076" lon="4.92691">
        <ele>177.60000610352</ele>
        <time>2016-08-19T08:51:14.000Z</time>
      </trkpt>
      <trkpt lat="45.80078" lon="4.92691">
        <ele>177.60000610352</ele>
        <time>2016-08-19T08:51:15.000Z</time>
      </trkpt>
      <trkpt lat="45.80081" lon="4.9269">
        <ele>177.60000610352</ele>
        <time>2016-08-19T08:51:16.000Z</time>
      </trkpt>
      <trkpt lat="45.80084" lon="4.92688">
        <ele>177.60000610352</ele>
        <time>2016-08-19T08:51:17.000Z</time>
      </trkpt>
      <trkpt lat="45.80087" lon="4.92687">
        <ele>177.39999389648</ele>
        <time>2016-08-19T08:51:18.000Z</time>
      </trkpt>
      <trkpt lat="45.8009" lon="4.92685">
        <ele>177.39999389648</ele>
        <time>2016-08-19T08:51:19.000Z</time>
      </trkpt>
      <trkpt lat="45.80093" lon="4.92684">
        <ele>177.39999389648</ele>
        <time>2016-08-19T08:51:20.000Z</time>
      </trkpt>
      <trkpt lat="45.80096" lon="4.92682">
        <ele>177.39999389648</ele>
        <time>2016-08-19T08:51:21.000Z</time>
      </trkpt>
      <trkpt lat="45.80099" lon="4.92679">
        <ele>177.19999694824</ele>
        <time>2016-08-19T08:51:22.000Z</time>
      </trkpt>
      <trkpt lat="45.80101" lon="4.92676">
        <ele>177.19999694824</ele>
        <time>2016-08-19T08:51:23.000Z</time>
      </trkpt>
      <trkpt lat="45.80105" lon="4.92673">
        <ele>177.19999694824</ele>
        <time>2016-08-19T08:51:24.000Z</time>
      </trkpt>
      <trkpt lat="45.80108" lon="4.9267">
        <ele>177</ele>
        <time>2016-08-19T08:51:25.000Z</time>
      </trkpt>
      <trkpt lat="45.80111" lon="4.92666">
        <ele>176.60000610352</ele>
        <time>2016-08-19T08:51:26.000Z</time>
      </trkpt>
      <trkpt lat="45.80114" lon="4.92663">
        <ele>176.39999389648</ele>
        <time>2016-08-19T08:51:27.000Z</time>
      </trkpt>
      <trkpt lat="45.80116" lon="4.9266">
        <ele>176.19999694824</ele>
        <time>2016-08-19T08:51:28.000Z</time>
      </trkpt>
      <trkpt lat="45.80118" lon="4.92656">
        <ele>176</ele>
        <time>2016-08-19T08:51:29.000Z</time>
      </trkpt>
      <trkpt lat="45.8012" lon="4.92653">
        <ele>175.80000305176</ele>
        <time>2016-08-19T08:51:30.000Z</time>
      </trkpt>
      <trkpt lat="45.80122" lon="4.9265">
        <ele>175.60000610352</ele>
        <time>2016-08-19T08:51:31.000Z</time>
      </trkpt>
      <trkpt lat="45.80124" lon="4.92646">
        <ele>175.39999389648</ele>
        <time>2016-08-19T08:51:32.000Z</time>
      </trkpt>
      <trkpt lat="45.80125" lon="4.92642">
        <ele>175.19999694824</ele>
        <time>2016-08-19T08:51:33.000Z</time>
      </trkpt>
      <trkpt lat="45.80127" lon="4.92639">
        <ele>175</ele>
        <time>2016-08-19T08:51:34.000Z</time>
      </trkpt>
      <trkpt lat="45.80129" lon="4.92635">
        <ele>174.80000305176</ele>
        <time>2016-08-19T08:51:35.000Z</time>
      </trkpt>
      <trkpt lat="45.80131" lon="4.92632">
        <ele>174.60000610352</ele>
        <time>2016-08-19T08:51:36.000Z</time>
      </trkpt>
      <trkpt lat="45.80132" lon="4.92628">
        <ele>174.39999389648</ele>
        <time>2016-08-19T08:51:37.000Z</time>
      </trkpt>
      <trkpt lat="45.80133" lon="4.92624">
        <ele>174.39999389648</ele>
        <time>2016-08-19T08:51:38.000Z</time>
      </trkpt>
      <trkpt lat="45.80134" lon="4.9262">
        <ele>174</ele>
        <time>2016-08-19T08:51:39.000Z</time>
      </trkpt>
      <trkpt lat="45.80136" lon="4.92616">
        <ele>174</ele>
        <time>2016-08-19T08:51:40.000Z</time>
      </trkpt>
      <trkpt lat="45.80137" lon="4.92613">
        <ele>174.19999694824</ele>
        <time>2016-08-19T08:51:41.000Z</time>
      </trkpt>
      <trkpt lat="45.80139" lon="4.9261">
        <ele>174.19999694824</ele>
        <time>2016-08-19T08:51:42.000Z</time>
      </trkpt>
      <trkpt lat="45.80141" lon="4.92606">
        <ele>174.19999694824</ele>
        <time>2016-08-19T08:51:43.000Z</time>
      </trkpt>
      <trkpt lat="45.80143" lon="4.92603">
        <ele>174</ele>
        <time>2016-08-19T08:51:44.000Z</time>
      </trkpt>
      <trkpt lat="45.80144" lon="4.926">
        <ele>174</ele>
        <time>2016-08-19T08:51:45.000Z</time>
      </trkpt>
      <trkpt lat="45.80145" lon="4.92598">
        <ele>174</ele>
        <time>2016-08-19T08:51:46.000Z</time>
      </trkpt>
      <trkpt lat="45.80148" lon="4.92595">
        <ele>174</ele>
        <time>2016-08-19T08:51:47.000Z</time>
      </trkpt>
      <trkpt lat="45.80151" lon="4.92593">
        <ele>174</ele>
        <time>2016-08-19T08:51:48.000Z</time>
      </trkpt>
      <trkpt lat="45.80154" lon="4.92592">
        <ele>173.80000305176</ele>
        <time>2016-08-19T08:51:49.000Z</time>
      </trkpt>
      <trkpt lat="45.80157" lon="4.9259">
        <ele>173.80000305176</ele>
        <time>2016-08-19T08:51:50.000Z</time>
      </trkpt>
      <trkpt lat="45.80159" lon="4.92589">
        <ele>173.60000610352</ele>
        <time>2016-08-19T08:51:51.000Z</time>
      </trkpt>
      <trkpt lat="45.80162" lon="4.92588">
        <ele>173.60000610352</ele>
        <time>2016-08-19T08:51:52.000Z</time>
      </trkpt>
      <trkpt lat="45.80165" lon="4.92588">
        <ele>173.39999389648</ele>
        <time>2016-08-19T08:51:53.000Z</time>
      </trkpt>
      <trkpt lat="45.80171" lon="4.92589">
        <ele>173.19999694824</ele>
        <time>2016-08-19T08:51:54.000Z</time>
      </trkpt>
      <trkpt lat="45.80176" lon="4.92591">
        <ele>173</ele>
        <time>2016-08-19T08:51:55.000Z</time>
      </trkpt>
      <trkpt lat="45.80179" lon="4.92591">
        <ele>173</ele>
        <time>2016-08-19T08:51:56.000Z</time>
      </trkpt>
      <trkpt lat="45.80181" lon="4.92591">
        <ele>172.80000305176</ele>
        <time>2016-08-19T08:51:57.000Z</time>
      </trkpt>
      <trkpt lat="45.80183" lon="4.92592">
        <ele>172.80000305176</ele>
        <time>2016-08-19T08:51:58.000Z</time>
      </trkpt>
      <trkpt lat="45.80185" lon="4.92593">
        <ele>172.80000305176</ele>
        <time>2016-08-19T08:51:59.000Z</time>
      </trkpt>
      <trkpt lat="45.80187" lon="4.92594">
        <ele>172.60000610352</ele>
        <time>2016-08-19T08:52:00.000Z</time>
      </trkpt>
      <trkpt lat="45.80189" lon="4.92595">
        <ele>172.60000610352</ele>
        <time>2016-08-19T08:52:01.000Z</time>
      </trkpt>
      <trkpt lat="45.8019" lon="4.92597">
        <ele>172.39999389648</ele>
        <time>2016-08-19T08:52:02.000Z</time>
      </trkpt>
      <trkpt lat="45.80192" lon="4.92599">
        <ele>172.39999389648</ele>
        <time>2016-08-19T08:52:03.000Z</time>
      </trkpt>
      <trkpt lat="45.80193" lon="4.92601">
        <ele>172.39999389648</ele>
        <time>2016-08-19T08:52:04.000Z</time>
      </trkpt>
      <trkpt lat="45.80194" lon="4.92604">
        <ele>172.19999694824</ele>
        <time>2016-08-19T08:52:05.000Z</time>
      </trkpt>
      <trkpt lat="45.80195" lon="4.92606">
        <ele>172.19999694824</ele>
        <time>2016-08-19T08:52:06.000Z</time>
      </trkpt>
      <trkpt lat="45.80197" lon="4.92609">
        <ele>172</ele>
        <time>2016-08-19T08:52:07.000Z</time>
      </trkpt>
      <trkpt lat="45.80198" lon="4.92612">
        <ele>172</ele>
        <time>2016-08-19T08:52:08.000Z</time>
      </trkpt>
      <trkpt lat="45.80198" lon="4.92615">
        <ele>172</ele>
        <time>2016-08-19T08:52:09.000Z</time>
      </trkpt>
      <trkpt lat="45.80199" lon="4.92619">
        <ele>171.80000305176</ele>
        <time>2016-08-19T08:52:10.000Z</time>
      </trkpt>
      <trkpt lat="45.80199" lon="4.92622">
        <ele>171.80000305176</ele>
        <time>2016-08-19T08:52:11.000Z</time>
      </trkpt>
      <trkpt lat="45.802" lon="4.92625">
        <ele>171.80000305176</ele>
        <time>2016-08-19T08:52:12.000Z</time>
      </trkpt>
      <trkpt lat="45.80201" lon="4.92628">
        <ele>171.80000305176</ele>
        <time>2016-08-19T08:52:13.000Z</time>
      </trkpt>
      <trkpt lat="45.80201" lon="4.92631">
        <ele>171.80000305176</ele>
        <time>2016-08-19T08:52:14.000Z</time>
      </trkpt>
      <trkpt lat="45.80201" lon="4.92633">
        <ele>171.80000305176</ele>
        <time>2016-08-19T08:52:15.000Z</time>
      </trkpt>
      <trkpt lat="45.80201" lon="4.92636">
        <ele>171.80000305176</ele>
        <time>2016-08-19T08:52:16.000Z</time>
      </trkpt>
      <trkpt lat="45.80201" lon="4.92638">
        <ele>172</ele>
        <time>2016-08-19T08:52:17.000Z</time>
      </trkpt>
      <trkpt lat="45.80201" lon="4.92641">
        <ele>172</ele>
        <time>2016-08-19T08:52:18.000Z</time>
      </trkpt>
      <trkpt lat="45.80201" lon="4.92643">
        <ele>172</ele>
        <time>2016-08-19T08:52:19.000Z</time>
      </trkpt>
      <trkpt lat="45.80201" lon="4.92645">
        <ele>172</ele>
        <time>2016-08-19T08:52:20.000Z</time>
      </trkpt>
      <trkpt lat="45.80201" lon="4.92647">
        <ele>172</ele>
        <time>2016-08-19T08:52:21.000Z</time>
      </trkpt>
      <trkpt lat="45.80203" lon="4.9265">
        <ele>172</ele>
        <time>2016-08-19T08:52:22.000Z</time>
      </trkpt>
      <trkpt lat="45.80202" lon="4.92652">
        <ele>172</ele>
        <time>2016-08-19T08:52:23.000Z</time>
      </trkpt>
      <trkpt lat="45.80203" lon="4.92654">
        <ele>172</ele>
        <time>2016-08-19T08:52:24.000Z</time>
      </trkpt>
      <trkpt lat="45.80203" lon="4.92658">
        <ele>172</ele>
        <time>2016-08-19T08:52:25.000Z</time>
      </trkpt>
      <trkpt lat="45.80204" lon="4.92661">
        <ele>172.19999694824</ele>
        <time>2016-08-19T08:52:26.000Z</time>
      </trkpt>
      <trkpt lat="45.80204" lon="4.92665">
        <ele>172.19999694824</ele>
        <time>2016-08-19T08:52:27.000Z</time>
      </trkpt>
      <trkpt lat="45.80206" lon="4.92669">
        <ele>172.19999694824</ele>
        <time>2016-08-19T08:52:28.000Z</time>
      </trkpt>
      <trkpt lat="45.80207" lon="4.92673">
        <ele>172.19999694824</ele>
        <time>2016-08-19T08:52:29.000Z</time>
      </trkpt>
      <trkpt lat="45.80209" lon="4.92677">
        <ele>172</ele>
        <time>2016-08-19T08:52:30.000Z</time>
      </trkpt>
      <trkpt lat="45.80212" lon="4.9268">
        <ele>172</ele>
        <time>2016-08-19T08:52:31.000Z</time>
      </trkpt>
      <trkpt lat="45.80215" lon="4.92684">
        <ele>172</ele>
        <time>2016-08-19T08:52:32.000Z</time>
      </trkpt>
      <trkpt lat="45.80217" lon="4.92688">
        <ele>172</ele>
        <time>2016-08-19T08:52:33.000Z</time>
      </trkpt>
      <trkpt lat="45.80219" lon="4.92692">
        <ele>172</ele>
        <time>2016-08-19T08:52:34.000Z</time>
      </trkpt>
      <trkpt lat="45.80219" lon="4.92695">
        <ele>172</ele>
        <time>2016-08-19T08:52:35.000Z</time>
      </trkpt>
      <trkpt lat="45.8022" lon="4.92698">
        <ele>172</ele>
        <time>2016-08-19T08:52:36.000Z</time>
      </trkpt>
      <trkpt lat="45.80221" lon="4.92701">
        <ele>172</ele>
        <time>2016-08-19T08:52:37.000Z</time>
      </trkpt>
      <trkpt lat="45.80222" lon="4.92704">
        <ele>172</ele>
        <time>2016-08-19T08:52:38.000Z</time>
      </trkpt>
      <trkpt lat="45.80222" lon="4.92708">
        <ele>172</ele>
        <time>2016-08-19T08:52:39.000Z</time>
      </trkpt>
      <trkpt lat="45.80224" lon="4.92712">
        <ele>172</ele>
        <time>2016-08-19T08:52:40.000Z</time>
      </trkpt>
      <trkpt lat="45.80224" lon="4.92716">
        <ele>172</ele>
        <time>2016-08-19T08:52:41.000Z</time>
      </trkpt>
      <trkpt lat="45.80225" lon="4.92721">
        <ele>172</ele>
        <time>2016-08-19T08:52:42.000Z</time>
      </trkpt>
      <trkpt lat="45.80226" lon="4.92725">
        <ele>172</ele>
        <time>2016-08-19T08:52:43.000Z</time>
      </trkpt>
      <trkpt lat="45.80226" lon="4.92728">
        <ele>172</ele>
        <time>2016-08-19T08:52:44.000Z</time>
      </trkpt>
      <trkpt lat="45.80227" lon="4.92732">
        <ele>172</ele>
        <time>2016-08-19T08:52:45.000Z</time>
      </trkpt>
      <trkpt lat="45.80227" lon="4.92735">
        <ele>172</ele>
        <time>2016-08-19T08:52:46.000Z</time>
      </trkpt>
      <trkpt lat="45.80227" lon="4.92739">
        <ele>172</ele>
        <time>2016-08-19T08:52:47.000Z</time>
      </trkpt>
      <trkpt lat="45.80227" lon="4.92742">
        <ele>172</ele>
        <time>2016-08-19T08:52:48.000Z</time>
      </trkpt>
      <trkpt lat="45.80226" lon="4.92746">
        <ele>172</ele>
        <time>2016-08-19T08:52:49.000Z</time>
      </trkpt>
      <trkpt lat="45.80227" lon="4.9275">
        <ele>172</ele>
        <time>2016-08-19T08:52:50.000Z</time>
      </trkpt>
      <trkpt lat="45.80227" lon="4.92753">
        <ele>172</ele>
        <time>2016-08-19T08:52:51.000Z</time>
      </trkpt>
      <trkpt lat="45.80227" lon="4.92757">
        <ele>172</ele>
        <time>2016-08-19T08:52:52.000Z</time>
      </trkpt>
      <trkpt lat="45.80227" lon="4.9276">
        <ele>172</ele>
        <time>2016-08-19T08:52:53.000Z</time>
      </trkpt>
      <trkpt lat="45.80227" lon="4.92764">
        <ele>172</ele>
        <time>2016-08-19T08:52:54.000Z</time>
      </trkpt>
      <trkpt lat="45.80227" lon="4.92767">
        <ele>172</ele>
        <time>2016-08-19T08:52:55.000Z</time>
      </trkpt>
      <trkpt lat="45.80227" lon="4.9277">
        <ele>172</ele>
        <time>2016-08-19T08:52:56.000Z</time>
      </trkpt>
      <trkpt lat="45.80228" lon="4.92774">
        <ele>172</ele>
        <time>2016-08-19T08:52:57.000Z</time>
      </trkpt>
      <trkpt lat="45.80228" lon="4.92777">
        <ele>172</ele>
        <time>2016-08-19T08:52:58.000Z</time>
      </trkpt>
      <trkpt lat="45.80227" lon="4.9278">
        <ele>172</ele>
        <time>2016-08-19T08:52:59.000Z</time>
      </trkpt>
      <trkpt lat="45.80227" lon="4.92783">
        <ele>172</ele>
        <time>2016-08-19T08:53:00.000Z</time>
      </trkpt>
      <trkpt lat="45.80228" lon="4.92787">
        <ele>172</ele>
        <time>2016-08-19T08:53:01.000Z</time>
      </trkpt>
      <trkpt lat="45.80228" lon="4.9279">
        <ele>172</ele>
        <time>2016-08-19T08:53:02.000Z</time>
      </trkpt>
      <trkpt lat="45.80228" lon="4.92793">
        <ele>172</ele>
        <time>2016-08-19T08:53:03.000Z</time>
      </trkpt>
      <trkpt lat="45.80228" lon="4.92796">
        <ele>172.19999694824</ele>
        <time>2016-08-19T08:53:04.000Z</time>
      </trkpt>
      <trkpt lat="45.80228" lon="4.928">
        <ele>172.19999694824</ele>
        <time>2016-08-19T08:53:05.000Z</time>
      </trkpt>
      <trkpt lat="45.80228" lon="4.92803">
        <ele>172.19999694824</ele>
        <time>2016-08-19T08:53:06.000Z</time>
      </trkpt>
      <trkpt lat="45.80228" lon="4.92806">
        <ele>172.19999694824</ele>
        <time>2016-08-19T08:53:07.000Z</time>
      </trkpt>
      <trkpt lat="45.80228" lon="4.9281">
        <ele>172.19999694824</ele>
        <time>2016-08-19T08:53:08.000Z</time>
      </trkpt>
      <trkpt lat="45.80228" lon="4.92813">
        <ele>172.19999694824</ele>
        <time>2016-08-19T08:53:09.000Z</time>
      </trkpt>
      <trkpt lat="45.80229" lon="4.92816">
        <ele>172.19999694824</ele>
        <time>2016-08-19T08:53:10.000Z</time>
      </trkpt>
      <trkpt lat="45.80229" lon="4.92819">
        <ele>172.19999694824</ele>
        <time>2016-08-19T08:53:11.000Z</time>
      </trkpt>
      <trkpt lat="45.80229" lon="4.92822">
        <ele>172.19999694824</ele>
        <time>2016-08-19T08:53:12.000Z</time>
      </trkpt>
      <trkpt lat="45.8023" lon="4.92825">
        <ele>172.19999694824</ele>
        <time>2016-08-19T08:53:13.000Z</time>
      </trkpt>
      <trkpt lat="45.80231" lon="4.92829">
        <ele>172.19999694824</ele>
        <time>2016-08-19T08:53:14.000Z</time>
      </trkpt>
      <trkpt lat="45.80231" lon="4.92833">
        <ele>172.19999694824</ele>
        <time>2016-08-19T08:53:15.000Z</time>
      </trkpt>
      <trkpt lat="45.8023" lon="4.92835">
        <ele>172.19999694824</ele>
        <time>2016-08-19T08:53:16.000Z</time>
      </trkpt>
      <trkpt lat="45.8023" lon="4.92838">
        <ele>172.19999694824</ele>
        <time>2016-08-19T08:53:17.000Z</time>
      </trkpt>
      <trkpt lat="45.80231" lon="4.92841">
        <ele>172.19999694824</ele>
        <time>2016-08-19T08:53:18.000Z</time>
      </trkpt>
      <trkpt lat="45.80231" lon="4.92843">
        <ele>172.19999694824</ele>
        <time>2016-08-19T08:53:19.000Z</time>
      </trkpt>
      <trkpt lat="45.80232" lon="4.92846">
        <ele>172.19999694824</ele>
        <time>2016-08-19T08:53:20.000Z</time>
      </trkpt>
      <trkpt lat="45.80233" lon="4.92849">
        <ele>172.19999694824</ele>
        <time>2016-08-19T08:53:21.000Z</time>
      </trkpt>
      <trkpt lat="45.80234" lon="4.92852">
        <ele>172.19999694824</ele>
        <time>2016-08-19T08:53:22.000Z</time>
      </trkpt>
      <trkpt lat="45.80234" lon="4.92856">
        <ele>172.19999694824</ele>
        <time>2016-08-19T08:53:23.000Z</time>
      </trkpt>
      <trkpt lat="45.80235" lon="4.92859">
        <ele>172.39999389648</ele>
        <time>2016-08-19T08:53:24.000Z</time>
      </trkpt>
      <trkpt lat="45.80235" lon="4.92862">
        <ele>172.39999389648</ele>
        <time>2016-08-19T08:53:25.000Z</time>
      </trkpt>
      <trkpt lat="45.80236" lon="4.92865">
        <ele>172.39999389648</ele>
        <time>2016-08-19T08:53:26.000Z</time>
      </trkpt>
      <trkpt lat="45.80237" lon="4.92868">
        <ele>172.39999389648</ele>
        <time>2016-08-19T08:53:27.000Z</time>
      </trkpt>
      <trkpt lat="45.80237" lon="4.9287">
        <ele>172.39999389648</ele>
        <time>2016-08-19T08:53:28.000Z</time>
      </trkpt>
      <trkpt lat="45.80238" lon="4.92873">
        <ele>172.39999389648</ele>
        <time>2016-08-19T08:53:29.000Z</time>
      </trkpt>
      <trkpt lat="45.80239" lon="4.92877">
        <ele>172.19999694824</ele>
        <time>2016-08-19T08:53:30.000Z</time>
      </trkpt>
      <trkpt lat="45.80239" lon="4.9288">
        <ele>172.19999694824</ele>
        <time>2016-08-19T08:53:31.000Z</time>
      </trkpt>
      <trkpt lat="45.8024" lon="4.92884">
        <ele>172</ele>
        <time>2016-08-19T08:53:32.000Z</time>
      </trkpt>
      <trkpt lat="45.80241" lon="4.92887">
        <ele>171.80000305176</ele>
        <time>2016-08-19T08:53:33.000Z</time>
      </trkpt>
      <trkpt lat="45.80241" lon="4.9289">
        <ele>171.60000610352</ele>
        <time>2016-08-19T08:53:34.000Z</time>
      </trkpt>
      <trkpt lat="45.80241" lon="4.92893">
        <ele>171.60000610352</ele>
        <time>2016-08-19T08:53:35.000Z</time>
      </trkpt>
      <trkpt lat="45.80241" lon="4.92897">
        <ele>171.39999389648</ele>
        <time>2016-08-19T08:53:36.000Z</time>
      </trkpt>
      <trkpt lat="45.80242" lon="4.92901">
        <ele>171.39999389648</ele>
        <time>2016-08-19T08:53:37.000Z</time>
      </trkpt>
      <trkpt lat="45.80242" lon="4.92904">
        <ele>171.19999694824</ele>
        <time>2016-08-19T08:53:38.000Z</time>
      </trkpt>
      <trkpt lat="45.80244" lon="4.92907">
        <ele>171.19999694824</ele>
        <time>2016-08-19T08:53:39.000Z</time>
      </trkpt>
      <trkpt lat="45.80245" lon="4.9291">
        <ele>171.19999694824</ele>
        <time>2016-08-19T08:53:40.000Z</time>
      </trkpt>
      <trkpt lat="45.80246" lon="4.92914">
        <ele>171</ele>
        <time>2016-08-19T08:53:41.000Z</time>
      </trkpt>
      <trkpt lat="45.80247" lon="4.92917">
        <ele>171</ele>
        <time>2016-08-19T08:53:42.000Z</time>
      </trkpt>
      <trkpt lat="45.80248" lon="4.9292">
        <ele>170.80000305176</ele>
        <time>2016-08-19T08:53:43.000Z</time>
      </trkpt>
      <trkpt lat="45.8025" lon="4.92924">
        <ele>170.80000305176</ele>
        <time>2016-08-19T08:53:44.000Z</time>
      </trkpt>
      <trkpt lat="45.80251" lon="4.92927">
        <ele>170.80000305176</ele>
        <time>2016-08-19T08:53:45.000Z</time>
      </trkpt>
      <trkpt lat="45.80252" lon="4.9293">
        <ele>170.60000610352</ele>
        <time>2016-08-19T08:53:46.000Z</time>
      </trkpt>
      <trkpt lat="45.80252" lon="4.92933">
        <ele>170.60000610352</ele>
        <time>2016-08-19T08:53:47.000Z</time>
      </trkpt>
      <trkpt lat="45.80252" lon="4.92936">
        <ele>170.60000610352</ele>
        <time>2016-08-19T08:53:48.000Z</time>
      </trkpt>
      <trkpt lat="45.80253" lon="4.92939">
        <ele>170.39999389648</ele>
        <time>2016-08-19T08:53:49.000Z</time>
      </trkpt>
      <trkpt lat="45.80254" lon="4.92942">
        <ele>170.39999389648</ele>
        <time>2016-08-19T08:53:50.000Z</time>
      </trkpt>
      <trkpt lat="45.80255" lon="4.92944">
        <ele>170.39999389648</ele>
        <time>2016-08-19T08:53:51.000Z</time>
      </trkpt>
      <trkpt lat="45.80257" lon="4.92947">
        <ele>170.19999694824</ele>
        <time>2016-08-19T08:53:52.000Z</time>
      </trkpt>
      <trkpt lat="45.80257" lon="4.9295">
        <ele>170.19999694824</ele>
        <time>2016-08-19T08:53:53.000Z</time>
      </trkpt>
      <trkpt lat="45.80258" lon="4.92954">
        <ele>170</ele>
        <time>2016-08-19T08:53:54.000Z</time>
      </trkpt>
      <trkpt lat="45.80258" lon="4.92957">
        <ele>170</ele>
        <time>2016-08-19T08:53:55.000Z</time>
      </trkpt>
      <trkpt lat="45.80259" lon="4.9296">
        <ele>170</ele>
        <time>2016-08-19T08:53:56.000Z</time>
      </trkpt>
      <trkpt lat="45.8026" lon="4.92963">
        <ele>170</ele>
        <time>2016-08-19T08:53:57.000Z</time>
      </trkpt>
      <trkpt lat="45.80261" lon="4.92966">
        <ele>169.80000305176</ele>
        <time>2016-08-19T08:53:58.000Z</time>
      </trkpt>
      <trkpt lat="45.80262" lon="4.92969">
        <ele>169.80000305176</ele>
        <time>2016-08-19T08:53:59.000Z</time>
      </trkpt>
      <trkpt lat="45.80262" lon="4.92972">
        <ele>169.80000305176</ele>
        <time>2016-08-19T08:54:00.000Z</time>
      </trkpt>
      <trkpt lat="45.80263" lon="4.92976">
        <ele>169.80000305176</ele>
        <time>2016-08-19T08:54:01.000Z</time>
      </trkpt>
      <trkpt lat="45.80263" lon="4.92979">
        <ele>169.80000305176</ele>
        <time>2016-08-19T08:54:02.000Z</time>
      </trkpt>
      <trkpt lat="45.80264" lon="4.92982">
        <ele>169.60000610352</ele>
        <time>2016-08-19T08:54:03.000Z</time>
      </trkpt>
      <trkpt lat="45.80266" lon="4.92986">
        <ele>169.60000610352</ele>
        <time>2016-08-19T08:54:04.000Z</time>
      </trkpt>
      <trkpt lat="45.80267" lon="4.92989">
        <ele>169.60000610352</ele>
        <time>2016-08-19T08:54:05.000Z</time>
      </trkpt>
      <trkpt lat="45.80267" lon="4.92992">
        <ele>169.60000610352</ele>
        <time>2016-08-19T08:54:06.000Z</time>
      </trkpt>
      <trkpt lat="45.80268" lon="4.92995">
        <ele>169.60000610352</ele>
        <time>2016-08-19T08:54:07.000Z</time>
      </trkpt>
      <trkpt lat="45.80268" lon="4.92999">
        <ele>169.60000610352</ele>
        <time>2016-08-19T08:54:08.000Z</time>
      </trkpt>
      <trkpt lat="45.80268" lon="4.93002">
        <ele>169.39999389648</ele>
        <time>2016-08-19T08:54:09.000Z</time>
      </trkpt>
      <trkpt lat="45.80269" lon="4.93006">
        <ele>169.39999389648</ele>
        <time>2016-08-19T08:54:10.000Z</time>
      </trkpt>
      <trkpt lat="45.80268" lon="4.93009">
        <ele>169.60000610352</ele>
        <time>2016-08-19T08:54:11.000Z</time>
      </trkpt>
      <trkpt lat="45.80267" lon="4.93013">
        <ele>169.60000610352</ele>
        <time>2016-08-19T08:54:12.000Z</time>
      </trkpt>
      <trkpt lat="45.80267" lon="4.93016">
        <ele>169.80000305176</ele>
        <time>2016-08-19T08:54:13.000Z</time>
      </trkpt>
      <trkpt lat="45.80268" lon="4.93019">
        <ele>169.80000305176</ele>
        <time>2016-08-19T08:54:14.000Z</time>
      </trkpt>
      <trkpt lat="45.80268" lon="4.93022">
        <ele>169.80000305176</ele>
        <time>2016-08-19T08:54:15.000Z</time>
      </trkpt>
      <trkpt lat="45.80269" lon="4.93026">
        <ele>170</ele>
        <time>2016-08-19T08:54:16.000Z</time>
      </trkpt>
      <trkpt lat="45.8027" lon="4.9303">
        <ele>170</ele>
        <time>2016-08-19T08:54:17.000Z</time>
      </trkpt>
      <trkpt lat="45.80271" lon="4.93033">
        <ele>170</ele>
        <time>2016-08-19T08:54:18.000Z</time>
      </trkpt>
      <trkpt lat="45.80272" lon="4.93036">
        <ele>170</ele>
        <time>2016-08-19T08:54:19.000Z</time>
      </trkpt>
      <trkpt lat="45.80273" lon="4.9304">
        <ele>170.19999694824</ele>
        <time>2016-08-19T08:54:20.000Z</time>
      </trkpt>
      <trkpt lat="45.80273" lon="4.93043">
        <ele>170.19999694824</ele>
        <time>2016-08-19T08:54:21.000Z</time>
      </trkpt>
      <trkpt lat="45.80274" lon="4.93047">
        <ele>170</ele>
        <time>2016-08-19T08:54:22.000Z</time>
      </trkpt>
      <trkpt lat="45.80275" lon="4.9305">
        <ele>170</ele>
        <time>2016-08-19T08:54:23.000Z</time>
      </trkpt>
      <trkpt lat="45.80275" lon="4.93053">
        <ele>170</ele>
        <time>2016-08-19T08:54:24.000Z</time>
      </trkpt>
      <trkpt lat="45.80276" lon="4.93057">
        <ele>169.80000305176</ele>
        <time>2016-08-19T08:54:25.000Z</time>
      </trkpt>
      <trkpt lat="45.80277" lon="4.9306">
        <ele>169.80000305176</ele>
        <time>2016-08-19T08:54:26.000Z</time>
      </trkpt>
      <trkpt lat="45.80278" lon="4.93064">
        <ele>169.60000610352</ele>
        <time>2016-08-19T08:54:27.000Z</time>
      </trkpt>
      <trkpt lat="45.80279" lon="4.93067">
        <ele>169.60000610352</ele>
        <time>2016-08-19T08:54:28.000Z</time>
      </trkpt>
      <trkpt lat="45.8028" lon="4.9307">
        <ele>169.60000610352</ele>
        <time>2016-08-19T08:54:29.000Z</time>
      </trkpt>
      <trkpt lat="45.8028" lon="4.93073">
        <ele>169.60000610352</ele>
        <time>2016-08-19T08:54:30.000Z</time>
      </trkpt>
      <trkpt lat="45.80281" lon="4.93076">
        <ele>169.39999389648</ele>
        <time>2016-08-19T08:54:31.000Z</time>
      </trkpt>
      <trkpt lat="45.80282" lon="4.93079">
        <ele>169.39999389648</ele>
        <time>2016-08-19T08:54:32.000Z</time>
      </trkpt>
      <trkpt lat="45.80282" lon="4.93083">
        <ele>169.39999389648</ele>
        <time>2016-08-19T08:54:33.000Z</time>
      </trkpt>
      <trkpt lat="45.80282" lon="4.93086">
        <ele>169.19999694824</ele>
        <time>2016-08-19T08:54:34.000Z</time>
      </trkpt>
      <trkpt lat="45.80283" lon="4.93089">
        <ele>169.19999694824</ele>
        <time>2016-08-19T08:54:35.000Z</time>
      </trkpt>
      <trkpt lat="45.80283" lon="4.93093">
        <ele>169.19999694824</ele>
        <time>2016-08-19T08:54:36.000Z</time>
      </trkpt>
      <trkpt lat="45.80284" lon="4.93096">
        <ele>169</ele>
        <time>2016-08-19T08:54:37.000Z</time>
      </trkpt>
      <trkpt lat="45.80285" lon="4.93099">
        <ele>169</ele>
        <time>2016-08-19T08:54:38.000Z</time>
      </trkpt>
      <trkpt lat="45.80285" lon="4.93103">
        <ele>169</ele>
        <time>2016-08-19T08:54:39.000Z</time>
      </trkpt>
      <trkpt lat="45.80285" lon="4.93106">
        <ele>169</ele>
        <time>2016-08-19T08:54:40.000Z</time>
      </trkpt>
      <trkpt lat="45.80286" lon="4.9311">
        <ele>169</ele>
        <time>2016-08-19T08:54:41.000Z</time>
      </trkpt>
      <trkpt lat="45.80286" lon="4.93113">
        <ele>169.19999694824</ele>
        <time>2016-08-19T08:54:42.000Z</time>
      </trkpt>
      <trkpt lat="45.80286" lon="4.93117">
        <ele>169.19999694824</ele>
        <time>2016-08-19T08:54:43.000Z</time>
      </trkpt>
      <trkpt lat="45.80286" lon="4.9312">
        <ele>169.19999694824</ele>
        <time>2016-08-19T08:54:44.000Z</time>
      </trkpt>
      <trkpt lat="45.80287" lon="4.93124">
        <ele>169.39999389648</ele>
        <time>2016-08-19T08:54:45.000Z</time>
      </trkpt>
      <trkpt lat="45.80287" lon="4.93127">
        <ele>169.39999389648</ele>
        <time>2016-08-19T08:54:46.000Z</time>
      </trkpt>
      <trkpt lat="45.80287" lon="4.93131">
        <ele>169.39999389648</ele>
        <time>2016-08-19T08:54:47.000Z</time>
      </trkpt>
      <trkpt lat="45.80288" lon="4.93134">
        <ele>169.39999389648</ele>
        <time>2016-08-19T08:54:48.000Z</time>
      </trkpt>
      <trkpt lat="45.80289" lon="4.93137">
        <ele>169.39999389648</ele>
        <time>2016-08-19T08:54:49.000Z</time>
      </trkpt>
      <trkpt lat="45.8029" lon="4.9314">
        <ele>169.19999694824</ele>
        <time>2016-08-19T08:54:50.000Z</time>
      </trkpt>
      <trkpt lat="45.80291" lon="4.93143">
        <ele>169.19999694824</ele>
        <time>2016-08-19T08:54:51.000Z</time>
      </trkpt>
      <trkpt lat="45.80292" lon="4.93146">
        <ele>169.19999694824</ele>
        <time>2016-08-19T08:54:52.000Z</time>
      </trkpt>
      <trkpt lat="45.80294" lon="4.9315">
        <ele>169.19999694824</ele>
        <time>2016-08-19T08:54:53.000Z</time>
      </trkpt>
      <trkpt lat="45.80296" lon="4.93153">
        <ele>169</ele>
        <time>2016-08-19T08:54:54.000Z</time>
      </trkpt>
      <trkpt lat="45.80297" lon="4.93156">
        <ele>169</ele>
        <time>2016-08-19T08:54:55.000Z</time>
      </trkpt>
      <trkpt lat="45.80298" lon="4.9316">
        <ele>169</ele>
        <time>2016-08-19T08:54:56.000Z</time>
      </trkpt>
      <trkpt lat="45.80298" lon="4.93163">
        <ele>169</ele>
        <time>2016-08-19T08:54:57.000Z</time>
      </trkpt>
      <trkpt lat="45.80299" lon="4.93166">
        <ele>169</ele>
        <time>2016-08-19T08:54:58.000Z</time>
      </trkpt>
      <trkpt lat="45.803" lon="4.9317">
        <ele>169</ele>
        <time>2016-08-19T08:54:59.000Z</time>
      </trkpt>
      <trkpt lat="45.80301" lon="4.93173">
        <ele>169</ele>
        <time>2016-08-19T08:55:00.000Z</time>
      </trkpt>
      <trkpt lat="45.80301" lon="4.93176">
        <ele>169</ele>
        <time>2016-08-19T08:55:01.000Z</time>
      </trkpt>
      <trkpt lat="45.80302" lon="4.93179">
        <ele>168.80000305176</ele>
        <time>2016-08-19T08:55:02.000Z</time>
      </trkpt>
      <trkpt lat="45.80303" lon="4.93182">
        <ele>168.80000305176</ele>
        <time>2016-08-19T08:55:03.000Z</time>
      </trkpt>
      <trkpt lat="45.80304" lon="4.93185">
        <ele>168.80000305176</ele>
        <time>2016-08-19T08:55:04.000Z</time>
      </trkpt>
      <trkpt lat="45.80305" lon="4.93188">
        <ele>168.80000305176</ele>
        <time>2016-08-19T08:55:05.000Z</time>
      </trkpt>
      <trkpt lat="45.80305" lon="4.93192">
        <ele>168.80000305176</ele>
        <time>2016-08-19T08:55:06.000Z</time>
      </trkpt>
      <trkpt lat="45.80305" lon="4.93195">
        <ele>168.80000305176</ele>
        <time>2016-08-19T08:55:07.000Z</time>
      </trkpt>
      <trkpt lat="45.80305" lon="4.93198">
        <ele>169</ele>
        <time>2016-08-19T08:55:08.000Z</time>
      </trkpt>
      <trkpt lat="45.80305" lon="4.93201">
        <ele>169</ele>
        <time>2016-08-19T08:55:09.000Z</time>
      </trkpt>
      <trkpt lat="45.80305" lon="4.93204">
        <ele>169</ele>
        <time>2016-08-19T08:55:10.000Z</time>
      </trkpt>
      <trkpt lat="45.80306" lon="4.93208">
        <ele>169</ele>
        <time>2016-08-19T08:55:11.000Z</time>
      </trkpt>
      <trkpt lat="45.80306" lon="4.93211">
        <ele>169.19999694824</ele>
        <time>2016-08-19T08:55:12.000Z</time>
      </trkpt>
      <trkpt lat="45.80307" lon="4.93215">
        <ele>169.39999389648</ele>
        <time>2016-08-19T08:55:13.000Z</time>
      </trkpt>
      <trkpt lat="45.80307" lon="4.93218">
        <ele>169.39999389648</ele>
        <time>2016-08-19T08:55:14.000Z</time>
      </trkpt>
      <trkpt lat="45.80308" lon="4.93221">
        <ele>169.60000610352</ele>
        <time>2016-08-19T08:55:15.000Z</time>
      </trkpt>
      <trkpt lat="45.80308" lon="4.93225">
        <ele>169.80000305176</ele>
        <time>2016-08-19T08:55:16.000Z</time>
      </trkpt>
      <trkpt lat="45.80308" lon="4.93228">
        <ele>170</ele>
        <time>2016-08-19T08:55:17.000Z</time>
      </trkpt>
      <trkpt lat="45.80309" lon="4.93231">
        <ele>170.19999694824</ele>
        <time>2016-08-19T08:55:18.000Z</time>
      </trkpt>
      <trkpt lat="45.80309" lon="4.93235">
        <ele>170.19999694824</ele>
        <time>2016-08-19T08:55:19.000Z</time>
      </trkpt>
      <trkpt lat="45.8031" lon="4.93239">
        <ele>170.39999389648</ele>
        <time>2016-08-19T08:55:20.000Z</time>
      </trkpt>
      <trkpt lat="45.80311" lon="4.93242">
        <ele>170.60000610352</ele>
        <time>2016-08-19T08:55:21.000Z</time>
      </trkpt>
      <trkpt lat="45.80311" lon="4.93245">
        <ele>170.80000305176</ele>
        <time>2016-08-19T08:55:22.000Z</time>
      </trkpt>
      <trkpt lat="45.80312" lon="4.93249">
        <ele>171</ele>
        <time>2016-08-19T08:55:23.000Z</time>
      </trkpt>
      <trkpt lat="45.80313" lon="4.93252">
        <ele>171</ele>
        <time>2016-08-19T08:55:24.000Z</time>
      </trkpt>
      <trkpt lat="45.80313" lon="4.93255">
        <ele>171.19999694824</ele>
        <time>2016-08-19T08:55:25.000Z</time>
      </trkpt>
      <trkpt lat="45.80313" lon="4.93258">
        <ele>171.39999389648</ele>
        <time>2016-08-19T08:55:26.000Z</time>
      </trkpt>
      <trkpt lat="45.80314" lon="4.93262">
        <ele>171.60000610352</ele>
        <time>2016-08-19T08:55:27.000Z</time>
      </trkpt>
      <trkpt lat="45.80314" lon="4.93265">
        <ele>171.60000610352</ele>
        <time>2016-08-19T08:55:28.000Z</time>
      </trkpt>
      <trkpt lat="45.80314" lon="4.93269">
        <ele>171.80000305176</ele>
        <time>2016-08-19T08:55:29.000Z</time>
      </trkpt>
      <trkpt lat="45.80313" lon="4.93272">
        <ele>172</ele>
        <time>2016-08-19T08:55:30.000Z</time>
      </trkpt>
      <trkpt lat="45.80314" lon="4.93275">
        <ele>172.19999694824</ele>
        <time>2016-08-19T08:55:31.000Z</time>
      </trkpt>
      <trkpt lat="45.80314" lon="4.93279">
        <ele>172.39999389648</ele>
        <time>2016-08-19T08:55:32.000Z</time>
      </trkpt>
      <trkpt lat="45.80315" lon="4.93283">
        <ele>172.60000610352</ele>
        <time>2016-08-19T08:55:33.000Z</time>
      </trkpt>
      <trkpt lat="45.80315" lon="4.93286">
        <ele>172.60000610352</ele>
        <time>2016-08-19T08:55:34.000Z</time>
      </trkpt>
      <trkpt lat="45.80315" lon="4.9329">
        <ele>172.80000305176</ele>
        <time>2016-08-19T08:55:35.000Z</time>
      </trkpt>
      <trkpt lat="45.80315" lon="4.93293">
        <ele>172.80000305176</ele>
        <time>2016-08-19T08:55:36.000Z</time>
      </trkpt>
      <trkpt lat="45.80315" lon="4.93297">
        <ele>172.80000305176</ele>
        <time>2016-08-19T08:55:37.000Z</time>
      </trkpt>
      <trkpt lat="45.80315" lon="4.933">
        <ele>172.80000305176</ele>
        <time>2016-08-19T08:55:38.000Z</time>
      </trkpt>
      <trkpt lat="45.80315" lon="4.93303">
        <ele>172.80000305176</ele>
        <time>2016-08-19T08:55:39.000Z</time>
      </trkpt>
      <trkpt lat="45.80315" lon="4.93306">
        <ele>172.60000610352</ele>
        <time>2016-08-19T08:55:40.000Z</time>
      </trkpt>
      <trkpt lat="45.80315" lon="4.93309">
        <ele>172.60000610352</ele>
        <time>2016-08-19T08:55:41.000Z</time>
      </trkpt>
      <trkpt lat="45.80316" lon="4.93312">
        <ele>172.39999389648</ele>
        <time>2016-08-19T08:55:42.000Z</time>
      </trkpt>
      <trkpt lat="45.80316" lon="4.93315">
        <ele>172.39999389648</ele>
        <time>2016-08-19T08:55:43.000Z</time>
      </trkpt>
      <trkpt lat="45.80317" lon="4.93318">
        <ele>172.39999389648</ele>
        <time>2016-08-19T08:55:44.000Z</time>
      </trkpt>
      <trkpt lat="45.80317" lon="4.93321">
        <ele>172.19999694824</ele>
        <time>2016-08-19T08:55:45.000Z</time>
      </trkpt>
      <trkpt lat="45.80318" lon="4.93324">
        <ele>172.19999694824</ele>
        <time>2016-08-19T08:55:46.000Z</time>
      </trkpt>
      <trkpt lat="45.80318" lon="4.93327">
        <ele>172.19999694824</ele>
        <time>2016-08-19T08:55:47.000Z</time>
      </trkpt>
      <trkpt lat="45.80319" lon="4.9333">
        <ele>172</ele>
        <time>2016-08-19T08:55:48.000Z</time>
      </trkpt>
      <trkpt lat="45.8032" lon="4.93334">
        <ele>172</ele>
        <time>2016-08-19T08:55:49.000Z</time>
      </trkpt>
      <trkpt lat="45.8032" lon="4.93337">
        <ele>171.80000305176</ele>
        <time>2016-08-19T08:55:50.000Z</time>
      </trkpt>
      <trkpt lat="45.8032" lon="4.9334">
        <ele>171.80000305176</ele>
        <time>2016-08-19T08:55:51.000Z</time>
      </trkpt>
      <trkpt lat="45.8031" lon="4.93345">
        <ele>171.6</ele>
      </trkpt>
      <trkpt lat="45.80315" lon="4.93371">
        <ele>171.7</ele>
      </trkpt>
      <trkpt lat="45.80319" lon="4.93388">
        <ele>171.7</ele>
      </trkpt>
      <trkpt lat="45.80318" lon="4.93394">
        <ele>171.7</ele>
      </trkpt>
      <trkpt lat="45.80314" lon="4.93401">
        <ele>171.7</ele>
      </trkpt>
      <trkpt lat="45.80313" lon="4.93407">
        <ele>171.7</ele>
      </trkpt>
      <trkpt lat="45.80314" lon="4.93411">
        <ele>171.6</ele>
      </trkpt>
      <trkpt lat="45.80292" lon="4.93422">
        <ele>172.7</ele>
      </trkpt>
      <trkpt lat="45.80277" lon="4.9345">
        <ele>173.1</ele>
      </trkpt>
      <trkpt lat="45.80278" lon="4.93459">
        <ele>173.1</ele>
      </trkpt>
      <trkpt lat="45.80275" lon="4.93471">
        <ele>173.3</ele>
      </trkpt>
      <trkpt lat="45.80273" lon="4.93475">
        <ele>173.5</ele>
      </trkpt>
      <trkpt lat="45.80269" lon="4.93479">
        <ele>173.7</ele>
      </trkpt>
      <trkpt lat="45.80266" lon="4.93481">
        <ele>173.9</ele>
      </trkpt>
      <trkpt lat="45.80258" lon="4.93481">
        <ele>174.2</ele>
      </trkpt>
      <trkpt lat="45.80253" lon="4.93478">
        <ele>174.1</ele>
      </trkpt>
      <trkpt lat="45.80245" lon="4.93488">
        <ele>176.6</ele>
      </trkpt>
      <trkpt lat="45.80235" lon="4.93501">
        <ele>176.8</ele>
      </trkpt>
      <trkpt lat="45.80235" lon="4.93504">
        <ele>176.8</ele>
      </trkpt>
      <trkpt lat="45.80208" lon="4.93536">
        <ele>177.6</ele>
      </trkpt>
      <trkpt lat="45.80178" lon="4.9357">
        <ele>177.3</ele>
      </trkpt>
      <trkpt lat="45.80176" lon="4.93566">
        <ele>177.4</ele>
      </trkpt>
      <trkpt lat="45.80165" lon="4.93578">
        <ele>177.7</ele>
      </trkpt>
      <trkpt lat="45.80119" lon="4.93615">
        <ele>178.1</ele>
      </trkpt>
      <trkpt lat="45.80053" lon="4.93657">
        <ele>178.9</ele>
      </trkpt>
      <trkpt lat="45.80034" lon="4.93664">
        <ele>179.5</ele>
      </trkpt>
      <trkpt lat="45.80022" lon="4.93671">
        <ele>178.8</ele>
      </trkpt>
      <trkpt lat="45.80018" lon="4.93675">
        <ele>178.9</ele>
      </trkpt>
      <trkpt lat="45.80022" lon="4.93686">
        <ele>178.6</ele>
      </trkpt>
      <trkpt lat="45.80014" lon="4.93691">
        <ele>178.8</ele>
      </trkpt>
      <trkpt lat="45.79997" lon="4.93701">
        <ele>179.5</ele>
      </trkpt>
      <trkpt lat="45.79951" lon="4.93736">
        <ele>179</ele>
      </trkpt>
      <trkpt lat="45.79934" lon="4.93744">
        <ele>178.6</ele>
      </trkpt>
      <trkpt lat="45.79895" lon="4.93758">
        <ele>177.6</ele>
      </trkpt>
      <trkpt lat="45.79843" lon="4.93791">
        <ele>177.3</ele>
      </trkpt>
      <trkpt lat="45.79827" lon="4.93806">
        <ele>176.8</ele>
      </trkpt>
      <trkpt lat="45.7982" lon="4.93813">
        <ele>176.9</ele>
      </trkpt>
      <trkpt lat="45.7981" lon="4.93828">
        <ele>177</ele>
      </trkpt>
      <trkpt lat="45.79799" lon="4.93851">
        <ele>177.5</ele>
      </trkpt>
      <trkpt lat="45.79791" lon="4.93875">
        <ele>177.5</ele>
      </trkpt>
      <trkpt lat="45.79788" lon="4.93901">
        <ele>177.5</ele>
      </trkpt>
      <trkpt lat="45.79789" lon="4.93968">
        <ele>176.4</ele>
      </trkpt>
      <trkpt lat="45.79792" lon="4.94051">
        <ele>175.5</ele>
      </trkpt>
      <trkpt lat="45.79794" lon="4.94094">
        <ele>175.4</ele>
      </trkpt>
      <trkpt lat="45.79794" lon="4.94106">
        <ele>175.3</ele>
      </trkpt>
      <trkpt lat="45.79795" lon="4.94118">
        <ele>175.3</ele>
      </trkpt>
      <trkpt lat="45.79798" lon="4.94181">
        <ele>175.3</ele>
      </trkpt>
      <trkpt lat="45.79798" lon="4.94187">
        <ele>175.3</ele>
      </trkpt>
      <trkpt lat="45.79799" lon="4.94205">
        <ele>175.3</ele>
      </trkpt>
      <trkpt lat="45.798" lon="4.94243">
        <ele>175.6</ele>
      </trkpt>
      <trkpt lat="45.798" lon="4.94276">
        <ele>175.7</ele>
      </trkpt>
      <trkpt lat="45.79796" lon="4.94298">
        <ele>175.6</ele>
      </trkpt>
      <trkpt lat="45.79795" lon="4.94304">
        <ele>175.6</ele>
      </trkpt>
      <trkpt lat="45.79798" lon="4.94307">
        <ele>175.6</ele>
      </trkpt>
      <trkpt lat="45.798" lon="4.9431">
        <ele>175.7</ele>
      </trkpt>
      <trkpt lat="45.798" lon="4.94319">
        <ele>175.7</ele>
      </trkpt>
      <trkpt lat="45.79798" lon="4.94324">
        <ele>175.7</ele>
      </trkpt>
      <trkpt lat="45.79799" lon="4.94329">
        <ele>175.7</ele>
      </trkpt>
      <trkpt lat="45.79802" lon="4.94346">
        <ele>175.7</ele>
      </trkpt>
      <trkpt lat="45.79803" lon="4.94355">
        <ele>175.7</ele>
      </trkpt>
      <trkpt lat="45.79804" lon="4.94393">
        <ele>175.6</ele>
      </trkpt>
      <trkpt lat="45.79806" lon="4.9445">
        <ele>174.9</ele>
      </trkpt>
      <trkpt lat="45.79809" lon="4.94529">
        <ele>174.2</ele>
      </trkpt>
      <trkpt lat="45.7981" lon="4.94535">
        <ele>174.3</ele>
      </trkpt>
      <trkpt lat="45.79811" lon="4.94555">
        <ele>174.4</ele>
      </trkpt>
      <trkpt lat="45.79824" lon="4.94871">
        <ele>175.7</ele>
      </trkpt>
      <trkpt lat="45.79815" lon="4.94883">
        <ele>175.5</ele>
      </trkpt>
      <trkpt lat="45.79789" lon="4.94928">
        <ele>174.4</ele>
      </trkpt>
      <trkpt lat="45.7978" lon="4.94942">
        <ele>174.2</ele>
      </trkpt>
      <trkpt lat="45.79788" lon="4.9495">
        <ele>174.3</ele>
      </trkpt>
      <trkpt lat="45.79791" lon="4.94976">
        <ele>174.1</ele>
      </trkpt>
      <trkpt lat="45.79788" lon="4.95048">
        <ele>172.7</ele>
      </trkpt>
      <trkpt lat="45.79795" lon="4.9508">
        <ele>172.4</ele>
      </trkpt>
      <trkpt lat="45.79802" lon="4.95097">
        <ele>172.2</ele>
      </trkpt>
      <trkpt lat="45.79814" lon="4.95119">
        <ele>172.5</ele>
      </trkpt>
      <trkpt lat="45.79816" lon="4.95122">
        <ele>172.6</ele>
      </trkpt>
      <trkpt lat="45.79822" lon="4.95135">
        <ele>172.9</ele>
      </trkpt>
      <trkpt lat="45.79831" lon="4.9516">
        <ele>174.3</ele>
      </trkpt>
      <trkpt lat="45.79837" lon="4.95196">
        <ele>173</ele>
      </trkpt>
      <trkpt lat="45.7984" lon="4.95232">
        <ele>172.6</ele>
      </trkpt>
      <trkpt lat="45.7984" lon="4.95255">
        <ele>172.6</ele>
      </trkpt>
      <trkpt lat="45.79839" lon="4.95305">
        <ele>172.1</ele>
      </trkpt>
      <trkpt lat="45.79836" lon="4.95373">
        <ele>171.7</ele>
      </trkpt>
      <trkpt lat="45.79837" lon="4.95413">
        <ele>171.9</ele>
      </trkpt>
      <trkpt lat="45.79846" lon="4.95523">
        <ele>173.2</ele>
      </trkpt>
      <trkpt lat="45.79847" lon="4.95632">
        <ele>173.9</ele>
      </trkpt>
      <trkpt lat="45.79852" lon="4.95731">
        <ele>174</ele>
      </trkpt>
      <trkpt lat="45.7986" lon="4.95893">
        <ele>171</ele>
      </trkpt>
      <trkpt lat="45.7986" lon="4.96">
        <ele>173.7</ele>
      </trkpt>
      <trkpt lat="45.79864" lon="4.96009">
        <ele>174.6</ele>
      </trkpt>
      <trkpt lat="45.7987" lon="4.96027">
        <ele>174.4</ele>
      </trkpt>
      <trkpt lat="45.79871" lon="4.96035">
        <ele>174.4</ele>
        <extensions>
          <visugpx:TrkExtension xmlns:visugpx="https://www.visugpx.com/editgpx/">
            <visugpx:node>1</visugpx:node>
            </visugpx:TrkExtension>
        </extensions>
      </trkpt>
      <trkpt lat="45.79871" lon="4.96039">
        <ele>174.4</ele>
      </trkpt>
      <trkpt lat="45.79869" lon="4.96056">
        <ele>174.5</ele>
      </trkpt>
      <trkpt lat="45.7987" lon="4.96062">
        <ele>174.5</ele>
      </trkpt>
      <trkpt lat="45.79887" lon="4.96073">
        <ele>173.7</ele>
      </trkpt>
      <trkpt lat="45.79897" lon="4.96084">
        <ele>173.2</ele>
      </trkpt>
      <trkpt lat="45.79883" lon="4.96093">
        <ele>174.2</ele>
      </trkpt>
      <trkpt lat="45.7987" lon="4.96093">
        <ele>175</ele>
      </trkpt>
      <trkpt lat="45.79873" lon="4.96234">
        <ele>174.8</ele>
      </trkpt>
      <trkpt lat="45.79864" lon="4.96232">
        <ele>175.1</ele>
      </trkpt>
      <trkpt lat="45.79816" lon="4.96266">
        <ele>177.6</ele>
      </trkpt>
      <trkpt lat="45.79802" lon="4.9631">
        <ele>177.5</ele>
      </trkpt>
      <trkpt lat="45.79793" lon="4.96359">
        <ele>177.4</ele>
      </trkpt>
      <trkpt lat="45.79786" lon="4.96411">
        <ele>177.9</ele>
      </trkpt>
      <trkpt lat="45.79775" lon="4.9645">
        <ele>177.3</ele>
      </trkpt>
      <trkpt lat="45.79764" lon="4.9647">
        <ele>177</ele>
      </trkpt>
      <trkpt lat="45.79749" lon="4.96471">
        <ele>177.8</ele>
      </trkpt>
      <trkpt lat="45.79733" lon="4.96482">
        <ele>177.6</ele>
      </trkpt>
      <trkpt lat="45.7972" lon="4.96485">
        <ele>177.6</ele>
      </trkpt>
      <trkpt lat="45.79712" lon="4.96484">
        <ele>177.7</ele>
      </trkpt>
      <trkpt lat="45.79704" lon="4.96484">
        <ele>177.7</ele>
      </trkpt>
      <trkpt lat="45.79684" lon="4.96483">
        <ele>177.7</ele>
      </trkpt>
      <trkpt lat="45.79618" lon="4.96482">
        <ele>175.2</ele>
      </trkpt>
      <trkpt lat="45.79596" lon="4.9648">
        <ele>174.7</ele>
      </trkpt>
      <trkpt lat="45.79595" lon="4.96479">
        <ele>174.7</ele>
        <extensions>
          <visugpx:TrkExtension xmlns:visugpx="https://www.visugpx.com/editgpx/">
            <visugpx:node>2</visugpx:node>
            </visugpx:TrkExtension>
        </extensions>
      </trkpt>
      <trkpt lat="45.79585" lon="4.96469">
        <ele>174.6</ele>
      </trkpt>
      <trkpt lat="45.79558" lon="4.96542">
        <ele>174.6</ele>
      </trkpt>
      <trkpt lat="45.79553" lon="4.96554">
        <ele>174.7</ele>
      </trkpt>
      <trkpt lat="45.7955" lon="4.96567">
        <ele>174.7</ele>
      </trkpt>
      <trkpt lat="45.79548" lon="4.9658">
        <ele>174.7</ele>
      </trkpt>
      <trkpt lat="45.79545" lon="4.96588">
        <ele>174.8</ele>
      </trkpt>
      <trkpt lat="45.7954" lon="4.96723">
        <ele>174.8</ele>
      </trkpt>
      <trkpt lat="45.79534" lon="4.96825">
        <ele>175.3</ele>
      </trkpt>
      <trkpt lat="45.79531" lon="4.96844">
        <ele>175.3</ele>
      </trkpt>
      <trkpt lat="45.7951" lon="4.96897">
        <ele>175.1</ele>
      </trkpt>
      <trkpt lat="45.79507" lon="4.96905">
        <ele>175.1</ele>
      </trkpt>
      <trkpt lat="45.79507" lon="4.96915">
        <ele>175.1</ele>
      </trkpt>
      <trkpt lat="45.79509" lon="4.96917">
        <ele>175.1</ele>
      </trkpt>
      <trkpt lat="45.79506" lon="4.96934">
        <ele>175.3</ele>
      </trkpt>
      <trkpt lat="45.79505" lon="4.96951">
        <ele>175.4</ele>
      </trkpt>
      <trkpt lat="45.79503" lon="4.96964">
        <ele>175.6</ele>
      </trkpt>
      <trkpt lat="45.79501" lon="4.96982">
        <ele>175.7</ele>
      </trkpt>
      <trkpt lat="45.79503" lon="4.96983">
        <ele>175.7</ele>
        <extensions>
          <visugpx:TrkExtension xmlns:visugpx="https://www.visugpx.com/editgpx/">
            <visugpx:node>3</visugpx:node>
            </visugpx:TrkExtension>
        </extensions>
      </trkpt>
      <trkpt lat="45.79501" lon="4.96982">
        <ele>175.7</ele>
      </trkpt>
      <trkpt lat="45.795" lon="4.97026">
        <ele>176.3</ele>
      </trkpt>
      <trkpt lat="45.79499" lon="4.97046">
        <ele>175.7</ele>
      </trkpt>
      <trkpt lat="45.79494" lon="4.97075">
        <ele>175.8</ele>
      </trkpt>
      <trkpt lat="45.79491" lon="4.97087">
        <ele>175.9</ele>
      </trkpt>
      <trkpt lat="45.79488" lon="4.97093">
        <ele>175.9</ele>
      </trkpt>
      <trkpt lat="45.7948" lon="4.97101">
        <ele>175.9</ele>
      </trkpt>
      <trkpt lat="45.79312" lon="4.97429">
        <ele>174.8</ele>
      </trkpt>
      <trkpt lat="45.79309" lon="4.97441">
        <ele>174.8</ele>
      </trkpt>
      <trkpt lat="45.79297" lon="4.97442">
        <ele>174.7</ele>
        <extensions>
          <visugpx:TrkExtension xmlns:visugpx="https://www.visugpx.com/editgpx/">
            <visugpx:node>4</visugpx:node>
            </visugpx:TrkExtension>
        </extensions>
      </trkpt>
      <trkpt lat="45.79287" lon="4.97443">
        <ele>174.7</ele>
      </trkpt>
      <trkpt lat="45.79158" lon="4.97452">
        <ele>174</ele>
      </trkpt>
      <trkpt lat="45.79086" lon="4.97455">
        <ele>174</ele>
      </trkpt>
      <trkpt lat="45.79058" lon="4.97453">
        <ele>175.2</ele>
      </trkpt>
      <trkpt lat="45.79047" lon="4.97444">
        <ele>175.3</ele>
      </trkpt>
      <trkpt lat="45.78973" lon="4.97348">
        <ele>175.4</ele>
      </trkpt>
      <trkpt lat="45.78964" lon="4.9734">
        <ele>175.5</ele>
      </trkpt>
      <trkpt lat="45.78955" lon="4.97336">
        <ele>175.5</ele>
      </trkpt>
      <trkpt lat="45.78944" lon="4.97333">
        <ele>175.1</ele>
      </trkpt>
      <trkpt lat="45.78904" lon="4.97333">
        <ele>175.6</ele>
      </trkpt>
      <trkpt lat="45.78827" lon="4.97322">
        <ele>175</ele>
      </trkpt>
      <trkpt lat="45.78807" lon="4.97322">
        <ele>175</ele>
      </trkpt>
      <trkpt lat="45.78793" lon="4.97325">
        <ele>175</ele>
      </trkpt>
      <trkpt lat="45.7878" lon="4.97331">
        <ele>175</ele>
      </trkpt>
      <trkpt lat="45.78774" lon="4.97335">
        <ele>175.2</ele>
        <extensions>
          <visugpx:TrkExtension xmlns:visugpx="https://www.visugpx.com/editgpx/">
            <visugpx:node>5</visugpx:node>
            </visugpx:TrkExtension>
        </extensions>
      </trkpt>
      <trkpt lat="45.7873" lon="4.97364">
        <ele>176.4</ele>
      </trkpt>
      <trkpt lat="45.78652" lon="4.97403">
        <ele>178.1</ele>
      </trkpt>
      <trkpt lat="45.78645" lon="4.97406">
        <ele>178.2</ele>
      </trkpt>
      <trkpt lat="45.78638" lon="4.97421">
        <ele>178.5</ele>
      </trkpt>
      <trkpt lat="45.78594" lon="4.97369">
        <ele>178.5</ele>
      </trkpt>
      <trkpt lat="45.7856" lon="4.97326">
        <ele>178.7</ele>
      </trkpt>
      <trkpt lat="45.78543" lon="4.97309">
        <ele>178.6</ele>
      </trkpt>
      <trkpt lat="45.7854" lon="4.97312">
        <ele>178.6</ele>
      </trkpt>
      <trkpt lat="45.78671" lon="4.97515">
        <ele>179.1</ele>
        <extensions>
          <visugpx:TrkExtension xmlns:visugpx="https://www.visugpx.com/editgpx/">
            <visugpx:node>6</visugpx:node>
            </visugpx:TrkExtension>
        </extensions>
      </trkpt>
      <trkpt lat="45.7869" lon="4.97545">
        <ele>179.2</ele>
      </trkpt>
      <trkpt lat="45.79062" lon="4.98128">
        <ele>182.4</ele>
      </trkpt>
      <trkpt lat="45.79065" lon="4.98134">
        <ele>182.4</ele>
      </trkpt>
      <trkpt lat="45.79265" lon="4.98446">
        <ele>178.1</ele>
      </trkpt>
      <trkpt lat="45.79275" lon="4.98461">
        <ele>178</ele>
      </trkpt>
      <trkpt lat="45.79443" lon="4.98727">
        <ele>178.5</ele>
      </trkpt>
      <trkpt lat="45.79485" lon="4.98796">
        <ele>178.6</ele>
      </trkpt>
      <trkpt lat="45.79513" lon="4.98858">
        <ele>177.7</ele>
      </trkpt>
      <trkpt lat="45.79523" lon="4.98882">
        <ele>177.8</ele>
      </trkpt>
      <trkpt lat="45.79545" lon="4.98955">
        <ele>178.5</ele>
      </trkpt>
      <trkpt lat="45.7956" lon="4.9901">
        <ele>179.5</ele>
      </trkpt>
      <trkpt lat="45.79564" lon="4.99034">
        <ele>179.8</ele>
      </trkpt>
      <trkpt lat="45.79566" lon="4.99072">
        <ele>180.7</ele>
      </trkpt>
      <trkpt lat="45.79566" lon="4.99085">
        <ele>181.2</ele>
      </trkpt>
      <trkpt lat="45.7957" lon="4.99084">
        <ele>181.4</ele>
      </trkpt>
      <trkpt lat="45.79571" lon="4.99084">
        <ele>181.4</ele>
        <extensions>
          <visugpx:TrkExtension xmlns:visugpx="https://www.visugpx.com/editgpx/">
            <visugpx:node>7</visugpx:node>
            </visugpx:TrkExtension>
        </extensions>
      </trkpt>
      <trkpt lat="45.7957" lon="4.99084">
        <ele>181.4</ele>
      </trkpt>
      <trkpt lat="45.79566" lon="4.99085">
        <ele>181.2</ele>
      </trkpt>
      <trkpt lat="45.79558" lon="4.99086">
        <ele>181</ele>
      </trkpt>
      <trkpt lat="45.79473" lon="4.99098">
        <ele>180.2</ele>
      </trkpt>
      <trkpt lat="45.79459" lon="4.99102">
        <ele>180.5</ele>
      </trkpt>
      <trkpt lat="45.79428" lon="4.99113">
        <ele>181</ele>
      </trkpt>
      <trkpt lat="45.7942" lon="4.99116">
        <ele>181.2</ele>
      </trkpt>
      <trkpt lat="45.79395" lon="4.99129">
        <ele>182.8</ele>
      </trkpt>
      <trkpt lat="45.79382" lon="4.99136">
        <ele>183</ele>
      </trkpt>
      <trkpt lat="45.79386" lon="4.9914">
        <ele>183.3</ele>
        <extensions>
          <visugpx:TrkExtension xmlns:visugpx="https://www.visugpx.com/editgpx/">
            <visugpx:node>8</visugpx:node>
            </visugpx:TrkExtension>
        </extensions>
      </trkpt>
      <trkpt lat="45.79382" lon="4.99136">
        <ele>183</ele>
      </trkpt>
      <trkpt lat="45.79395" lon="4.99129">
        <ele>182.8</ele>
      </trkpt>
      <trkpt lat="45.79388" lon="4.99111">
        <ele>181.9</ele>
      </trkpt>
      <trkpt lat="45.79379" lon="4.99094">
        <ele>181.4</ele>
      </trkpt>
      <trkpt lat="45.79328" lon="4.98981">
        <ele>179</ele>
      </trkpt>
      <trkpt lat="45.7932" lon="4.98963">
        <ele>179</ele>
        <extensions>
          <visugpx:TrkExtension xmlns:visugpx="https://www.visugpx.com/editgpx/">
            <visugpx:node>9</visugpx:node>
            </visugpx:TrkExtension>
        </extensions>
      </trkpt>
      <trkpt lat="45.79308" lon="4.98938">
        <ele>179</ele>
      </trkpt>
      <trkpt lat="45.7929" lon="4.98954">
        <ele>179</ele>
      </trkpt>
      <trkpt lat="45.79267" lon="4.98972">
        <ele>179</ele>
      </trkpt>
      <trkpt lat="45.79247" lon="4.98977">
        <ele>179.4</ele>
      </trkpt>
      <trkpt lat="45.79232" lon="4.98989">
        <ele>179.5</ele>
      </trkpt>
      <trkpt lat="45.79218" lon="4.98993">
        <ele>179.8</ele>
      </trkpt>
      <trkpt lat="45.79214" lon="4.98996">
        <ele>179.9</ele>
      </trkpt>
      <trkpt lat="45.79206" lon="4.99018">
        <ele>181.7</ele>
        <extensions>
          <visugpx:TrkExtension xmlns:visugpx="https://www.visugpx.com/editgpx/">
            <visugpx:node>10</visugpx:node>
            </visugpx:TrkExtension>
        </extensions>
      </trkpt>
      <trkpt lat="45.79203" lon="4.99029">
        <ele>181.9</ele>
      </trkpt>
      <trkpt lat="45.79196" lon="4.99019">
        <ele>181.9</ele>
      </trkpt>
      <trkpt lat="45.79182" lon="4.99003">
        <ele>181.9</ele>
      </trkpt>
      <trkpt lat="45.79102" lon="4.98976">
        <ele>181.3</ele>
      </trkpt>
      <trkpt lat="45.79024" lon="4.98945">
        <ele>180.9</ele>
      </trkpt>
      <trkpt lat="45.78969" lon="4.98937">
        <ele>180.9</ele>
      </trkpt>
      <trkpt lat="45.78929" lon="4.98923">
        <ele>180</ele>
      </trkpt>
      <trkpt lat="45.78927" lon="4.98923">
        <ele>179.9</ele>
        <extensions>
          <visugpx:TrkExtension xmlns:visugpx="https://www.visugpx.com/editgpx/">
            <visugpx:node>11</visugpx:node>
            </visugpx:TrkExtension>
        </extensions>
      </trkpt>
      <trkpt lat="45.78865" lon="4.98914">
        <ele>181.6</ele>
      </trkpt>
      <trkpt lat="45.78843" lon="4.98919">
        <ele>184.7</ele>
      </trkpt>
      <trkpt lat="45.78799" lon="4.98926">
        <ele>185</ele>
      </trkpt>
      <trkpt lat="45.78777" lon="4.98925">
        <ele>184.3</ele>
      </trkpt>
      <trkpt lat="45.78769" lon="4.98927">
        <ele>184</ele>
      </trkpt>
      <trkpt lat="45.78763" lon="4.98932">
        <ele>183.9</ele>
      </trkpt>
      <trkpt lat="45.7876" lon="4.98934">
        <ele>183.9</ele>
      </trkpt>
      <trkpt lat="45.78759" lon="4.98938">
        <ele>184.1</ele>
      </trkpt>
      <trkpt lat="45.78755" lon="4.98943">
        <ele>184.3</ele>
      </trkpt>
      <trkpt lat="45.78738" lon="4.98961">
        <ele>183.6</ele>
      </trkpt>
      <trkpt lat="45.78731" lon="4.98964">
        <ele>183.6</ele>
      </trkpt>
      <trkpt lat="45.78711" lon="4.98968">
        <ele>183.6</ele>
      </trkpt>
      <trkpt lat="45.78707" lon="4.98968">
        <ele>183.6</ele>
        <extensions>
          <visugpx:TrkExtension xmlns:visugpx="https://www.visugpx.com/editgpx/">
            <visugpx:node>12</visugpx:node>
            </visugpx:TrkExtension>
        </extensions>
      </trkpt>
      <trkpt lat="45.78702" lon="4.98969">
        <ele>183.6</ele>
      </trkpt>
      <trkpt lat="45.78688" lon="4.98977">
        <ele>183.9</ele>
      </trkpt>
      <trkpt lat="45.78685" lon="4.98976">
        <ele>183.9</ele>
      </trkpt>
      <trkpt lat="45.78681" lon="4.98977">
        <ele>184</ele>
      </trkpt>
      <trkpt lat="45.78618" lon="4.99028">
        <ele>185.9</ele>
      </trkpt>
      <trkpt lat="45.78612" lon="4.99032">
        <ele>185.9</ele>
      </trkpt>
      <trkpt lat="45.78514" lon="4.99062">
        <ele>186</ele>
      </trkpt>
      <trkpt lat="45.78509" lon="4.99062">
        <ele>186.2</ele>
        <extensions>
          <visugpx:TrkExtension xmlns:visugpx="https://www.visugpx.com/editgpx/">
            <visugpx:node>13</visugpx:node>
            </visugpx:TrkExtension>
        </extensions>
      </trkpt>
      <trkpt lat="45.78475" lon="4.99061">
        <ele>185.9</ele>
      </trkpt>
      <trkpt lat="45.78444" lon="4.99048">
        <ele>185.4</ele>
      </trkpt>
      <trkpt lat="45.7842" lon="4.99035">
        <ele>185.1</ele>
      </trkpt>
      <trkpt lat="45.78395" lon="4.99027">
        <ele>186.3</ele>
      </trkpt>
      <trkpt lat="45.78351" lon="4.98999">
        <ele>184.1</ele>
      </trkpt>
      <trkpt lat="45.78331" lon="4.98983">
        <ele>185.2</ele>
      </trkpt>
      <trkpt lat="45.78314" lon="4.98968">
        <ele>184.6</ele>
      </trkpt>
      <trkpt lat="45.7832" lon="4.98958">
        <ele>184.1</ele>
      </trkpt>
      <trkpt lat="45.78329" lon="4.98941">
        <ele>182.7</ele>
      </trkpt>
      <trkpt lat="45.78329" lon="4.98939">
        <ele>182.5</ele>
        <extensions>
          <visugpx:TrkExtension xmlns:visugpx="https://www.visugpx.com/editgpx/">
            <visugpx:node>14</visugpx:node>
            </visugpx:TrkExtension>
        </extensions>
      </trkpt>
      <trkpt lat="45.78331" lon="4.98932">
        <ele>181.7</ele>
      </trkpt>
      <trkpt lat="45.78328" lon="4.98928">
        <ele>181.3</ele>
      </trkpt>
      <trkpt lat="45.78319" lon="4.98916">
        <ele>179.9</ele>
      </trkpt>
      <trkpt lat="45.78288" lon="4.98888">
        <ele>181.1</ele>
      </trkpt>
      <trkpt lat="45.78278" lon="4.98874">
        <ele>181</ele>
      </trkpt>
      <trkpt lat="45.78272" lon="4.98869">
        <ele>181</ele>
      </trkpt>
      <trkpt lat="45.78243" lon="4.98841">
        <ele>181.9</ele>
      </trkpt>
      <trkpt lat="45.78228" lon="4.98832">
        <ele>181.1</ele>
      </trkpt>
      <trkpt lat="45.78186" lon="4.98807">
        <ele>182.5</ele>
      </trkpt>
      <trkpt lat="45.78183" lon="4.98805">
        <ele>182.5</ele>
      </trkpt>
      <trkpt lat="45.78135" lon="4.98777">
        <ele>185.2</ele>
      </trkpt>
      <trkpt lat="45.78121" lon="4.98767">
        <ele>185.8</ele>
        <extensions>
          <visugpx:TrkExtension xmlns:visugpx="https://www.visugpx.com/editgpx/">
            <visugpx:node>15</visugpx:node>
            </visugpx:TrkExtension>
        </extensions>
      </trkpt>
      <trkpt lat="45.7811" lon="4.98759">
        <ele>186.3</ele>
      </trkpt>
      <trkpt lat="45.78068" lon="4.98714">
        <ele>186.5</ele>
      </trkpt>
      <trkpt lat="45.78039" lon="4.98673">
        <ele>186.5</ele>
      </trkpt>
      <trkpt lat="45.7799" lon="4.98605">
        <ele>190.3</ele>
      </trkpt>
      <trkpt lat="45.77984" lon="4.98589">
        <ele>190.3</ele>
      </trkpt>
      <trkpt lat="45.77974" lon="4.98551">
        <ele>187.5</ele>
      </trkpt>
      <trkpt lat="45.77965" lon="4.98526">
        <ele>186.6</ele>
      </trkpt>
      <trkpt lat="45.77959" lon="4.98524">
        <ele>186.9</ele>
        <extensions>
          <visugpx:TrkExtension xmlns:visugpx="https://www.visugpx.com/editgpx/">
            <visugpx:node>16</visugpx:node>
            </visugpx:TrkExtension>
        </extensions>
      </trkpt>
      <trkpt lat="45.77954" lon="4.98522">
        <ele>187.1</ele>
      </trkpt>
      <trkpt lat="45.7794" lon="4.98517">
        <ele>187.9</ele>
      </trkpt>
      <trkpt lat="45.77939" lon="4.98506">
        <ele>188</ele>
      </trkpt>
      <trkpt lat="45.77939" lon="4.985">
        <ele>188</ele>
        <extensions>
          <visugpx:TrkExtension xmlns:visugpx="https://www.visugpx.com/editgpx/">
            <visugpx:node>17</visugpx:node>
            </visugpx:TrkExtension>
        </extensions>
      </trkpt>
      <trkpt lat="45.77939" lon="4.98506">
        <ele>188</ele>
      </trkpt>
      <trkpt lat="45.7794" lon="4.98517">
        <ele>187.9</ele>
      </trkpt>
      <trkpt lat="45.77914" lon="4.98529">
        <ele>190.2</ele>
      </trkpt>
      <trkpt lat="45.77939" lon="4.98656">
        <ele>190.7</ele>
        <extensions>
          <visugpx:TrkExtension xmlns:visugpx="https://www.visugpx.com/editgpx/">
            <visugpx:node>18</visugpx:node>
            </visugpx:TrkExtension>
        </extensions>
      </trkpt>
      <trkpt lat="45.77942" lon="4.9867">
        <ele>191.1</ele>
      </trkpt>
      <trkpt lat="45.77894" lon="4.98689">
        <ele>191.4</ele>
      </trkpt>
      <trkpt lat="45.77899" lon="4.98694">
        <ele>191.4</ele>
      </trkpt>
      <trkpt lat="45.77901" lon="4.98716">
        <ele>191.6</ele>
      </trkpt>
      <trkpt lat="45.77904" lon="4.9877">
        <ele>192.1</ele>
      </trkpt>
      <trkpt lat="45.77849" lon="4.98777">
        <ele>192.2</ele>
        <extensions>
          <visugpx:TrkExtension xmlns:visugpx="https://www.visugpx.com/editgpx/">
            <visugpx:node>19</visugpx:node>
            </visugpx:TrkExtension>
        </extensions>
      </trkpt>
    </trkseg>
  </trk>
</gpx>